<?xml version='1.0' encoding='UTF-8'?><gpx version="1.1" creator="JPX - https://github.com/jenetics/jpx" xmlns="http://www.topografix.com/GPX/1/1"><trk><trkseg><trkpt lat="44.6321594" lon="9.7315739"><ele>609.0</ele><time>2026-04-06T11:53:20.413Z</time></trkpt><trkpt lat="44.6321512" lon="9.7316715"><ele>609.0</ele><time>2026-04-06T11:53:22.413Z</time></trkpt><trkpt lat="44.6322125" lon="9.7317025"><ele>609.0</ele><time>2026-04-06T11:53:38.51Z</time></trkpt><trkpt lat="44.6321449" lon="9.7316986"><ele>609.0</ele><time>2026-04-06T11:54:43.51Z</time></trkpt><trkpt lat="44.6321036" lon="9.7316133"><ele>609.0</ele><time>2026-04-06T11:54:51.509Z</time></trkpt><trkpt lat="44.6321152" lon="9.731519"><ele>609.0</ele><time>2026-04-06T11:54:54.509Z</time></trkpt><trkpt lat="44.6322529" lon="9.7315005"><ele>609.0</ele><time>2026-04-06T11:54:58.509Z</time></trkpt><trkpt lat="44.6323231" lon="9.7315398"><ele>609.0</ele><time>2026-04-06T11:55:00.51Z</time></trkpt><trkpt lat="44.6323921" lon="9.7315832"><ele>609.0</ele><time>2026-04-06T11:55:02.51Z</time></trkpt><trkpt lat="44.632447" lon="9.731631"><ele>609.0</ele><time>2026-04-06T11:55:04.509Z</time></trkpt><trkpt lat="44.6325078" lon="9.731681"><ele>609.0</ele><time>2026-04-06T11:55:07.51Z</time></trkpt><trkpt lat="44.6325861" lon="9.7316907"><ele>609.0</ele><time>2026-04-06T11:55:11.51Z</time></trkpt><trkpt lat="44.6326795" lon="9.73174"><ele>609.0</ele><time>2026-04-06T11:55:13.509Z</time></trkpt><trkpt lat="44.6327429" lon="9.7317703"><ele>609.0</ele><time>2026-04-06T11:55:14.51Z</time></trkpt><trkpt lat="44.6328086" lon="9.7318037"><ele>609.0</ele><time>2026-04-06T11:55:15.509Z</time></trkpt><trkpt lat="44.6328776" lon="9.7318372"><ele>609.0</ele><time>2026-04-06T11:55:16.51Z</time></trkpt><trkpt lat="44.6329723" lon="9.7319181"><ele>609.0</ele><time>2026-04-06T11:55:17.51Z</time></trkpt><trkpt lat="44.633062" lon="9.7319547"><ele>609.0</ele><time>2026-04-06T11:55:18.51Z</time></trkpt><trkpt lat="44.6331508" lon="9.731983"><ele>609.0</ele><time>2026-04-06T11:55:19.508Z</time></trkpt><trkpt lat="44.6332408" lon="9.7319881"><ele>609.0</ele><time>2026-04-06T11:55:20.509Z</time></trkpt><trkpt lat="44.6333166" lon="9.7319818"><ele>609.0</ele><time>2026-04-06T11:55:21.509Z</time></trkpt><trkpt lat="44.6334284" lon="9.7319395"><ele>609.0</ele><time>2026-04-06T11:55:23.508Z</time></trkpt><trkpt lat="44.6334964" lon="9.7318481"><ele>609.0</ele><time>2026-04-06T11:55:24.508Z</time></trkpt><trkpt lat="44.633556" lon="9.7317583"><ele>609.0</ele><time>2026-04-06T11:55:25.509Z</time></trkpt><trkpt lat="44.6336127" lon="9.7316561"><ele>609.0</ele><time>2026-04-06T11:55:26.508Z</time></trkpt><trkpt lat="44.6336546" lon="9.7315073"><ele>609.0</ele><time>2026-04-06T11:55:27.509Z</time></trkpt><trkpt lat="44.6337131" lon="9.731368"><ele>609.0</ele><time>2026-04-06T11:55:28.508Z</time></trkpt><trkpt lat="44.6337851" lon="9.7312551"><ele>609.0</ele><time>2026-04-06T11:55:29.509Z</time></trkpt><trkpt lat="44.6338616" lon="9.7311648"><ele>608.0</ele><time>2026-04-06T11:55:30.509Z</time></trkpt><trkpt lat="44.6339273" lon="9.731101"><ele>607.0</ele><time>2026-04-06T11:55:31.508Z</time></trkpt><trkpt lat="44.6340325" lon="9.7310554"><ele>606.0</ele><time>2026-04-06T11:55:32.509Z</time></trkpt><trkpt lat="44.6341494" lon="9.7310443"><ele>605.0</ele><time>2026-04-06T11:55:33.508Z</time></trkpt><trkpt lat="44.6342511" lon="9.7310289"><ele>604.0</ele><time>2026-04-06T11:55:34.508Z</time></trkpt><trkpt lat="44.6343485" lon="9.7310276"><ele>604.0</ele><time>2026-04-06T11:55:35.508Z</time></trkpt><trkpt lat="44.6344446" lon="9.7310622"><ele>604.0</ele><time>2026-04-06T11:55:36.508Z</time></trkpt><trkpt lat="44.634534" lon="9.7311189"><ele>604.0</ele><time>2026-04-06T11:55:37.508Z</time></trkpt><trkpt lat="44.6346108" lon="9.7311942"><ele>604.0</ele><time>2026-04-06T11:55:38.508Z</time></trkpt><trkpt lat="44.6346883" lon="9.7313"><ele>604.0</ele><time>2026-04-06T11:55:39.508Z</time></trkpt><trkpt lat="44.6347517" lon="9.7313867"><ele>606.25</ele><time>2026-04-06T11:55:40.508Z</time></trkpt><trkpt lat="44.6348167" lon="9.731505"><ele>608.5</ele><time>2026-04-06T11:55:41.508Z</time></trkpt><trkpt lat="44.6348717" lon="9.7316417"><ele>610.75</ele><time>2026-04-06T11:55:42.508Z</time></trkpt><trkpt lat="44.634915" lon="9.731795"><ele>613.0</ele><time>2026-04-06T11:55:43.508Z</time></trkpt><trkpt lat="44.6349383" lon="9.7319867"><ele>613.0</ele><time>2026-04-06T11:55:44.509Z</time></trkpt><trkpt lat="44.634935" lon="9.7321867"><ele>613.0</ele><time>2026-04-06T11:55:45.508Z</time></trkpt><trkpt lat="44.63492" lon="9.7323617"><ele>613.0</ele><time>2026-04-06T11:55:46.509Z</time></trkpt><trkpt lat="44.63492" lon="9.7325383"><ele>613.0</ele><time>2026-04-06T11:55:47.508Z</time></trkpt><trkpt lat="44.6349417" lon="9.732695"><ele>612.4</ele><time>2026-04-06T11:55:48.509Z</time></trkpt><trkpt lat="44.634985" lon="9.7328267"><ele>611.8</ele><time>2026-04-06T11:55:49.508Z</time></trkpt><trkpt lat="44.6350433" lon="9.73293"><ele>611.2</ele><time>2026-04-06T11:55:50.508Z</time></trkpt><trkpt lat="44.635115" lon="9.733"><ele>610.6</ele><time>2026-04-06T11:55:51.509Z</time></trkpt><trkpt lat="44.6351783" lon="9.7330567"><ele>610.0</ele><time>2026-04-06T11:55:52.509Z</time></trkpt><trkpt lat="44.635285" lon="9.73306"><ele>612.5</ele><time>2026-04-06T11:55:53.509Z</time></trkpt><trkpt lat="44.6354067" lon="9.7330517"><ele>615.0</ele><time>2026-04-06T11:55:54.508Z</time></trkpt><trkpt lat="44.6355333" lon="9.73306"><ele>617.5</ele><time>2026-04-06T11:55:55.508Z</time></trkpt><trkpt lat="44.6356533" lon="9.7330667"><ele>620.0</ele><time>2026-04-06T11:55:56.509Z</time></trkpt><trkpt lat="44.63575" lon="9.7331183"><ele>620.0</ele><time>2026-04-06T11:55:57.509Z</time></trkpt><trkpt lat="44.6358283" lon="9.73321"><ele>620.0</ele><time>2026-04-06T11:55:58.509Z</time></trkpt><trkpt lat="44.6359017" lon="9.7333033"><ele>620.0</ele><time>2026-04-06T11:55:59.508Z</time></trkpt><trkpt lat="44.63597" lon="9.7334"><ele>620.0</ele><time>2026-04-06T11:56:00.509Z</time></trkpt><trkpt lat="44.63603" lon="9.73351"><ele>620.0</ele><time>2026-04-06T11:56:01.509Z</time></trkpt><trkpt lat="44.636085" lon="9.7336233"><ele>620.8</ele><time>2026-04-06T11:56:02.508Z</time></trkpt><trkpt lat="44.6361467" lon="9.7337367"><ele>621.6</ele><time>2026-04-06T11:56:03.509Z</time></trkpt><trkpt lat="44.636215" lon="9.7338383"><ele>622.4</ele><time>2026-04-06T11:56:04.508Z</time></trkpt><trkpt lat="44.6362883" lon="9.7339433"><ele>623.2</ele><time>2026-04-06T11:56:05.508Z</time></trkpt><trkpt lat="44.6363633" lon="9.7340317"><ele>624.0</ele><time>2026-04-06T11:56:06.509Z</time></trkpt><trkpt lat="44.636445" lon="9.7341117"><ele>624.0</ele><time>2026-04-06T11:56:07.508Z</time></trkpt><trkpt lat="44.6365417" lon="9.7341583"><ele>624.0</ele><time>2026-04-06T11:56:08.508Z</time></trkpt><trkpt lat="44.6366483" lon="9.7341833"><ele>624.0</ele><time>2026-04-06T11:56:09.509Z</time></trkpt><trkpt lat="44.6367417" lon="9.7341917"><ele>624.0</ele><time>2026-04-06T11:56:10.509Z</time></trkpt><trkpt lat="44.6368333" lon="9.734195"><ele>624.0</ele><time>2026-04-06T11:56:11.508Z</time></trkpt><trkpt lat="44.6369233" lon="9.7342067"><ele>624.8</ele><time>2026-04-06T11:56:12.509Z</time></trkpt><trkpt lat="44.6370033" lon="9.7342533"><ele>625.5999999999999</ele><time>2026-04-06T11:56:13.508Z</time></trkpt><trkpt lat="44.6370733" lon="9.7343267"><ele>626.4</ele><time>2026-04-06T11:56:14.508Z</time></trkpt><trkpt lat="44.6371383" lon="9.7344417"><ele>627.1999999999999</ele><time>2026-04-06T11:56:15.509Z</time></trkpt><trkpt lat="44.6372217" lon="9.7345367"><ele>628.0</ele><time>2026-04-06T11:56:16.508Z</time></trkpt><trkpt lat="44.6372867" lon="9.734705"><ele>628.0</ele><time>2026-04-06T11:56:17.509Z</time></trkpt><trkpt lat="44.6374317" lon="9.7347917"><ele>628.0</ele><time>2026-04-06T11:56:18.508Z</time></trkpt><trkpt lat="44.637565" lon="9.7348783"><ele>628.0</ele><time>2026-04-06T11:56:19.508Z</time></trkpt><trkpt lat="44.6376933" lon="9.7349517"><ele>628.0</ele><time>2026-04-06T11:56:20.508Z</time></trkpt><trkpt lat="44.6377767" lon="9.73506"><ele>628.75</ele><time>2026-04-06T11:56:21.508Z</time></trkpt><trkpt lat="44.637845" lon="9.7352433"><ele>629.5</ele><time>2026-04-06T11:56:22.508Z</time></trkpt><trkpt lat="44.6379" lon="9.7354367"><ele>630.25</ele><time>2026-04-06T11:56:23.508Z</time></trkpt><trkpt lat="44.6379833" lon="9.7355333"><ele>631.0</ele><time>2026-04-06T11:56:24.509Z</time></trkpt><trkpt lat="44.6380983" lon="9.7356117"><ele>631.0</ele><time>2026-04-06T11:56:25.509Z</time></trkpt><trkpt lat="44.6382333" lon="9.7356783"><ele>631.0</ele><time>2026-04-06T11:56:26.509Z</time></trkpt><trkpt lat="44.6384017" lon="9.7357433"><ele>631.0</ele><time>2026-04-06T11:56:27.508Z</time></trkpt><trkpt lat="44.6385667" lon="9.7357983"><ele>636.0</ele><time>2026-04-06T11:56:28.509Z</time></trkpt><trkpt lat="44.638735" lon="9.73586"><ele>641.0</ele><time>2026-04-06T11:56:29.509Z</time></trkpt><trkpt lat="44.638875" lon="9.7359217"><ele>646.0</ele><time>2026-04-06T11:56:30.509Z</time></trkpt><trkpt lat="44.6390033" lon="9.7360167"><ele>643.5</ele><time>2026-04-06T11:56:31.509Z</time></trkpt><trkpt lat="44.6391067" lon="9.736155"><ele>641.0</ele><time>2026-04-06T11:56:32.508Z</time></trkpt><trkpt lat="44.6391883" lon="9.73634"><ele>638.5</ele><time>2026-04-06T11:56:33.509Z</time></trkpt><trkpt lat="44.6392733" lon="9.7365117"><ele>636.0</ele><time>2026-04-06T11:56:34.508Z</time></trkpt><trkpt lat="44.6393467" lon="9.7366817"><ele>636.0</ele><time>2026-04-06T11:56:35.508Z</time></trkpt><trkpt lat="44.6393983" lon="9.736855"><ele>636.0</ele><time>2026-04-06T11:56:36.508Z</time></trkpt><trkpt lat="44.6394267" lon="9.7370467"><ele>636.0</ele><time>2026-04-06T11:56:37.509Z</time></trkpt><trkpt lat="44.6394317" lon="9.737245"><ele>636.0</ele><time>2026-04-06T11:56:38.508Z</time></trkpt><trkpt lat="44.6394617" lon="9.737445"><ele>639.0</ele><time>2026-04-06T11:56:39.508Z</time></trkpt><trkpt lat="44.6395033" lon="9.7376317"><ele>642.0</ele><time>2026-04-06T11:56:40.508Z</time></trkpt><trkpt lat="44.63957" lon="9.7378017"><ele>645.0</ele><time>2026-04-06T11:56:41.508Z</time></trkpt><trkpt lat="44.6396617" lon="9.737985"><ele>648.0</ele><time>2026-04-06T11:56:42.508Z</time></trkpt><trkpt lat="44.6397483" lon="9.73816"><ele>648.0</ele><time>2026-04-06T11:56:43.508Z</time></trkpt><trkpt lat="44.639825" lon="9.7383517"><ele>648.0</ele><time>2026-04-06T11:56:44.508Z</time></trkpt><trkpt lat="44.63989" lon="9.7385383"><ele>648.0</ele><time>2026-04-06T11:56:45.508Z</time></trkpt><trkpt lat="44.6399567" lon="9.738735"><ele>647.0</ele><time>2026-04-06T11:56:46.509Z</time></trkpt><trkpt lat="44.6400083" lon="9.73887"><ele>646.0</ele><time>2026-04-06T11:56:47.508Z</time></trkpt><trkpt lat="44.6400717" lon="9.738975"><ele>645.0</ele><time>2026-04-06T11:56:48.508Z</time></trkpt><trkpt lat="44.6401433" lon="9.7390117"><ele>644.0</ele><time>2026-04-06T11:56:49.509Z</time></trkpt><trkpt lat="44.6402183" lon="9.7390217"><ele>643.0</ele><time>2026-04-06T11:56:50.508Z</time></trkpt><trkpt lat="44.6403133" lon="9.7389383"><ele>641.75</ele><time>2026-04-06T11:56:51.509Z</time></trkpt><trkpt lat="44.6403933" lon="9.7388517"><ele>640.5</ele><time>2026-04-06T11:56:52.508Z</time></trkpt><trkpt lat="44.6404833" lon="9.7387367"><ele>639.25</ele><time>2026-04-06T11:56:53.508Z</time></trkpt><trkpt lat="44.6405733" lon="9.738625"><ele>638.0</ele><time>2026-04-06T11:56:54.508Z</time></trkpt><trkpt lat="44.640675" lon="9.7385183"><ele>641.0</ele><time>2026-04-06T11:56:55.509Z</time></trkpt><trkpt lat="44.6407833" lon="9.738395"><ele>644.0</ele><time>2026-04-06T11:56:56.508Z</time></trkpt><trkpt lat="44.64089" lon="9.7382633"><ele>647.0</ele><time>2026-04-06T11:56:57.508Z</time></trkpt><trkpt lat="44.64099" lon="9.7381383"><ele>650.0</ele><time>2026-04-06T11:56:58.509Z</time></trkpt><trkpt lat="44.641095" lon="9.7380033"><ele>649.25</ele><time>2026-04-06T11:56:59.509Z</time></trkpt><trkpt lat="44.6411633" lon="9.7378533"><ele>648.5</ele><time>2026-04-06T11:57:00.509Z</time></trkpt><trkpt lat="44.6412083" lon="9.7376967"><ele>647.75</ele><time>2026-04-06T11:57:01.509Z</time></trkpt><trkpt lat="44.6412217" lon="9.7375317"><ele>647.0</ele><time>2026-04-06T11:57:02.508Z</time></trkpt><trkpt lat="44.6412333" lon="9.73736"><ele>647.0</ele><time>2026-04-06T11:57:03.508Z</time></trkpt><trkpt lat="44.6412633" lon="9.7371817"><ele>647.0</ele><time>2026-04-06T11:57:04.508Z</time></trkpt><trkpt lat="44.6413167" lon="9.7370067"><ele>647.0</ele><time>2026-04-06T11:57:05.509Z</time></trkpt><trkpt lat="44.6414017" lon="9.73684"><ele>647.0</ele><time>2026-04-06T11:57:06.508Z</time></trkpt><trkpt lat="44.641515" lon="9.7366933"><ele>651.0</ele><time>2026-04-06T11:57:07.508Z</time></trkpt><trkpt lat="44.6416567" lon="9.7365417"><ele>655.0</ele><time>2026-04-06T11:57:08.509Z</time></trkpt><trkpt lat="44.6417683" lon="9.7363867"><ele>659.0</ele><time>2026-04-06T11:57:09.509Z</time></trkpt><trkpt lat="44.64192" lon="9.7362367"><ele>659.25</ele><time>2026-04-06T11:57:10.508Z</time></trkpt><trkpt lat="44.6420367" lon="9.7360983"><ele>659.5</ele><time>2026-04-06T11:57:11.509Z</time></trkpt><trkpt lat="44.6421383" lon="9.7359783"><ele>659.75</ele><time>2026-04-06T11:57:12.508Z</time></trkpt><trkpt lat="44.6421933" lon="9.7358117"><ele>660.0</ele><time>2026-04-06T11:57:13.508Z</time></trkpt><trkpt lat="44.64223" lon="9.735655"><ele>660.0</ele><time>2026-04-06T11:57:14.508Z</time></trkpt><trkpt lat="44.6422733" lon="9.735545"><ele>660.0</ele><time>2026-04-06T11:57:15.509Z</time></trkpt><trkpt lat="44.6423617" lon="9.7354333"><ele>660.0</ele><time>2026-04-06T11:57:17.508Z</time></trkpt><trkpt lat="44.642435" lon="9.7354217"><ele>660.0</ele><time>2026-04-06T11:57:18.509Z</time></trkpt><trkpt lat="44.6425283" lon="9.7354817"><ele>660.0</ele><time>2026-04-06T11:57:19.509Z</time></trkpt><trkpt lat="44.6426183" lon="9.7355467"><ele>660.0</ele><time>2026-04-06T11:57:20.508Z</time></trkpt><trkpt lat="44.642735" lon="9.7356283"><ele>660.0</ele><time>2026-04-06T11:57:21.508Z</time></trkpt><trkpt lat="44.6428733" lon="9.7357367"><ele>660.0</ele><time>2026-04-06T11:57:22.509Z</time></trkpt><trkpt lat="44.6429917" lon="9.7358667"><ele>660.0</ele><time>2026-04-06T11:57:23.508Z</time></trkpt><trkpt lat="44.6431133" lon="9.7360117"><ele>659.75</ele><time>2026-04-06T11:57:24.509Z</time></trkpt><trkpt lat="44.6432233" lon="9.7362083"><ele>659.5</ele><time>2026-04-06T11:57:25.509Z</time></trkpt><trkpt lat="44.6432833" lon="9.736335"><ele>659.25</ele><time>2026-04-06T11:57:26.509Z</time></trkpt><trkpt lat="44.6433567" lon="9.7363917"><ele>659.0</ele><time>2026-04-06T11:57:27.509Z</time></trkpt><trkpt lat="44.6434667" lon="9.73636"><ele>659.0</ele><time>2026-04-06T11:57:28.508Z</time></trkpt><trkpt lat="44.6435833" lon="9.7362817"><ele>659.0</ele><time>2026-04-06T11:57:29.508Z</time></trkpt><trkpt lat="44.643685" lon="9.7361733"><ele>659.0</ele><time>2026-04-06T11:57:30.508Z</time></trkpt><trkpt lat="44.64381" lon="9.7360483"><ele>659.0</ele><time>2026-04-06T11:57:31.508Z</time></trkpt><trkpt lat="44.643905" lon="9.7358983"><ele>661.6666666666666</ele><time>2026-04-06T11:57:32.508Z</time></trkpt><trkpt lat="44.644015" lon="9.7357583"><ele>664.3333333333334</ele><time>2026-04-06T11:57:33.508Z</time></trkpt><trkpt lat="44.6441267" lon="9.7356033"><ele>667.0</ele><time>2026-04-06T11:57:34.508Z</time></trkpt><trkpt lat="44.64424" lon="9.7354517"><ele>667.0</ele><time>2026-04-06T11:57:35.509Z</time></trkpt><trkpt lat="44.6443417" lon="9.7352917"><ele>667.0</ele><time>2026-04-06T11:57:36.508Z</time></trkpt><trkpt lat="44.6444267" lon="9.735115"><ele>667.0</ele><time>2026-04-06T11:57:37.508Z</time></trkpt><trkpt lat="44.6445" lon="9.734925"><ele>669.0</ele><time>2026-04-06T11:57:38.508Z</time></trkpt><trkpt lat="44.6445767" lon="9.7347283"><ele>671.0</ele><time>2026-04-06T11:57:39.509Z</time></trkpt><trkpt lat="44.6446567" lon="9.7345383"><ele>673.0</ele><time>2026-04-06T11:57:40.508Z</time></trkpt><trkpt lat="44.6447367" lon="9.7343833"><ele>676.5</ele><time>2026-04-06T11:57:41.509Z</time></trkpt><trkpt lat="44.64482" lon="9.7342417"><ele>680.0</ele><time>2026-04-06T11:57:42.508Z</time></trkpt><trkpt lat="44.6449117" lon="9.7341217"><ele>683.5</ele><time>2026-04-06T11:57:43.508Z</time></trkpt><trkpt lat="44.6450133" lon="9.7340367"><ele>687.0</ele><time>2026-04-06T11:57:44.509Z</time></trkpt><trkpt lat="44.645135" lon="9.7339917"><ele>687.0</ele><time>2026-04-06T11:57:45.509Z</time></trkpt><trkpt lat="44.64525" lon="9.733975"><ele>687.0</ele><time>2026-04-06T11:57:46.508Z</time></trkpt><trkpt lat="44.6453833" lon="9.73397"><ele>687.0</ele><time>2026-04-06T11:57:47.508Z</time></trkpt><trkpt lat="44.6455217" lon="9.7339933"><ele>687.0</ele><time>2026-04-06T11:57:48.509Z</time></trkpt><trkpt lat="44.6456667" lon="9.7340467"><ele>688.3333333333334</ele><time>2026-04-06T11:57:49.508Z</time></trkpt><trkpt lat="44.6458033" lon="9.734135"><ele>689.6666666666667</ele><time>2026-04-06T11:57:50.508Z</time></trkpt><trkpt lat="44.6459333" lon="9.734245"><ele>691.0</ele><time>2026-04-06T11:57:51.509Z</time></trkpt><trkpt lat="44.6460633" lon="9.7343933"><ele>692.25</ele><time>2026-04-06T11:57:52.508Z</time></trkpt><trkpt lat="44.6461783" lon="9.73456"><ele>693.5</ele><time>2026-04-06T11:57:53.508Z</time></trkpt><trkpt lat="44.64628" lon="9.7347167"><ele>694.75</ele><time>2026-04-06T11:57:54.508Z</time></trkpt><trkpt lat="44.6463533" lon="9.7348717"><ele>696.0</ele><time>2026-04-06T11:57:55.508Z</time></trkpt><trkpt lat="44.64639" lon="9.7350483"><ele>694.5</ele><time>2026-04-06T11:57:56.508Z</time></trkpt><trkpt lat="44.6463917" lon="9.735225"><ele>693.0</ele><time>2026-04-06T11:57:57.508Z</time></trkpt><trkpt lat="44.6463883" lon="9.7353983"><ele>691.5</ele><time>2026-04-06T11:57:58.508Z</time></trkpt><trkpt lat="44.6464333" lon="9.7355317"><ele>690.0</ele><time>2026-04-06T11:57:59.508Z</time></trkpt><trkpt lat="44.6464983" lon="9.7356567"><ele>690.0</ele><time>2026-04-06T11:58:00.509Z</time></trkpt><trkpt lat="44.6466033" lon="9.7357817"><ele>690.0</ele><time>2026-04-06T11:58:01.508Z</time></trkpt><trkpt lat="44.6467133" lon="9.73589"><ele>690.0</ele><time>2026-04-06T11:58:02.509Z</time></trkpt><trkpt lat="44.6468183" lon="9.7359833"><ele>690.0</ele><time>2026-04-06T11:58:03.509Z</time></trkpt><trkpt lat="44.6469267" lon="9.7360433"><ele>689.25</ele><time>2026-04-06T11:58:04.508Z</time></trkpt><trkpt lat="44.6470333" lon="9.7360667"><ele>688.5</ele><time>2026-04-06T11:58:05.509Z</time></trkpt><trkpt lat="44.647105" lon="9.7360383"><ele>687.75</ele><time>2026-04-06T11:58:06.508Z</time></trkpt><trkpt lat="44.6472167" lon="9.7359183"><ele>687.0</ele><time>2026-04-06T11:58:07.508Z</time></trkpt><trkpt lat="44.647315" lon="9.7357967"><ele>687.0</ele><time>2026-04-06T11:58:08.508Z</time></trkpt><trkpt lat="44.6474333" lon="9.7356867"><ele>687.0</ele><time>2026-04-06T11:58:09.509Z</time></trkpt><trkpt lat="44.6475633" lon="9.735585"><ele>687.0</ele><time>2026-04-06T11:58:10.509Z</time></trkpt><trkpt lat="44.64771" lon="9.7355183"><ele>687.0</ele><time>2026-04-06T11:58:11.508Z</time></trkpt><trkpt lat="44.64787" lon="9.735465"><ele>685.6666666666666</ele><time>2026-04-06T11:58:12.509Z</time></trkpt><trkpt lat="44.648035" lon="9.73541"><ele>684.3333333333333</ele><time>2026-04-06T11:58:13.509Z</time></trkpt><trkpt lat="44.6482033" lon="9.7353783"><ele>683.0</ele><time>2026-04-06T11:58:14.508Z</time></trkpt><trkpt lat="44.6483767" lon="9.7353517"><ele>683.0</ele><time>2026-04-06T11:58:15.508Z</time></trkpt><trkpt lat="44.6485367" lon="9.73532"><ele>683.0</ele><time>2026-04-06T11:58:16.508Z</time></trkpt><trkpt lat="44.6486817" lon="9.7352717"><ele>683.0</ele><time>2026-04-06T11:58:17.509Z</time></trkpt><trkpt lat="44.6488183" lon="9.7352167"><ele>683.0</ele><time>2026-04-06T11:58:18.508Z</time></trkpt><trkpt lat="44.6489467" lon="9.73517"><ele>683.0</ele><time>2026-04-06T11:58:19.509Z</time></trkpt><trkpt lat="44.64907" lon="9.7351633"><ele>683.0</ele><time>2026-04-06T11:58:20.508Z</time></trkpt><trkpt lat="44.649205" lon="9.735195"><ele>683.0</ele><time>2026-04-06T11:58:21.508Z</time></trkpt><trkpt lat="44.6493183" lon="9.7352783"><ele>683.0</ele><time>2026-04-06T11:58:22.508Z</time></trkpt><trkpt lat="44.64942" lon="9.7354217"><ele>683.0</ele><time>2026-04-06T11:58:23.509Z</time></trkpt><trkpt lat="44.6495167" lon="9.735595"><ele>683.0</ele><time>2026-04-06T11:58:24.508Z</time></trkpt><trkpt lat="44.6496083" lon="9.735775"><ele>682.0</ele><time>2026-04-06T11:58:25.509Z</time></trkpt><trkpt lat="44.6497" lon="9.7359283"><ele>681.0</ele><time>2026-04-06T11:58:26.509Z</time></trkpt><trkpt lat="44.6498017" lon="9.7360583"><ele>680.0</ele><time>2026-04-06T11:58:27.508Z</time></trkpt><trkpt lat="44.6499283" lon="9.7361433"><ele>679.0</ele><time>2026-04-06T11:58:28.509Z</time></trkpt><trkpt lat="44.6500383" lon="9.7362083"><ele>679.0</ele><time>2026-04-06T11:58:29.509Z</time></trkpt><trkpt lat="44.6501217" lon="9.7363033"><ele>679.0</ele><time>2026-04-06T11:58:30.508Z</time></trkpt><trkpt lat="44.6502033" lon="9.7364067"><ele>679.0</ele><time>2026-04-06T11:58:31.508Z</time></trkpt><trkpt lat="44.65026" lon="9.736495"><ele>679.0</ele><time>2026-04-06T11:58:32.509Z</time></trkpt><trkpt lat="44.6503317" lon="9.73655"><ele>679.0</ele><time>2026-04-06T11:58:33.508Z</time></trkpt><trkpt lat="44.65041" lon="9.7365817"><ele>680.0</ele><time>2026-04-06T11:58:34.509Z</time></trkpt><trkpt lat="44.6504817" lon="9.73662"><ele>681.0</ele><time>2026-04-06T11:58:35.508Z</time></trkpt><trkpt lat="44.6505833" lon="9.736535"><ele>682.0</ele><time>2026-04-06T11:58:36.508Z</time></trkpt><trkpt lat="44.6506967" lon="9.73645"><ele>683.0</ele><time>2026-04-06T11:58:37.509Z</time></trkpt><trkpt lat="44.6508083" lon="9.7363733"><ele>684.0</ele><time>2026-04-06T11:58:38.509Z</time></trkpt><trkpt lat="44.6509533" lon="9.73634"><ele>684.0</ele><time>2026-04-06T11:58:39.509Z</time></trkpt><trkpt lat="44.6510817" lon="9.7363417"><ele>684.0</ele><time>2026-04-06T11:58:40.508Z</time></trkpt><trkpt lat="44.6511833" lon="9.7363317"><ele>684.0</ele><time>2026-04-06T11:58:41.508Z</time></trkpt><trkpt lat="44.65131" lon="9.7362517"><ele>684.0</ele><time>2026-04-06T11:58:42.508Z</time></trkpt><trkpt lat="44.6514333" lon="9.73612"><ele>683.6666666666666</ele><time>2026-04-06T11:58:43.509Z</time></trkpt><trkpt lat="44.6515717" lon="9.7359883"><ele>683.3333333333333</ele><time>2026-04-06T11:58:44.509Z</time></trkpt><trkpt lat="44.6517133" lon="9.735855"><ele>683.0</ele><time>2026-04-06T11:58:45.508Z</time></trkpt><trkpt lat="44.6518367" lon="9.7357183"><ele>680.75</ele><time>2026-04-06T11:58:46.508Z</time></trkpt><trkpt lat="44.6519583" lon="9.735605"><ele>678.5</ele><time>2026-04-06T11:58:47.509Z</time></trkpt><trkpt lat="44.652075" lon="9.7355033"><ele>676.25</ele><time>2026-04-06T11:58:48.509Z</time></trkpt><trkpt lat="44.6521833" lon="9.7353833"><ele>674.0</ele><time>2026-04-06T11:58:49.508Z</time></trkpt><trkpt lat="44.6522867" lon="9.735275"><ele>675.8000000000001</ele><time>2026-04-06T11:58:50.509Z</time></trkpt><trkpt lat="44.6523767" lon="9.7351767"><ele>677.6</ele><time>2026-04-06T11:58:51.508Z</time></trkpt><trkpt lat="44.652465" lon="9.7350833"><ele>679.4</ele><time>2026-04-06T11:58:52.508Z</time></trkpt><trkpt lat="44.6525467" lon="9.7349967"><ele>681.2</ele><time>2026-04-06T11:58:53.509Z</time></trkpt><trkpt lat="44.6526267" lon="9.7349267"><ele>683.0</ele><time>2026-04-06T11:58:54.509Z</time></trkpt><trkpt lat="44.6527067" lon="9.7348567"><ele>681.25</ele><time>2026-04-06T11:58:55.508Z</time></trkpt><trkpt lat="44.6527933" lon="9.734785"><ele>679.5</ele><time>2026-04-06T11:58:56.508Z</time></trkpt><trkpt lat="44.6528883" lon="9.7347083"><ele>677.75</ele><time>2026-04-06T11:58:57.508Z</time></trkpt><trkpt lat="44.6529867" lon="9.73462"><ele>676.0</ele><time>2026-04-06T11:58:58.509Z</time></trkpt><trkpt lat="44.65309" lon="9.73452"><ele>676.0</ele><time>2026-04-06T11:58:59.508Z</time></trkpt><trkpt lat="44.6532067" lon="9.734435"><ele>676.0</ele><time>2026-04-06T11:59:00.509Z</time></trkpt><trkpt lat="44.653345" lon="9.7343767"><ele>676.0</ele><time>2026-04-06T11:59:01.509Z</time></trkpt><trkpt lat="44.6534583" lon="9.7343533"><ele>676.0</ele><time>2026-04-06T11:59:02.508Z</time></trkpt><trkpt lat="44.6535883" lon="9.7343433"><ele>675.75</ele><time>2026-04-06T11:59:03.508Z</time></trkpt><trkpt lat="44.65371" lon="9.734325"><ele>675.5</ele><time>2026-04-06T11:59:04.508Z</time></trkpt><trkpt lat="44.65383" lon="9.7342667"><ele>675.25</ele><time>2026-04-06T11:59:05.509Z</time></trkpt><trkpt lat="44.6539533" lon="9.7341667"><ele>675.0</ele><time>2026-04-06T11:59:06.508Z</time></trkpt><trkpt lat="44.6540733" lon="9.73407"><ele>675.0</ele><time>2026-04-06T11:59:07.508Z</time></trkpt><trkpt lat="44.6542167" lon="9.7339817"><ele>675.0</ele><time>2026-04-06T11:59:08.509Z</time></trkpt><trkpt lat="44.654365" lon="9.733905"><ele>675.0</ele><time>2026-04-06T11:59:09.508Z</time></trkpt><trkpt lat="44.6545533" lon="9.7338283"><ele>675.75</ele><time>2026-04-06T11:59:10.509Z</time></trkpt><trkpt lat="44.6546867" lon="9.7337617"><ele>676.5</ele><time>2026-04-06T11:59:11.509Z</time></trkpt><trkpt lat="44.654815" lon="9.7337217"><ele>677.25</ele><time>2026-04-06T11:59:12.509Z</time></trkpt><trkpt lat="44.6549417" lon="9.73371"><ele>678.0</ele><time>2026-04-06T11:59:13.508Z</time></trkpt><trkpt lat="44.655075" lon="9.73371"><ele>678.0</ele><time>2026-04-06T11:59:14.508Z</time></trkpt><trkpt lat="44.65521" lon="9.733725"><ele>678.0</ele><time>2026-04-06T11:59:15.508Z</time></trkpt><trkpt lat="44.6553417" lon="9.733755"><ele>678.0</ele><time>2026-04-06T11:59:16.507Z</time></trkpt><trkpt lat="44.6553883" lon="9.7338333"><ele>678.0</ele><time>2026-04-06T11:59:17.507Z</time></trkpt><trkpt lat="44.6554" lon="9.7339317"><ele>678.0</ele><time>2026-04-06T11:59:18.507Z</time></trkpt><trkpt lat="44.655385" lon="9.7340583"><ele>678.0</ele><time>2026-04-06T11:59:19.508Z</time></trkpt><trkpt lat="44.6553133" lon="9.7342133"><ele>678.0</ele><time>2026-04-06T11:59:20.507Z</time></trkpt><trkpt lat="44.6551833" lon="9.7343833"><ele>678.0</ele><time>2026-04-06T11:59:21.507Z</time></trkpt><trkpt lat="44.655115" lon="9.734505"><ele>678.0</ele><time>2026-04-06T11:59:22.508Z</time></trkpt><trkpt lat="44.6550683" lon="9.7346283"><ele>677.8</ele><time>2026-04-06T11:59:23.507Z</time></trkpt><trkpt lat="44.65503" lon="9.7347483"><ele>677.5999999999999</ele><time>2026-04-06T11:59:24.507Z</time></trkpt><trkpt lat="44.655015" lon="9.73485"><ele>677.4000000000001</ele><time>2026-04-06T11:59:25.508Z</time></trkpt><trkpt lat="44.655055" lon="9.734935"><ele>677.2</ele><time>2026-04-06T11:59:26.507Z</time></trkpt><trkpt lat="44.655225" lon="9.7349617"><ele>677.0</ele><time>2026-04-06T11:59:28.508Z</time></trkpt><trkpt lat="44.6553517" lon="9.734895"><ele>678.5</ele><time>2026-04-06T11:59:29.507Z</time></trkpt><trkpt lat="44.655485" lon="9.7348217"><ele>680.0</ele><time>2026-04-06T11:59:30.507Z</time></trkpt><trkpt lat="44.6556083" lon="9.7347733"><ele>681.5</ele><time>2026-04-06T11:59:31.507Z</time></trkpt><trkpt lat="44.6557367" lon="9.73474"><ele>683.0</ele><time>2026-04-06T11:59:32.507Z</time></trkpt><trkpt lat="44.6558783" lon="9.7347083"><ele>683.0</ele><time>2026-04-06T11:59:33.507Z</time></trkpt><trkpt lat="44.6560017" lon="9.7347483"><ele>683.0</ele><time>2026-04-06T11:59:34.507Z</time></trkpt><trkpt lat="44.6561317" lon="9.7347983"><ele>683.0</ele><time>2026-04-06T11:59:35.507Z</time></trkpt><trkpt lat="44.6562817" lon="9.7347933"><ele>683.0</ele><time>2026-04-06T11:59:36.508Z</time></trkpt><trkpt lat="44.6564267" lon="9.734785"><ele>685.6666666666666</ele><time>2026-04-06T11:59:37.508Z</time></trkpt><trkpt lat="44.6565733" lon="9.734745"><ele>688.3333333333334</ele><time>2026-04-06T11:59:38.508Z</time></trkpt><trkpt lat="44.6567383" lon="9.7347167"><ele>691.0</ele><time>2026-04-06T11:59:39.508Z</time></trkpt><trkpt lat="44.656885" lon="9.7346533"><ele>691.75</ele><time>2026-04-06T11:59:40.507Z</time></trkpt><trkpt lat="44.6570117" lon="9.7345417"><ele>692.5</ele><time>2026-04-06T11:59:41.507Z</time></trkpt><trkpt lat="44.6571283" lon="9.7344367"><ele>693.25</ele><time>2026-04-06T11:59:42.508Z</time></trkpt><trkpt lat="44.6572467" lon="9.7342983"><ele>694.0</ele><time>2026-04-06T11:59:43.507Z</time></trkpt><trkpt lat="44.6573533" lon="9.7341467"><ele>696.0</ele><time>2026-04-06T11:59:44.507Z</time></trkpt><trkpt lat="44.65743" lon="9.73395"><ele>698.0</ele><time>2026-04-06T11:59:45.507Z</time></trkpt><trkpt lat="44.6575017" lon="9.7337833"><ele>700.0</ele><time>2026-04-06T11:59:46.508Z</time></trkpt><trkpt lat="44.65756" lon="9.73363"><ele>702.0</ele><time>2026-04-06T11:59:47.507Z</time></trkpt><trkpt lat="44.6575983" lon="9.7334733"><ele>702.8</ele><time>2026-04-06T11:59:48.508Z</time></trkpt><trkpt lat="44.657605" lon="9.7333133"><ele>703.6</ele><time>2026-04-06T11:59:49.507Z</time></trkpt><trkpt lat="44.6575917" lon="9.7331733"><ele>704.4</ele><time>2026-04-06T11:59:50.508Z</time></trkpt><trkpt lat="44.6575717" lon="9.7330433"><ele>705.1999999999999</ele><time>2026-04-06T11:59:51.507Z</time></trkpt><trkpt lat="44.6575767" lon="9.7329217"><ele>706.0</ele><time>2026-04-06T11:59:52.508Z</time></trkpt><trkpt lat="44.6575833" lon="9.732815"><ele>706.0</ele><time>2026-04-06T11:59:53.507Z</time></trkpt><trkpt lat="44.6576417" lon="9.7327117"><ele>706.0</ele><time>2026-04-06T11:59:55.507Z</time></trkpt><trkpt lat="44.6577133" lon="9.7328517"><ele>706.0</ele><time>2026-04-06T11:59:57.507Z</time></trkpt><trkpt lat="44.6578333" lon="9.7331717"><ele>706.6666666666667</ele><time>2026-04-06T11:59:59.507Z</time></trkpt><trkpt lat="44.6579317" lon="9.7334033"><ele>707.3333333333334</ele><time>2026-04-06T12:00:00.507Z</time></trkpt><trkpt lat="44.6579967" lon="9.7336033"><ele>708.0</ele><time>2026-04-06T12:00:01.508Z</time></trkpt><trkpt lat="44.6580617" lon="9.7337383"><ele>708.0</ele><time>2026-04-06T12:00:02.508Z</time></trkpt><trkpt lat="44.65812" lon="9.7338317"><ele>708.0</ele><time>2026-04-06T12:00:03.507Z</time></trkpt><trkpt lat="44.6581817" lon="9.733915"><ele>708.0</ele><time>2026-04-06T12:00:04.508Z</time></trkpt><trkpt lat="44.6582917" lon="9.7339683"><ele>708.0</ele><time>2026-04-06T12:00:06.508Z</time></trkpt><trkpt lat="44.6583617" lon="9.7339333"><ele>708.0</ele><time>2026-04-06T12:00:07.507Z</time></trkpt><trkpt lat="44.6584317" lon="9.7338767"><ele>708.0</ele><time>2026-04-06T12:00:08.507Z</time></trkpt><trkpt lat="44.6584733" lon="9.7337683"><ele>708.0</ele><time>2026-04-06T12:00:09.507Z</time></trkpt><trkpt lat="44.6585267" lon="9.7336933"><ele>708.0</ele><time>2026-04-06T12:00:10.507Z</time></trkpt><trkpt lat="44.65855" lon="9.7335117"><ele>708.0</ele><time>2026-04-06T12:00:11.508Z</time></trkpt><trkpt lat="44.65857" lon="9.7333233"><ele>708.0</ele><time>2026-04-06T12:00:12.507Z</time></trkpt><trkpt lat="44.6586317" lon="9.7332117"><ele>708.0</ele><time>2026-04-06T12:00:13.508Z</time></trkpt><trkpt lat="44.6586933" lon="9.7330933"><ele>711.2</ele><time>2026-04-06T12:00:14.508Z</time></trkpt><trkpt lat="44.65876" lon="9.7329267"><ele>714.4</ele><time>2026-04-06T12:00:15.507Z</time></trkpt><trkpt lat="44.6588467" lon="9.7328317"><ele>717.6</ele><time>2026-04-06T12:00:16.508Z</time></trkpt><trkpt lat="44.6589383" lon="9.7327883"><ele>720.8000000000001</ele><time>2026-04-06T12:00:17.508Z</time></trkpt><trkpt lat="44.659045" lon="9.7327783"><ele>724.0</ele><time>2026-04-06T12:00:18.508Z</time></trkpt><trkpt lat="44.659175" lon="9.7327917"><ele>724.0</ele><time>2026-04-06T12:00:19.507Z</time></trkpt><trkpt lat="44.659305" lon="9.732745"><ele>724.0</ele><time>2026-04-06T12:00:20.508Z</time></trkpt><trkpt lat="44.65943" lon="9.732675"><ele>724.0</ele><time>2026-04-06T12:00:21.507Z</time></trkpt><trkpt lat="44.6595267" lon="9.7325533"><ele>724.0</ele><time>2026-04-06T12:00:22.507Z</time></trkpt><trkpt lat="44.6596067" lon="9.73241"><ele>726.75</ele><time>2026-04-06T12:00:23.507Z</time></trkpt><trkpt lat="44.6596867" lon="9.7322467"><ele>729.5</ele><time>2026-04-06T12:00:24.507Z</time></trkpt><trkpt lat="44.65975" lon="9.7320533"><ele>732.25</ele><time>2026-04-06T12:00:25.507Z</time></trkpt><trkpt lat="44.659825" lon="9.73188"><ele>735.0</ele><time>2026-04-06T12:00:26.507Z</time></trkpt><trkpt lat="44.6599067" lon="9.73175"><ele>736.0</ele><time>2026-04-06T12:00:27.508Z</time></trkpt><trkpt lat="44.6599933" lon="9.73164"><ele>737.0</ele><time>2026-04-06T12:00:28.507Z</time></trkpt><trkpt lat="44.6600717" lon="9.7315317"><ele>738.0</ele><time>2026-04-06T12:00:29.507Z</time></trkpt><trkpt lat="44.6601317" lon="9.73142"><ele>739.0</ele><time>2026-04-06T12:00:30.508Z</time></trkpt><trkpt lat="44.66016" lon="9.7313"><ele>740.0</ele><time>2026-04-06T12:00:31.507Z</time></trkpt><trkpt lat="44.6601733" lon="9.7311833"><ele>741.0</ele><time>2026-04-06T12:00:32.507Z</time></trkpt><trkpt lat="44.660085" lon="9.7310567"><ele>742.0</ele><time>2026-04-06T12:00:33.507Z</time></trkpt><trkpt lat="44.6600083" lon="9.7309767"><ele>743.0</ele><time>2026-04-06T12:00:34.507Z</time></trkpt><trkpt lat="44.6599467" lon="9.7308983"><ele>744.0</ele><time>2026-04-06T12:00:35.507Z</time></trkpt><trkpt lat="44.659895" lon="9.7308383"><ele>745.0</ele><time>2026-04-06T12:00:36.507Z</time></trkpt><trkpt lat="44.65986" lon="9.7306983"><ele>745.0</ele><time>2026-04-06T12:00:38.508Z</time></trkpt><trkpt lat="44.6598883" lon="9.7306183"><ele>745.0</ele><time>2026-04-06T12:00:39.508Z</time></trkpt><trkpt lat="44.6599667" lon="9.730545"><ele>745.0</ele><time>2026-04-06T12:00:40.507Z</time></trkpt><trkpt lat="44.6601017" lon="9.7304983"><ele>745.0</ele><time>2026-04-06T12:00:41.507Z</time></trkpt><trkpt lat="44.66026" lon="9.7304683"><ele>747.5</ele><time>2026-04-06T12:00:42.507Z</time></trkpt><trkpt lat="44.6603733" lon="9.7304317"><ele>750.0</ele><time>2026-04-06T12:00:43.507Z</time></trkpt><trkpt lat="44.6605233" lon="9.73048"><ele>752.5</ele><time>2026-04-06T12:00:44.508Z</time></trkpt><trkpt lat="44.660645" lon="9.7305867"><ele>755.0</ele><time>2026-04-06T12:00:45.507Z</time></trkpt><trkpt lat="44.6607483" lon="9.7306717"><ele>755.0</ele><time>2026-04-06T12:00:46.507Z</time></trkpt><trkpt lat="44.6608267" lon="9.7307833"><ele>755.0</ele><time>2026-04-06T12:00:47.507Z</time></trkpt><trkpt lat="44.6608867" lon="9.7308983"><ele>755.0</ele><time>2026-04-06T12:00:48.507Z</time></trkpt><trkpt lat="44.66097" lon="9.7310617"><ele>755.0</ele><time>2026-04-06T12:00:49.507Z</time></trkpt><trkpt lat="44.66106" lon="9.7311817"><ele>756.0</ele><time>2026-04-06T12:00:50.507Z</time></trkpt><trkpt lat="44.6611633" lon="9.73124"><ele>757.0</ele><time>2026-04-06T12:00:51.507Z</time></trkpt><trkpt lat="44.66132" lon="9.7311867"><ele>758.0</ele><time>2026-04-06T12:00:52.508Z</time></trkpt><trkpt lat="44.6614617" lon="9.7311433"><ele>759.0</ele><time>2026-04-06T12:00:53.508Z</time></trkpt><trkpt lat="44.6616233" lon="9.7310517"><ele>760.25</ele><time>2026-04-06T12:00:54.507Z</time></trkpt><trkpt lat="44.6617617" lon="9.73094"><ele>761.5</ele><time>2026-04-06T12:00:55.508Z</time></trkpt><trkpt lat="44.6618767" lon="9.7308333"><ele>762.75</ele><time>2026-04-06T12:00:56.508Z</time></trkpt><trkpt lat="44.6619933" lon="9.730775"><ele>764.0</ele><time>2026-04-06T12:00:57.507Z</time></trkpt><trkpt lat="44.6621" lon="9.7307667"><ele>765.8000000000001</ele><time>2026-04-06T12:00:58.507Z</time></trkpt><trkpt lat="44.66219" lon="9.7307717"><ele>767.6</ele><time>2026-04-06T12:00:59.507Z</time></trkpt><trkpt lat="44.6622617" lon="9.7308683"><ele>769.4</ele><time>2026-04-06T12:01:00.507Z</time></trkpt><trkpt lat="44.6623717" lon="9.73098"><ele>771.2</ele><time>2026-04-06T12:01:01.508Z</time></trkpt><trkpt lat="44.6624567" lon="9.7311"><ele>773.0</ele><time>2026-04-06T12:01:02.507Z</time></trkpt><trkpt lat="44.66251" lon="9.7312417"><ele>773.0</ele><time>2026-04-06T12:01:03.508Z</time></trkpt><trkpt lat="44.66252" lon="9.7313917"><ele>773.0</ele><time>2026-04-06T12:01:04.507Z</time></trkpt><trkpt lat="44.6625" lon="9.7315483"><ele>773.0</ele><time>2026-04-06T12:01:05.507Z</time></trkpt><trkpt lat="44.662485" lon="9.731715"><ele>773.0</ele><time>2026-04-06T12:01:06.507Z</time></trkpt><trkpt lat="44.662465" lon="9.73188"><ele>774.5</ele><time>2026-04-06T12:01:07.508Z</time></trkpt><trkpt lat="44.662415" lon="9.732065"><ele>776.0</ele><time>2026-04-06T12:01:08.508Z</time></trkpt><trkpt lat="44.662415" lon="9.73223"><ele>777.5</ele><time>2026-04-06T12:01:09.508Z</time></trkpt><trkpt lat="44.662445" lon="9.7324083"><ele>779.0</ele><time>2026-04-06T12:01:10.508Z</time></trkpt><trkpt lat="44.66251" lon="9.73258"><ele>780.75</ele><time>2026-04-06T12:01:11.507Z</time></trkpt><trkpt lat="44.6625617" lon="9.7327417"><ele>782.5</ele><time>2026-04-06T12:01:12.507Z</time></trkpt><trkpt lat="44.662555" lon="9.732915"><ele>784.25</ele><time>2026-04-06T12:01:13.507Z</time></trkpt><trkpt lat="44.66253" lon="9.7330733"><ele>786.0</ele><time>2026-04-06T12:01:14.508Z</time></trkpt><trkpt lat="44.66247" lon="9.7332183"><ele>786.0</ele><time>2026-04-06T12:01:15.507Z</time></trkpt><trkpt lat="44.6624167" lon="9.7333383"><ele>786.0</ele><time>2026-04-06T12:01:16.507Z</time></trkpt><trkpt lat="44.6623617" lon="9.733445"><ele>786.0</ele><time>2026-04-06T12:01:17.507Z</time></trkpt><trkpt lat="44.6623317" lon="9.7335767"><ele>786.0</ele><time>2026-04-06T12:01:18.507Z</time></trkpt><trkpt lat="44.6623317" lon="9.7337233"><ele>786.0</ele><time>2026-04-06T12:01:19.507Z</time></trkpt><trkpt lat="44.66236" lon="9.7338667"><ele>784.5</ele><time>2026-04-06T12:01:20.508Z</time></trkpt><trkpt lat="44.66241" lon="9.7340083"><ele>783.0</ele><time>2026-04-06T12:01:21.507Z</time></trkpt><trkpt lat="44.6624783" lon="9.7341333"><ele>781.5</ele><time>2026-04-06T12:01:22.508Z</time></trkpt><trkpt lat="44.6625717" lon="9.7342517"><ele>780.0</ele><time>2026-04-06T12:01:23.507Z</time></trkpt><trkpt lat="44.6627017" lon="9.7342983"><ele>782.5</ele><time>2026-04-06T12:01:24.507Z</time></trkpt><trkpt lat="44.6628317" lon="9.7343067"><ele>785.0</ele><time>2026-04-06T12:01:25.508Z</time></trkpt><trkpt lat="44.66297" lon="9.734285"><ele>787.5</ele><time>2026-04-06T12:01:26.507Z</time></trkpt><trkpt lat="44.6631317" lon="9.7342417"><ele>790.0</ele><time>2026-04-06T12:01:27.507Z</time></trkpt><trkpt lat="44.6632683" lon="9.73418"><ele>790.0</ele><time>2026-04-06T12:01:28.507Z</time></trkpt><trkpt lat="44.6634183" lon="9.7341317"><ele>790.0</ele><time>2026-04-06T12:01:29.508Z</time></trkpt><trkpt lat="44.66357" lon="9.7340683"><ele>790.0</ele><time>2026-04-06T12:01:30.508Z</time></trkpt><trkpt lat="44.6637083" lon="9.7340283"><ele>792.5</ele><time>2026-04-06T12:01:31.507Z</time></trkpt><trkpt lat="44.6638383" lon="9.73401"><ele>795.0</ele><time>2026-04-06T12:01:32.507Z</time></trkpt><trkpt lat="44.6639683" lon="9.7340183"><ele>797.5</ele><time>2026-04-06T12:01:33.507Z</time></trkpt><trkpt lat="44.6640833" lon="9.7341"><ele>800.0</ele><time>2026-04-06T12:01:34.507Z</time></trkpt><trkpt lat="44.66415" lon="9.734195"><ele>800.0</ele><time>2026-04-06T12:01:35.508Z</time></trkpt><trkpt lat="44.6641933" lon="9.7342983"><ele>800.0</ele><time>2026-04-06T12:01:36.507Z</time></trkpt><trkpt lat="44.6642333" lon="9.7343767"><ele>800.0</ele><time>2026-04-06T12:01:37.508Z</time></trkpt><trkpt lat="44.6643567" lon="9.734355"><ele>800.0</ele><time>2026-04-06T12:01:39.508Z</time></trkpt><trkpt lat="44.6643417" lon="9.7341967"><ele>800.0</ele><time>2026-04-06T12:01:40.508Z</time></trkpt><trkpt lat="44.664305" lon="9.7340567"><ele>800.0</ele><time>2026-04-06T12:01:41.508Z</time></trkpt><trkpt lat="44.66426" lon="9.7339067"><ele>800.0</ele><time>2026-04-06T12:01:42.508Z</time></trkpt><trkpt lat="44.6642083" lon="9.7337667"><ele>800.0</ele><time>2026-04-06T12:01:43.507Z</time></trkpt><trkpt lat="44.6641267" lon="9.733625"><ele>800.0</ele><time>2026-04-06T12:01:44.507Z</time></trkpt><trkpt lat="44.6640367" lon="9.73349"><ele>802.6</ele><time>2026-04-06T12:01:45.507Z</time></trkpt><trkpt lat="44.663935" lon="9.733385"><ele>805.2</ele><time>2026-04-06T12:01:46.508Z</time></trkpt><trkpt lat="44.6638333" lon="9.7333117"><ele>807.8</ele><time>2026-04-06T12:01:47.507Z</time></trkpt><trkpt lat="44.6637567" lon="9.7332267"><ele>810.4</ele><time>2026-04-06T12:01:48.507Z</time></trkpt><trkpt lat="44.6637117" lon="9.7331283"><ele>813.0</ele><time>2026-04-06T12:01:49.507Z</time></trkpt><trkpt lat="44.6636833" lon="9.7330233"><ele>813.0</ele><time>2026-04-06T12:01:50.507Z</time></trkpt><trkpt lat="44.663675" lon="9.7329183"><ele>813.0</ele><time>2026-04-06T12:01:51.508Z</time></trkpt><trkpt lat="44.6637317" lon="9.7327867"><ele>813.0</ele><time>2026-04-06T12:01:52.507Z</time></trkpt><trkpt lat="44.6637983" lon="9.7326483"><ele>813.0</ele><time>2026-04-06T12:01:53.507Z</time></trkpt><trkpt lat="44.66393" lon="9.7324717"><ele>814.0</ele><time>2026-04-06T12:01:54.507Z</time></trkpt><trkpt lat="44.66403" lon="9.7323017"><ele>815.0</ele><time>2026-04-06T12:01:55.507Z</time></trkpt><trkpt lat="44.6641217" lon="9.7321367"><ele>816.0</ele><time>2026-04-06T12:01:56.508Z</time></trkpt><trkpt lat="44.664215" lon="9.7319717"><ele>815.6666666666667</ele><time>2026-04-06T12:01:57.507Z</time></trkpt><trkpt lat="44.6643" lon="9.7317917"><ele>815.3333333333334</ele><time>2026-04-06T12:01:58.508Z</time></trkpt><trkpt lat="44.6643667" lon="9.73158"><ele>815.0</ele><time>2026-04-06T12:01:59.507Z</time></trkpt><trkpt lat="44.664425" lon="9.7313767"><ele>815.0</ele><time>2026-04-06T12:02:00.508Z</time></trkpt><trkpt lat="44.6644317" lon="9.7311733"><ele>815.0</ele><time>2026-04-06T12:02:01.508Z</time></trkpt><trkpt lat="44.6644433" lon="9.731015"><ele>815.0</ele><time>2026-04-06T12:02:02.507Z</time></trkpt><trkpt lat="44.6644533" lon="9.7308933"><ele>815.0</ele><time>2026-04-06T12:02:03.508Z</time></trkpt><trkpt lat="44.6644767" lon="9.73074"><ele>820.5</ele><time>2026-04-06T12:02:04.508Z</time></trkpt><trkpt lat="44.664485" lon="9.73056"><ele>826.0</ele><time>2026-04-06T12:02:05.507Z</time></trkpt><trkpt lat="44.6645267" lon="9.7303817"><ele>831.5</ele><time>2026-04-06T12:02:06.507Z</time></trkpt><trkpt lat="44.6645583" lon="9.7302"><ele>837.0</ele><time>2026-04-06T12:02:07.508Z</time></trkpt><trkpt lat="44.6645967" lon="9.7300283"><ele>837.0</ele><time>2026-04-06T12:02:08.508Z</time></trkpt><trkpt lat="44.6646483" lon="9.7298767"><ele>837.0</ele><time>2026-04-06T12:02:09.507Z</time></trkpt><trkpt lat="44.66472" lon="9.7297083"><ele>837.0</ele><time>2026-04-06T12:02:10.508Z</time></trkpt><trkpt lat="44.6648033" lon="9.7295383"><ele>837.0</ele><time>2026-04-06T12:02:11.508Z</time></trkpt><trkpt lat="44.664905" lon="9.7293783"><ele>834.6666666666667</ele><time>2026-04-06T12:02:12.508Z</time></trkpt><trkpt lat="44.665005" lon="9.7291883"><ele>832.3333333333334</ele><time>2026-04-06T12:02:13.507Z</time></trkpt><trkpt lat="44.6651367" lon="9.7290017"><ele>830.0</ele><time>2026-04-06T12:02:14.507Z</time></trkpt><trkpt lat="44.6652517" lon="9.7288233"><ele>836.6666666666667</ele><time>2026-04-06T12:02:15.508Z</time></trkpt><trkpt lat="44.6653517" lon="9.7286467"><ele>843.3333333333333</ele><time>2026-04-06T12:02:16.507Z</time></trkpt><trkpt lat="44.6654483" lon="9.7284733"><ele>850.0</ele><time>2026-04-06T12:02:17.507Z</time></trkpt><trkpt lat="44.6655533" lon="9.7283133"><ele>850.0</ele><time>2026-04-06T12:02:18.507Z</time></trkpt><trkpt lat="44.6656383" lon="9.7281467"><ele>850.0</ele><time>2026-04-06T12:02:19.507Z</time></trkpt><trkpt lat="44.6657267" lon="9.7279917"><ele>850.0</ele><time>2026-04-06T12:02:20.508Z</time></trkpt><trkpt lat="44.6657883" lon="9.7278483"><ele>850.0</ele><time>2026-04-06T12:02:21.508Z</time></trkpt><trkpt lat="44.6658533" lon="9.7277183"><ele>848.9999999999999</ele><time>2026-04-06T12:02:22.508Z</time></trkpt><trkpt lat="44.6659067" lon="9.72759"><ele>848.0</ele><time>2026-04-06T12:02:23.508Z</time></trkpt><trkpt lat="44.6659283" lon="9.7274683"><ele>847.0</ele><time>2026-04-06T12:02:24.507Z</time></trkpt><trkpt lat="44.6659433" lon="9.7273583"><ele>846.0</ele><time>2026-04-06T12:02:25.507Z</time></trkpt><trkpt lat="44.6659667" lon="9.727265"><ele>844.9999999999999</ele><time>2026-04-06T12:02:26.507Z</time></trkpt><trkpt lat="44.66601" lon="9.72716"><ele>844.0</ele><time>2026-04-06T12:02:28.507Z</time></trkpt><trkpt lat="44.6661133" lon="9.7272133"><ele>844.9999999999999</ele><time>2026-04-06T12:02:30.508Z</time></trkpt><trkpt lat="44.6661633" lon="9.727285"><ele>846.0</ele><time>2026-04-06T12:02:31.507Z</time></trkpt><trkpt lat="44.6661883" lon="9.7273917"><ele>847.0</ele><time>2026-04-06T12:02:32.507Z</time></trkpt><trkpt lat="44.666195" lon="9.7275017"><ele>848.0</ele><time>2026-04-06T12:02:33.507Z</time></trkpt><trkpt lat="44.6661733" lon="9.7276"><ele>848.9999999999999</ele><time>2026-04-06T12:02:34.507Z</time></trkpt><trkpt lat="44.6661483" lon="9.7276933"><ele>850.0</ele><time>2026-04-06T12:02:35.507Z</time></trkpt><trkpt lat="44.6661" lon="9.7278383"><ele>850.0</ele><time>2026-04-06T12:02:36.507Z</time></trkpt><trkpt lat="44.6660617" lon="9.7280133"><ele>850.0</ele><time>2026-04-06T12:02:37.507Z</time></trkpt><trkpt lat="44.6660167" lon="9.72822"><ele>850.0</ele><time>2026-04-06T12:02:38.508Z</time></trkpt><trkpt lat="44.6659617" lon="9.7284367"><ele>850.0</ele><time>2026-04-06T12:02:39.508Z</time></trkpt><trkpt lat="44.6659217" lon="9.7286383"><ele>851.0</ele><time>2026-04-06T12:02:40.508Z</time></trkpt><trkpt lat="44.66589" lon="9.7288417"><ele>852.0</ele><time>2026-04-06T12:02:41.507Z</time></trkpt><trkpt lat="44.6658767" lon="9.7290383"><ele>853.0</ele><time>2026-04-06T12:02:42.508Z</time></trkpt><trkpt lat="44.6658717" lon="9.72923"><ele>854.0</ele><time>2026-04-06T12:02:43.507Z</time></trkpt><trkpt lat="44.6659217" lon="9.72939"><ele>854.75</ele><time>2026-04-06T12:02:44.507Z</time></trkpt><trkpt lat="44.6659867" lon="9.729555"><ele>855.5</ele><time>2026-04-06T12:02:45.508Z</time></trkpt><trkpt lat="44.666055" lon="9.7297183"><ele>856.25</ele><time>2026-04-06T12:02:46.507Z</time></trkpt><trkpt lat="44.666115" lon="9.7298833"><ele>857.0</ele><time>2026-04-06T12:02:47.507Z</time></trkpt><trkpt lat="44.6661583" lon="9.73006"><ele>859.0</ele><time>2026-04-06T12:02:48.507Z</time></trkpt><trkpt lat="44.6661783" lon="9.7302217"><ele>861.0</ele><time>2026-04-06T12:02:49.507Z</time></trkpt><trkpt lat="44.6661717" lon="9.730365"><ele>863.0</ele><time>2026-04-06T12:02:50.507Z</time></trkpt><trkpt lat="44.6661067" lon="9.7305"><ele>865.0</ele><time>2026-04-06T12:02:51.507Z</time></trkpt><trkpt lat="44.6659867" lon="9.7305633"><ele>865.0</ele><time>2026-04-06T12:02:52.507Z</time></trkpt><trkpt lat="44.665855" lon="9.730565"><ele>865.0</ele><time>2026-04-06T12:02:53.507Z</time></trkpt><trkpt lat="44.6657783" lon="9.7305733"><ele>865.0</ele><time>2026-04-06T12:02:54.508Z</time></trkpt><trkpt lat="44.6657133" lon="9.7305967"><ele>865.0</ele><time>2026-04-06T12:02:55.508Z</time></trkpt><trkpt lat="44.6656583" lon="9.7306433"><ele>865.0</ele><time>2026-04-06T12:02:56.507Z</time></trkpt><trkpt lat="44.6656567" lon="9.7308017"><ele>865.0</ele><time>2026-04-06T12:02:58.507Z</time></trkpt><trkpt lat="44.6657367" lon="9.7309033"><ele>865.0</ele><time>2026-04-06T12:02:59.506Z</time></trkpt><trkpt lat="44.665815" lon="9.7310283"><ele>865.0</ele><time>2026-04-06T12:03:00.506Z</time></trkpt><trkpt lat="44.6658983" lon="9.7311667"><ele>865.0</ele><time>2026-04-06T12:03:01.506Z</time></trkpt><trkpt lat="44.66595" lon="9.731305"><ele>865.1666666666666</ele><time>2026-04-06T12:03:02.506Z</time></trkpt><trkpt lat="44.6659867" lon="9.7314167"><ele>865.3333333333333</ele><time>2026-04-06T12:03:03.507Z</time></trkpt><trkpt lat="44.66603" lon="9.7315083"><ele>865.5</ele><time>2026-04-06T12:03:04.507Z</time></trkpt><trkpt lat="44.6660817" lon="9.7315817"><ele>865.6666666666667</ele><time>2026-04-06T12:03:05.506Z</time></trkpt><trkpt lat="44.6661633" lon="9.7315967"><ele>865.8333333333334</ele><time>2026-04-06T12:03:06.506Z</time></trkpt><trkpt lat="44.666255" lon="9.73157"><ele>866.0</ele><time>2026-04-06T12:03:07.506Z</time></trkpt><trkpt lat="44.66637" lon="9.73147"><ele>866.0</ele><time>2026-04-06T12:03:08.506Z</time></trkpt><trkpt lat="44.6665033" lon="9.731335"><ele>866.0</ele><time>2026-04-06T12:03:09.506Z</time></trkpt><trkpt lat="44.6666633" lon="9.7311933"><ele>866.0</ele><time>2026-04-06T12:03:10.506Z</time></trkpt><trkpt lat="44.6667817" lon="9.73113"><ele>868.0</ele><time>2026-04-06T12:03:11.507Z</time></trkpt><trkpt lat="44.6669167" lon="9.7310483"><ele>870.0</ele><time>2026-04-06T12:03:12.507Z</time></trkpt><trkpt lat="44.6670417" lon="9.7309167"><ele>872.0</ele><time>2026-04-06T12:03:13.507Z</time></trkpt><trkpt lat="44.6671467" lon="9.7307917"><ele>874.0</ele><time>2026-04-06T12:03:14.506Z</time></trkpt><trkpt lat="44.667255" lon="9.73067"><ele>876.5</ele><time>2026-04-06T12:03:15.506Z</time></trkpt><trkpt lat="44.6673683" lon="9.7306183"><ele>879.0</ele><time>2026-04-06T12:03:16.506Z</time></trkpt><trkpt lat="44.6674833" lon="9.730615"><ele>881.5</ele><time>2026-04-06T12:03:17.506Z</time></trkpt><trkpt lat="44.6675917" lon="9.7306367"><ele>884.0</ele><time>2026-04-06T12:03:18.507Z</time></trkpt><trkpt lat="44.66772" lon="9.7307633"><ele>884.75</ele><time>2026-04-06T12:03:19.507Z</time></trkpt><trkpt lat="44.667825" lon="9.7309283"><ele>885.5</ele><time>2026-04-06T12:03:20.507Z</time></trkpt><trkpt lat="44.6678867" lon="9.7311017"><ele>886.25</ele><time>2026-04-06T12:03:21.506Z</time></trkpt><trkpt lat="44.6679267" lon="9.73126"><ele>887.0</ele><time>2026-04-06T12:03:22.506Z</time></trkpt><trkpt lat="44.6679917" lon="9.73139"><ele>887.0</ele><time>2026-04-06T12:03:23.506Z</time></trkpt><trkpt lat="44.6680783" lon="9.731495"><ele>887.0</ele><time>2026-04-06T12:03:24.507Z</time></trkpt><trkpt lat="44.6681917" lon="9.7315383"><ele>887.0</ele><time>2026-04-06T12:03:25.507Z</time></trkpt><trkpt lat="44.6683133" lon="9.731535"><ele>887.0</ele><time>2026-04-06T12:03:26.506Z</time></trkpt><trkpt lat="44.6684283" lon="9.731485"><ele>887.0</ele><time>2026-04-06T12:03:27.506Z</time></trkpt><trkpt lat="44.6685233" lon="9.7313767"><ele>887.0</ele><time>2026-04-06T12:03:28.506Z</time></trkpt><trkpt lat="44.6686" lon="9.7312317"><ele>887.0</ele><time>2026-04-06T12:03:29.507Z</time></trkpt><trkpt lat="44.6686733" lon="9.73109"><ele>887.0</ele><time>2026-04-06T12:03:30.506Z</time></trkpt><trkpt lat="44.668765" lon="9.731"><ele>888.75</ele><time>2026-04-06T12:03:31.506Z</time></trkpt><trkpt lat="44.6688783" lon="9.7309583"><ele>890.5</ele><time>2026-04-06T12:03:32.506Z</time></trkpt><trkpt lat="44.6689983" lon="9.730975"><ele>892.25</ele><time>2026-04-06T12:03:33.506Z</time></trkpt><trkpt lat="44.669125" lon="9.7310883"><ele>894.0</ele><time>2026-04-06T12:03:34.507Z</time></trkpt><trkpt lat="44.6692317" lon="9.7312333"><ele>894.0</ele><time>2026-04-06T12:03:35.506Z</time></trkpt><trkpt lat="44.6693617" lon="9.731375"><ele>894.0</ele><time>2026-04-06T12:03:36.507Z</time></trkpt><trkpt lat="44.6694833" lon="9.7315083"><ele>894.0</ele><time>2026-04-06T12:03:37.506Z</time></trkpt><trkpt lat="44.669605" lon="9.7315933"><ele>897.75</ele><time>2026-04-06T12:03:38.507Z</time></trkpt><trkpt lat="44.669735" lon="9.7316483"><ele>901.5</ele><time>2026-04-06T12:03:39.507Z</time></trkpt><trkpt lat="44.669875" lon="9.7316883"><ele>905.25</ele><time>2026-04-06T12:03:40.507Z</time></trkpt><trkpt lat="44.6700133" lon="9.73169"><ele>909.0</ele><time>2026-04-06T12:03:41.506Z</time></trkpt><trkpt lat="44.6701317" lon="9.7317133"><ele>909.0</ele><time>2026-04-06T12:03:42.507Z</time></trkpt><trkpt lat="44.6702267" lon="9.7317433"><ele>909.0</ele><time>2026-04-06T12:03:43.507Z</time></trkpt><trkpt lat="44.6703167" lon="9.7317383"><ele>909.0</ele><time>2026-04-06T12:03:44.507Z</time></trkpt><trkpt lat="44.670405" lon="9.7317067"><ele>909.0</ele><time>2026-04-06T12:03:45.506Z</time></trkpt><trkpt lat="44.6704683" lon="9.7316467"><ele>909.0</ele><time>2026-04-06T12:03:46.506Z</time></trkpt><trkpt lat="44.6705217" lon="9.731555"><ele>909.0</ele><time>2026-04-06T12:03:47.507Z</time></trkpt><trkpt lat="44.6705667" lon="9.7314317"><ele>910.0</ele><time>2026-04-06T12:03:48.507Z</time></trkpt><trkpt lat="44.670625" lon="9.7313133"><ele>911.0000000000001</ele><time>2026-04-06T12:03:49.506Z</time></trkpt><trkpt lat="44.6706917" lon="9.7312033"><ele>912.0000000000001</ele><time>2026-04-06T12:03:50.506Z</time></trkpt><trkpt lat="44.6707833" lon="9.7311317"><ele>913.0</ele><time>2026-04-06T12:03:51.506Z</time></trkpt><trkpt lat="44.670905" lon="9.7310933"><ele>914.0</ele><time>2026-04-06T12:03:52.506Z</time></trkpt><trkpt lat="44.6710267" lon="9.7311283"><ele>917.2</ele><time>2026-04-06T12:03:53.507Z</time></trkpt><trkpt lat="44.67114" lon="9.7311733"><ele>920.4000000000001</ele><time>2026-04-06T12:03:54.507Z</time></trkpt><trkpt lat="44.6712267" lon="9.731265"><ele>923.6</ele><time>2026-04-06T12:03:55.506Z</time></trkpt><trkpt lat="44.671285" lon="9.7313717"><ele>926.8</ele><time>2026-04-06T12:03:56.507Z</time></trkpt><trkpt lat="44.6713" lon="9.7315217"><ele>930.0</ele><time>2026-04-06T12:03:57.506Z</time></trkpt><trkpt lat="44.6713283" lon="9.7316767"><ele>930.0</ele><time>2026-04-06T12:03:58.506Z</time></trkpt><trkpt lat="44.6713683" lon="9.7318367"><ele>930.0</ele><time>2026-04-06T12:03:59.506Z</time></trkpt><trkpt lat="44.6714217" lon="9.731995"><ele>930.0</ele><time>2026-04-06T12:04:00.506Z</time></trkpt><trkpt lat="44.67149" lon="9.7321483"><ele>930.0</ele><time>2026-04-06T12:04:01.506Z</time></trkpt><trkpt lat="44.671555" lon="9.7322817"><ele>931.5</ele><time>2026-04-06T12:04:02.507Z</time></trkpt><trkpt lat="44.6716367" lon="9.732395"><ele>933.0</ele><time>2026-04-06T12:04:03.506Z</time></trkpt><trkpt lat="44.6717217" lon="9.73248"><ele>934.5</ele><time>2026-04-06T12:04:04.506Z</time></trkpt><trkpt lat="44.67183" lon="9.732545"><ele>936.0</ele><time>2026-04-06T12:04:05.506Z</time></trkpt><trkpt lat="44.67195" lon="9.7326217"><ele>933.0</ele><time>2026-04-06T12:04:06.507Z</time></trkpt><trkpt lat="44.6720617" lon="9.73273"><ele>930.0</ele><time>2026-04-06T12:04:07.506Z</time></trkpt><trkpt lat="44.672215" lon="9.732855"><ele>927.0</ele><time>2026-04-06T12:04:08.506Z</time></trkpt><trkpt lat="44.6723933" lon="9.7330183"><ele>927.0</ele><time>2026-04-06T12:04:09.506Z</time></trkpt><trkpt lat="44.672525" lon="9.733195"><ele>927.0</ele><time>2026-04-06T12:04:10.507Z</time></trkpt><trkpt lat="44.6726583" lon="9.73335"><ele>927.0</ele><time>2026-04-06T12:04:11.506Z</time></trkpt><trkpt lat="44.6727933" lon="9.7335217"><ele>931.75</ele><time>2026-04-06T12:04:12.506Z</time></trkpt><trkpt lat="44.6729083" lon="9.733675"><ele>936.5</ele><time>2026-04-06T12:04:13.506Z</time></trkpt><trkpt lat="44.6729683" lon="9.7338367"><ele>941.25</ele><time>2026-04-06T12:04:14.506Z</time></trkpt><trkpt lat="44.6730067" lon="9.7340183"><ele>946.0</ele><time>2026-04-06T12:04:15.506Z</time></trkpt><trkpt lat="44.6730667" lon="9.7341533"><ele>946.0</ele><time>2026-04-06T12:04:16.506Z</time></trkpt><trkpt lat="44.6730983" lon="9.73427"><ele>945.9999999999999</ele><time>2026-04-06T12:04:17.506Z</time></trkpt><trkpt lat="44.6731417" lon="9.734395"><ele>945.9999999999999</ele><time>2026-04-06T12:04:18.506Z</time></trkpt><trkpt lat="44.6732067" lon="9.7345017"><ele>946.0</ele><time>2026-04-06T12:04:19.507Z</time></trkpt><trkpt lat="44.673285" lon="9.7345783"><ele>946.0</ele><time>2026-04-06T12:04:20.507Z</time></trkpt><trkpt lat="44.673415" lon="9.7345883"><ele>945.5</ele><time>2026-04-06T12:04:21.507Z</time></trkpt><trkpt lat="44.6735367" lon="9.7345533"><ele>945.0</ele><time>2026-04-06T12:04:22.506Z</time></trkpt><trkpt lat="44.6736667" lon="9.7344717"><ele>944.5</ele><time>2026-04-06T12:04:23.506Z</time></trkpt><trkpt lat="44.6737883" lon="9.7343733"><ele>944.0</ele><time>2026-04-06T12:04:24.506Z</time></trkpt><trkpt lat="44.6738983" lon="9.7342183"><ele>944.0</ele><time>2026-04-06T12:04:25.507Z</time></trkpt><trkpt lat="44.6739983" lon="9.7340233"><ele>944.0</ele><time>2026-04-06T12:04:26.506Z</time></trkpt><trkpt lat="44.6741367" lon="9.7337833"><ele>944.0</ele><time>2026-04-06T12:04:27.506Z</time></trkpt><trkpt lat="44.67425" lon="9.7337117"><ele>944.0</ele><time>2026-04-06T12:04:28.507Z</time></trkpt><trkpt lat="44.674365" lon="9.733655"><ele>944.0</ele><time>2026-04-06T12:04:29.506Z</time></trkpt><trkpt lat="44.67448" lon="9.7336233"><ele>944.0</ele><time>2026-04-06T12:04:30.506Z</time></trkpt><trkpt lat="44.67461" lon="9.7336067"><ele>944.0</ele><time>2026-04-06T12:04:31.506Z</time></trkpt><trkpt lat="44.67476" lon="9.73363"><ele>946.6666666666667</ele><time>2026-04-06T12:04:32.507Z</time></trkpt><trkpt lat="44.67491" lon="9.7336333"><ele>949.3333333333333</ele><time>2026-04-06T12:04:33.506Z</time></trkpt><trkpt lat="44.6750567" lon="9.7336617"><ele>952.0</ele><time>2026-04-06T12:04:34.506Z</time></trkpt><trkpt lat="44.6752033" lon="9.73372"><ele>958.0</ele><time>2026-04-06T12:04:35.506Z</time></trkpt><trkpt lat="44.67535" lon="9.7337883"><ele>964.0</ele><time>2026-04-06T12:04:36.506Z</time></trkpt><trkpt lat="44.675485" lon="9.7338933"><ele>970.0</ele><time>2026-04-06T12:04:37.506Z</time></trkpt><trkpt lat="44.6756083" lon="9.7340333"><ele>970.0</ele><time>2026-04-06T12:04:38.506Z</time></trkpt><trkpt lat="44.675715" lon="9.734205"><ele>970.0</ele><time>2026-04-06T12:04:39.507Z</time></trkpt><trkpt lat="44.6758017" lon="9.7344183"><ele>970.0</ele><time>2026-04-06T12:04:40.507Z</time></trkpt><trkpt lat="44.6758667" lon="9.734695"><ele>968.3333333333333</ele><time>2026-04-06T12:04:41.507Z</time></trkpt><trkpt lat="44.6759233" lon="9.7349467"><ele>966.6666666666667</ele><time>2026-04-06T12:04:42.506Z</time></trkpt><trkpt lat="44.6759867" lon="9.7351617"><ele>965.0</ele><time>2026-04-06T12:04:43.507Z</time></trkpt><trkpt lat="44.67604" lon="9.7353633"><ele>964.5</ele><time>2026-04-06T12:04:44.507Z</time></trkpt><trkpt lat="44.6760633" lon="9.7355483"><ele>964.0</ele><time>2026-04-06T12:04:45.506Z</time></trkpt><trkpt lat="44.6760567" lon="9.7357467"><ele>963.5</ele><time>2026-04-06T12:04:46.506Z</time></trkpt><trkpt lat="44.6760417" lon="9.7359383"><ele>963.0</ele><time>2026-04-06T12:04:47.506Z</time></trkpt><trkpt lat="44.6760417" lon="9.7361267"><ele>963.0</ele><time>2026-04-06T12:04:48.507Z</time></trkpt><trkpt lat="44.6760617" lon="9.736305"><ele>963.0</ele><time>2026-04-06T12:04:49.507Z</time></trkpt><trkpt lat="44.6760883" lon="9.7365167"><ele>963.0</ele><time>2026-04-06T12:04:50.507Z</time></trkpt><trkpt lat="44.6761417" lon="9.7367167"><ele>963.0</ele><time>2026-04-06T12:04:51.507Z</time></trkpt><trkpt lat="44.676205" lon="9.7369283"><ele>969.25</ele><time>2026-04-06T12:04:52.506Z</time></trkpt><trkpt lat="44.6762417" lon="9.7371117"><ele>975.5</ele><time>2026-04-06T12:04:53.506Z</time></trkpt><trkpt lat="44.67627" lon="9.7372933"><ele>981.75</ele><time>2026-04-06T12:04:54.506Z</time></trkpt><trkpt lat="44.6762833" lon="9.7374617"><ele>988.0</ele><time>2026-04-06T12:04:55.506Z</time></trkpt><trkpt lat="44.67628" lon="9.737625"><ele>986.5</ele><time>2026-04-06T12:04:56.507Z</time></trkpt><trkpt lat="44.6762917" lon="9.7377783"><ele>985.0</ele><time>2026-04-06T12:04:57.506Z</time></trkpt><trkpt lat="44.6763017" lon="9.7379483"><ele>983.5</ele><time>2026-04-06T12:04:58.507Z</time></trkpt><trkpt lat="44.6763267" lon="9.7381083"><ele>982.0</ele><time>2026-04-06T12:04:59.507Z</time></trkpt><trkpt lat="44.6763783" lon="9.7382617"><ele>982.0</ele><time>2026-04-06T12:05:00.506Z</time></trkpt><trkpt lat="44.676455" lon="9.7384117"><ele>982.0</ele><time>2026-04-06T12:05:01.506Z</time></trkpt><trkpt lat="44.6765567" lon="9.738545"><ele>982.0</ele><time>2026-04-06T12:05:02.507Z</time></trkpt><trkpt lat="44.6766783" lon="9.7386867"><ele>982.0</ele><time>2026-04-06T12:05:03.506Z</time></trkpt><trkpt lat="44.6768" lon="9.7388217"><ele>985.3333333333333</ele><time>2026-04-06T12:05:04.506Z</time></trkpt><trkpt lat="44.6769383" lon="9.7389583"><ele>988.6666666666667</ele><time>2026-04-06T12:05:05.506Z</time></trkpt><trkpt lat="44.677085" lon="9.73909"><ele>992.0</ele><time>2026-04-06T12:05:06.506Z</time></trkpt><trkpt lat="44.6772083" lon="9.7392183"><ele>992.0</ele><time>2026-04-06T12:05:07.507Z</time></trkpt><trkpt lat="44.6773267" lon="9.7393283"><ele>992.0</ele><time>2026-04-06T12:05:08.506Z</time></trkpt><trkpt lat="44.6774483" lon="9.7394267"><ele>992.0</ele><time>2026-04-06T12:05:09.506Z</time></trkpt><trkpt lat="44.6775617" lon="9.7395183"><ele>992.0</ele><time>2026-04-06T12:05:10.507Z</time></trkpt><trkpt lat="44.6776467" lon="9.7396233"><ele>990.5</ele><time>2026-04-06T12:05:11.506Z</time></trkpt><trkpt lat="44.677725" lon="9.739745"><ele>989.0</ele><time>2026-04-06T12:05:12.507Z</time></trkpt><trkpt lat="44.677765" lon="9.7399133"><ele>987.5</ele><time>2026-04-06T12:05:13.507Z</time></trkpt><trkpt lat="44.6777983" lon="9.740085"><ele>986.0</ele><time>2026-04-06T12:05:14.507Z</time></trkpt><trkpt lat="44.6778467" lon="9.740265"><ele>992.3333333333334</ele><time>2026-04-06T12:05:15.506Z</time></trkpt><trkpt lat="44.6779117" lon="9.7404833"><ele>998.6666666666667</ele><time>2026-04-06T12:05:16.507Z</time></trkpt><trkpt lat="44.677995" lon="9.7407317"><ele>1005.0</ele><time>2026-04-06T12:05:17.506Z</time></trkpt><trkpt lat="44.6780817" lon="9.7409383"><ele>1003.3333333333333</ele><time>2026-04-06T12:05:18.507Z</time></trkpt><trkpt lat="44.6781767" lon="9.7411417"><ele>1001.6666666666666</ele><time>2026-04-06T12:05:19.506Z</time></trkpt><trkpt lat="44.6782717" lon="9.7413467"><ele>1000.0</ele><time>2026-04-06T12:05:20.507Z</time></trkpt><trkpt lat="44.6783683" lon="9.74153"><ele>1000.0</ele><time>2026-04-06T12:05:21.506Z</time></trkpt><trkpt lat="44.6784267" lon="9.7417533"><ele>1000.0</ele><time>2026-04-06T12:05:22.507Z</time></trkpt><trkpt lat="44.6784633" lon="9.7419683"><ele>1000.0</ele><time>2026-04-06T12:05:23.507Z</time></trkpt><trkpt lat="44.678475" lon="9.7421883"><ele>1000.0</ele><time>2026-04-06T12:05:24.506Z</time></trkpt><trkpt lat="44.6784667" lon="9.742405"><ele>1000.0</ele><time>2026-04-06T12:05:25.506Z</time></trkpt><trkpt lat="44.6784317" lon="9.7425883"><ele>1000.0</ele><time>2026-04-06T12:05:26.506Z</time></trkpt><trkpt lat="44.6784283" lon="9.742765"><ele>1000.0</ele><time>2026-04-06T12:05:27.506Z</time></trkpt><trkpt lat="44.6784317" lon="9.74293"><ele>1000.0</ele><time>2026-04-06T12:05:28.507Z</time></trkpt><trkpt lat="44.6784483" lon="9.7430983"><ele>1000.0</ele><time>2026-04-06T12:05:29.506Z</time></trkpt><trkpt lat="44.67848" lon="9.743265"><ele>1000.0</ele><time>2026-04-06T12:05:30.506Z</time></trkpt><trkpt lat="44.6785083" lon="9.743415"><ele>1000.0</ele><time>2026-04-06T12:05:31.507Z</time></trkpt><trkpt lat="44.678545" lon="9.743555"><ele>1000.4</ele><time>2026-04-06T12:05:32.506Z</time></trkpt><trkpt lat="44.67859" lon="9.74365"><ele>1000.8</ele><time>2026-04-06T12:05:33.507Z</time></trkpt><trkpt lat="44.67869" lon="9.743705"><ele>1001.2</ele><time>2026-04-06T12:05:35.506Z</time></trkpt><trkpt lat="44.67877" lon="9.7435517"><ele>1001.6</ele><time>2026-04-06T12:05:37.507Z</time></trkpt><trkpt lat="44.6787983" lon="9.7434333"><ele>1002.0</ele><time>2026-04-06T12:05:38.507Z</time></trkpt><trkpt lat="44.67881" lon="9.74329"><ele>1005.75</ele><time>2026-04-06T12:05:39.507Z</time></trkpt><trkpt lat="44.678805" lon="9.7431283"><ele>1009.5</ele><time>2026-04-06T12:05:40.507Z</time></trkpt><trkpt lat="44.678795" lon="9.742955"><ele>1013.25</ele><time>2026-04-06T12:05:41.506Z</time></trkpt><trkpt lat="44.6787883" lon="9.7428017"><ele>1017.0</ele><time>2026-04-06T12:05:42.507Z</time></trkpt><trkpt lat="44.6787883" lon="9.742655"><ele>1018.2</ele><time>2026-04-06T12:05:43.507Z</time></trkpt><trkpt lat="44.6788033" lon="9.7425383"><ele>1019.4000000000001</ele><time>2026-04-06T12:05:44.507Z</time></trkpt><trkpt lat="44.6788467" lon="9.7424717"><ele>1020.5999999999999</ele><time>2026-04-06T12:05:45.506Z</time></trkpt><trkpt lat="44.6789517" lon="9.742435"><ele>1021.8</ele><time>2026-04-06T12:05:47.506Z</time></trkpt><trkpt lat="44.67899" lon="9.7425717"><ele>1023.0</ele><time>2026-04-06T12:05:48.507Z</time></trkpt><trkpt lat="44.679015" lon="9.7426933"><ele>1021.8</ele><time>2026-04-06T12:05:49.507Z</time></trkpt><trkpt lat="44.679045" lon="9.7428317"><ele>1020.5999999999999</ele><time>2026-04-06T12:05:50.507Z</time></trkpt><trkpt lat="44.67909" lon="9.7429717"><ele>1019.4000000000001</ele><time>2026-04-06T12:05:51.507Z</time></trkpt><trkpt lat="44.6791567" lon="9.7430683"><ele>1018.2</ele><time>2026-04-06T12:05:52.506Z</time></trkpt><trkpt lat="44.67926" lon="9.7431483"><ele>1017.0</ele><time>2026-04-06T12:05:53.506Z</time></trkpt><trkpt lat="44.679365" lon="9.7432083"><ele>1019.0</ele><time>2026-04-06T12:05:54.506Z</time></trkpt><trkpt lat="44.67946" lon="9.7432817"><ele>1021.0</ele><time>2026-04-06T12:05:55.506Z</time></trkpt><trkpt lat="44.6795183" lon="9.7433617"><ele>1023.0</ele><time>2026-04-06T12:05:56.506Z</time></trkpt><trkpt lat="44.6795567" lon="9.7434933"><ele>1025.0</ele><time>2026-04-06T12:05:57.506Z</time></trkpt><trkpt lat="44.6795867" lon="9.7436167"><ele>1027.0</ele><time>2026-04-06T12:05:58.506Z</time></trkpt><trkpt lat="44.6796217" lon="9.7437167"><ele>1027.1666666666665</ele><time>2026-04-06T12:05:59.507Z</time></trkpt><trkpt lat="44.6797083" lon="9.7438417"><ele>1027.3333333333333</ele><time>2026-04-06T12:06:01.506Z</time></trkpt><trkpt lat="44.679765" lon="9.7438833"><ele>1027.5</ele><time>2026-04-06T12:06:02.507Z</time></trkpt><trkpt lat="44.679825" lon="9.7439283"><ele>1027.6666666666667</ele><time>2026-04-06T12:06:03.507Z</time></trkpt><trkpt lat="44.679895" lon="9.743995"><ele>1027.8333333333335</ele><time>2026-04-06T12:06:05.506Z</time></trkpt><trkpt lat="44.6799483" lon="9.7440867"><ele>1028.0</ele><time>2026-04-06T12:06:07.506Z</time></trkpt><trkpt lat="44.6799983" lon="9.7442333"><ele>1029.6</ele><time>2026-04-06T12:06:09.506Z</time></trkpt><trkpt lat="44.6800317" lon="9.7443867"><ele>1031.1999999999998</ele><time>2026-04-06T12:06:11.507Z</time></trkpt><trkpt lat="44.6800483" lon="9.744505"><ele>1032.8</ele><time>2026-04-06T12:06:13.506Z</time></trkpt><trkpt lat="44.6800817" lon="9.7446417"><ele>1034.3999999999999</ele><time>2026-04-06T12:06:15.507Z</time></trkpt><trkpt lat="44.6801083" lon="9.7448033"><ele>1036.0</ele><time>2026-04-06T12:06:17.507Z</time></trkpt><trkpt lat="44.6801383" lon="9.74495"><ele>1036.0</ele><time>2026-04-06T12:06:19.507Z</time></trkpt><trkpt lat="44.6801767" lon="9.7450917"><ele>1036.0</ele><time>2026-04-06T12:06:21.507Z</time></trkpt><trkpt lat="44.6802067" lon="9.745215"><ele>1036.0</ele><time>2026-04-06T12:06:23.507Z</time></trkpt><trkpt lat="44.6802567" lon="9.7453083"><ele>1036.0</ele><time>2026-04-06T12:06:25.506Z</time></trkpt><trkpt lat="44.6803217" lon="9.7453983"><ele>1036.0</ele><time>2026-04-06T12:06:27.507Z</time></trkpt><trkpt lat="44.680395" lon="9.7454833"><ele>1034.2</ele><time>2026-04-06T12:06:29.507Z</time></trkpt><trkpt lat="44.6804617" lon="9.7455833"><ele>1032.3999999999999</ele><time>2026-04-06T12:06:31.507Z</time></trkpt><trkpt lat="44.6805467" lon="9.7457033"><ele>1030.6</ele><time>2026-04-06T12:06:33.507Z</time></trkpt><trkpt lat="44.6806" lon="9.7457883"><ele>1028.8</ele><time>2026-04-06T12:06:34.507Z</time></trkpt><trkpt lat="44.68065" lon="9.7458783"><ele>1027.0</ele><time>2026-04-06T12:06:35.506Z</time></trkpt><trkpt lat="44.68071" lon="9.7459767"><ele>1030.75</ele><time>2026-04-06T12:06:36.506Z</time></trkpt><trkpt lat="44.6807783" lon="9.7460683"><ele>1034.5</ele><time>2026-04-06T12:06:37.506Z</time></trkpt><trkpt lat="44.6808617" lon="9.7461633"><ele>1038.25</ele><time>2026-04-06T12:06:38.507Z</time></trkpt><trkpt lat="44.6809533" lon="9.7462617"><ele>1042.0</ele><time>2026-04-06T12:06:39.507Z</time></trkpt><trkpt lat="44.6810733" lon="9.746345"><ele>1036.25</ele><time>2026-04-06T12:06:40.507Z</time></trkpt><trkpt lat="44.6811967" lon="9.7464183"><ele>1030.5</ele><time>2026-04-06T12:06:41.506Z</time></trkpt><trkpt lat="44.6813117" lon="9.7464983"><ele>1024.75</ele><time>2026-04-06T12:06:42.506Z</time></trkpt><trkpt lat="44.681425" lon="9.7465783"><ele>1019.0</ele><time>2026-04-06T12:06:43.505Z</time></trkpt><trkpt lat="44.6815383" lon="9.7466683"><ele>1019.0</ele><time>2026-04-06T12:06:44.505Z</time></trkpt><trkpt lat="44.681645" lon="9.7467817"><ele>1019.0</ele><time>2026-04-06T12:06:45.506Z</time></trkpt><trkpt lat="44.681735" lon="9.7469133"><ele>1019.0</ele><time>2026-04-06T12:06:46.505Z</time></trkpt><trkpt lat="44.6818233" lon="9.7470683"><ele>1019.0</ele><time>2026-04-06T12:06:47.505Z</time></trkpt><trkpt lat="44.6819133" lon="9.747255"><ele>1016.6666666666667</ele><time>2026-04-06T12:06:48.506Z</time></trkpt><trkpt lat="44.6820267" lon="9.7474217"><ele>1014.3333333333333</ele><time>2026-04-06T12:06:49.506Z</time></trkpt><trkpt lat="44.682125" lon="9.7475767"><ele>1012.0</ele><time>2026-04-06T12:06:50.505Z</time></trkpt><trkpt lat="44.6822383" lon="9.7477217"><ele>1012.0</ele><time>2026-04-06T12:06:51.505Z</time></trkpt><trkpt lat="44.6823517" lon="9.7478667"><ele>1012.0</ele><time>2026-04-06T12:06:52.506Z</time></trkpt><trkpt lat="44.6824667" lon="9.7479967"><ele>1012.0</ele><time>2026-04-06T12:06:53.505Z</time></trkpt><trkpt lat="44.6825683" lon="9.74815"><ele>1012.0</ele><time>2026-04-06T12:06:54.505Z</time></trkpt><trkpt lat="44.68264" lon="9.748315"><ele>1012.0</ele><time>2026-04-06T12:06:55.505Z</time></trkpt><trkpt lat="44.682695" lon="9.748495"><ele>1012.0</ele><time>2026-04-06T12:06:56.505Z</time></trkpt><trkpt lat="44.68273" lon="9.7487067"><ele>1012.0</ele><time>2026-04-06T12:06:57.506Z</time></trkpt><trkpt lat="44.6827567" lon="9.748905"><ele>1010.25</ele><time>2026-04-06T12:06:58.505Z</time></trkpt><trkpt lat="44.6827883" lon="9.7491083"><ele>1008.5</ele><time>2026-04-06T12:06:59.505Z</time></trkpt><trkpt lat="44.68283" lon="9.74932"><ele>1006.75</ele><time>2026-04-06T12:07:00.506Z</time></trkpt><trkpt lat="44.6828833" lon="9.7495083"><ele>1005.0</ele><time>2026-04-06T12:07:01.505Z</time></trkpt><trkpt lat="44.682945" lon="9.7496717"><ele>1005.0</ele><time>2026-04-06T12:07:02.506Z</time></trkpt><trkpt lat="44.683015" lon="9.749815"><ele>1005.0</ele><time>2026-04-06T12:07:03.505Z</time></trkpt><trkpt lat="44.6830817" lon="9.74994"><ele>1005.0</ele><time>2026-04-06T12:07:04.505Z</time></trkpt><trkpt lat="44.6831433" lon="9.7500533"><ele>1005.0</ele><time>2026-04-06T12:07:05.506Z</time></trkpt><trkpt lat="44.6832" lon="9.7501583"><ele>1005.0</ele><time>2026-04-06T12:07:06.506Z</time></trkpt><trkpt lat="44.683265" lon="9.7502633"><ele>1006.6666666666666</ele><time>2026-04-06T12:07:07.505Z</time></trkpt><trkpt lat="44.68332" lon="9.7503533"><ele>1008.3333333333333</ele><time>2026-04-06T12:07:08.505Z</time></trkpt><trkpt lat="44.6833667" lon="9.750435"><ele>1010.0</ele><time>2026-04-06T12:07:09.506Z</time></trkpt><trkpt lat="44.6834167" lon="9.7504983"><ele>1011.6666666666666</ele><time>2026-04-06T12:07:10.506Z</time></trkpt><trkpt lat="44.683475" lon="9.75055"><ele>1013.3333333333333</ele><time>2026-04-06T12:07:11.505Z</time></trkpt><trkpt lat="44.68357" lon="9.7506067"><ele>1015.0</ele><time>2026-04-06T12:07:12.505Z</time></trkpt><trkpt lat="44.6836367" lon="9.7506683"><ele>1009.2</ele><time>2026-04-06T12:07:13.506Z</time></trkpt><trkpt lat="44.6836967" lon="9.750745"><ele>1003.4</ele><time>2026-04-06T12:07:14.505Z</time></trkpt><trkpt lat="44.683755" lon="9.7508183"><ele>997.5999999999999</ele><time>2026-04-06T12:07:15.506Z</time></trkpt><trkpt lat="44.68381" lon="9.75089"><ele>991.8</ele><time>2026-04-06T12:07:16.506Z</time></trkpt><trkpt lat="44.6837883" lon="9.75109"><ele>986.0</ele><time>2026-04-06T12:07:18.505Z</time></trkpt><trkpt lat="44.6838083" lon="9.7511933"><ele>986.0</ele><time>2026-04-06T12:07:19.506Z</time></trkpt><trkpt lat="44.6837817" lon="9.7513367"><ele>985.9999999999999</ele><time>2026-04-06T12:07:20.505Z</time></trkpt><trkpt lat="44.6837717" lon="9.7514733"><ele>985.9999999999999</ele><time>2026-04-06T12:07:21.505Z</time></trkpt><trkpt lat="44.6837783" lon="9.751605"><ele>986.0</ele><time>2026-04-06T12:07:22.505Z</time></trkpt><trkpt lat="44.683795" lon="9.7517417"><ele>986.0</ele><time>2026-04-06T12:07:23.506Z</time></trkpt><trkpt lat="44.6838417" lon="9.7518633"><ele>991.8</ele><time>2026-04-06T12:07:24.506Z</time></trkpt><trkpt lat="44.6839033" lon="9.7519633"><ele>997.5999999999999</ele><time>2026-04-06T12:07:25.506Z</time></trkpt><trkpt lat="44.683975" lon="9.752035"><ele>1003.4</ele><time>2026-04-06T12:07:26.506Z</time></trkpt><trkpt lat="44.684055" lon="9.752105"><ele>1009.2</ele><time>2026-04-06T12:07:27.506Z</time></trkpt><trkpt lat="44.684135" lon="9.752165"><ele>1015.0</ele><time>2026-04-06T12:07:28.505Z</time></trkpt><trkpt lat="44.6842333" lon="9.752205"><ele>1015.0</ele><time>2026-04-06T12:07:29.506Z</time></trkpt><trkpt lat="44.6843117" lon="9.7522667"><ele>1015.0</ele><time>2026-04-06T12:07:30.506Z</time></trkpt><trkpt lat="44.6844267" lon="9.75232"><ele>1015.0</ele><time>2026-04-06T12:07:31.505Z</time></trkpt><trkpt lat="44.6845617" lon="9.7523933"><ele>1015.0</ele><time>2026-04-06T12:07:32.505Z</time></trkpt><trkpt lat="44.6846883" lon="9.752485"><ele>1017.25</ele><time>2026-04-06T12:07:33.505Z</time></trkpt><trkpt lat="44.684805" lon="9.7525767"><ele>1019.5</ele><time>2026-04-06T12:07:34.506Z</time></trkpt><trkpt lat="44.6849283" lon="9.7526583"><ele>1021.75</ele><time>2026-04-06T12:07:35.505Z</time></trkpt><trkpt lat="44.6850717" lon="9.7527383"><ele>1024.0</ele><time>2026-04-06T12:07:36.505Z</time></trkpt><trkpt lat="44.6852" lon="9.7527933"><ele>1008.6666666666666</ele><time>2026-04-06T12:07:37.506Z</time></trkpt><trkpt lat="44.685335" lon="9.7528433"><ele>993.3333333333333</ele><time>2026-04-06T12:07:38.505Z</time></trkpt><trkpt lat="44.68549" lon="9.7529533"><ele>978.0</ele><time>2026-04-06T12:07:39.505Z</time></trkpt><trkpt lat="44.68563" lon="9.7530467"><ele>978.0</ele><time>2026-04-06T12:07:40.505Z</time></trkpt><trkpt lat="44.685755" lon="9.7531283"><ele>978.0</ele><time>2026-04-06T12:07:41.506Z</time></trkpt><trkpt lat="44.6858617" lon="9.75322"><ele>978.0</ele><time>2026-04-06T12:07:42.505Z</time></trkpt><trkpt lat="44.6859483" lon="9.75335"><ele>978.0</ele><time>2026-04-06T12:07:43.505Z</time></trkpt><trkpt lat="44.6860133" lon="9.7534883"><ele>974.0</ele><time>2026-04-06T12:07:44.506Z</time></trkpt><trkpt lat="44.6860783" lon="9.7536283"><ele>970.0</ele><time>2026-04-06T12:07:45.504Z</time></trkpt><trkpt lat="44.6861417" lon="9.7537717"><ele>966.0</ele><time>2026-04-06T12:07:46.505Z</time></trkpt><trkpt lat="44.6861833" lon="9.7539633"><ele>962.0</ele><time>2026-04-06T12:07:47.506Z</time></trkpt><trkpt lat="44.6860867" lon="9.75431"><ele>974.6666666666667</ele><time>2026-04-06T12:07:48.505Z</time></trkpt><trkpt lat="44.686055" lon="9.7545733"><ele>987.3333333333333</ele><time>2026-04-06T12:07:49.505Z</time></trkpt><trkpt lat="44.686025" lon="9.754755"><ele>1000.0</ele><time>2026-04-06T12:07:50.505Z</time></trkpt><trkpt lat="44.6859617" lon="9.7549133"><ele>999.9999999999999</ele><time>2026-04-06T12:07:51.504Z</time></trkpt><trkpt lat="44.6859517" lon="9.755045"><ele>1000.0</ele><time>2026-04-06T12:07:52.505Z</time></trkpt><trkpt lat="44.685945" lon="9.75519"><ele>1000.0</ele><time>2026-04-06T12:07:53.505Z</time></trkpt><trkpt lat="44.6859467" lon="9.7553167"><ele>1000.0</ele><time>2026-04-06T12:07:54.506Z</time></trkpt><trkpt lat="44.68598" lon="9.7554283"><ele>999.9999999999999</ele><time>2026-04-06T12:07:55.505Z</time></trkpt><trkpt lat="44.6860417" lon="9.75549"><ele>1000.0</ele><time>2026-04-06T12:07:56.505Z</time></trkpt><trkpt lat="44.686115" lon="9.7555483"><ele>1001.5</ele><time>2026-04-06T12:07:57.505Z</time></trkpt><trkpt lat="44.686195" lon="9.7555933"><ele>1003.0</ele><time>2026-04-06T12:07:58.505Z</time></trkpt><trkpt lat="44.6862967" lon="9.7556183"><ele>1004.5</ele><time>2026-04-06T12:07:59.505Z</time></trkpt><trkpt lat="44.6864167" lon="9.7555967"><ele>1006.0</ele><time>2026-04-06T12:08:00.506Z</time></trkpt><trkpt lat="44.6865983" lon="9.7554867"><ele>1006.0</ele><time>2026-04-06T12:08:01.505Z</time></trkpt><trkpt lat="44.6867367" lon="9.7554367"><ele>1006.0</ele><time>2026-04-06T12:08:02.506Z</time></trkpt><trkpt lat="44.6868617" lon="9.75541"><ele>1006.0</ele><time>2026-04-06T12:08:03.505Z</time></trkpt><trkpt lat="44.6869617" lon="9.7554183"><ele>1006.0</ele><time>2026-04-06T12:08:04.506Z</time></trkpt><trkpt lat="44.6870833" lon="9.7554533"><ele>1007.0</ele><time>2026-04-06T12:08:05.505Z</time></trkpt><trkpt lat="44.6871883" lon="9.755575"><ele>1008.0</ele><time>2026-04-06T12:08:06.506Z</time></trkpt><trkpt lat="44.6872883" lon="9.7557033"><ele>1009.0</ele><time>2026-04-06T12:08:07.506Z</time></trkpt><trkpt lat="44.6873783" lon="9.755865"><ele>1010.0</ele><time>2026-04-06T12:08:08.506Z</time></trkpt><trkpt lat="44.6875" lon="9.7560517"><ele>1010.0</ele><time>2026-04-06T12:08:09.505Z</time></trkpt><trkpt lat="44.6875833" lon="9.756205"><ele>1010.0</ele><time>2026-04-06T12:08:10.505Z</time></trkpt><trkpt lat="44.6876617" lon="9.7563367"><ele>1010.0</ele><time>2026-04-06T12:08:11.506Z</time></trkpt><trkpt lat="44.687765" lon="9.75645"><ele>1010.0</ele><time>2026-04-06T12:08:12.505Z</time></trkpt><trkpt lat="44.6878683" lon="9.7565483"><ele>1003.25</ele><time>2026-04-06T12:08:13.505Z</time></trkpt><trkpt lat="44.6879833" lon="9.756635"><ele>996.5</ele><time>2026-04-06T12:08:14.506Z</time></trkpt><trkpt lat="44.6881067" lon="9.756695"><ele>989.75</ele><time>2026-04-06T12:08:15.505Z</time></trkpt><trkpt lat="44.6882517" lon="9.75674"><ele>983.0</ele><time>2026-04-06T12:08:16.506Z</time></trkpt><trkpt lat="44.6883817" lon="9.7568117"><ele>983.0</ele><time>2026-04-06T12:08:17.505Z</time></trkpt><trkpt lat="44.688515" lon="9.75686"><ele>983.0</ele><time>2026-04-06T12:08:18.505Z</time></trkpt><trkpt lat="44.6886317" lon="9.756885"><ele>983.0</ele><time>2026-04-06T12:08:19.505Z</time></trkpt><trkpt lat="44.6887667" lon="9.756875"><ele>983.0</ele><time>2026-04-06T12:08:20.505Z</time></trkpt><trkpt lat="44.6889083" lon="9.7568333"><ele>980.75</ele><time>2026-04-06T12:08:21.505Z</time></trkpt><trkpt lat="44.689025" lon="9.7567633"><ele>978.5</ele><time>2026-04-06T12:08:22.505Z</time></trkpt><trkpt lat="44.6891283" lon="9.7567217"><ele>976.25</ele><time>2026-04-06T12:08:23.506Z</time></trkpt><trkpt lat="44.6892417" lon="9.7567017"><ele>974.0</ele><time>2026-04-06T12:08:24.505Z</time></trkpt><trkpt lat="44.68937" lon="9.756755"><ele>974.0</ele><time>2026-04-06T12:08:25.505Z</time></trkpt><trkpt lat="44.6894867" lon="9.756835"><ele>974.0</ele><time>2026-04-06T12:08:26.505Z</time></trkpt><trkpt lat="44.6896117" lon="9.7569533"><ele>974.0</ele><time>2026-04-06T12:08:27.505Z</time></trkpt><trkpt lat="44.6897183" lon="9.757065"><ele>974.0</ele><time>2026-04-06T12:08:28.505Z</time></trkpt><trkpt lat="44.6898083" lon="9.7571767"><ele>974.0</ele><time>2026-04-06T12:08:29.505Z</time></trkpt><trkpt lat="44.6898733" lon="9.757305"><ele>974.0000000000001</ele><time>2026-04-06T12:08:30.505Z</time></trkpt><trkpt lat="44.6898917" lon="9.7574533"><ele>974.0000000000001</ele><time>2026-04-06T12:08:31.505Z</time></trkpt><trkpt lat="44.6898733" lon="9.7576167"><ele>974.0</ele><time>2026-04-06T12:08:32.505Z</time></trkpt><trkpt lat="44.6898833" lon="9.75776"><ele>974.0</ele><time>2026-04-06T12:08:33.505Z</time></trkpt><trkpt lat="44.68991" lon="9.75791"><ele>974.25</ele><time>2026-04-06T12:08:34.505Z</time></trkpt><trkpt lat="44.6899617" lon="9.75804"><ele>974.5</ele><time>2026-04-06T12:08:35.505Z</time></trkpt><trkpt lat="44.6900417" lon="9.758155"><ele>974.75</ele><time>2026-04-06T12:08:36.505Z</time></trkpt><trkpt lat="44.6901633" lon="9.7582583"><ele>975.0</ele><time>2026-04-06T12:08:37.506Z</time></trkpt><trkpt lat="44.6902967" lon="9.7583633"><ele>975.0</ele><time>2026-04-06T12:08:38.505Z</time></trkpt><trkpt lat="44.69044" lon="9.7584633"><ele>975.0</ele><time>2026-04-06T12:08:39.506Z</time></trkpt><trkpt lat="44.6906083" lon="9.7585667"><ele>975.0</ele><time>2026-04-06T12:08:40.506Z</time></trkpt><trkpt lat="44.690775" lon="9.7586683"><ele>976.3333333333333</ele><time>2026-04-06T12:08:41.506Z</time></trkpt><trkpt lat="44.6909317" lon="9.75878"><ele>977.6666666666666</ele><time>2026-04-06T12:08:42.505Z</time></trkpt><trkpt lat="44.691075" lon="9.7588967"><ele>979.0</ele><time>2026-04-06T12:08:43.505Z</time></trkpt><trkpt lat="44.6912283" lon="9.758995"><ele>979.0</ele><time>2026-04-06T12:08:44.505Z</time></trkpt><trkpt lat="44.6914217" lon="9.7590667"><ele>979.0</ele><time>2026-04-06T12:08:45.505Z</time></trkpt><trkpt lat="44.6915933" lon="9.759065"><ele>979.0</ele><time>2026-04-06T12:08:46.505Z</time></trkpt><trkpt lat="44.6917367" lon="9.7590233"><ele>979.0</ele><time>2026-04-06T12:08:47.506Z</time></trkpt><trkpt lat="44.6918733" lon="9.7589917"><ele>979.0</ele><time>2026-04-06T12:08:48.505Z</time></trkpt><trkpt lat="44.6920117" lon="9.7589483"><ele>979.0</ele><time>2026-04-06T12:08:49.506Z</time></trkpt><trkpt lat="44.6921483" lon="9.7588767"><ele>979.0</ele><time>2026-04-06T12:08:50.505Z</time></trkpt><trkpt lat="44.6922783" lon="9.7588267"><ele>978.0</ele><time>2026-04-06T12:08:51.505Z</time></trkpt><trkpt lat="44.6924033" lon="9.7587933"><ele>977.0000000000001</ele><time>2026-04-06T12:08:52.505Z</time></trkpt><trkpt lat="44.6925" lon="9.7587817"><ele>976.0000000000001</ele><time>2026-04-06T12:08:53.506Z</time></trkpt><trkpt lat="44.6925883" lon="9.7588017"><ele>975.0</ele><time>2026-04-06T12:08:54.506Z</time></trkpt><trkpt lat="44.6926817" lon="9.7588617"><ele>974.0</ele><time>2026-04-06T12:08:55.505Z</time></trkpt><trkpt lat="44.69277" lon="9.7589633"><ele>968.25</ele><time>2026-04-06T12:08:56.505Z</time></trkpt><trkpt lat="44.6928483" lon="9.7590833"><ele>962.5</ele><time>2026-04-06T12:08:57.505Z</time></trkpt><trkpt lat="44.692915" lon="9.75925"><ele>956.75</ele><time>2026-04-06T12:08:58.505Z</time></trkpt><trkpt lat="44.6929433" lon="9.7594867"><ele>951.0</ele><time>2026-04-06T12:08:59.505Z</time></trkpt><trkpt lat="44.692955" lon="9.759715"><ele>951.0</ele><time>2026-04-06T12:09:00.505Z</time></trkpt><trkpt lat="44.6929683" lon="9.759955"><ele>951.0</ele><time>2026-04-06T12:09:01.505Z</time></trkpt><trkpt lat="44.693005" lon="9.760185"><ele>951.0</ele><time>2026-04-06T12:09:02.505Z</time></trkpt><trkpt lat="44.6930733" lon="9.7604"><ele>955.3333333333333</ele><time>2026-04-06T12:09:03.505Z</time></trkpt><trkpt lat="44.693155" lon="9.760625"><ele>959.6666666666666</ele><time>2026-04-06T12:09:04.505Z</time></trkpt><trkpt lat="44.6932367" lon="9.760835"><ele>964.0</ele><time>2026-04-06T12:09:05.505Z</time></trkpt><trkpt lat="44.6933183" lon="9.7610267"><ele>964.0</ele><time>2026-04-06T12:09:06.506Z</time></trkpt><trkpt lat="44.693395" lon="9.761195"><ele>964.0</ele><time>2026-04-06T12:09:07.506Z</time></trkpt><trkpt lat="44.693485" lon="9.7613417"><ele>964.0</ele><time>2026-04-06T12:09:08.505Z</time></trkpt><trkpt lat="44.693575" lon="9.7614817"><ele>964.0</ele><time>2026-04-06T12:09:09.505Z</time></trkpt><trkpt lat="44.69371" lon="9.7615933"><ele>964.0</ele><time>2026-04-06T12:09:10.505Z</time></trkpt><trkpt lat="44.693825" lon="9.7616917"><ele>964.0</ele><time>2026-04-06T12:09:11.506Z</time></trkpt><trkpt lat="44.6939533" lon="9.7617217"><ele>964.0</ele><time>2026-04-06T12:09:12.506Z</time></trkpt><trkpt lat="44.6940983" lon="9.7617183"><ele>964.0</ele><time>2026-04-06T12:09:13.506Z</time></trkpt><trkpt lat="44.69424" lon="9.761725"><ele>964.0</ele><time>2026-04-06T12:09:14.505Z</time></trkpt><trkpt lat="44.6943683" lon="9.76177"><ele>964.0</ele><time>2026-04-06T12:09:15.506Z</time></trkpt><trkpt lat="44.694495" lon="9.7618483"><ele>964.0</ele><time>2026-04-06T12:09:16.506Z</time></trkpt><trkpt lat="44.69459" lon="9.7619517"><ele>964.0</ele><time>2026-04-06T12:09:17.506Z</time></trkpt><trkpt lat="44.6946933" lon="9.76205"><ele>962.75</ele><time>2026-04-06T12:09:18.506Z</time></trkpt><trkpt lat="44.694805" lon="9.762125"><ele>961.5</ele><time>2026-04-06T12:09:19.506Z</time></trkpt><trkpt lat="44.694905" lon="9.7621833"><ele>960.25</ele><time>2026-04-06T12:09:20.506Z</time></trkpt><trkpt lat="44.69502" lon="9.76222"><ele>959.0</ele><time>2026-04-06T12:09:21.506Z</time></trkpt><trkpt lat="44.69517" lon="9.7622433"><ele>954.6666666666667</ele><time>2026-04-06T12:09:22.505Z</time></trkpt><trkpt lat="44.695325" lon="9.76226"><ele>950.3333333333333</ele><time>2026-04-06T12:09:23.505Z</time></trkpt><trkpt lat="44.6954817" lon="9.762295"><ele>946.0</ele><time>2026-04-06T12:09:24.505Z</time></trkpt><trkpt lat="44.69566" lon="9.762335"><ele>946.0</ele><time>2026-04-06T12:09:25.506Z</time></trkpt><trkpt lat="44.69582" lon="9.7623933"><ele>946.0</ele><time>2026-04-06T12:09:26.506Z</time></trkpt><trkpt lat="44.695965" lon="9.76249"><ele>946.0</ele><time>2026-04-06T12:09:27.506Z</time></trkpt><trkpt lat="44.69611" lon="9.76262"><ele>943.6666666666666</ele><time>2026-04-06T12:09:28.505Z</time></trkpt><trkpt lat="44.696235" lon="9.7627683"><ele>941.3333333333333</ele><time>2026-04-06T12:09:29.505Z</time></trkpt><trkpt lat="44.6963383" lon="9.7629267"><ele>939.0</ele><time>2026-04-06T12:09:30.505Z</time></trkpt><trkpt lat="44.696405" lon="9.7631017"><ele>939.0</ele><time>2026-04-06T12:09:31.506Z</time></trkpt><trkpt lat="44.6964467" lon="9.7632867"><ele>939.0</ele><time>2026-04-06T12:09:32.505Z</time></trkpt><trkpt lat="44.6964983" lon="9.7634533"><ele>939.0</ele><time>2026-04-06T12:09:33.506Z</time></trkpt><trkpt lat="44.6965483" lon="9.7636"><ele>939.0</ele><time>2026-04-06T12:09:34.506Z</time></trkpt><trkpt lat="44.6966183" lon="9.7637267"><ele>942.0</ele><time>2026-04-06T12:09:35.505Z</time></trkpt><trkpt lat="44.69672" lon="9.7638117"><ele>945.0</ele><time>2026-04-06T12:09:36.506Z</time></trkpt><trkpt lat="44.6968583" lon="9.7638217"><ele>948.0</ele><time>2026-04-06T12:09:37.505Z</time></trkpt><trkpt lat="44.6969867" lon="9.7638467"><ele>951.0</ele><time>2026-04-06T12:09:38.505Z</time></trkpt><trkpt lat="44.697135" lon="9.7638567"><ele>951.0</ele><time>2026-04-06T12:09:39.505Z</time></trkpt><trkpt lat="44.697335" lon="9.7638367"><ele>951.0</ele><time>2026-04-06T12:09:40.506Z</time></trkpt><trkpt lat="44.697515" lon="9.7638183"><ele>951.0</ele><time>2026-04-06T12:09:41.505Z</time></trkpt><trkpt lat="44.69768" lon="9.7637933"><ele>952.3333333333333</ele><time>2026-04-06T12:09:42.506Z</time></trkpt><trkpt lat="44.697835" lon="9.76373"><ele>953.6666666666666</ele><time>2026-04-06T12:09:43.506Z</time></trkpt><trkpt lat="44.6979767" lon="9.7636067"><ele>955.0</ele><time>2026-04-06T12:09:44.505Z</time></trkpt><trkpt lat="44.6981" lon="9.763365"><ele>949.5</ele><time>2026-04-06T12:09:45.505Z</time></trkpt><trkpt lat="44.6982183" lon="9.7631117"><ele>944.0</ele><time>2026-04-06T12:09:46.505Z</time></trkpt><trkpt lat="44.698315" lon="9.7627917"><ele>943.0</ele><time>2026-04-06T12:09:47.506Z</time></trkpt><trkpt lat="44.6984367" lon="9.7626"><ele>942.0</ele><time>2026-04-06T12:09:48.505Z</time></trkpt><trkpt lat="44.69857" lon="9.7624633"><ele>941.0</ele><time>2026-04-06T12:09:49.505Z</time></trkpt><trkpt lat="44.6987033" lon="9.7623183"><ele>941.0</ele><time>2026-04-06T12:09:50.506Z</time></trkpt><trkpt lat="44.6988167" lon="9.76219"><ele>941.0</ele><time>2026-04-06T12:09:51.506Z</time></trkpt><trkpt lat="44.698965" lon="9.7620583"><ele>941.0</ele><time>2026-04-06T12:09:52.505Z</time></trkpt><trkpt lat="44.6991" lon="9.7619733"><ele>941.0</ele><time>2026-04-06T12:09:53.505Z</time></trkpt><trkpt lat="44.69926" lon="9.7619283"><ele>941.0</ele><time>2026-04-06T12:09:54.505Z</time></trkpt><trkpt lat="44.6994217" lon="9.7619233"><ele>941.0</ele><time>2026-04-06T12:09:55.505Z</time></trkpt><trkpt lat="44.6995767" lon="9.7619483"><ele>941.5999999999999</ele><time>2026-04-06T12:09:56.505Z</time></trkpt><trkpt lat="44.6996967" lon="9.76197"><ele>942.1999999999999</ele><time>2026-04-06T12:09:57.506Z</time></trkpt><trkpt lat="44.6997767" lon="9.7619433"><ele>942.8000000000001</ele><time>2026-04-06T12:09:58.505Z</time></trkpt><trkpt lat="44.699875" lon="9.76187"><ele>943.4000000000001</ele><time>2026-04-06T12:09:59.506Z</time></trkpt><trkpt lat="44.69997" lon="9.7617817"><ele>944.0</ele><time>2026-04-06T12:10:00.506Z</time></trkpt><trkpt lat="44.7000433" lon="9.761675"><ele>941.8000000000001</ele><time>2026-04-06T12:10:01.506Z</time></trkpt><trkpt lat="44.7000817" lon="9.76156"><ele>939.6000000000001</ele><time>2026-04-06T12:10:02.505Z</time></trkpt><trkpt lat="44.7001167" lon="9.7614233"><ele>937.4</ele><time>2026-04-06T12:10:03.506Z</time></trkpt><trkpt lat="44.7001467" lon="9.7612617"><ele>935.2</ele><time>2026-04-06T12:10:04.505Z</time></trkpt><trkpt lat="44.7002133" lon="9.7611117"><ele>933.0</ele><time>2026-04-06T12:10:05.505Z</time></trkpt><trkpt lat="44.7003067" lon="9.7609667"><ele>933.0</ele><time>2026-04-06T12:10:06.506Z</time></trkpt><trkpt lat="44.70042" lon="9.76083"><ele>933.0</ele><time>2026-04-06T12:10:07.506Z</time></trkpt><trkpt lat="44.700535" lon="9.7606833"><ele>933.0</ele><time>2026-04-06T12:10:08.505Z</time></trkpt><trkpt lat="44.7006683" lon="9.7605"><ele>933.0</ele><time>2026-04-06T12:10:09.506Z</time></trkpt><trkpt lat="44.700795" lon="9.760335"><ele>933.0</ele><time>2026-04-06T12:10:10.506Z</time></trkpt><trkpt lat="44.7008833" lon="9.76014"><ele>933.0</ele><time>2026-04-06T12:10:11.505Z</time></trkpt><trkpt lat="44.7009533" lon="9.7599433"><ele>932.25</ele><time>2026-04-06T12:10:12.505Z</time></trkpt><trkpt lat="44.7009967" lon="9.7597433"><ele>931.5</ele><time>2026-04-06T12:10:13.506Z</time></trkpt><trkpt lat="44.70104" lon="9.759555"><ele>930.75</ele><time>2026-04-06T12:10:14.506Z</time></trkpt><trkpt lat="44.7010767" lon="9.7594"><ele>930.0</ele><time>2026-04-06T12:10:15.506Z</time></trkpt><trkpt lat="44.70113" lon="9.7592833"><ele>930.0</ele><time>2026-04-06T12:10:16.505Z</time></trkpt><trkpt lat="44.7012017" lon="9.7591817"><ele>930.0</ele><time>2026-04-06T12:10:17.505Z</time></trkpt><trkpt lat="44.7012633" lon="9.7590667"><ele>930.0</ele><time>2026-04-06T12:10:18.505Z</time></trkpt><trkpt lat="44.701315" lon="9.75894"><ele>930.0</ele><time>2026-04-06T12:10:19.505Z</time></trkpt><trkpt lat="44.701345" lon="9.7588"><ele>930.0</ele><time>2026-04-06T12:10:20.505Z</time></trkpt><trkpt lat="44.7013633" lon="9.7586583"><ele>927.5</ele><time>2026-04-06T12:10:21.506Z</time></trkpt><trkpt lat="44.7013683" lon="9.7585167"><ele>925.0</ele><time>2026-04-06T12:10:22.506Z</time></trkpt><trkpt lat="44.701395" lon="9.7583583"><ele>922.5</ele><time>2026-04-06T12:10:23.505Z</time></trkpt><trkpt lat="44.7014267" lon="9.7581967"><ele>920.0</ele><time>2026-04-06T12:10:24.506Z</time></trkpt><trkpt lat="44.7014983" lon="9.7580333"><ele>920.0</ele><time>2026-04-06T12:10:25.506Z</time></trkpt><trkpt lat="44.7016133" lon="9.7578767"><ele>920.0</ele><time>2026-04-06T12:10:26.505Z</time></trkpt><trkpt lat="44.7017467" lon="9.757735"><ele>920.0</ele><time>2026-04-06T12:10:27.505Z</time></trkpt><trkpt lat="44.7018717" lon="9.7575883"><ele>924.5</ele><time>2026-04-06T12:10:28.505Z</time></trkpt><trkpt lat="44.7019483" lon="9.757435"><ele>929.0</ele><time>2026-04-06T12:10:29.505Z</time></trkpt><trkpt lat="44.7020017" lon="9.7572733"><ele>933.5</ele><time>2026-04-06T12:10:30.506Z</time></trkpt><trkpt lat="44.7020267" lon="9.7571117"><ele>938.0</ele><time>2026-04-06T12:10:31.506Z</time></trkpt><trkpt lat="44.702045" lon="9.7569633"><ele>933.25</ele><time>2026-04-06T12:10:32.506Z</time></trkpt><trkpt lat="44.702055" lon="9.7568233"><ele>928.5</ele><time>2026-04-06T12:10:33.505Z</time></trkpt><trkpt lat="44.7020967" lon="9.7567"><ele>923.75</ele><time>2026-04-06T12:10:34.505Z</time></trkpt><trkpt lat="44.702195" lon="9.756585"><ele>919.0</ele><time>2026-04-06T12:10:35.506Z</time></trkpt><trkpt lat="44.70232" lon="9.7564867"><ele>919.0</ele><time>2026-04-06T12:10:36.505Z</time></trkpt><trkpt lat="44.702475" lon="9.7563983"><ele>919.0</ele><time>2026-04-06T12:10:37.506Z</time></trkpt><trkpt lat="44.7026017" lon="9.7563167"><ele>919.0</ele><time>2026-04-06T12:10:38.505Z</time></trkpt><trkpt lat="44.7027283" lon="9.7562467"><ele>919.0</ele><time>2026-04-06T12:10:39.506Z</time></trkpt><trkpt lat="44.70286" lon="9.7561883"><ele>920.25</ele><time>2026-04-06T12:10:40.506Z</time></trkpt><trkpt lat="44.7030067" lon="9.756155"><ele>921.5</ele><time>2026-04-06T12:10:41.505Z</time></trkpt><trkpt lat="44.70315" lon="9.7561317"><ele>922.75</ele><time>2026-04-06T12:10:42.505Z</time></trkpt><trkpt lat="44.7033017" lon="9.7561417"><ele>924.0</ele><time>2026-04-06T12:10:43.504Z</time></trkpt><trkpt lat="44.70344" lon="9.7561617"><ele>924.0</ele><time>2026-04-06T12:10:44.505Z</time></trkpt><trkpt lat="44.70357" lon="9.7561967"><ele>924.0</ele><time>2026-04-06T12:10:45.505Z</time></trkpt><trkpt lat="44.7037" lon="9.75626"><ele>924.0</ele><time>2026-04-06T12:10:46.504Z</time></trkpt><trkpt lat="44.703835" lon="9.75635"><ele>924.0</ele><time>2026-04-06T12:10:47.505Z</time></trkpt><trkpt lat="44.7039633" lon="9.7564017"><ele>922.5</ele><time>2026-04-06T12:10:48.504Z</time></trkpt><trkpt lat="44.70409" lon="9.7564133"><ele>921.0</ele><time>2026-04-06T12:10:49.504Z</time></trkpt><trkpt lat="44.70421" lon="9.7564017"><ele>919.5</ele><time>2026-04-06T12:10:50.505Z</time></trkpt><trkpt lat="44.7043217" lon="9.7563533"><ele>918.0</ele><time>2026-04-06T12:10:51.504Z</time></trkpt><trkpt lat="44.7044367" lon="9.7562983"><ele>918.0</ele><time>2026-04-06T12:10:52.504Z</time></trkpt><trkpt lat="44.70456" lon="9.7562367"><ele>918.0</ele><time>2026-04-06T12:10:53.505Z</time></trkpt><trkpt lat="44.7046817" lon="9.7561583"><ele>918.0</ele><time>2026-04-06T12:10:54.504Z</time></trkpt><trkpt lat="44.7048033" lon="9.756085"><ele>918.0</ele><time>2026-04-06T12:10:55.504Z</time></trkpt><trkpt lat="44.7049217" lon="9.7560117"><ele>914.0</ele><time>2026-04-06T12:10:56.505Z</time></trkpt><trkpt lat="44.7050467" lon="9.7559433"><ele>910.0</ele><time>2026-04-06T12:10:57.504Z</time></trkpt><trkpt lat="44.7051617" lon="9.7559"><ele>906.0</ele><time>2026-04-06T12:10:58.504Z</time></trkpt><trkpt lat="44.705285" lon="9.755875"><ele>902.0</ele><time>2026-04-06T12:10:59.505Z</time></trkpt><trkpt lat="44.7053983" lon="9.7558683"><ele>902.8</ele><time>2026-04-06T12:11:00.504Z</time></trkpt><trkpt lat="44.7054983" lon="9.7558933"><ele>903.6</ele><time>2026-04-06T12:11:01.505Z</time></trkpt><trkpt lat="44.705585" lon="9.755985"><ele>904.3999999999999</ele><time>2026-04-06T12:11:02.504Z</time></trkpt><trkpt lat="44.7056233" lon="9.7561017"><ele>905.1999999999999</ele><time>2026-04-06T12:11:03.505Z</time></trkpt><trkpt lat="44.70565" lon="9.7562367"><ele>906.0</ele><time>2026-04-06T12:11:04.504Z</time></trkpt><trkpt lat="44.705665" lon="9.7563767"><ele>906.0</ele><time>2026-04-06T12:11:05.504Z</time></trkpt><trkpt lat="44.7056867" lon="9.756545"><ele>906.0</ele><time>2026-04-06T12:11:06.505Z</time></trkpt><trkpt lat="44.7057317" lon="9.7567133"><ele>906.0</ele><time>2026-04-06T12:11:07.505Z</time></trkpt><trkpt lat="44.7057833" lon="9.7568867"><ele>906.0</ele><time>2026-04-06T12:11:08.505Z</time></trkpt><trkpt lat="44.70587" lon="9.757095"><ele>903.6666666666667</ele><time>2026-04-06T12:11:09.505Z</time></trkpt><trkpt lat="44.7059483" lon="9.7572933"><ele>901.3333333333334</ele><time>2026-04-06T12:11:10.504Z</time></trkpt><trkpt lat="44.706065" lon="9.7574717"><ele>899.0</ele><time>2026-04-06T12:11:11.505Z</time></trkpt><trkpt lat="44.7061883" lon="9.75764"><ele>903.3333333333334</ele><time>2026-04-06T12:11:12.505Z</time></trkpt><trkpt lat="44.7063117" lon="9.7577983"><ele>907.6666666666667</ele><time>2026-04-06T12:11:13.504Z</time></trkpt><trkpt lat="44.70642" lon="9.7579517"><ele>912.0</ele><time>2026-04-06T12:11:14.505Z</time></trkpt><trkpt lat="44.7065317" lon="9.7580917"><ele>912.0</ele><time>2026-04-06T12:11:15.504Z</time></trkpt><trkpt lat="44.70666" lon="9.7582233"><ele>912.0</ele><time>2026-04-06T12:11:16.505Z</time></trkpt><trkpt lat="44.70678" lon="9.7583583"><ele>912.0</ele><time>2026-04-06T12:11:17.504Z</time></trkpt><trkpt lat="44.7068833" lon="9.7585017"><ele>908.0</ele><time>2026-04-06T12:11:18.505Z</time></trkpt><trkpt lat="44.7069733" lon="9.7586683"><ele>904.0</ele><time>2026-04-06T12:11:19.505Z</time></trkpt><trkpt lat="44.707045" lon="9.7588467"><ele>900.0</ele><time>2026-04-06T12:11:20.505Z</time></trkpt><trkpt lat="44.707105" lon="9.75903"><ele>896.0</ele><time>2026-04-06T12:11:21.505Z</time></trkpt><trkpt lat="44.7071733" lon="9.7592"><ele>898.0</ele><time>2026-04-06T12:11:22.504Z</time></trkpt><trkpt lat="44.707245" lon="9.7593683"><ele>900.0</ele><time>2026-04-06T12:11:23.504Z</time></trkpt><trkpt lat="44.7072983" lon="9.7595433"><ele>902.0</ele><time>2026-04-06T12:11:24.505Z</time></trkpt><trkpt lat="44.7073183" lon="9.7597333"><ele>904.0</ele><time>2026-04-06T12:11:25.505Z</time></trkpt><trkpt lat="44.707315" lon="9.7599417"><ele>904.0</ele><time>2026-04-06T12:11:26.505Z</time></trkpt><trkpt lat="44.7072883" lon="9.7601483"><ele>904.0</ele><time>2026-04-06T12:11:27.504Z</time></trkpt><trkpt lat="44.7072683" lon="9.76033"><ele>904.0</ele><time>2026-04-06T12:11:28.504Z</time></trkpt><trkpt lat="44.7072683" lon="9.7605"><ele>904.0</ele><time>2026-04-06T12:11:29.504Z</time></trkpt><trkpt lat="44.7072967" lon="9.760645"><ele>905.0</ele><time>2026-04-06T12:11:30.504Z</time></trkpt><trkpt lat="44.7073683" lon="9.7607767"><ele>906.0</ele><time>2026-04-06T12:11:31.505Z</time></trkpt><trkpt lat="44.7074517" lon="9.7608883"><ele>907.0</ele><time>2026-04-06T12:11:32.504Z</time></trkpt><trkpt lat="44.7075183" lon="9.761005"><ele>908.0</ele><time>2026-04-06T12:11:33.504Z</time></trkpt><trkpt lat="44.707585" lon="9.7611367"><ele>907.75</ele><time>2026-04-06T12:11:34.504Z</time></trkpt><trkpt lat="44.707635" lon="9.7612917"><ele>907.5</ele><time>2026-04-06T12:11:35.504Z</time></trkpt><trkpt lat="44.7076783" lon="9.7614533"><ele>907.25</ele><time>2026-04-06T12:11:36.505Z</time></trkpt><trkpt lat="44.7077383" lon="9.7616"><ele>907.0</ele><time>2026-04-06T12:11:37.504Z</time></trkpt><trkpt lat="44.7078117" lon="9.76172"><ele>907.0</ele><time>2026-04-06T12:11:38.504Z</time></trkpt><trkpt lat="44.7079217" lon="9.76179"><ele>907.0</ele><time>2026-04-06T12:11:39.505Z</time></trkpt><trkpt lat="44.7080617" lon="9.76185"><ele>907.0</ele><time>2026-04-06T12:11:40.504Z</time></trkpt><trkpt lat="44.70817" lon="9.76191"><ele>907.0</ele><time>2026-04-06T12:11:41.504Z</time></trkpt><trkpt lat="44.7082633" lon="9.762"><ele>908.0</ele><time>2026-04-06T12:11:42.504Z</time></trkpt><trkpt lat="44.7083467" lon="9.7621267"><ele>909.0</ele><time>2026-04-06T12:11:43.504Z</time></trkpt><trkpt lat="44.7084083" lon="9.7622867"><ele>910.0</ele><time>2026-04-06T12:11:44.505Z</time></trkpt><trkpt lat="44.7084467" lon="9.7624783"><ele>911.0</ele><time>2026-04-06T12:11:45.505Z</time></trkpt><trkpt lat="44.7084833" lon="9.7626767"><ele>912.6666666666667</ele><time>2026-04-06T12:11:46.505Z</time></trkpt><trkpt lat="44.708535" lon="9.7628917"><ele>914.3333333333333</ele><time>2026-04-06T12:11:47.505Z</time></trkpt><trkpt lat="44.7086083" lon="9.7631117"><ele>916.0</ele><time>2026-04-06T12:11:48.505Z</time></trkpt><trkpt lat="44.7087" lon="9.7633317"><ele>913.3333333333333</ele><time>2026-04-06T12:11:49.505Z</time></trkpt><trkpt lat="44.7088117" lon="9.7635883"><ele>910.6666666666667</ele><time>2026-04-06T12:11:50.504Z</time></trkpt><trkpt lat="44.7089317" lon="9.7638067"><ele>908.0</ele><time>2026-04-06T12:11:51.504Z</time></trkpt><trkpt lat="44.7089867" lon="9.7640417"><ele>908.0</ele><time>2026-04-06T12:11:52.505Z</time></trkpt><trkpt lat="44.7090733" lon="9.7642133"><ele>908.0</ele><time>2026-04-06T12:11:53.505Z</time></trkpt><trkpt lat="44.7091533" lon="9.7643833"><ele>908.0</ele><time>2026-04-06T12:11:54.505Z</time></trkpt><trkpt lat="44.7092317" lon="9.7645333"><ele>908.0</ele><time>2026-04-06T12:11:55.505Z</time></trkpt><trkpt lat="44.709315" lon="9.7646633"><ele>910.8</ele><time>2026-04-06T12:11:56.505Z</time></trkpt><trkpt lat="44.7093983" lon="9.764795"><ele>913.5999999999999</ele><time>2026-04-06T12:11:57.505Z</time></trkpt><trkpt lat="44.7094783" lon="9.7648967"><ele>916.4000000000001</ele><time>2026-04-06T12:11:58.505Z</time></trkpt><trkpt lat="44.70956" lon="9.7649717"><ele>919.2</ele><time>2026-04-06T12:11:59.504Z</time></trkpt><trkpt lat="44.7096467" lon="9.7650183"><ele>922.0</ele><time>2026-04-06T12:12:00.505Z</time></trkpt><trkpt lat="44.7097633" lon="9.7650033"><ele>922.0</ele><time>2026-04-06T12:12:01.504Z</time></trkpt><trkpt lat="44.7098717" lon="9.76492"><ele>922.0</ele><time>2026-04-06T12:12:02.504Z</time></trkpt><trkpt lat="44.7099483" lon="9.76473"><ele>922.0</ele><time>2026-04-06T12:12:03.505Z</time></trkpt><trkpt lat="44.7100183" lon="9.7645133"><ele>922.0</ele><time>2026-04-06T12:12:04.504Z</time></trkpt><trkpt lat="44.7101033" lon="9.7643833"><ele>917.6</ele><time>2026-04-06T12:12:05.504Z</time></trkpt><trkpt lat="44.7101933" lon="9.7642617"><ele>913.2</ele><time>2026-04-06T12:12:06.505Z</time></trkpt><trkpt lat="44.7102817" lon="9.7641467"><ele>908.8</ele><time>2026-04-06T12:12:07.504Z</time></trkpt><trkpt lat="44.7103733" lon="9.764055"><ele>904.4</ele><time>2026-04-06T12:12:08.505Z</time></trkpt><trkpt lat="44.7104417" lon="9.7640083"><ele>900.0</ele><time>2026-04-06T12:12:09.504Z</time></trkpt><trkpt lat="44.7105067" lon="9.7640167"><ele>899.2</ele><time>2026-04-06T12:12:10.504Z</time></trkpt><trkpt lat="44.7105717" lon="9.7640983"><ele>898.4</ele><time>2026-04-06T12:12:11.504Z</time></trkpt><trkpt lat="44.710635" lon="9.764225"><ele>897.5999999999999</ele><time>2026-04-06T12:12:12.504Z</time></trkpt><trkpt lat="44.71069" lon="9.7643767"><ele>896.8</ele><time>2026-04-06T12:12:13.504Z</time></trkpt><trkpt lat="44.7107333" lon="9.7645367"><ele>896.0</ele><time>2026-04-06T12:12:14.504Z</time></trkpt><trkpt lat="44.710765" lon="9.764695"><ele>896.0</ele><time>2026-04-06T12:12:15.505Z</time></trkpt><trkpt lat="44.7108067" lon="9.764855"><ele>896.0</ele><time>2026-04-06T12:12:16.505Z</time></trkpt><trkpt lat="44.7108383" lon="9.7650183"><ele>896.0</ele><time>2026-04-06T12:12:17.504Z</time></trkpt><trkpt lat="44.7108483" lon="9.765175"><ele>896.0</ele><time>2026-04-06T12:12:18.505Z</time></trkpt><trkpt lat="44.7108583" lon="9.76534"><ele>897.5</ele><time>2026-04-06T12:12:19.505Z</time></trkpt><trkpt lat="44.71086" lon="9.7655083"><ele>899.0</ele><time>2026-04-06T12:12:20.505Z</time></trkpt><trkpt lat="44.71085" lon="9.76569"><ele>900.5</ele><time>2026-04-06T12:12:21.505Z</time></trkpt><trkpt lat="44.710845" lon="9.7658783"><ele>902.0</ele><time>2026-04-06T12:12:22.504Z</time></trkpt><trkpt lat="44.7108333" lon="9.7660667"><ele>902.25</ele><time>2026-04-06T12:12:23.504Z</time></trkpt><trkpt lat="44.7108067" lon="9.766265"><ele>902.5</ele><time>2026-04-06T12:12:24.504Z</time></trkpt><trkpt lat="44.71085" lon="9.7664333"><ele>902.75</ele><time>2026-04-06T12:12:25.505Z</time></trkpt><trkpt lat="44.7108883" lon="9.7665767"><ele>903.0</ele><time>2026-04-06T12:12:26.504Z</time></trkpt><trkpt lat="44.7109167" lon="9.7667083"><ele>903.0</ele><time>2026-04-06T12:12:27.504Z</time></trkpt><trkpt lat="44.7109283" lon="9.7668517"><ele>903.0</ele><time>2026-04-06T12:12:28.505Z</time></trkpt><trkpt lat="44.7109417" lon="9.76701"><ele>903.0</ele><time>2026-04-06T12:12:29.505Z</time></trkpt><trkpt lat="44.7109417" lon="9.76717"><ele>903.0</ele><time>2026-04-06T12:12:30.505Z</time></trkpt><trkpt lat="44.71094" lon="9.7673283"><ele>903.0</ele><time>2026-04-06T12:12:31.505Z</time></trkpt><trkpt lat="44.7109333" lon="9.767495"><ele>902.5999999999999</ele><time>2026-04-06T12:12:32.505Z</time></trkpt><trkpt lat="44.7109383" lon="9.7676617"><ele>902.1999999999999</ele><time>2026-04-06T12:12:33.505Z</time></trkpt><trkpt lat="44.7109467" lon="9.767815"><ele>901.8</ele><time>2026-04-06T12:12:34.504Z</time></trkpt><trkpt lat="44.710935" lon="9.767955"><ele>901.4</ele><time>2026-04-06T12:12:35.504Z</time></trkpt><trkpt lat="44.71092" lon="9.768095"><ele>901.0</ele><time>2026-04-06T12:12:36.504Z</time></trkpt><trkpt lat="44.7109183" lon="9.7682333"><ele>901.0</ele><time>2026-04-06T12:12:37.504Z</time></trkpt><trkpt lat="44.710925" lon="9.7683733"><ele>900.9999999999999</ele><time>2026-04-06T12:12:38.504Z</time></trkpt><trkpt lat="44.71095" lon="9.7684917"><ele>900.9999999999999</ele><time>2026-04-06T12:12:39.505Z</time></trkpt><trkpt lat="44.7109883" lon="9.7685967"><ele>901.0</ele><time>2026-04-06T12:12:40.504Z</time></trkpt><trkpt lat="44.7110417" lon="9.7687017"><ele>901.0</ele><time>2026-04-06T12:12:41.504Z</time></trkpt><trkpt lat="44.7111367" lon="9.7687517"><ele>898.75</ele><time>2026-04-06T12:12:42.505Z</time></trkpt><trkpt lat="44.71125" lon="9.7688017"><ele>896.5</ele><time>2026-04-06T12:12:43.504Z</time></trkpt><trkpt lat="44.7113867" lon="9.7688367"><ele>894.25</ele><time>2026-04-06T12:12:44.505Z</time></trkpt><trkpt lat="44.7115" lon="9.7688933"><ele>892.0</ele><time>2026-04-06T12:12:45.505Z</time></trkpt><trkpt lat="44.7116167" lon="9.7689767"><ele>892.0</ele><time>2026-04-06T12:12:46.504Z</time></trkpt><trkpt lat="44.711745" lon="9.76906"><ele>892.0</ele><time>2026-04-06T12:12:47.504Z</time></trkpt><trkpt lat="44.7118683" lon="9.76918"><ele>892.0</ele><time>2026-04-06T12:12:48.504Z</time></trkpt><trkpt lat="44.7120083" lon="9.7692817"><ele>892.0</ele><time>2026-04-06T12:12:49.504Z</time></trkpt><trkpt lat="44.7121183" lon="9.7693867"><ele>887.0</ele><time>2026-04-06T12:12:50.505Z</time></trkpt><trkpt lat="44.7122167" lon="9.7695033"><ele>882.0</ele><time>2026-04-06T12:12:51.504Z</time></trkpt><trkpt lat="44.712295" lon="9.769615"><ele>877.0</ele><time>2026-04-06T12:12:52.505Z</time></trkpt><trkpt lat="44.7122833" lon="9.7697267"><ele>872.0</ele><time>2026-04-06T12:12:53.505Z</time></trkpt><trkpt lat="44.7122883" lon="9.769825"><ele>867.0</ele><time>2026-04-06T12:12:54.505Z</time></trkpt><trkpt lat="44.712285" lon="9.769915"><ele>867.0</ele><time>2026-04-06T12:12:55.505Z</time></trkpt><trkpt lat="44.71226" lon="9.7700033"><ele>867.0</ele><time>2026-04-06T12:12:56.504Z</time></trkpt><trkpt lat="44.7122383" lon="9.7700967"><ele>867.0</ele><time>2026-04-06T12:12:57.504Z</time></trkpt><trkpt lat="44.7121967" lon="9.77018"><ele>867.0</ele><time>2026-04-06T12:12:58.504Z</time></trkpt><trkpt lat="44.7121683" lon="9.7702883"><ele>867.0</ele><time>2026-04-06T12:12:59.504Z</time></trkpt><trkpt lat="44.7121467" lon="9.770435"><ele>867.0</ele><time>2026-04-06T12:13:00.505Z</time></trkpt><trkpt lat="44.7121283" lon="9.7706033"><ele>866.0</ele><time>2026-04-06T12:13:01.505Z</time></trkpt><trkpt lat="44.7121633" lon="9.7707483"><ele>865.0</ele><time>2026-04-06T12:13:02.504Z</time></trkpt><trkpt lat="44.712165" lon="9.7709017"><ele>864.0</ele><time>2026-04-06T12:13:03.505Z</time></trkpt><trkpt lat="44.7121617" lon="9.7710717"><ele>863.0</ele><time>2026-04-06T12:13:04.504Z</time></trkpt><trkpt lat="44.7121433" lon="9.7712667"><ele>862.5</ele><time>2026-04-06T12:13:05.505Z</time></trkpt><trkpt lat="44.712145" lon="9.7714667"><ele>862.0</ele><time>2026-04-06T12:13:06.505Z</time></trkpt><trkpt lat="44.7121533" lon="9.7716383"><ele>861.5</ele><time>2026-04-06T12:13:07.504Z</time></trkpt><trkpt lat="44.71213" lon="9.77179"><ele>861.0</ele><time>2026-04-06T12:13:08.504Z</time></trkpt><trkpt lat="44.7120817" lon="9.77191"><ele>860.75</ele><time>2026-04-06T12:13:09.505Z</time></trkpt><trkpt lat="44.7119967" lon="9.772015"><ele>860.5</ele><time>2026-04-06T12:13:10.504Z</time></trkpt><trkpt lat="44.7118833" lon="9.7721"><ele>860.25</ele><time>2026-04-06T12:13:11.505Z</time></trkpt><trkpt lat="44.7117783" lon="9.7721917"><ele>860.0</ele><time>2026-04-06T12:13:12.504Z</time></trkpt><trkpt lat="44.7116817" lon="9.772315"><ele>860.0</ele><time>2026-04-06T12:13:13.505Z</time></trkpt><trkpt lat="44.7116033" lon="9.77247"><ele>860.0</ele><time>2026-04-06T12:13:14.504Z</time></trkpt><trkpt lat="44.7115367" lon="9.7726267"><ele>860.0</ele><time>2026-04-06T12:13:15.505Z</time></trkpt><trkpt lat="44.71147" lon="9.7727867"><ele>860.0</ele><time>2026-04-06T12:13:16.504Z</time></trkpt><trkpt lat="44.7113883" lon="9.772935"><ele>858.25</ele><time>2026-04-06T12:13:17.504Z</time></trkpt><trkpt lat="44.7113317" lon="9.7730733"><ele>856.5</ele><time>2026-04-06T12:13:18.505Z</time></trkpt><trkpt lat="44.7113" lon="9.7732083"><ele>854.75</ele><time>2026-04-06T12:13:19.505Z</time></trkpt><trkpt lat="44.7112767" lon="9.7733767"><ele>853.0</ele><time>2026-04-06T12:13:20.505Z</time></trkpt><trkpt lat="44.7113067" lon="9.7735533"><ele>852.5</ele><time>2026-04-06T12:13:21.504Z</time></trkpt><trkpt lat="44.7113517" lon="9.7737283"><ele>852.0</ele><time>2026-04-06T12:13:22.505Z</time></trkpt><trkpt lat="44.7114033" lon="9.7739183"><ele>851.5</ele><time>2026-04-06T12:13:23.505Z</time></trkpt><trkpt lat="44.7114567" lon="9.7741133"><ele>851.0</ele><time>2026-04-06T12:13:24.505Z</time></trkpt><trkpt lat="44.711535" lon="9.774285"><ele>852.75</ele><time>2026-04-06T12:13:25.505Z</time></trkpt><trkpt lat="44.7116133" lon="9.7744617"><ele>854.5</ele><time>2026-04-06T12:13:26.504Z</time></trkpt><trkpt lat="44.711685" lon="9.774645"><ele>856.25</ele><time>2026-04-06T12:13:27.505Z</time></trkpt><trkpt lat="44.71177" lon="9.77482"><ele>858.0</ele><time>2026-04-06T12:13:28.504Z</time></trkpt><trkpt lat="44.711865" lon="9.7749983"><ele>851.0</ele><time>2026-04-06T12:13:29.504Z</time></trkpt><trkpt lat="44.7119567" lon="9.7751867"><ele>844.0</ele><time>2026-04-06T12:13:30.505Z</time></trkpt><trkpt lat="44.7120383" lon="9.7753733"><ele>837.0</ele><time>2026-04-06T12:13:31.504Z</time></trkpt><trkpt lat="44.7121317" lon="9.7755483"><ele>837.0</ele><time>2026-04-06T12:13:32.504Z</time></trkpt><trkpt lat="44.7122117" lon="9.775715"><ele>837.0</ele><time>2026-04-06T12:13:33.505Z</time></trkpt><trkpt lat="44.712305" lon="9.7758817"><ele>837.0</ele><time>2026-04-06T12:13:34.504Z</time></trkpt><trkpt lat="44.7123867" lon="9.776045"><ele>837.0</ele><time>2026-04-06T12:13:35.504Z</time></trkpt><trkpt lat="44.7125" lon="9.776185"><ele>837.75</ele><time>2026-04-06T12:13:36.504Z</time></trkpt><trkpt lat="44.7126117" lon="9.7763217"><ele>838.5</ele><time>2026-04-06T12:13:37.504Z</time></trkpt><trkpt lat="44.7126967" lon="9.77645"><ele>839.25</ele><time>2026-04-06T12:13:38.505Z</time></trkpt><trkpt lat="44.7127667" lon="9.7765867"><ele>840.0</ele><time>2026-04-06T12:13:39.504Z</time></trkpt><trkpt lat="44.7128117" lon="9.7767183"><ele>839.0</ele><time>2026-04-06T12:13:40.504Z</time></trkpt><trkpt lat="44.7128333" lon="9.7768617"><ele>838.0</ele><time>2026-04-06T12:13:41.505Z</time></trkpt><trkpt lat="44.712805" lon="9.77702"><ele>837.0</ele><time>2026-04-06T12:13:42.505Z</time></trkpt><trkpt lat="44.712745" lon="9.7771767"><ele>836.0</ele><time>2026-04-06T12:13:43.504Z</time></trkpt><trkpt lat="44.7126667" lon="9.777335"><ele>836.0</ele><time>2026-04-06T12:13:44.504Z</time></trkpt><trkpt lat="44.7125833" lon="9.7774967"><ele>836.0</ele><time>2026-04-06T12:13:45.504Z</time></trkpt><trkpt lat="44.7125467" lon="9.7776717"><ele>836.0</ele><time>2026-04-06T12:13:46.505Z</time></trkpt><trkpt lat="44.7125383" lon="9.7778633"><ele>836.0</ele><time>2026-04-06T12:13:47.504Z</time></trkpt><trkpt lat="44.7125617" lon="9.77805"><ele>835.6666666666667</ele><time>2026-04-06T12:13:48.505Z</time></trkpt><trkpt lat="44.7126183" lon="9.77823"><ele>835.3333333333333</ele><time>2026-04-06T12:13:49.504Z</time></trkpt><trkpt lat="44.7127317" lon="9.778395"><ele>835.0</ele><time>2026-04-06T12:13:50.504Z</time></trkpt><trkpt lat="44.7128267" lon="9.778555"><ele>830.5</ele><time>2026-04-06T12:13:51.505Z</time></trkpt><trkpt lat="44.712915" lon="9.77872"><ele>826.0</ele><time>2026-04-06T12:13:52.504Z</time></trkpt><trkpt lat="44.712965" lon="9.7788783"><ele>821.5</ele><time>2026-04-06T12:13:53.504Z</time></trkpt><trkpt lat="44.7130183" lon="9.77903"><ele>817.0</ele><time>2026-04-06T12:13:54.504Z</time></trkpt><trkpt lat="44.713035" lon="9.7791933"><ele>816.6</ele><time>2026-04-06T12:13:55.505Z</time></trkpt><trkpt lat="44.7130267" lon="9.7793517"><ele>816.2</ele><time>2026-04-06T12:13:56.505Z</time></trkpt><trkpt lat="44.7129883" lon="9.7795033"><ele>815.8</ele><time>2026-04-06T12:13:57.504Z</time></trkpt><trkpt lat="44.71296" lon="9.77965"><ele>815.4</ele><time>2026-04-06T12:13:58.504Z</time></trkpt><trkpt lat="44.7129717" lon="9.779805"><ele>815.0</ele><time>2026-04-06T12:13:59.505Z</time></trkpt><trkpt lat="44.7130117" lon="9.779965"><ele>815.0</ele><time>2026-04-06T12:14:00.504Z</time></trkpt><trkpt lat="44.7130783" lon="9.7801233"><ele>815.0</ele><time>2026-04-06T12:14:01.504Z</time></trkpt><trkpt lat="44.71315" lon="9.7802833"><ele>815.0</ele><time>2026-04-06T12:14:02.505Z</time></trkpt><trkpt lat="44.713205" lon="9.7804283"><ele>815.0</ele><time>2026-04-06T12:14:03.505Z</time></trkpt><trkpt lat="44.7132317" lon="9.7805917"><ele>814.25</ele><time>2026-04-06T12:14:04.505Z</time></trkpt><trkpt lat="44.71326" lon="9.7807483"><ele>813.5</ele><time>2026-04-06T12:14:05.505Z</time></trkpt><trkpt lat="44.7133133" lon="9.7809"><ele>812.75</ele><time>2026-04-06T12:14:06.504Z</time></trkpt><trkpt lat="44.7133933" lon="9.7810433"><ele>812.0</ele><time>2026-04-06T12:14:07.504Z</time></trkpt><trkpt lat="44.71351" lon="9.7811517"><ele>812.2</ele><time>2026-04-06T12:14:08.505Z</time></trkpt><trkpt lat="44.7136333" lon="9.781225"><ele>812.4000000000001</ele><time>2026-04-06T12:14:09.504Z</time></trkpt><trkpt lat="44.7137333" lon="9.7812917"><ele>812.5999999999999</ele><time>2026-04-06T12:14:10.505Z</time></trkpt><trkpt lat="44.7138233" lon="9.7813667"><ele>812.8</ele><time>2026-04-06T12:14:11.505Z</time></trkpt><trkpt lat="44.7138917" lon="9.7814483"><ele>813.0</ele><time>2026-04-06T12:14:12.505Z</time></trkpt><trkpt lat="44.713925" lon="9.7815383"><ele>813.0</ele><time>2026-04-06T12:14:13.505Z</time></trkpt><trkpt lat="44.7139517" lon="9.7816817"><ele>813.0</ele><time>2026-04-06T12:14:15.505Z</time></trkpt><trkpt lat="44.7139667" lon="9.781825"><ele>813.0</ele><time>2026-04-06T12:14:17.504Z</time></trkpt><trkpt lat="44.7139967" lon="9.7819583"><ele>813.0</ele><time>2026-04-06T12:14:19.505Z</time></trkpt><trkpt lat="44.714035" lon="9.782085"><ele>813.0</ele><time>2026-04-06T12:14:21.505Z</time></trkpt><trkpt lat="44.7141433" lon="9.7821817"><ele>811.5</ele><time>2026-04-06T12:14:23.504Z</time></trkpt><trkpt lat="44.7142017" lon="9.782235"><ele>810.0</ele><time>2026-04-06T12:14:24.505Z</time></trkpt><trkpt lat="44.7143317" lon="9.7823233"><ele>808.5</ele><time>2026-04-06T12:14:25.504Z</time></trkpt><trkpt lat="44.7144233" lon="9.7824417"><ele>807.0</ele><time>2026-04-06T12:14:26.504Z</time></trkpt><trkpt lat="44.7145217" lon="9.78262"><ele>811.0</ele><time>2026-04-06T12:14:27.505Z</time></trkpt><trkpt lat="44.7145867" lon="9.7828033"><ele>815.0</ele><time>2026-04-06T12:14:28.504Z</time></trkpt><trkpt lat="44.7146333" lon="9.783"><ele>819.0</ele><time>2026-04-06T12:14:29.504Z</time></trkpt><trkpt lat="44.7146733" lon="9.7831983"><ele>823.0</ele><time>2026-04-06T12:14:30.504Z</time></trkpt><trkpt lat="44.714695" lon="9.783465"><ele>820.6666666666666</ele><time>2026-04-06T12:14:31.504Z</time></trkpt><trkpt lat="44.714715" lon="9.7837667"><ele>818.3333333333333</ele><time>2026-04-06T12:14:32.505Z</time></trkpt><trkpt lat="44.7147117" lon="9.7840283"><ele>816.0</ele><time>2026-04-06T12:14:33.505Z</time></trkpt><trkpt lat="44.7147117" lon="9.7843"><ele>814.6666666666667</ele><time>2026-04-06T12:14:34.504Z</time></trkpt><trkpt lat="44.71473" lon="9.7845267"><ele>813.3333333333334</ele><time>2026-04-06T12:14:35.504Z</time></trkpt><trkpt lat="44.7147633" lon="9.7847383"><ele>812.0</ele><time>2026-04-06T12:14:36.505Z</time></trkpt><trkpt lat="44.7148183" lon="9.784925"><ele>812.0</ele><time>2026-04-06T12:14:37.505Z</time></trkpt><trkpt lat="44.7148633" lon="9.785105"><ele>812.0</ele><time>2026-04-06T12:14:38.505Z</time></trkpt><trkpt lat="44.714895" lon="9.78528"><ele>812.0</ele><time>2026-04-06T12:14:39.505Z</time></trkpt><trkpt lat="44.7149083" lon="9.7854633"><ele>812.0</ele><time>2026-04-06T12:14:40.504Z</time></trkpt><trkpt lat="44.7149017" lon="9.7856317"><ele>813.75</ele><time>2026-04-06T12:14:41.504Z</time></trkpt><trkpt lat="44.7148833" lon="9.7857883"><ele>815.5</ele><time>2026-04-06T12:14:42.504Z</time></trkpt><trkpt lat="44.71485" lon="9.7859517"><ele>817.25</ele><time>2026-04-06T12:14:43.505Z</time></trkpt><trkpt lat="44.7147933" lon="9.7861"><ele>819.0</ele><time>2026-04-06T12:14:44.505Z</time></trkpt><trkpt lat="44.7147083" lon="9.786195"><ele>822.2</ele><time>2026-04-06T12:14:45.504Z</time></trkpt><trkpt lat="44.7146183" lon="9.786265"><ele>825.4000000000001</ele><time>2026-04-06T12:14:46.505Z</time></trkpt><trkpt lat="44.7145467" lon="9.78635"><ele>828.6</ele><time>2026-04-06T12:14:47.505Z</time></trkpt><trkpt lat="44.7145" lon="9.7864867"><ele>831.8</ele><time>2026-04-06T12:14:48.504Z</time></trkpt><trkpt lat="44.7144867" lon="9.786645"><ele>835.0</ele><time>2026-04-06T12:14:49.504Z</time></trkpt><trkpt lat="44.7144717" lon="9.7868033"><ele>836.0</ele><time>2026-04-06T12:14:50.504Z</time></trkpt><trkpt lat="44.714485" lon="9.7869767"><ele>837.0</ele><time>2026-04-06T12:14:51.504Z</time></trkpt><trkpt lat="44.7144733" lon="9.7871283"><ele>838.0</ele><time>2026-04-06T12:14:52.504Z</time></trkpt><trkpt lat="44.7144867" lon="9.7873517"><ele>839.0</ele><time>2026-04-06T12:14:53.504Z</time></trkpt><trkpt lat="44.7145167" lon="9.7875533"><ele>836.75</ele><time>2026-04-06T12:14:54.504Z</time></trkpt><trkpt lat="44.7145183" lon="9.7877517"><ele>834.5</ele><time>2026-04-06T12:14:55.505Z</time></trkpt><trkpt lat="44.7145" lon="9.7879333"><ele>832.25</ele><time>2026-04-06T12:14:56.504Z</time></trkpt><trkpt lat="44.7144717" lon="9.7880933"><ele>830.0</ele><time>2026-04-06T12:14:57.505Z</time></trkpt><trkpt lat="44.7144567" lon="9.7882417"><ele>830.0</ele><time>2026-04-06T12:14:58.504Z</time></trkpt><trkpt lat="44.7144583" lon="9.7884017"><ele>830.0</ele><time>2026-04-06T12:14:59.504Z</time></trkpt><trkpt lat="44.7144667" lon="9.7885267"><ele>830.0</ele><time>2026-04-06T12:15:00.505Z</time></trkpt><trkpt lat="44.7144933" lon="9.7886317"><ele>830.0</ele><time>2026-04-06T12:15:02.505Z</time></trkpt><trkpt lat="44.7145617" lon="9.788705"><ele>830.0</ele><time>2026-04-06T12:15:03.504Z</time></trkpt><trkpt lat="44.7146517" lon="9.7887983"><ele>827.25</ele><time>2026-04-06T12:15:04.504Z</time></trkpt><trkpt lat="44.7147517" lon="9.7888917"><ele>824.5</ele><time>2026-04-06T12:15:05.504Z</time></trkpt><trkpt lat="44.7148433" lon="9.7890133"><ele>821.75</ele><time>2026-04-06T12:15:06.504Z</time></trkpt><trkpt lat="44.7149317" lon="9.789165"><ele>819.0</ele><time>2026-04-06T12:15:07.505Z</time></trkpt><trkpt lat="44.7150017" lon="9.7893183"><ele>818.3333333333333</ele><time>2026-04-06T12:15:08.504Z</time></trkpt><trkpt lat="44.7150517" lon="9.7894717"><ele>817.6666666666666</ele><time>2026-04-06T12:15:09.505Z</time></trkpt><trkpt lat="44.7149567" lon="9.789725"><ele>817.0</ele><time>2026-04-06T12:15:10.503Z</time></trkpt><trkpt lat="44.7149183" lon="9.789935"><ele>818.0</ele><time>2026-04-06T12:15:11.504Z</time></trkpt><trkpt lat="44.7148617" lon="9.79019"><ele>819.0</ele><time>2026-04-06T12:15:12.504Z</time></trkpt><trkpt lat="44.714815" lon="9.7904083"><ele>820.0</ele><time>2026-04-06T12:15:13.504Z</time></trkpt><trkpt lat="44.71478" lon="9.7906167"><ele>820.0</ele><time>2026-04-06T12:15:14.503Z</time></trkpt><trkpt lat="44.7147367" lon="9.7908"><ele>820.0</ele><time>2026-04-06T12:15:15.504Z</time></trkpt><trkpt lat="44.7148133" lon="9.79105"><ele>820.0</ele><time>2026-04-06T12:15:16.503Z</time></trkpt><trkpt lat="44.7148167" lon="9.7913433"><ele>816.5</ele><time>2026-04-06T12:15:18.504Z</time></trkpt><trkpt lat="44.7148483" lon="9.7914717"><ele>813.0</ele><time>2026-04-06T12:15:19.504Z</time></trkpt><trkpt lat="44.7149967" lon="9.7915633"><ele>809.5</ele><time>2026-04-06T12:15:20.503Z</time></trkpt><trkpt lat="44.7151117" lon="9.7916517"><ele>806.0</ele><time>2026-04-06T12:15:21.503Z</time></trkpt><trkpt lat="44.7152367" lon="9.791725"><ele>808.5</ele><time>2026-04-06T12:15:22.504Z</time></trkpt><trkpt lat="44.7153467" lon="9.791795"><ele>811.0</ele><time>2026-04-06T12:15:23.503Z</time></trkpt><trkpt lat="44.7154633" lon="9.7918417"><ele>813.5</ele><time>2026-04-06T12:15:24.504Z</time></trkpt><trkpt lat="44.7156383" lon="9.7918867"><ele>816.0</ele><time>2026-04-06T12:15:25.504Z</time></trkpt><trkpt lat="44.7157633" lon="9.791925"><ele>816.0</ele><time>2026-04-06T12:15:26.504Z</time></trkpt><trkpt lat="44.7158633" lon="9.7919567"><ele>816.0</ele><time>2026-04-06T12:15:27.503Z</time></trkpt><trkpt lat="44.7159567" lon="9.7919783"><ele>816.0</ele><time>2026-04-06T12:15:28.503Z</time></trkpt><trkpt lat="44.7160367" lon="9.7919983"><ele>816.0</ele><time>2026-04-06T12:15:29.503Z</time></trkpt><trkpt lat="44.7161067" lon="9.7919683"><ele>816.0</ele><time>2026-04-06T12:15:30.503Z</time></trkpt><trkpt lat="44.716175" lon="9.7919333"><ele>816.0</ele><time>2026-04-06T12:15:31.503Z</time></trkpt><trkpt lat="44.7162583" lon="9.7918917"><ele>817.3333333333334</ele><time>2026-04-06T12:15:32.503Z</time></trkpt><trkpt lat="44.7163383" lon="9.791865"><ele>818.6666666666667</ele><time>2026-04-06T12:15:33.503Z</time></trkpt><trkpt lat="44.716415" lon="9.79184"><ele>820.0</ele><time>2026-04-06T12:15:34.504Z</time></trkpt><trkpt lat="44.716485" lon="9.79182"><ele>821.3333333333334</ele><time>2026-04-06T12:15:35.503Z</time></trkpt><trkpt lat="44.7165467" lon="9.791785"><ele>822.6666666666667</ele><time>2026-04-06T12:15:36.504Z</time></trkpt><trkpt lat="44.7166633" lon="9.791715"><ele>824.0</ele><time>2026-04-06T12:15:38.504Z</time></trkpt><trkpt lat="44.7167583" lon="9.7916"><ele>825.6</ele><time>2026-04-06T12:15:40.504Z</time></trkpt><trkpt lat="44.7168083" lon="9.79154"><ele>827.2</ele><time>2026-04-06T12:15:41.503Z</time></trkpt><trkpt lat="44.7169017" lon="9.7914233"><ele>828.8000000000001</ele><time>2026-04-06T12:15:43.503Z</time></trkpt><trkpt lat="44.717005" lon="9.7913417"><ele>830.4000000000001</ele><time>2026-04-06T12:15:45.504Z</time></trkpt><trkpt lat="44.717105" lon="9.7913367"><ele>832.0</ele><time>2026-04-06T12:15:47.503Z</time></trkpt><trkpt lat="44.7171683" lon="9.7913617"><ele>832.9999999999999</ele><time>2026-04-06T12:15:48.503Z</time></trkpt><trkpt lat="44.717245" lon="9.7914083"><ele>834.0</ele><time>2026-04-06T12:15:49.504Z</time></trkpt><trkpt lat="44.7173383" lon="9.7914767"><ele>835.0</ele><time>2026-04-06T12:15:50.504Z</time></trkpt><trkpt lat="44.7174117" lon="9.791525"><ele>836.0</ele><time>2026-04-06T12:15:51.504Z</time></trkpt><trkpt lat="44.7174917" lon="9.7915617"><ele>836.9999999999999</ele><time>2026-04-06T12:15:52.503Z</time></trkpt><trkpt lat="44.71756" lon="9.7916067"><ele>838.0</ele><time>2026-04-06T12:15:53.503Z</time></trkpt><trkpt lat="44.7176633" lon="9.7916967"><ele>837.9999999999999</ele><time>2026-04-06T12:15:55.504Z</time></trkpt><trkpt lat="44.717725" lon="9.7917633"><ele>838.0</ele><time>2026-04-06T12:15:56.503Z</time></trkpt><trkpt lat="44.7177817" lon="9.7918267"><ele>838.0</ele><time>2026-04-06T12:15:57.504Z</time></trkpt><trkpt lat="44.7178383" lon="9.7919033"><ele>838.0</ele><time>2026-04-06T12:15:58.503Z</time></trkpt><trkpt lat="44.717915" lon="9.7920167"><ele>837.9999999999999</ele><time>2026-04-06T12:15:59.504Z</time></trkpt><trkpt lat="44.7179683" lon="9.7921383"><ele>838.0</ele><time>2026-04-06T12:16:00.503Z</time></trkpt><trkpt lat="44.71803" lon="9.7922633"><ele>838.5</ele><time>2026-04-06T12:16:01.503Z</time></trkpt><trkpt lat="44.7181033" lon="9.7923817"><ele>839.0</ele><time>2026-04-06T12:16:02.503Z</time></trkpt><trkpt lat="44.7181917" lon="9.792485"><ele>839.5</ele><time>2026-04-06T12:16:03.504Z</time></trkpt><trkpt lat="44.7183" lon="9.7925867"><ele>840.0</ele><time>2026-04-06T12:16:04.503Z</time></trkpt><trkpt lat="44.7183983" lon="9.792685"><ele>840.0</ele><time>2026-04-06T12:16:05.503Z</time></trkpt><trkpt lat="44.7184883" lon="9.7927867"><ele>840.0</ele><time>2026-04-06T12:16:06.503Z</time></trkpt><trkpt lat="44.7185733" lon="9.7928683"><ele>840.0</ele><time>2026-04-06T12:16:07.503Z</time></trkpt><trkpt lat="44.7186533" lon="9.7929567"><ele>840.0</ele><time>2026-04-06T12:16:08.503Z</time></trkpt><trkpt lat="44.7187383" lon="9.7930567"><ele>840.0</ele><time>2026-04-06T12:16:09.504Z</time></trkpt><trkpt lat="44.7188067" lon="9.79313"><ele>841.6</ele><time>2026-04-06T12:16:10.503Z</time></trkpt><trkpt lat="44.7188733" lon="9.7932433"><ele>843.2</ele><time>2026-04-06T12:16:11.504Z</time></trkpt><trkpt lat="44.71893" lon="9.7933617"><ele>844.8</ele><time>2026-04-06T12:16:12.504Z</time></trkpt><trkpt lat="44.71897" lon="9.7934917"><ele>846.4</ele><time>2026-04-06T12:16:13.503Z</time></trkpt><trkpt lat="44.7190117" lon="9.7936117"><ele>848.0</ele><time>2026-04-06T12:16:14.504Z</time></trkpt><trkpt lat="44.7190417" lon="9.79377"><ele>848.0</ele><time>2026-04-06T12:16:15.504Z</time></trkpt><trkpt lat="44.71907" lon="9.793945"><ele>848.0</ele><time>2026-04-06T12:16:16.503Z</time></trkpt><trkpt lat="44.7190883" lon="9.7941133"><ele>848.0</ele><time>2026-04-06T12:16:17.503Z</time></trkpt><trkpt lat="44.7191133" lon="9.7942917"><ele>848.0</ele><time>2026-04-06T12:16:18.503Z</time></trkpt><trkpt lat="44.71915" lon="9.7944417"><ele>846.25</ele><time>2026-04-06T12:16:19.503Z</time></trkpt><trkpt lat="44.7192167" lon="9.7945967"><ele>844.5</ele><time>2026-04-06T12:16:20.504Z</time></trkpt><trkpt lat="44.71929" lon="9.7947533"><ele>842.75</ele><time>2026-04-06T12:16:21.503Z</time></trkpt><trkpt lat="44.719355" lon="9.7949183"><ele>841.0</ele><time>2026-04-06T12:16:22.504Z</time></trkpt><trkpt lat="44.71942" lon="9.7950583"><ele>844.0</ele><time>2026-04-06T12:16:23.503Z</time></trkpt><trkpt lat="44.7194867" lon="9.79518"><ele>847.0</ele><time>2026-04-06T12:16:24.503Z</time></trkpt><trkpt lat="44.7195533" lon="9.7953217"><ele>850.0</ele><time>2026-04-06T12:16:25.503Z</time></trkpt><trkpt lat="44.7196317" lon="9.79545"><ele>853.0</ele><time>2026-04-06T12:16:26.504Z</time></trkpt><trkpt lat="44.7196933" lon="9.7955783"><ele>852.9999999999999</ele><time>2026-04-06T12:16:27.503Z</time></trkpt><trkpt lat="44.71973" lon="9.7957"><ele>853.0</ele><time>2026-04-06T12:16:28.504Z</time></trkpt><trkpt lat="44.7197583" lon="9.79582"><ele>853.0</ele><time>2026-04-06T12:16:29.504Z</time></trkpt><trkpt lat="44.71979" lon="9.79592"><ele>853.0</ele><time>2026-04-06T12:16:30.504Z</time></trkpt><trkpt lat="44.71982" lon="9.7960083"><ele>852.9999999999999</ele><time>2026-04-06T12:16:31.504Z</time></trkpt><trkpt lat="44.719855" lon="9.7960967"><ele>853.0</ele><time>2026-04-06T12:16:32.503Z</time></trkpt><trkpt lat="44.7199633" lon="9.79613"><ele>851.0</ele><time>2026-04-06T12:16:33.503Z</time></trkpt><trkpt lat="44.720035" lon="9.7961667"><ele>849.0</ele><time>2026-04-06T12:16:34.503Z</time></trkpt><trkpt lat="44.7201383" lon="9.79617"><ele>847.0</ele><time>2026-04-06T12:16:35.504Z</time></trkpt><trkpt lat="44.720255" lon="9.7961667"><ele>845.0</ele><time>2026-04-06T12:16:36.504Z</time></trkpt><trkpt lat="44.7204" lon="9.7961567"><ele>843.0</ele><time>2026-04-06T12:16:37.504Z</time></trkpt><trkpt lat="44.720515" lon="9.7961833"><ele>843.0</ele><time>2026-04-06T12:16:38.503Z</time></trkpt><trkpt lat="44.7206517" lon="9.7962167"><ele>843.0</ele><time>2026-04-06T12:16:39.503Z</time></trkpt><trkpt lat="44.7208033" lon="9.7962567"><ele>843.0</ele><time>2026-04-06T12:16:40.504Z</time></trkpt><trkpt lat="44.7209333" lon="9.7963133"><ele>843.0</ele><time>2026-04-06T12:16:41.503Z</time></trkpt><trkpt lat="44.72105" lon="9.7963783"><ele>844.0</ele><time>2026-04-06T12:16:42.504Z</time></trkpt><trkpt lat="44.7211533" lon="9.7964567"><ele>845.0</ele><time>2026-04-06T12:16:43.503Z</time></trkpt><trkpt lat="44.721255" lon="9.7965267"><ele>846.0</ele><time>2026-04-06T12:16:44.503Z</time></trkpt><trkpt lat="44.7213667" lon="9.7965533"><ele>847.0</ele><time>2026-04-06T12:16:45.504Z</time></trkpt><trkpt lat="44.7214883" lon="9.79654"><ele>847.0</ele><time>2026-04-06T12:16:46.503Z</time></trkpt><trkpt lat="44.72157" lon="9.7964683"><ele>847.0</ele><time>2026-04-06T12:16:47.503Z</time></trkpt><trkpt lat="44.721585" lon="9.796275"><ele>847.0</ele><time>2026-04-06T12:16:48.504Z</time></trkpt><trkpt lat="44.7215517" lon="9.796075"><ele>847.0</ele><time>2026-04-06T12:16:49.503Z</time></trkpt><trkpt lat="44.7215517" lon="9.795965"><ele>848.2</ele><time>2026-04-06T12:16:50.503Z</time></trkpt><trkpt lat="44.7215567" lon="9.7958183"><ele>849.4000000000001</ele><time>2026-04-06T12:16:51.503Z</time></trkpt><trkpt lat="44.7215767" lon="9.7956633"><ele>850.5999999999999</ele><time>2026-04-06T12:16:52.504Z</time></trkpt><trkpt lat="44.72159" lon="9.7955067"><ele>851.8</ele><time>2026-04-06T12:16:53.503Z</time></trkpt><trkpt lat="44.72162" lon="9.7953533"><ele>853.0</ele><time>2026-04-06T12:16:54.503Z</time></trkpt><trkpt lat="44.721675" lon="9.79519"><ele>855.25</ele><time>2026-04-06T12:16:55.503Z</time></trkpt><trkpt lat="44.7217583" lon="9.79502"><ele>857.5</ele><time>2026-04-06T12:16:56.504Z</time></trkpt><trkpt lat="44.7218317" lon="9.7948783"><ele>859.75</ele><time>2026-04-06T12:16:57.503Z</time></trkpt><trkpt lat="44.7219133" lon="9.794745"><ele>862.0</ele><time>2026-04-06T12:16:58.503Z</time></trkpt><trkpt lat="44.7219417" lon="9.794635"><ele>862.0</ele><time>2026-04-06T12:16:59.503Z</time></trkpt><trkpt lat="44.7220183" lon="9.79454"><ele>862.0</ele><time>2026-04-06T12:17:00.503Z</time></trkpt><trkpt lat="44.722105" lon="9.7944833"><ele>862.0</ele><time>2026-04-06T12:17:01.503Z</time></trkpt><trkpt lat="44.72226" lon="9.79447"><ele>862.0</ele><time>2026-04-06T12:17:02.504Z</time></trkpt><trkpt lat="44.7223783" lon="9.7944283"><ele>862.0</ele><time>2026-04-06T12:17:03.503Z</time></trkpt><trkpt lat="44.7225733" lon="9.7943933"><ele>862.0</ele><time>2026-04-06T12:17:04.504Z</time></trkpt><trkpt lat="44.7227783" lon="9.794365"><ele>862.0</ele><time>2026-04-06T12:17:05.503Z</time></trkpt><trkpt lat="44.7229583" lon="9.7943333"><ele>864.0</ele><time>2026-04-06T12:17:06.504Z</time></trkpt><trkpt lat="44.7231483" lon="9.7943033"><ele>866.0</ele><time>2026-04-06T12:17:07.503Z</time></trkpt><trkpt lat="44.7233033" lon="9.7943367"><ele>868.0</ele><time>2026-04-06T12:17:08.503Z</time></trkpt><trkpt lat="44.72344" lon="9.7944183"><ele>868.0</ele><time>2026-04-06T12:17:09.503Z</time></trkpt><trkpt lat="44.7235433" lon="9.79455"><ele>868.0</ele><time>2026-04-06T12:17:10.503Z</time></trkpt><trkpt lat="44.7236433" lon="9.7946733"><ele>868.0</ele><time>2026-04-06T12:17:11.503Z</time></trkpt><trkpt lat="44.7237417" lon="9.794775"><ele>868.0</ele><time>2026-04-06T12:17:12.503Z</time></trkpt><trkpt lat="44.7238217" lon="9.7949267"><ele>870.5</ele><time>2026-04-06T12:17:13.504Z</time></trkpt><trkpt lat="44.7238983" lon="9.79507"><ele>873.0</ele><time>2026-04-06T12:17:14.503Z</time></trkpt><trkpt lat="44.7239717" lon="9.79522"><ele>875.5</ele><time>2026-04-06T12:17:15.504Z</time></trkpt><trkpt lat="44.7240467" lon="9.7953933"><ele>878.0</ele><time>2026-04-06T12:17:16.503Z</time></trkpt><trkpt lat="44.7240967" lon="9.7956117"><ele>878.0</ele><time>2026-04-06T12:17:17.504Z</time></trkpt><trkpt lat="44.724165" lon="9.7957983"><ele>878.0</ele><time>2026-04-06T12:17:18.504Z</time></trkpt><trkpt lat="44.7242383" lon="9.7959883"><ele>878.0</ele><time>2026-04-06T12:17:19.504Z</time></trkpt><trkpt lat="44.7243217" lon="9.7961783"><ele>883.0</ele><time>2026-04-06T12:17:20.503Z</time></trkpt><trkpt lat="44.7244467" lon="9.7963217"><ele>888.0</ele><time>2026-04-06T12:17:21.504Z</time></trkpt><trkpt lat="44.7246017" lon="9.796425"><ele>893.0</ele><time>2026-04-06T12:17:22.503Z</time></trkpt><trkpt lat="44.724715" lon="9.796565"><ele>893.0</ele><time>2026-04-06T12:17:23.504Z</time></trkpt><trkpt lat="44.7248233" lon="9.7967183"><ele>893.0</ele><time>2026-04-06T12:17:24.503Z</time></trkpt><trkpt lat="44.7249133" lon="9.79688"><ele>893.0</ele><time>2026-04-06T12:17:25.503Z</time></trkpt><trkpt lat="44.7249633" lon="9.7970783"><ele>893.0</ele><time>2026-04-06T12:17:26.503Z</time></trkpt><trkpt lat="44.7250333" lon="9.7973"><ele>890.0</ele><time>2026-04-06T12:17:27.504Z</time></trkpt><trkpt lat="44.725105" lon="9.7975183"><ele>887.0</ele><time>2026-04-06T12:17:28.504Z</time></trkpt><trkpt lat="44.72518" lon="9.7977083"><ele>884.0</ele><time>2026-04-06T12:17:29.503Z</time></trkpt><trkpt lat="44.725275" lon="9.7978883"><ele>884.0</ele><time>2026-04-06T12:17:30.503Z</time></trkpt><trkpt lat="44.7253767" lon="9.7980533"><ele>884.0</ele><time>2026-04-06T12:17:31.504Z</time></trkpt><trkpt lat="44.7254867" lon="9.7981983"><ele>884.0</ele><time>2026-04-06T12:17:32.504Z</time></trkpt><trkpt lat="44.7255883" lon="9.798355"><ele>884.0</ele><time>2026-04-06T12:17:33.503Z</time></trkpt><trkpt lat="44.725715" lon="9.7984817"><ele>884.0</ele><time>2026-04-06T12:17:34.503Z</time></trkpt><trkpt lat="44.72583" lon="9.7985933"><ele>884.0</ele><time>2026-04-06T12:17:35.504Z</time></trkpt><trkpt lat="44.7259367" lon="9.7987217"><ele>884.0</ele><time>2026-04-06T12:17:36.503Z</time></trkpt><trkpt lat="44.7260683" lon="9.79879"><ele>883.5</ele><time>2026-04-06T12:17:37.504Z</time></trkpt><trkpt lat="44.726205" lon="9.7988417"><ele>883.0</ele><time>2026-04-06T12:17:38.503Z</time></trkpt><trkpt lat="44.7263433" lon="9.7989"><ele>882.5</ele><time>2026-04-06T12:17:39.504Z</time></trkpt><trkpt lat="44.7264617" lon="9.798985"><ele>882.0</ele><time>2026-04-06T12:17:40.503Z</time></trkpt><trkpt lat="44.7265667" lon="9.7991"><ele>882.0</ele><time>2026-04-06T12:17:41.504Z</time></trkpt><trkpt lat="44.7266517" lon="9.799235"><ele>882.0</ele><time>2026-04-06T12:17:42.504Z</time></trkpt><trkpt lat="44.726735" lon="9.7993917"><ele>882.0</ele><time>2026-04-06T12:17:43.504Z</time></trkpt><trkpt lat="44.72676" lon="9.7995767"><ele>882.0</ele><time>2026-04-06T12:17:44.503Z</time></trkpt><trkpt lat="44.7267517" lon="9.7998217"><ele>879.6666666666667</ele><time>2026-04-06T12:17:45.504Z</time></trkpt><trkpt lat="44.7266433" lon="9.8001267"><ele>877.3333333333334</ele><time>2026-04-06T12:17:46.503Z</time></trkpt><trkpt lat="44.7266433" lon="9.80037"><ele>875.0</ele><time>2026-04-06T12:17:47.503Z</time></trkpt><trkpt lat="44.72668" lon="9.8005583"><ele>872.0</ele><time>2026-04-06T12:17:48.504Z</time></trkpt><trkpt lat="44.7267217" lon="9.8007417"><ele>869.0</ele><time>2026-04-06T12:17:49.504Z</time></trkpt><trkpt lat="44.7267783" lon="9.8009083"><ele>866.0</ele><time>2026-04-06T12:17:50.503Z</time></trkpt><trkpt lat="44.726885" lon="9.8010267"><ele>863.0</ele><time>2026-04-06T12:17:51.504Z</time></trkpt><trkpt lat="44.7269733" lon="9.8011433"><ele>860.3333333333334</ele><time>2026-04-06T12:17:52.504Z</time></trkpt><trkpt lat="44.7271517" lon="9.80116"><ele>857.6666666666667</ele><time>2026-04-06T12:17:53.504Z</time></trkpt><trkpt lat="44.7273167" lon="9.8011617"><ele>855.0</ele><time>2026-04-06T12:17:54.503Z</time></trkpt><trkpt lat="44.7274717" lon="9.801155"><ele>855.0</ele><time>2026-04-06T12:17:55.504Z</time></trkpt><trkpt lat="44.7276767" lon="9.8010183"><ele>855.0</ele><time>2026-04-06T12:17:56.503Z</time></trkpt><trkpt lat="44.72785" lon="9.8008967"><ele>855.0</ele><time>2026-04-06T12:17:57.503Z</time></trkpt><trkpt lat="44.7280017" lon="9.8007733"><ele>853.6666666666667</ele><time>2026-04-06T12:17:58.503Z</time></trkpt><trkpt lat="44.7281433" lon="9.8006267"><ele>852.3333333333334</ele><time>2026-04-06T12:17:59.504Z</time></trkpt><trkpt lat="44.7282783" lon="9.8004033"><ele>851.0</ele><time>2026-04-06T12:18:00.503Z</time></trkpt><trkpt lat="44.728395" lon="9.8001883"><ele>854.0</ele><time>2026-04-06T12:18:01.504Z</time></trkpt><trkpt lat="44.7285017" lon="9.800015"><ele>857.0</ele><time>2026-04-06T12:18:02.503Z</time></trkpt><trkpt lat="44.72861" lon="9.7998467"><ele>860.0</ele><time>2026-04-06T12:18:03.503Z</time></trkpt><trkpt lat="44.7287167" lon="9.7997467"><ele>860.0</ele><time>2026-04-06T12:18:04.503Z</time></trkpt><trkpt lat="44.7288333" lon="9.7996783"><ele>860.0</ele><time>2026-04-06T12:18:05.503Z</time></trkpt><trkpt lat="44.7289533" lon="9.799645"><ele>860.0</ele><time>2026-04-06T12:18:06.503Z</time></trkpt><trkpt lat="44.7290617" lon="9.799645"><ele>860.0</ele><time>2026-04-06T12:18:07.504Z</time></trkpt><trkpt lat="44.7291683" lon="9.7996717"><ele>860.0</ele><time>2026-04-06T12:18:08.504Z</time></trkpt><trkpt lat="44.7292583" lon="9.7997867"><ele>860.0</ele><time>2026-04-06T12:18:09.503Z</time></trkpt><trkpt lat="44.729345" lon="9.7998717"><ele>860.0</ele><time>2026-04-06T12:18:10.503Z</time></trkpt><trkpt lat="44.729445" lon="9.799895"><ele>860.0</ele><time>2026-04-06T12:18:11.503Z</time></trkpt><trkpt lat="44.7295517" lon="9.7998833"><ele>860.0</ele><time>2026-04-06T12:18:12.504Z</time></trkpt><trkpt lat="44.7296733" lon="9.7998833"><ele>861.0</ele><time>2026-04-06T12:18:13.503Z</time></trkpt><trkpt lat="44.7297883" lon="9.7998933"><ele>862.0</ele><time>2026-04-06T12:18:14.503Z</time></trkpt><trkpt lat="44.7299083" lon="9.79991"><ele>863.0</ele><time>2026-04-06T12:18:15.504Z</time></trkpt><trkpt lat="44.73003" lon="9.79994"><ele>864.0</ele><time>2026-04-06T12:18:16.503Z</time></trkpt><trkpt lat="44.7301717" lon="9.800005"><ele>863.75</ele><time>2026-04-06T12:18:17.504Z</time></trkpt><trkpt lat="44.7302933" lon="9.8001383"><ele>863.5</ele><time>2026-04-06T12:18:18.503Z</time></trkpt><trkpt lat="44.73037" lon="9.8002833"><ele>863.25</ele><time>2026-04-06T12:18:19.503Z</time></trkpt><trkpt lat="44.7304233" lon="9.800465"><ele>863.0</ele><time>2026-04-06T12:18:20.503Z</time></trkpt><trkpt lat="44.730475" lon="9.80065"><ele>863.0</ele><time>2026-04-06T12:18:21.503Z</time></trkpt><trkpt lat="44.7305" lon="9.8008433"><ele>863.0</ele><time>2026-04-06T12:18:22.503Z</time></trkpt><trkpt lat="44.7305483" lon="9.8009983"><ele>863.0</ele><time>2026-04-06T12:18:23.503Z</time></trkpt><trkpt lat="44.7306133" lon="9.8011267"><ele>863.0</ele><time>2026-04-06T12:18:24.504Z</time></trkpt><trkpt lat="44.73068" lon="9.8012567"><ele>858.75</ele><time>2026-04-06T12:18:25.503Z</time></trkpt><trkpt lat="44.7307667" lon="9.8013567"><ele>854.5</ele><time>2026-04-06T12:18:26.503Z</time></trkpt><trkpt lat="44.7308567" lon="9.80146"><ele>850.25</ele><time>2026-04-06T12:18:27.503Z</time></trkpt><trkpt lat="44.7309767" lon="9.8015533"><ele>846.0</ele><time>2026-04-06T12:18:28.503Z</time></trkpt><trkpt lat="44.7310967" lon="9.80165"><ele>845.6666666666667</ele><time>2026-04-06T12:18:29.504Z</time></trkpt><trkpt lat="44.7312267" lon="9.80173"><ele>845.3333333333334</ele><time>2026-04-06T12:18:30.503Z</time></trkpt><trkpt lat="44.73134" lon="9.8017967"><ele>845.0</ele><time>2026-04-06T12:18:31.504Z</time></trkpt><trkpt lat="44.714695" lon="9.783465"><ele>835.3333333333334</ele><time>2026-04-06T12:14:31.504Z</time></trkpt><trkpt lat="44.714715" lon="9.7837667"><ele>825.6666666666667</ele><time>2026-04-06T12:14:32.505Z</time></trkpt><trkpt lat="44.7147117" lon="9.7840283"><ele>816.0</ele><time>2026-04-06T12:14:33.505Z</time></trkpt><trkpt lat="44.7147117" lon="9.7843"><ele>814.6666666666667</ele><time>2026-04-06T12:14:34.504Z</time></trkpt><trkpt lat="44.71473" lon="9.7845267"><ele>813.3333333333334</ele><time>2026-04-06T12:14:35.504Z</time></trkpt><trkpt lat="44.7147633" lon="9.7847383"><ele>812.0</ele><time>2026-04-06T12:14:36.505Z</time></trkpt><trkpt lat="44.7148183" lon="9.784925"><ele>812.0</ele><time>2026-04-06T12:14:37.505Z</time></trkpt><trkpt lat="44.7148633" lon="9.785105"><ele>812.0</ele><time>2026-04-06T12:14:38.505Z</time></trkpt><trkpt lat="44.714895" lon="9.78528"><ele>812.0</ele><time>2026-04-06T12:14:39.505Z</time></trkpt><trkpt lat="44.7149083" lon="9.7854633"><ele>812.0</ele><time>2026-04-06T12:14:40.504Z</time></trkpt><trkpt lat="44.7149017" lon="9.7856317"><ele>813.75</ele><time>2026-04-06T12:14:41.504Z</time></trkpt><trkpt lat="44.7148833" lon="9.7857883"><ele>815.5</ele><time>2026-04-06T12:14:42.504Z</time></trkpt><trkpt lat="44.71485" lon="9.7859517"><ele>817.25</ele><time>2026-04-06T12:14:43.505Z</time></trkpt><trkpt lat="44.7147933" lon="9.7861"><ele>819.0</ele><time>2026-04-06T12:14:44.505Z</time></trkpt><trkpt lat="44.7147083" lon="9.786195"><ele>822.2</ele><time>2026-04-06T12:14:45.504Z</time></trkpt><trkpt lat="44.7146183" lon="9.786265"><ele>825.4000000000001</ele><time>2026-04-06T12:14:46.505Z</time></trkpt><trkpt lat="44.7145467" lon="9.78635"><ele>828.6</ele><time>2026-04-06T12:14:47.505Z</time></trkpt><trkpt lat="44.7145" lon="9.7864867"><ele>831.8</ele><time>2026-04-06T12:14:48.504Z</time></trkpt><trkpt lat="44.7144867" lon="9.786645"><ele>835.0</ele><time>2026-04-06T12:14:49.504Z</time></trkpt><trkpt lat="44.7144717" lon="9.7868033"><ele>836.0</ele><time>2026-04-06T12:14:50.504Z</time></trkpt><trkpt lat="44.714485" lon="9.7869767"><ele>837.0</ele><time>2026-04-06T12:14:51.504Z</time></trkpt><trkpt lat="44.7144733" lon="9.7871283"><ele>838.0</ele><time>2026-04-06T12:14:52.504Z</time></trkpt><trkpt lat="44.7144867" lon="9.7873517"><ele>839.0</ele><time>2026-04-06T12:14:53.504Z</time></trkpt><trkpt lat="44.7145167" lon="9.7875533"><ele>836.75</ele><time>2026-04-06T12:14:54.504Z</time></trkpt><trkpt lat="44.7145183" lon="9.7877517"><ele>834.5</ele><time>2026-04-06T12:14:55.505Z</time></trkpt><trkpt lat="44.7145" lon="9.7879333"><ele>832.25</ele><time>2026-04-06T12:14:56.504Z</time></trkpt><trkpt lat="44.7144717" lon="9.7880933"><ele>830.0</ele><time>2026-04-06T12:14:57.505Z</time></trkpt><trkpt lat="44.7144567" lon="9.7882417"><ele>830.0</ele><time>2026-04-06T12:14:58.504Z</time></trkpt><trkpt lat="44.7144583" lon="9.7884017"><ele>830.0</ele><time>2026-04-06T12:14:59.504Z</time></trkpt><trkpt lat="44.7144667" lon="9.7885267"><ele>830.0</ele><time>2026-04-06T12:15:00.505Z</time></trkpt><trkpt lat="44.7144933" lon="9.7886317"><ele>830.0</ele><time>2026-04-06T12:15:02.505Z</time></trkpt><trkpt lat="44.7145617" lon="9.788705"><ele>830.0</ele><time>2026-04-06T12:15:03.504Z</time></trkpt><trkpt lat="44.7146517" lon="9.7887983"><ele>827.25</ele><time>2026-04-06T12:15:04.504Z</time></trkpt><trkpt lat="44.7147517" lon="9.7888917"><ele>824.5</ele><time>2026-04-06T12:15:05.504Z</time></trkpt><trkpt lat="44.7148433" lon="9.7890133"><ele>821.75</ele><time>2026-04-06T12:15:06.504Z</time></trkpt><trkpt lat="44.7149317" lon="9.789165"><ele>819.0</ele><time>2026-04-06T12:15:07.505Z</time></trkpt><trkpt lat="44.7150017" lon="9.7893183"><ele>818.3333333333333</ele><time>2026-04-06T12:15:08.504Z</time></trkpt><trkpt lat="44.7150517" lon="9.7894717"><ele>817.6666666666666</ele><time>2026-04-06T12:15:09.505Z</time></trkpt><trkpt lat="44.7149567" lon="9.789725"><ele>817.0</ele><time>2026-04-06T12:15:10.503Z</time></trkpt><trkpt lat="44.7149183" lon="9.789935"><ele>818.0</ele><time>2026-04-06T12:15:11.504Z</time></trkpt><trkpt lat="44.7148617" lon="9.79019"><ele>819.0</ele><time>2026-04-06T12:15:12.504Z</time></trkpt><trkpt lat="44.714815" lon="9.7904083"><ele>820.0</ele><time>2026-04-06T12:15:13.504Z</time></trkpt><trkpt lat="44.71478" lon="9.7906167"><ele>820.0</ele><time>2026-04-06T12:15:14.503Z</time></trkpt><trkpt lat="44.7147367" lon="9.7908"><ele>820.0</ele><time>2026-04-06T12:15:15.504Z</time></trkpt><trkpt lat="44.7148133" lon="9.79105"><ele>820.0</ele><time>2026-04-06T12:15:16.503Z</time></trkpt><trkpt lat="44.7148167" lon="9.7913433"><ele>816.5</ele><time>2026-04-06T12:15:18.504Z</time></trkpt><trkpt lat="44.7148483" lon="9.7914717"><ele>813.0</ele><time>2026-04-06T12:15:19.504Z</time></trkpt><trkpt lat="44.7149967" lon="9.7915633"><ele>809.5</ele><time>2026-04-06T12:15:20.503Z</time></trkpt><trkpt lat="44.7151117" lon="9.7916517"><ele>806.0</ele><time>2026-04-06T12:15:21.503Z</time></trkpt><trkpt lat="44.7152367" lon="9.791725"><ele>808.5</ele><time>2026-04-06T12:15:22.504Z</time></trkpt><trkpt lat="44.7153467" lon="9.791795"><ele>811.0</ele><time>2026-04-06T12:15:23.503Z</time></trkpt><trkpt lat="44.7154633" lon="9.7918417"><ele>813.5</ele><time>2026-04-06T12:15:24.504Z</time></trkpt><trkpt lat="44.7156383" lon="9.7918867"><ele>816.0</ele><time>2026-04-06T12:15:25.504Z</time></trkpt><trkpt lat="44.7157633" lon="9.791925"><ele>816.0</ele><time>2026-04-06T12:15:26.504Z</time></trkpt><trkpt lat="44.7158633" lon="9.7919567"><ele>816.0</ele><time>2026-04-06T12:15:27.503Z</time></trkpt><trkpt lat="44.7159567" lon="9.7919783"><ele>816.0</ele><time>2026-04-06T12:15:28.503Z</time></trkpt><trkpt lat="44.7160367" lon="9.7919983"><ele>816.0</ele><time>2026-04-06T12:15:29.503Z</time></trkpt><trkpt lat="44.7161067" lon="9.7919683"><ele>816.0</ele><time>2026-04-06T12:15:30.503Z</time></trkpt><trkpt lat="44.716175" lon="9.7919333"><ele>816.0</ele><time>2026-04-06T12:15:31.503Z</time></trkpt><trkpt lat="44.7162583" lon="9.7918917"><ele>817.3333333333334</ele><time>2026-04-06T12:15:32.503Z</time></trkpt><trkpt lat="44.7163383" lon="9.791865"><ele>818.6666666666667</ele><time>2026-04-06T12:15:33.503Z</time></trkpt><trkpt lat="44.716415" lon="9.79184"><ele>820.0</ele><time>2026-04-06T12:15:34.504Z</time></trkpt><trkpt lat="44.716485" lon="9.79182"><ele>821.3333333333334</ele><time>2026-04-06T12:15:35.503Z</time></trkpt><trkpt lat="44.7165467" lon="9.791785"><ele>822.6666666666667</ele><time>2026-04-06T12:15:36.504Z</time></trkpt><trkpt lat="44.7166633" lon="9.791715"><ele>824.0</ele><time>2026-04-06T12:15:38.504Z</time></trkpt><trkpt lat="44.7167583" lon="9.7916"><ele>825.6</ele><time>2026-04-06T12:15:40.504Z</time></trkpt><trkpt lat="44.7168083" lon="9.79154"><ele>827.2</ele><time>2026-04-06T12:15:41.503Z</time></trkpt><trkpt lat="44.7169017" lon="9.7914233"><ele>828.8000000000001</ele><time>2026-04-06T12:15:43.503Z</time></trkpt><trkpt lat="44.717005" lon="9.7913417"><ele>830.4000000000001</ele><time>2026-04-06T12:15:45.504Z</time></trkpt><trkpt lat="44.717105" lon="9.7913367"><ele>832.0</ele><time>2026-04-06T12:15:47.503Z</time></trkpt><trkpt lat="44.7171683" lon="9.7913617"><ele>832.9999999999999</ele><time>2026-04-06T12:15:48.503Z</time></trkpt><trkpt lat="44.717245" lon="9.7914083"><ele>834.0</ele><time>2026-04-06T12:15:49.504Z</time></trkpt><trkpt lat="44.7173383" lon="9.7914767"><ele>835.0</ele><time>2026-04-06T12:15:50.504Z</time></trkpt><trkpt lat="44.7174117" lon="9.791525"><ele>836.0</ele><time>2026-04-06T12:15:51.504Z</time></trkpt><trkpt lat="44.7174917" lon="9.7915617"><ele>836.9999999999999</ele><time>2026-04-06T12:15:52.503Z</time></trkpt><trkpt lat="44.71756" lon="9.7916067"><ele>838.0</ele><time>2026-04-06T12:15:53.503Z</time></trkpt><trkpt lat="44.7176633" lon="9.7916967"><ele>837.9999999999999</ele><time>2026-04-06T12:15:55.504Z</time></trkpt><trkpt lat="44.717725" lon="9.7917633"><ele>838.0</ele><time>2026-04-06T12:15:56.503Z</time></trkpt><trkpt lat="44.7177817" lon="9.7918267"><ele>838.0</ele><time>2026-04-06T12:15:57.504Z</time></trkpt><trkpt lat="44.7178383" lon="9.7919033"><ele>838.0</ele><time>2026-04-06T12:15:58.503Z</time></trkpt><trkpt lat="44.717915" lon="9.7920167"><ele>837.9999999999999</ele><time>2026-04-06T12:15:59.504Z</time></trkpt><trkpt lat="44.7179683" lon="9.7921383"><ele>838.0</ele><time>2026-04-06T12:16:00.503Z</time></trkpt><trkpt lat="44.71803" lon="9.7922633"><ele>838.5</ele><time>2026-04-06T12:16:01.503Z</time></trkpt><trkpt lat="44.7181033" lon="9.7923817"><ele>839.0</ele><time>2026-04-06T12:16:02.503Z</time></trkpt><trkpt lat="44.7181917" lon="9.792485"><ele>839.5</ele><time>2026-04-06T12:16:03.504Z</time></trkpt><trkpt lat="44.7183" lon="9.7925867"><ele>840.0</ele><time>2026-04-06T12:16:04.503Z</time></trkpt><trkpt lat="44.7183983" lon="9.792685"><ele>840.0</ele><time>2026-04-06T12:16:05.503Z</time></trkpt><trkpt lat="44.7184883" lon="9.7927867"><ele>840.0</ele><time>2026-04-06T12:16:06.503Z</time></trkpt><trkpt lat="44.7185733" lon="9.7928683"><ele>840.0</ele><time>2026-04-06T12:16:07.503Z</time></trkpt><trkpt lat="44.7186533" lon="9.7929567"><ele>840.0</ele><time>2026-04-06T12:16:08.503Z</time></trkpt><trkpt lat="44.7187383" lon="9.7930567"><ele>840.0</ele><time>2026-04-06T12:16:09.504Z</time></trkpt><trkpt lat="44.7188067" lon="9.79313"><ele>841.6</ele><time>2026-04-06T12:16:10.503Z</time></trkpt><trkpt lat="44.7188733" lon="9.7932433"><ele>843.2</ele><time>2026-04-06T12:16:11.504Z</time></trkpt><trkpt lat="44.71893" lon="9.7933617"><ele>844.8</ele><time>2026-04-06T12:16:12.504Z</time></trkpt><trkpt lat="44.71897" lon="9.7934917"><ele>846.4</ele><time>2026-04-06T12:16:13.503Z</time></trkpt><trkpt lat="44.7190117" lon="9.7936117"><ele>848.0</ele><time>2026-04-06T12:16:14.504Z</time></trkpt><trkpt lat="44.7190417" lon="9.79377"><ele>848.0</ele><time>2026-04-06T12:16:15.504Z</time></trkpt><trkpt lat="44.71907" lon="9.793945"><ele>848.0</ele><time>2026-04-06T12:16:16.503Z</time></trkpt><trkpt lat="44.7190883" lon="9.7941133"><ele>848.0</ele><time>2026-04-06T12:16:17.503Z</time></trkpt><trkpt lat="44.7191133" lon="9.7942917"><ele>848.0</ele><time>2026-04-06T12:16:18.503Z</time></trkpt><trkpt lat="44.71915" lon="9.7944417"><ele>846.25</ele><time>2026-04-06T12:16:19.503Z</time></trkpt><trkpt lat="44.7192167" lon="9.7945967"><ele>844.5</ele><time>2026-04-06T12:16:20.504Z</time></trkpt><trkpt lat="44.71929" lon="9.7947533"><ele>842.75</ele><time>2026-04-06T12:16:21.503Z</time></trkpt><trkpt lat="44.719355" lon="9.7949183"><ele>841.0</ele><time>2026-04-06T12:16:22.504Z</time></trkpt><trkpt lat="44.71942" lon="9.7950583"><ele>844.0</ele><time>2026-04-06T12:16:23.503Z</time></trkpt><trkpt lat="44.7194867" lon="9.79518"><ele>847.0</ele><time>2026-04-06T12:16:24.503Z</time></trkpt><trkpt lat="44.7195533" lon="9.7953217"><ele>850.0</ele><time>2026-04-06T12:16:25.503Z</time></trkpt><trkpt lat="44.7196317" lon="9.79545"><ele>853.0</ele><time>2026-04-06T12:16:26.504Z</time></trkpt><trkpt lat="44.7196933" lon="9.7955783"><ele>852.9999999999999</ele><time>2026-04-06T12:16:27.503Z</time></trkpt><trkpt lat="44.71973" lon="9.7957"><ele>853.0</ele><time>2026-04-06T12:16:28.504Z</time></trkpt><trkpt lat="44.7197583" lon="9.79582"><ele>853.0</ele><time>2026-04-06T12:16:29.504Z</time></trkpt><trkpt lat="44.71979" lon="9.79592"><ele>853.0</ele><time>2026-04-06T12:16:30.504Z</time></trkpt><trkpt lat="44.71982" lon="9.7960083"><ele>852.9999999999999</ele><time>2026-04-06T12:16:31.504Z</time></trkpt><trkpt lat="44.719855" lon="9.7960967"><ele>853.0</ele><time>2026-04-06T12:16:32.503Z</time></trkpt><trkpt lat="44.7199633" lon="9.79613"><ele>851.0</ele><time>2026-04-06T12:16:33.503Z</time></trkpt><trkpt lat="44.720035" lon="9.7961667"><ele>849.0</ele><time>2026-04-06T12:16:34.503Z</time></trkpt><trkpt lat="44.7201383" lon="9.79617"><ele>847.0</ele><time>2026-04-06T12:16:35.504Z</time></trkpt><trkpt lat="44.720255" lon="9.7961667"><ele>845.0</ele><time>2026-04-06T12:16:36.504Z</time></trkpt><trkpt lat="44.7204" lon="9.7961567"><ele>843.0</ele><time>2026-04-06T12:16:37.504Z</time></trkpt><trkpt lat="44.720515" lon="9.7961833"><ele>843.0</ele><time>2026-04-06T12:16:38.503Z</time></trkpt><trkpt lat="44.7206517" lon="9.7962167"><ele>843.0</ele><time>2026-04-06T12:16:39.503Z</time></trkpt><trkpt lat="44.7208033" lon="9.7962567"><ele>843.0</ele><time>2026-04-06T12:16:40.504Z</time></trkpt><trkpt lat="44.7209333" lon="9.7963133"><ele>843.0</ele><time>2026-04-06T12:16:41.503Z</time></trkpt><trkpt lat="44.72105" lon="9.7963783"><ele>844.0</ele><time>2026-04-06T12:16:42.504Z</time></trkpt><trkpt lat="44.7211533" lon="9.7964567"><ele>845.0</ele><time>2026-04-06T12:16:43.503Z</time></trkpt><trkpt lat="44.721255" lon="9.7965267"><ele>846.0</ele><time>2026-04-06T12:16:44.503Z</time></trkpt><trkpt lat="44.7213667" lon="9.7965533"><ele>847.0</ele><time>2026-04-06T12:16:45.504Z</time></trkpt><trkpt lat="44.7214883" lon="9.79654"><ele>847.0</ele><time>2026-04-06T12:16:46.503Z</time></trkpt><trkpt lat="44.72157" lon="9.7964683"><ele>847.0</ele><time>2026-04-06T12:16:47.503Z</time></trkpt><trkpt lat="44.721585" lon="9.796275"><ele>847.0</ele><time>2026-04-06T12:16:48.504Z</time></trkpt><trkpt lat="44.7215517" lon="9.796075"><ele>847.0</ele><time>2026-04-06T12:16:49.503Z</time></trkpt><trkpt lat="44.7215517" lon="9.795965"><ele>848.2</ele><time>2026-04-06T12:16:50.503Z</time></trkpt><trkpt lat="44.7215567" lon="9.7958183"><ele>849.4000000000001</ele><time>2026-04-06T12:16:51.503Z</time></trkpt><trkpt lat="44.7215767" lon="9.7956633"><ele>850.5999999999999</ele><time>2026-04-06T12:16:52.504Z</time></trkpt><trkpt lat="44.72159" lon="9.7955067"><ele>851.8</ele><time>2026-04-06T12:16:53.503Z</time></trkpt><trkpt lat="44.72162" lon="9.7953533"><ele>853.0</ele><time>2026-04-06T12:16:54.503Z</time></trkpt><trkpt lat="44.721675" lon="9.79519"><ele>855.25</ele><time>2026-04-06T12:16:55.503Z</time></trkpt><trkpt lat="44.7217583" lon="9.79502"><ele>857.5</ele><time>2026-04-06T12:16:56.504Z</time></trkpt><trkpt lat="44.7218317" lon="9.7948783"><ele>859.75</ele><time>2026-04-06T12:16:57.503Z</time></trkpt><trkpt lat="44.7219133" lon="9.794745"><ele>862.0</ele><time>2026-04-06T12:16:58.503Z</time></trkpt><trkpt lat="44.7219417" lon="9.794635"><ele>862.0</ele><time>2026-04-06T12:16:59.503Z</time></trkpt><trkpt lat="44.7220183" lon="9.79454"><ele>862.0</ele><time>2026-04-06T12:17:00.503Z</time></trkpt><trkpt lat="44.722105" lon="9.7944833"><ele>862.0</ele><time>2026-04-06T12:17:01.503Z</time></trkpt><trkpt lat="44.72226" lon="9.79447"><ele>862.0</ele><time>2026-04-06T12:17:02.504Z</time></trkpt><trkpt lat="44.7223783" lon="9.7944283"><ele>862.0</ele><time>2026-04-06T12:17:03.503Z</time></trkpt><trkpt lat="44.7225733" lon="9.7943933"><ele>862.0</ele><time>2026-04-06T12:17:04.504Z</time></trkpt><trkpt lat="44.7227783" lon="9.794365"><ele>862.0</ele><time>2026-04-06T12:17:05.503Z</time></trkpt><trkpt lat="44.7229583" lon="9.7943333"><ele>864.0</ele><time>2026-04-06T12:17:06.504Z</time></trkpt><trkpt lat="44.7231483" lon="9.7943033"><ele>866.0</ele><time>2026-04-06T12:17:07.503Z</time></trkpt><trkpt lat="44.7233033" lon="9.7943367"><ele>868.0</ele><time>2026-04-06T12:17:08.503Z</time></trkpt><trkpt lat="44.72344" lon="9.7944183"><ele>868.0</ele><time>2026-04-06T12:17:09.503Z</time></trkpt><trkpt lat="44.7235433" lon="9.79455"><ele>868.0</ele><time>2026-04-06T12:17:10.503Z</time></trkpt><trkpt lat="44.7236433" lon="9.7946733"><ele>868.0</ele><time>2026-04-06T12:17:11.503Z</time></trkpt><trkpt lat="44.7237417" lon="9.794775"><ele>868.0</ele><time>2026-04-06T12:17:12.503Z</time></trkpt><trkpt lat="44.7238217" lon="9.7949267"><ele>870.5</ele><time>2026-04-06T12:17:13.504Z</time></trkpt><trkpt lat="44.7238983" lon="9.79507"><ele>873.0</ele><time>2026-04-06T12:17:14.503Z</time></trkpt><trkpt lat="44.7239717" lon="9.79522"><ele>875.5</ele><time>2026-04-06T12:17:15.504Z</time></trkpt><trkpt lat="44.7240467" lon="9.7953933"><ele>878.0</ele><time>2026-04-06T12:17:16.503Z</time></trkpt><trkpt lat="44.7240967" lon="9.7956117"><ele>878.0</ele><time>2026-04-06T12:17:17.504Z</time></trkpt><trkpt lat="44.724165" lon="9.7957983"><ele>878.0</ele><time>2026-04-06T12:17:18.504Z</time></trkpt><trkpt lat="44.7242383" lon="9.7959883"><ele>878.0</ele><time>2026-04-06T12:17:19.504Z</time></trkpt><trkpt lat="44.7243217" lon="9.7961783"><ele>883.0</ele><time>2026-04-06T12:17:20.503Z</time></trkpt><trkpt lat="44.7244467" lon="9.7963217"><ele>888.0</ele><time>2026-04-06T12:17:21.504Z</time></trkpt><trkpt lat="44.7246017" lon="9.796425"><ele>893.0</ele><time>2026-04-06T12:17:22.503Z</time></trkpt><trkpt lat="44.724715" lon="9.796565"><ele>893.0</ele><time>2026-04-06T12:17:23.504Z</time></trkpt><trkpt lat="44.7248233" lon="9.7967183"><ele>893.0</ele><time>2026-04-06T12:17:24.503Z</time></trkpt><trkpt lat="44.7249133" lon="9.79688"><ele>893.0</ele><time>2026-04-06T12:17:25.503Z</time></trkpt><trkpt lat="44.7249633" lon="9.7970783"><ele>893.0</ele><time>2026-04-06T12:17:26.503Z</time></trkpt><trkpt lat="44.7250333" lon="9.7973"><ele>890.0</ele><time>2026-04-06T12:17:27.504Z</time></trkpt><trkpt lat="44.725105" lon="9.7975183"><ele>887.0</ele><time>2026-04-06T12:17:28.504Z</time></trkpt><trkpt lat="44.72518" lon="9.7977083"><ele>884.0</ele><time>2026-04-06T12:17:29.503Z</time></trkpt><trkpt lat="44.725275" lon="9.7978883"><ele>884.0</ele><time>2026-04-06T12:17:30.503Z</time></trkpt><trkpt lat="44.7253767" lon="9.7980533"><ele>884.0</ele><time>2026-04-06T12:17:31.504Z</time></trkpt><trkpt lat="44.7254867" lon="9.7981983"><ele>884.0</ele><time>2026-04-06T12:17:32.504Z</time></trkpt><trkpt lat="44.7255883" lon="9.798355"><ele>884.0</ele><time>2026-04-06T12:17:33.503Z</time></trkpt><trkpt lat="44.725715" lon="9.7984817"><ele>884.0</ele><time>2026-04-06T12:17:34.503Z</time></trkpt><trkpt lat="44.72583" lon="9.7985933"><ele>884.0</ele><time>2026-04-06T12:17:35.504Z</time></trkpt><trkpt lat="44.7259367" lon="9.7987217"><ele>884.0</ele><time>2026-04-06T12:17:36.503Z</time></trkpt><trkpt lat="44.7260683" lon="9.79879"><ele>883.5</ele><time>2026-04-06T12:17:37.504Z</time></trkpt><trkpt lat="44.726205" lon="9.7988417"><ele>883.0</ele><time>2026-04-06T12:17:38.503Z</time></trkpt><trkpt lat="44.7263433" lon="9.7989"><ele>882.5</ele><time>2026-04-06T12:17:39.504Z</time></trkpt><trkpt lat="44.7264617" lon="9.798985"><ele>882.0</ele><time>2026-04-06T12:17:40.503Z</time></trkpt><trkpt lat="44.7265667" lon="9.7991"><ele>882.0</ele><time>2026-04-06T12:17:41.504Z</time></trkpt><trkpt lat="44.7266517" lon="9.799235"><ele>882.0</ele><time>2026-04-06T12:17:42.504Z</time></trkpt><trkpt lat="44.726735" lon="9.7993917"><ele>882.0</ele><time>2026-04-06T12:17:43.504Z</time></trkpt><trkpt lat="44.72676" lon="9.7995767"><ele>882.0</ele><time>2026-04-06T12:17:44.503Z</time></trkpt><trkpt lat="44.7267517" lon="9.7998217"><ele>879.6666666666667</ele><time>2026-04-06T12:17:45.504Z</time></trkpt><trkpt lat="44.7266433" lon="9.8001267"><ele>877.3333333333334</ele><time>2026-04-06T12:17:46.503Z</time></trkpt><trkpt lat="44.7266433" lon="9.80037"><ele>875.0</ele><time>2026-04-06T12:17:47.503Z</time></trkpt><trkpt lat="44.72668" lon="9.8005583"><ele>872.0</ele><time>2026-04-06T12:17:48.504Z</time></trkpt><trkpt lat="44.7267217" lon="9.8007417"><ele>869.0</ele><time>2026-04-06T12:17:49.504Z</time></trkpt><trkpt lat="44.7267783" lon="9.8009083"><ele>866.0</ele><time>2026-04-06T12:17:50.503Z</time></trkpt><trkpt lat="44.726885" lon="9.8010267"><ele>863.0</ele><time>2026-04-06T12:17:51.504Z</time></trkpt><trkpt lat="44.7269733" lon="9.8011433"><ele>860.3333333333334</ele><time>2026-04-06T12:17:52.504Z</time></trkpt><trkpt lat="44.7271517" lon="9.80116"><ele>857.6666666666667</ele><time>2026-04-06T12:17:53.504Z</time></trkpt><trkpt lat="44.7273167" lon="9.8011617"><ele>855.0</ele><time>2026-04-06T12:17:54.503Z</time></trkpt><trkpt lat="44.7274717" lon="9.801155"><ele>855.0</ele><time>2026-04-06T12:17:55.504Z</time></trkpt><trkpt lat="44.7276767" lon="9.8010183"><ele>855.0</ele><time>2026-04-06T12:17:56.503Z</time></trkpt><trkpt lat="44.72785" lon="9.8008967"><ele>855.0</ele><time>2026-04-06T12:17:57.503Z</time></trkpt><trkpt lat="44.7280017" lon="9.8007733"><ele>853.6666666666667</ele><time>2026-04-06T12:17:58.503Z</time></trkpt><trkpt lat="44.7281433" lon="9.8006267"><ele>852.3333333333334</ele><time>2026-04-06T12:17:59.504Z</time></trkpt><trkpt lat="44.7282783" lon="9.8004033"><ele>851.0</ele><time>2026-04-06T12:18:00.503Z</time></trkpt><trkpt lat="44.728395" lon="9.8001883"><ele>854.0</ele><time>2026-04-06T12:18:01.504Z</time></trkpt><trkpt lat="44.7285017" lon="9.800015"><ele>857.0</ele><time>2026-04-06T12:18:02.503Z</time></trkpt><trkpt lat="44.72861" lon="9.7998467"><ele>860.0</ele><time>2026-04-06T12:18:03.503Z</time></trkpt><trkpt lat="44.7287167" lon="9.7997467"><ele>860.0</ele><time>2026-04-06T12:18:04.503Z</time></trkpt><trkpt lat="44.7288333" lon="9.7996783"><ele>860.0</ele><time>2026-04-06T12:18:05.503Z</time></trkpt><trkpt lat="44.7289533" lon="9.799645"><ele>860.0</ele><time>2026-04-06T12:18:06.503Z</time></trkpt><trkpt lat="44.7290617" lon="9.799645"><ele>860.0</ele><time>2026-04-06T12:18:07.504Z</time></trkpt><trkpt lat="44.7291683" lon="9.7996717"><ele>860.0</ele><time>2026-04-06T12:18:08.504Z</time></trkpt><trkpt lat="44.7292583" lon="9.7997867"><ele>860.0</ele><time>2026-04-06T12:18:09.503Z</time></trkpt><trkpt lat="44.729345" lon="9.7998717"><ele>860.0</ele><time>2026-04-06T12:18:10.503Z</time></trkpt><trkpt lat="44.729445" lon="9.799895"><ele>860.0</ele><time>2026-04-06T12:18:11.503Z</time></trkpt><trkpt lat="44.7295517" lon="9.7998833"><ele>860.0</ele><time>2026-04-06T12:18:12.504Z</time></trkpt><trkpt lat="44.7296733" lon="9.7998833"><ele>861.0</ele><time>2026-04-06T12:18:13.503Z</time></trkpt><trkpt lat="44.7297883" lon="9.7998933"><ele>862.0</ele><time>2026-04-06T12:18:14.503Z</time></trkpt><trkpt lat="44.7299083" lon="9.79991"><ele>863.0</ele><time>2026-04-06T12:18:15.504Z</time></trkpt><trkpt lat="44.73003" lon="9.79994"><ele>864.0</ele><time>2026-04-06T12:18:16.503Z</time></trkpt><trkpt lat="44.7301717" lon="9.800005"><ele>863.75</ele><time>2026-04-06T12:18:17.504Z</time></trkpt><trkpt lat="44.7302933" lon="9.8001383"><ele>863.5</ele><time>2026-04-06T12:18:18.503Z</time></trkpt><trkpt lat="44.73037" lon="9.8002833"><ele>863.25</ele><time>2026-04-06T12:18:19.503Z</time></trkpt><trkpt lat="44.7304233" lon="9.800465"><ele>863.0</ele><time>2026-04-06T12:18:20.503Z</time></trkpt><trkpt lat="44.730475" lon="9.80065"><ele>863.0</ele><time>2026-04-06T12:18:21.503Z</time></trkpt><trkpt lat="44.7305" lon="9.8008433"><ele>863.0</ele><time>2026-04-06T12:18:22.503Z</time></trkpt><trkpt lat="44.7305483" lon="9.8009983"><ele>863.0</ele><time>2026-04-06T12:18:23.503Z</time></trkpt><trkpt lat="44.7306133" lon="9.8011267"><ele>863.0</ele><time>2026-04-06T12:18:24.504Z</time></trkpt><trkpt lat="44.73068" lon="9.8012567"><ele>858.75</ele><time>2026-04-06T12:18:25.503Z</time></trkpt><trkpt lat="44.7307667" lon="9.8013567"><ele>854.5</ele><time>2026-04-06T12:18:26.503Z</time></trkpt><trkpt lat="44.7308567" lon="9.80146"><ele>850.25</ele><time>2026-04-06T12:18:27.503Z</time></trkpt><trkpt lat="44.7309767" lon="9.8015533"><ele>846.0</ele><time>2026-04-06T12:18:28.503Z</time></trkpt><trkpt lat="44.7310967" lon="9.80165"><ele>845.75</ele><time>2026-04-06T12:18:29.504Z</time></trkpt><trkpt lat="44.7312267" lon="9.80173"><ele>845.5</ele><time>2026-04-06T12:18:30.503Z</time></trkpt><trkpt lat="44.73134" lon="9.8017967"><ele>845.25</ele><time>2026-04-06T12:18:31.504Z</time></trkpt><trkpt lat="44.7314767" lon="9.8016833"><ele>845.0</ele><time>2026-04-06T12:18:32.503Z</time></trkpt><trkpt lat="44.7316" lon="9.801605"><ele>845.0</ele><time>2026-04-06T12:18:33.503Z</time></trkpt><trkpt lat="44.7317283" lon="9.8015817"><ele>845.0</ele><time>2026-04-06T12:18:34.503Z</time></trkpt><trkpt lat="44.7318433" lon="9.8015683"><ele>845.0</ele><time>2026-04-06T12:18:35.504Z</time></trkpt><trkpt lat="44.7319483" lon="9.80158"><ele>845.0</ele><time>2026-04-06T12:18:36.503Z</time></trkpt><trkpt lat="44.73206" lon="9.8016117"><ele>843.6</ele><time>2026-04-06T12:18:37.504Z</time></trkpt><trkpt lat="44.7321583" lon="9.8016467"><ele>842.2</ele><time>2026-04-06T12:18:38.503Z</time></trkpt><trkpt lat="44.7322567" lon="9.8016783"><ele>840.8</ele><time>2026-04-06T12:18:39.503Z</time></trkpt><trkpt lat="44.7323533" lon="9.8017"><ele>839.4</ele><time>2026-04-06T12:18:40.503Z</time></trkpt><trkpt lat="44.7324533" lon="9.8017067"><ele>838.0</ele><time>2026-04-06T12:18:41.503Z</time></trkpt><trkpt lat="44.732535" lon="9.8017417"><ele>838.0</ele><time>2026-04-06T12:18:42.503Z</time></trkpt><trkpt lat="44.732615" lon="9.801765"><ele>838.0</ele><time>2026-04-06T12:18:43.504Z</time></trkpt><trkpt lat="44.732705" lon="9.8018417"><ele>838.0</ele><time>2026-04-06T12:18:45.503Z</time></trkpt><trkpt lat="44.7326783" lon="9.8020233"><ele>838.0</ele><time>2026-04-06T12:18:47.504Z</time></trkpt><trkpt lat="44.7326283" lon="9.8021583"><ele>838.0</ele><time>2026-04-06T12:18:48.503Z</time></trkpt><trkpt lat="44.73259" lon="9.8023183"><ele>837.0</ele><time>2026-04-06T12:18:49.504Z</time></trkpt><trkpt lat="44.7325567" lon="9.8024617"><ele>836.0</ele><time>2026-04-06T12:18:50.503Z</time></trkpt><trkpt lat="44.73251" lon="9.8026033"><ele>835.0</ele><time>2026-04-06T12:18:51.504Z</time></trkpt><trkpt lat="44.7324717" lon="9.8027017"><ele>834.0</ele><time>2026-04-06T12:18:52.504Z</time></trkpt><trkpt lat="44.7324067" lon="9.8027667"><ele>833.0</ele><time>2026-04-06T12:18:53.503Z</time></trkpt><trkpt lat="44.7323333" lon="9.8027483"><ele>833.0</ele><time>2026-04-06T12:18:54.503Z</time></trkpt><trkpt lat="44.7322567" lon="9.8026983"><ele>833.0</ele><time>2026-04-06T12:18:55.503Z</time></trkpt><trkpt lat="44.7321767" lon="9.802665"><ele>833.0</ele><time>2026-04-06T12:18:56.504Z</time></trkpt><trkpt lat="44.7321033" lon="9.8026417"><ele>833.0</ele><time>2026-04-06T12:18:57.503Z</time></trkpt><trkpt lat="44.7320617" lon="9.8027367"><ele>833.0</ele><time>2026-04-06T12:18:59.503Z</time></trkpt><trkpt lat="44.7321117" lon="9.8029367"><ele>833.0</ele><time>2026-04-06T12:19:01.503Z</time></trkpt><trkpt lat="44.7321233" lon="9.80311"><ele>833.0</ele><time>2026-04-06T12:19:02.503Z</time></trkpt><trkpt lat="44.7321183" lon="9.8033217"><ele>833.0</ele><time>2026-04-06T12:19:03.503Z</time></trkpt><trkpt lat="44.732055" lon="9.80355"><ele>833.0</ele><time>2026-04-06T12:19:04.504Z</time></trkpt><trkpt lat="44.7319767" lon="9.80377"><ele>834.5</ele><time>2026-04-06T12:19:05.503Z</time></trkpt><trkpt lat="44.7319017" lon="9.80396"><ele>836.0</ele><time>2026-04-06T12:19:06.503Z</time></trkpt><trkpt lat="44.7318333" lon="9.80412"><ele>837.5</ele><time>2026-04-06T12:19:07.503Z</time></trkpt><trkpt lat="44.731775" lon="9.8042483"><ele>839.0</ele><time>2026-04-06T12:19:08.503Z</time></trkpt><trkpt lat="44.7317067" lon="9.804325"><ele>837.2</ele><time>2026-04-06T12:19:09.503Z</time></trkpt><trkpt lat="44.731635" lon="9.8043617"><ele>835.4000000000001</ele><time>2026-04-06T12:19:10.503Z</time></trkpt><trkpt lat="44.7315517" lon="9.80437"><ele>833.6</ele><time>2026-04-06T12:19:11.503Z</time></trkpt><trkpt lat="44.7314883" lon="9.804335"><ele>831.8</ele><time>2026-04-06T12:19:12.504Z</time></trkpt><trkpt lat="44.7314383" lon="9.80423"><ele>830.0</ele><time>2026-04-06T12:19:13.503Z</time></trkpt><trkpt lat="44.7314633" lon="9.8040067"><ele>828.6</ele><time>2026-04-06T12:19:14.503Z</time></trkpt><trkpt lat="44.7314517" lon="9.8038367"><ele>827.2</ele><time>2026-04-06T12:19:15.503Z</time></trkpt><trkpt lat="44.7314333" lon="9.8036917"><ele>825.8</ele><time>2026-04-06T12:19:16.503Z</time></trkpt><trkpt lat="44.7314033" lon="9.80357"><ele>824.4</ele><time>2026-04-06T12:19:17.504Z</time></trkpt><trkpt lat="44.7313467" lon="9.8034717"><ele>823.0</ele><time>2026-04-06T12:19:18.503Z</time></trkpt><trkpt lat="44.7312967" lon="9.803415"><ele>823.0</ele><time>2026-04-06T12:19:19.503Z</time></trkpt><trkpt lat="44.7312267" lon="9.8034217"><ele>823.0</ele><time>2026-04-06T12:19:20.503Z</time></trkpt><trkpt lat="44.7311533" lon="9.8035333"><ele>823.0</ele><time>2026-04-06T12:19:21.503Z</time></trkpt><trkpt lat="44.7310933" lon="9.80369"><ele>823.0</ele><time>2026-04-06T12:19:22.503Z</time></trkpt><trkpt lat="44.7310283" lon="9.8039117"><ele>819.3333333333333</ele><time>2026-04-06T12:19:23.504Z</time></trkpt><trkpt lat="44.73095" lon="9.8041883"><ele>815.6666666666667</ele><time>2026-04-06T12:19:24.504Z</time></trkpt><trkpt lat="44.7308533" lon="9.80444"><ele>812.0</ele><time>2026-04-06T12:19:25.504Z</time></trkpt><trkpt lat="44.7307633" lon="9.8046533"><ele>811.75</ele><time>2026-04-06T12:19:26.503Z</time></trkpt><trkpt lat="44.7306817" lon="9.8048383"><ele>811.5</ele><time>2026-04-06T12:19:27.504Z</time></trkpt><trkpt lat="44.7306333" lon="9.80501"><ele>811.25</ele><time>2026-04-06T12:19:28.503Z</time></trkpt><trkpt lat="44.7306233" lon="9.8052017"><ele>811.0</ele><time>2026-04-06T12:19:29.504Z</time></trkpt><trkpt lat="44.7306383" lon="9.8054117"><ele>811.0</ele><time>2026-04-06T12:19:30.503Z</time></trkpt><trkpt lat="44.7306733" lon="9.805665"><ele>811.0</ele><time>2026-04-06T12:19:31.503Z</time></trkpt><trkpt lat="44.730695" lon="9.805905"><ele>811.0</ele><time>2026-04-06T12:19:32.502Z</time></trkpt><trkpt lat="44.7306983" lon="9.806115"><ele>811.25</ele><time>2026-04-06T12:19:33.503Z</time></trkpt><trkpt lat="44.7306783" lon="9.8063133"><ele>811.5</ele><time>2026-04-06T12:19:34.502Z</time></trkpt><trkpt lat="44.73062" lon="9.8065033"><ele>811.75</ele><time>2026-04-06T12:19:35.502Z</time></trkpt><trkpt lat="44.7305467" lon="9.8066817"><ele>812.0</ele><time>2026-04-06T12:19:36.502Z</time></trkpt><trkpt lat="44.7304733" lon="9.8068533"><ele>810.25</ele><time>2026-04-06T12:19:37.503Z</time></trkpt><trkpt lat="44.7304033" lon="9.80702"><ele>808.5</ele><time>2026-04-06T12:19:38.503Z</time></trkpt><trkpt lat="44.730345" lon="9.8071967"><ele>806.75</ele><time>2026-04-06T12:19:39.502Z</time></trkpt><trkpt lat="44.7302867" lon="9.8073633"><ele>805.0</ele><time>2026-04-06T12:19:40.503Z</time></trkpt><trkpt lat="44.7302283" lon="9.8075267"><ele>801.75</ele><time>2026-04-06T12:19:41.503Z</time></trkpt><trkpt lat="44.73016" lon="9.8076883"><ele>798.5</ele><time>2026-04-06T12:19:42.502Z</time></trkpt><trkpt lat="44.73009" lon="9.80782"><ele>795.25</ele><time>2026-04-06T12:19:43.502Z</time></trkpt><trkpt lat="44.73001" lon="9.8079583"><ele>792.0</ele><time>2026-04-06T12:19:44.502Z</time></trkpt><trkpt lat="44.7299333" lon="9.80807"><ele>792.0</ele><time>2026-04-06T12:19:45.502Z</time></trkpt><trkpt lat="44.7298383" lon="9.8081817"><ele>792.0</ele><time>2026-04-06T12:19:46.502Z</time></trkpt><trkpt lat="44.7297367" lon="9.8082917"><ele>792.0</ele><time>2026-04-06T12:19:47.502Z</time></trkpt><trkpt lat="44.7296317" lon="9.8084033"><ele>792.0</ele><time>2026-04-06T12:19:48.503Z</time></trkpt><trkpt lat="44.7295267" lon="9.808515"><ele>790.25</ele><time>2026-04-06T12:19:49.502Z</time></trkpt><trkpt lat="44.7294183" lon="9.80861"><ele>788.5</ele><time>2026-04-06T12:19:50.503Z</time></trkpt><trkpt lat="44.729305" lon="9.8086967"><ele>786.75</ele><time>2026-04-06T12:19:51.503Z</time></trkpt><trkpt lat="44.7292017" lon="9.8087567"><ele>785.0</ele><time>2026-04-06T12:19:52.502Z</time></trkpt><trkpt lat="44.729115" lon="9.8088483"><ele>784.0</ele><time>2026-04-06T12:19:53.502Z</time></trkpt><trkpt lat="44.72905" lon="9.8089583"><ele>783.0</ele><time>2026-04-06T12:19:54.502Z</time></trkpt><trkpt lat="44.7290533" lon="9.809135"><ele>782.0</ele><time>2026-04-06T12:19:55.502Z</time></trkpt><trkpt lat="44.72906" lon="9.80932"><ele>781.0</ele><time>2026-04-06T12:19:56.502Z</time></trkpt><trkpt lat="44.7290517" lon="9.8094817"><ele>779.25</ele><time>2026-04-06T12:19:57.502Z</time></trkpt><trkpt lat="44.7290233" lon="9.809635"><ele>777.5</ele><time>2026-04-06T12:19:58.503Z</time></trkpt><trkpt lat="44.7289717" lon="9.809775"><ele>775.75</ele><time>2026-04-06T12:19:59.503Z</time></trkpt><trkpt lat="44.72888" lon="9.80989"><ele>774.0</ele><time>2026-04-06T12:20:00.503Z</time></trkpt><trkpt lat="44.7287717" lon="9.8100083"><ele>774.0</ele><time>2026-04-06T12:20:01.502Z</time></trkpt><trkpt lat="44.7286667" lon="9.8101217"><ele>774.0</ele><time>2026-04-06T12:20:02.502Z</time></trkpt><trkpt lat="44.7285683" lon="9.8102567"><ele>774.0</ele><time>2026-04-06T12:20:03.503Z</time></trkpt><trkpt lat="44.7285017" lon="9.8104167"><ele>774.0</ele><time>2026-04-06T12:20:04.503Z</time></trkpt><trkpt lat="44.7284383" lon="9.8105917"><ele>774.25</ele><time>2026-04-06T12:20:05.503Z</time></trkpt><trkpt lat="44.7283933" lon="9.8107617"><ele>774.5</ele><time>2026-04-06T12:20:06.503Z</time></trkpt><trkpt lat="44.72836" lon="9.81093"><ele>774.75</ele><time>2026-04-06T12:20:07.502Z</time></trkpt><trkpt lat="44.728315" lon="9.8110733"><ele>775.0</ele><time>2026-04-06T12:20:08.503Z</time></trkpt><trkpt lat="44.7282583" lon="9.8111933"><ele>772.9999999999999</ele><time>2026-04-06T12:20:09.502Z</time></trkpt><trkpt lat="44.7281833" lon="9.811275"><ele>771.0</ele><time>2026-04-06T12:20:10.502Z</time></trkpt><trkpt lat="44.7281033" lon="9.8113217"><ele>769.0</ele><time>2026-04-06T12:20:11.502Z</time></trkpt><trkpt lat="44.7280117" lon="9.8113483"><ele>767.0</ele><time>2026-04-06T12:20:12.502Z</time></trkpt><trkpt lat="44.727925" lon="9.8113567"><ele>765.0</ele><time>2026-04-06T12:20:13.502Z</time></trkpt><trkpt lat="44.72784" lon="9.8113433"><ele>763.0</ele><time>2026-04-06T12:20:14.502Z</time></trkpt><trkpt lat="44.727755" lon="9.8113367"><ele>763.0</ele><time>2026-04-06T12:20:15.503Z</time></trkpt><trkpt lat="44.7276667" lon="9.8114167"><ele>763.0</ele><time>2026-04-06T12:20:17.502Z</time></trkpt><trkpt lat="44.72772" lon="9.8115033"><ele>763.0</ele><time>2026-04-06T12:20:18.503Z</time></trkpt><trkpt lat="44.7277717" lon="9.8115633"><ele>763.0</ele><time>2026-04-06T12:20:19.503Z</time></trkpt><trkpt lat="44.7278517" lon="9.8115983"><ele>763.0</ele><time>2026-04-06T12:20:20.502Z</time></trkpt><trkpt lat="44.7279633" lon="9.81161"><ele>763.0</ele><time>2026-04-06T12:20:21.502Z</time></trkpt><trkpt lat="44.72812" lon="9.8116017"><ele>763.0</ele><time>2026-04-06T12:20:22.502Z</time></trkpt><trkpt lat="44.7282667" lon="9.8116167"><ele>763.0</ele><time>2026-04-06T12:20:23.502Z</time></trkpt><trkpt lat="44.7284017" lon="9.8116183"><ele>763.0</ele><time>2026-04-06T12:20:24.502Z</time></trkpt><trkpt lat="44.7285283" lon="9.811575"><ele>763.0</ele><time>2026-04-06T12:20:25.502Z</time></trkpt><trkpt lat="44.7286367" lon="9.811475"><ele>761.0</ele><time>2026-04-06T12:20:26.503Z</time></trkpt><trkpt lat="44.7287333" lon="9.8113867"><ele>759.0</ele><time>2026-04-06T12:20:27.503Z</time></trkpt><trkpt lat="44.728825" lon="9.8112883"><ele>757.0</ele><time>2026-04-06T12:20:28.502Z</time></trkpt><trkpt lat="44.7288917" lon="9.8112117"><ele>755.0</ele><time>2026-04-06T12:20:29.502Z</time></trkpt><trkpt lat="44.7289533" lon="9.8111467"><ele>753.0</ele><time>2026-04-06T12:20:30.503Z</time></trkpt><trkpt lat="44.7290117" lon="9.8111083"><ele>753.0</ele><time>2026-04-06T12:20:31.503Z</time></trkpt><trkpt lat="44.72907" lon="9.81117"><ele>753.0</ele><time>2026-04-06T12:20:35.503Z</time></trkpt><trkpt lat="44.7290367" lon="9.8112733"><ele>753.0</ele><time>2026-04-06T12:20:37.502Z</time></trkpt><trkpt lat="44.7288667" lon="9.811505"><ele>753.0</ele><time>2026-04-06T12:20:38.502Z</time></trkpt><trkpt lat="44.7287467" lon="9.811705"><ele>751.0</ele><time>2026-04-06T12:20:39.502Z</time></trkpt><trkpt lat="44.7286467" lon="9.8118533"><ele>749.0</ele><time>2026-04-06T12:20:40.502Z</time></trkpt><trkpt lat="44.728555" lon="9.81197"><ele>747.0</ele><time>2026-04-06T12:20:41.502Z</time></trkpt><trkpt lat="44.7284367" lon="9.81208"><ele>745.0</ele><time>2026-04-06T12:20:42.503Z</time></trkpt><trkpt lat="44.7283267" lon="9.8121683"><ele>745.0</ele><time>2026-04-06T12:20:43.502Z</time></trkpt><trkpt lat="44.72815" lon="9.8122417"><ele>745.0</ele><time>2026-04-06T12:20:44.503Z</time></trkpt><trkpt lat="44.7280217" lon="9.812305"><ele>745.0</ele><time>2026-04-06T12:20:45.502Z</time></trkpt><trkpt lat="44.7278833" lon="9.8123567"><ele>745.0</ele><time>2026-04-06T12:20:46.503Z</time></trkpt><trkpt lat="44.72775" lon="9.8124083"><ele>745.0</ele><time>2026-04-06T12:20:47.502Z</time></trkpt><trkpt lat="44.7275867" lon="9.812515"><ele>745.0</ele><time>2026-04-06T12:20:48.503Z</time></trkpt><trkpt lat="44.7274733" lon="9.812615"><ele>741.25</ele><time>2026-04-06T12:20:49.502Z</time></trkpt><trkpt lat="44.7273567" lon="9.8127167"><ele>737.5</ele><time>2026-04-06T12:20:50.503Z</time></trkpt><trkpt lat="44.7272417" lon="9.8128183"><ele>733.75</ele><time>2026-04-06T12:20:51.503Z</time></trkpt><trkpt lat="44.7271367" lon="9.8129283"><ele>730.0</ele><time>2026-04-06T12:20:52.502Z</time></trkpt><trkpt lat="44.7270433" lon="9.8131267"><ele>730.0</ele><time>2026-04-06T12:20:53.502Z</time></trkpt><trkpt lat="44.726995" lon="9.813325"><ele>730.0</ele><time>2026-04-06T12:20:54.502Z</time></trkpt><trkpt lat="44.7269467" lon="9.8135183"><ele>730.0</ele><time>2026-04-06T12:20:55.502Z</time></trkpt><trkpt lat="44.726895" lon="9.8137033"><ele>730.0</ele><time>2026-04-06T12:20:56.502Z</time></trkpt><trkpt lat="44.7268717" lon="9.8138867"><ele>729.6</ele><time>2026-04-06T12:20:57.502Z</time></trkpt><trkpt lat="44.72687" lon="9.8140567"><ele>729.2</ele><time>2026-04-06T12:20:58.502Z</time></trkpt><trkpt lat="44.7269017" lon="9.8142067"><ele>728.8</ele><time>2026-04-06T12:20:59.503Z</time></trkpt><trkpt lat="44.726915" lon="9.8143283"><ele>728.4</ele><time>2026-04-06T12:21:00.503Z</time></trkpt><trkpt lat="44.7269017" lon="9.8144733"><ele>728.0</ele><time>2026-04-06T12:21:01.503Z</time></trkpt><trkpt lat="44.7268717" lon="9.8146033"><ele>728.0</ele><time>2026-04-06T12:21:02.503Z</time></trkpt><trkpt lat="44.7268083" lon="9.8147333"><ele>728.0</ele><time>2026-04-06T12:21:03.503Z</time></trkpt><trkpt lat="44.7267233" lon="9.8148683"><ele>728.0</ele><time>2026-04-06T12:21:04.502Z</time></trkpt><trkpt lat="44.7266433" lon="9.8150017"><ele>728.0</ele><time>2026-04-06T12:21:05.503Z</time></trkpt><trkpt lat="44.7265633" lon="9.815145"><ele>725.75</ele><time>2026-04-06T12:21:06.503Z</time></trkpt><trkpt lat="44.7264867" lon="9.81529"><ele>723.5</ele><time>2026-04-06T12:21:07.503Z</time></trkpt><trkpt lat="44.726405" lon="9.81545"><ele>721.25</ele><time>2026-04-06T12:21:08.502Z</time></trkpt><trkpt lat="44.7263183" lon="9.8156267"><ele>719.0</ele><time>2026-04-06T12:21:09.503Z</time></trkpt><trkpt lat="44.7262267" lon="9.8158167"><ele>719.3333333333333</ele><time>2026-04-06T12:21:10.503Z</time></trkpt><trkpt lat="44.7261367" lon="9.8160267"><ele>719.6666666666666</ele><time>2026-04-06T12:21:11.503Z</time></trkpt><trkpt lat="44.7260567" lon="9.8162433"><ele>720.0</ele><time>2026-04-06T12:21:12.502Z</time></trkpt><trkpt lat="44.7259933" lon="9.8164567"><ele>720.0</ele><time>2026-04-06T12:21:13.503Z</time></trkpt><trkpt lat="44.725945" lon="9.8166633"><ele>720.0</ele><time>2026-04-06T12:21:14.502Z</time></trkpt><trkpt lat="44.7259067" lon="9.8168583"><ele>720.0</ele><time>2026-04-06T12:21:15.502Z</time></trkpt><trkpt lat="44.7258717" lon="9.81705"><ele>720.0</ele><time>2026-04-06T12:21:16.502Z</time></trkpt><trkpt lat="44.7258617" lon="9.8172533"><ele>719.75</ele><time>2026-04-06T12:21:17.502Z</time></trkpt><trkpt lat="44.7258583" lon="9.8174383"><ele>719.5</ele><time>2026-04-06T12:21:18.503Z</time></trkpt><trkpt lat="44.72585" lon="9.81762"><ele>719.25</ele><time>2026-04-06T12:21:19.503Z</time></trkpt><trkpt lat="44.7258383" lon="9.8178033"><ele>719.0</ele><time>2026-04-06T12:21:20.502Z</time></trkpt><trkpt lat="44.7258217" lon="9.8179867"><ele>719.0</ele><time>2026-04-06T12:21:21.503Z</time></trkpt><trkpt lat="44.72579" lon="9.818165"><ele>719.0</ele><time>2026-04-06T12:21:22.503Z</time></trkpt><trkpt lat="44.7257467" lon="9.81835"><ele>719.0</ele><time>2026-04-06T12:21:23.502Z</time></trkpt><trkpt lat="44.7257" lon="9.8185433"><ele>719.0</ele><time>2026-04-06T12:21:24.502Z</time></trkpt><trkpt lat="44.7256467" lon="9.8187283"><ele>717.5</ele><time>2026-04-06T12:21:25.502Z</time></trkpt><trkpt lat="44.7255867" lon="9.8188867"><ele>716.0</ele><time>2026-04-06T12:21:26.502Z</time></trkpt><trkpt lat="44.72551" lon="9.8190217"><ele>714.5</ele><time>2026-04-06T12:21:27.502Z</time></trkpt><trkpt lat="44.7254167" lon="9.81914"><ele>713.0</ele><time>2026-04-06T12:21:28.503Z</time></trkpt><trkpt lat="44.7253117" lon="9.819255"><ele>713.5</ele><time>2026-04-06T12:21:29.502Z</time></trkpt><trkpt lat="44.7252033" lon="9.8193833"><ele>714.0</ele><time>2026-04-06T12:21:30.502Z</time></trkpt><trkpt lat="44.7251017" lon="9.8195367"><ele>714.5</ele><time>2026-04-06T12:21:31.502Z</time></trkpt><trkpt lat="44.7250083" lon="9.81969"><ele>715.0</ele><time>2026-04-06T12:21:32.502Z</time></trkpt><trkpt lat="44.7249333" lon="9.8198583"><ele>715.0</ele><time>2026-04-06T12:21:33.502Z</time></trkpt><trkpt lat="44.724885" lon="9.820055"><ele>715.0</ele><time>2026-04-06T12:21:34.502Z</time></trkpt><trkpt lat="44.7248617" lon="9.820265"><ele>715.0</ele><time>2026-04-06T12:21:35.503Z</time></trkpt><trkpt lat="44.724855" lon="9.820465"><ele>715.0</ele><time>2026-04-06T12:21:36.503Z</time></trkpt><trkpt lat="44.7248483" lon="9.820655"><ele>715.0</ele><time>2026-04-06T12:21:37.502Z</time></trkpt><trkpt lat="44.7248417" lon="9.820835"><ele>715.0</ele><time>2026-04-06T12:21:38.502Z</time></trkpt><trkpt lat="44.7248383" lon="9.8210217"><ele>715.0</ele><time>2026-04-06T12:21:39.502Z</time></trkpt><trkpt lat="44.7248433" lon="9.82123"><ele>715.0</ele><time>2026-04-06T12:21:40.502Z</time></trkpt><trkpt lat="44.7248883" lon="9.821405"><ele>715.0</ele><time>2026-04-06T12:21:41.502Z</time></trkpt><trkpt lat="44.72497" lon="9.8215583"><ele>715.0</ele><time>2026-04-06T12:21:42.502Z</time></trkpt><trkpt lat="44.7250583" lon="9.8216833"><ele>715.0</ele><time>2026-04-06T12:21:43.502Z</time></trkpt><trkpt lat="44.7251283" lon="9.82181"><ele>715.0</ele><time>2026-04-06T12:21:44.502Z</time></trkpt><trkpt lat="44.72518" lon="9.8219417"><ele>714.75</ele><time>2026-04-06T12:21:45.503Z</time></trkpt><trkpt lat="44.7252" lon="9.82211"><ele>714.5</ele><time>2026-04-06T12:21:46.503Z</time></trkpt><trkpt lat="44.7251883" lon="9.82228"><ele>714.25</ele><time>2026-04-06T12:21:47.502Z</time></trkpt><trkpt lat="44.72513" lon="9.8224333"><ele>714.0</ele><time>2026-04-06T12:21:48.502Z</time></trkpt><trkpt lat="44.7250433" lon="9.822595"><ele>713.6666666666666</ele><time>2026-04-06T12:21:49.502Z</time></trkpt><trkpt lat="44.7249417" lon="9.82277"><ele>713.3333333333333</ele><time>2026-04-06T12:21:50.502Z</time></trkpt><trkpt lat="44.7248217" lon="9.8229217"><ele>713.0</ele><time>2026-04-06T12:21:51.502Z</time></trkpt><trkpt lat="44.724695" lon="9.8230767"><ele>713.0</ele><time>2026-04-06T12:21:52.502Z</time></trkpt><trkpt lat="44.7245567" lon="9.8232267"><ele>713.0</ele><time>2026-04-06T12:21:53.503Z</time></trkpt><trkpt lat="44.7244433" lon="9.82339"><ele>713.0</ele><time>2026-04-06T12:21:54.502Z</time></trkpt><trkpt lat="44.7243267" lon="9.8235733"><ele>714.0</ele><time>2026-04-06T12:21:55.502Z</time></trkpt><trkpt lat="44.7242233" lon="9.82377"><ele>715.0</ele><time>2026-04-06T12:21:56.503Z</time></trkpt><trkpt lat="44.72413" lon="9.8239617"><ele>716.0</ele><time>2026-04-06T12:21:57.502Z</time></trkpt><trkpt lat="44.72402" lon="9.82416"><ele>717.3333333333333</ele><time>2026-04-06T12:21:58.502Z</time></trkpt><trkpt lat="44.7238967" lon="9.8243317"><ele>718.6666666666666</ele><time>2026-04-06T12:21:59.503Z</time></trkpt><trkpt lat="44.7237967" lon="9.8245383"><ele>720.0</ele><time>2026-04-06T12:22:00.503Z</time></trkpt><trkpt lat="44.7237067" lon="9.8247417"><ele>720.0</ele><time>2026-04-06T12:22:01.502Z</time></trkpt><trkpt lat="44.7236" lon="9.8249233"><ele>720.0</ele><time>2026-04-06T12:22:02.503Z</time></trkpt><trkpt lat="44.7234883" lon="9.8251017"><ele>720.0</ele><time>2026-04-06T12:22:03.502Z</time></trkpt><trkpt lat="44.72337" lon="9.8252783"><ele>719.75</ele><time>2026-04-06T12:22:04.502Z</time></trkpt><trkpt lat="44.723255" lon="9.82541"><ele>719.5</ele><time>2026-04-06T12:22:05.503Z</time></trkpt><trkpt lat="44.72314" lon="9.82552"><ele>719.25</ele><time>2026-04-06T12:22:06.502Z</time></trkpt><trkpt lat="44.7230433" lon="9.8256467"><ele>719.0</ele><time>2026-04-06T12:22:07.503Z</time></trkpt><trkpt lat="44.7229633" lon="9.825775"><ele>719.0</ele><time>2026-04-06T12:22:08.503Z</time></trkpt><trkpt lat="44.7229083" lon="9.8259317"><ele>719.0</ele><time>2026-04-06T12:22:09.503Z</time></trkpt><trkpt lat="44.7228883" lon="9.8261117"><ele>719.0</ele><time>2026-04-06T12:22:10.502Z</time></trkpt><trkpt lat="44.7228967" lon="9.8262867"><ele>719.0</ele><time>2026-04-06T12:22:11.503Z</time></trkpt><trkpt lat="44.72291" lon="9.8264367"><ele>718.0</ele><time>2026-04-06T12:22:12.503Z</time></trkpt><trkpt lat="44.7229733" lon="9.8265283"><ele>717.0</ele><time>2026-04-06T12:22:13.502Z</time></trkpt><trkpt lat="44.7230617" lon="9.8266033"><ele>716.0</ele><time>2026-04-06T12:22:14.502Z</time></trkpt><trkpt lat="44.7231917" lon="9.8266667"><ele>715.0</ele><time>2026-04-06T12:22:15.503Z</time></trkpt><trkpt lat="44.7233217" lon="9.8267367"><ele>715.0</ele><time>2026-04-06T12:22:16.502Z</time></trkpt><trkpt lat="44.7235083" lon="9.8267833"><ele>715.0</ele><time>2026-04-06T12:22:17.502Z</time></trkpt><trkpt lat="44.7236533" lon="9.8268533"><ele>715.0</ele><time>2026-04-06T12:22:18.502Z</time></trkpt><trkpt lat="44.72383" lon="9.8269033"><ele>713.6666666666667</ele><time>2026-04-06T12:22:19.502Z</time></trkpt><trkpt lat="44.72397" lon="9.8269833"><ele>712.3333333333334</ele><time>2026-04-06T12:22:20.503Z</time></trkpt><trkpt lat="44.7240933" lon="9.8271067"><ele>711.0</ele><time>2026-04-06T12:22:21.502Z</time></trkpt><trkpt lat="44.7242017" lon="9.8272583"><ele>711.0</ele><time>2026-04-06T12:22:22.502Z</time></trkpt><trkpt lat="44.7242733" lon="9.8274433"><ele>711.0</ele><time>2026-04-06T12:22:23.503Z</time></trkpt><trkpt lat="44.7243217" lon="9.8276567"><ele>711.0</ele><time>2026-04-06T12:22:24.502Z</time></trkpt><trkpt lat="44.7243767" lon="9.8278967"><ele>709.3333333333334</ele><time>2026-04-06T12:22:25.502Z</time></trkpt><trkpt lat="44.724435" lon="9.8281233"><ele>707.6666666666667</ele><time>2026-04-06T12:22:26.503Z</time></trkpt><trkpt lat="44.7244917" lon="9.8283633"><ele>706.0</ele><time>2026-04-06T12:22:27.502Z</time></trkpt><trkpt lat="44.7245433" lon="9.8286167"><ele>706.0</ele><time>2026-04-06T12:22:28.502Z</time></trkpt><trkpt lat="44.7246017" lon="9.82889"><ele>706.0</ele><time>2026-04-06T12:22:29.502Z</time></trkpt><trkpt lat="44.7246617" lon="9.8291883"><ele>706.0</ele><time>2026-04-06T12:22:30.503Z</time></trkpt><trkpt lat="44.7247283" lon="9.8294883"><ele>706.6666666666667</ele><time>2026-04-06T12:22:31.503Z</time></trkpt><trkpt lat="44.724785" lon="9.8297933"><ele>707.3333333333334</ele><time>2026-04-06T12:22:32.503Z</time></trkpt><trkpt lat="44.7248383" lon="9.8300767"><ele>708.0</ele><time>2026-04-06T12:22:33.502Z</time></trkpt><trkpt lat="44.7248767" lon="9.8303483"><ele>708.0</ele><time>2026-04-06T12:22:34.503Z</time></trkpt><trkpt lat="44.7249" lon="9.8306117"><ele>708.0</ele><time>2026-04-06T12:22:35.502Z</time></trkpt><trkpt lat="44.7249167" lon="9.83086"><ele>708.0</ele><time>2026-04-06T12:22:36.502Z</time></trkpt><trkpt lat="44.7248983" lon="9.83108"><ele>708.0</ele><time>2026-04-06T12:22:37.502Z</time></trkpt><trkpt lat="44.7248667" lon="9.83129"><ele>708.0</ele><time>2026-04-06T12:22:38.503Z</time></trkpt><trkpt lat="44.72471" lon="9.8314817"><ele>708.0</ele><time>2026-04-06T12:22:39.503Z</time></trkpt><trkpt lat="44.72456" lon="9.8316283"><ele>708.0</ele><time>2026-04-06T12:22:40.503Z</time></trkpt><trkpt lat="44.7244333" lon="9.831765"><ele>708.0</ele><time>2026-04-06T12:22:41.503Z</time></trkpt><trkpt lat="44.7243383" lon="9.8319083"><ele>708.0</ele><time>2026-04-06T12:22:42.503Z</time></trkpt><trkpt lat="44.7242783" lon="9.8320667"><ele>708.0</ele><time>2026-04-06T12:22:43.503Z</time></trkpt><trkpt lat="44.72424" lon="9.8322467"><ele>709.3333333333334</ele><time>2026-04-06T12:22:44.503Z</time></trkpt><trkpt lat="44.72422" lon="9.8324417"><ele>710.6666666666667</ele><time>2026-04-06T12:22:45.502Z</time></trkpt><trkpt lat="44.7242167" lon="9.8326667"><ele>712.0</ele><time>2026-04-06T12:22:46.502Z</time></trkpt><trkpt lat="44.724225" lon="9.8328967"><ele>713.3333333333334</ele><time>2026-04-06T12:22:47.503Z</time></trkpt><trkpt lat="44.7242217" lon="9.833105"><ele>714.6666666666666</ele><time>2026-04-06T12:22:48.502Z</time></trkpt><trkpt lat="44.7241867" lon="9.8333717"><ele>716.0</ele><time>2026-04-06T12:22:49.503Z</time></trkpt><trkpt lat="44.72416" lon="9.83359"><ele>717.3333333333333</ele><time>2026-04-06T12:22:50.502Z</time></trkpt><trkpt lat="44.7241117" lon="9.8338017"><ele>718.6666666666666</ele><time>2026-04-06T12:22:51.502Z</time></trkpt><trkpt lat="44.7240417" lon="9.8340033"><ele>720.0</ele><time>2026-04-06T12:22:52.502Z</time></trkpt><trkpt lat="44.7239717" lon="9.8342033"><ele>719.25</ele><time>2026-04-06T12:22:53.502Z</time></trkpt><trkpt lat="44.7239167" lon="9.8343917"><ele>718.5</ele><time>2026-04-06T12:22:54.502Z</time></trkpt><trkpt lat="44.723855" lon="9.8345567"><ele>717.75</ele><time>2026-04-06T12:22:55.503Z</time></trkpt><trkpt lat="44.72387" lon="9.8346683"><ele>717.0</ele><time>2026-04-06T12:22:56.503Z</time></trkpt><trkpt lat="44.72392" lon="9.834805"><ele>717.0</ele><time>2026-04-06T12:22:57.503Z</time></trkpt><trkpt lat="44.7240233" lon="9.834905"><ele>717.0</ele><time>2026-04-06T12:22:58.502Z</time></trkpt><trkpt lat="44.724145" lon="9.83496"><ele>717.0</ele><time>2026-04-06T12:22:59.503Z</time></trkpt><trkpt lat="44.724295" lon="9.8350117"><ele>717.0</ele><time>2026-04-06T12:23:00.502Z</time></trkpt><trkpt lat="44.7244367" lon="9.8350833"><ele>716.75</ele><time>2026-04-06T12:23:01.503Z</time></trkpt><trkpt lat="44.7245717" lon="9.83517"><ele>716.5</ele><time>2026-04-06T12:23:02.502Z</time></trkpt><trkpt lat="44.7246817" lon="9.83526"><ele>716.25</ele><time>2026-04-06T12:23:03.502Z</time></trkpt><trkpt lat="44.724805" lon="9.835355"><ele>716.0</ele><time>2026-04-06T12:23:04.502Z</time></trkpt><trkpt lat="44.7248617" lon="9.8355133"><ele>716.0</ele><time>2026-04-06T12:23:05.503Z</time></trkpt><trkpt lat="44.724875" lon="9.8356883"><ele>716.0</ele><time>2026-04-06T12:23:06.502Z</time></trkpt><trkpt lat="44.7248617" lon="9.8358983"><ele>716.0</ele><time>2026-04-06T12:23:07.502Z</time></trkpt><trkpt lat="44.7248117" lon="9.836105"><ele>716.0</ele><time>2026-04-06T12:23:08.502Z</time></trkpt><trkpt lat="44.7247533" lon="9.8363017"><ele>716.25</ele><time>2026-04-06T12:23:09.502Z</time></trkpt><trkpt lat="44.7246917" lon="9.8364867"><ele>716.5</ele><time>2026-04-06T12:23:10.503Z</time></trkpt><trkpt lat="44.7246483" lon="9.8366533"><ele>716.75</ele><time>2026-04-06T12:23:11.502Z</time></trkpt><trkpt lat="44.7246317" lon="9.8368367"><ele>717.0</ele><time>2026-04-06T12:23:12.502Z</time></trkpt><trkpt lat="44.7246583" lon="9.8370317"><ele>717.0</ele><time>2026-04-06T12:23:13.503Z</time></trkpt><trkpt lat="44.7247017" lon="9.8372333"><ele>717.0</ele><time>2026-04-06T12:23:14.502Z</time></trkpt><trkpt lat="44.7247533" lon="9.83746"><ele>717.0</ele><time>2026-04-06T12:23:15.502Z</time></trkpt><trkpt lat="44.724815" lon="9.8376983"><ele>717.3333333333334</ele><time>2026-04-06T12:23:16.502Z</time></trkpt><trkpt lat="44.7248833" lon="9.83793"><ele>717.6666666666667</ele><time>2026-04-06T12:23:17.502Z</time></trkpt><trkpt lat="44.724945" lon="9.8381567"><ele>718.0</ele><time>2026-04-06T12:23:18.502Z</time></trkpt><trkpt lat="44.7250317" lon="9.8383467"><ele>718.0</ele><time>2026-04-06T12:23:19.502Z</time></trkpt><trkpt lat="44.7250733" lon="9.8385683"><ele>718.0</ele><time>2026-04-06T12:23:20.503Z</time></trkpt><trkpt lat="44.7251233" lon="9.8388"><ele>718.0</ele><time>2026-04-06T12:23:21.502Z</time></trkpt><trkpt lat="44.7251517" lon="9.8390267"><ele>718.0</ele><time>2026-04-06T12:23:22.502Z</time></trkpt><trkpt lat="44.7251933" lon="9.8392233"><ele>718.0</ele><time>2026-04-06T12:23:23.502Z</time></trkpt><trkpt lat="44.72523" lon="9.8394467"><ele>718.0</ele><time>2026-04-06T12:23:24.502Z</time></trkpt><trkpt lat="44.7252617" lon="9.839675"><ele>719.0</ele><time>2026-04-06T12:23:25.502Z</time></trkpt><trkpt lat="44.7252683" lon="9.83991"><ele>720.0</ele><time>2026-04-06T12:23:26.503Z</time></trkpt><trkpt lat="44.725265" lon="9.840145"><ele>721.0</ele><time>2026-04-06T12:23:27.503Z</time></trkpt><trkpt lat="44.725235" lon="9.84039"><ele>721.6666666666667</ele><time>2026-04-06T12:23:28.502Z</time></trkpt><trkpt lat="44.7252117" lon="9.8406333"><ele>722.3333333333334</ele><time>2026-04-06T12:23:29.503Z</time></trkpt><trkpt lat="44.7251833" lon="9.8408467"><ele>723.0</ele><time>2026-04-06T12:23:30.503Z</time></trkpt><trkpt lat="44.7251617" lon="9.8410683"><ele>724.0</ele><time>2026-04-06T12:23:31.502Z</time></trkpt><trkpt lat="44.7251767" lon="9.8412917"><ele>725.0</ele><time>2026-04-06T12:23:32.502Z</time></trkpt><trkpt lat="44.7252433" lon="9.841545"><ele>726.0</ele><time>2026-04-06T12:23:33.502Z</time></trkpt><trkpt lat="44.7253283" lon="9.8417733"><ele>725.6666666666666</ele><time>2026-04-06T12:23:34.502Z</time></trkpt><trkpt lat="44.7254167" lon="9.8420433"><ele>725.3333333333333</ele><time>2026-04-06T12:23:35.503Z</time></trkpt><trkpt lat="44.7254967" lon="9.8423167"><ele>725.0</ele><time>2026-04-06T12:23:36.502Z</time></trkpt><trkpt lat="44.7255883" lon="9.842605"><ele>725.6666666666666</ele><time>2026-04-06T12:23:37.503Z</time></trkpt><trkpt lat="44.725685" lon="9.8428667"><ele>726.3333333333334</ele><time>2026-04-06T12:23:38.503Z</time></trkpt><trkpt lat="44.7257817" lon="9.8431183"><ele>727.0</ele><time>2026-04-06T12:23:39.502Z</time></trkpt><trkpt lat="44.7258583" lon="9.8433683"><ele>727.3333333333334</ele><time>2026-04-06T12:23:40.503Z</time></trkpt><trkpt lat="44.7259083" lon="9.843635"><ele>727.6666666666666</ele><time>2026-04-06T12:23:41.502Z</time></trkpt><trkpt lat="44.7259" lon="9.8439117"><ele>728.0</ele><time>2026-04-06T12:23:42.502Z</time></trkpt><trkpt lat="44.72587" lon="9.8442"><ele>728.0</ele><time>2026-04-06T12:23:43.502Z</time></trkpt><trkpt lat="44.72585" lon="9.8444783"><ele>728.0</ele><time>2026-04-06T12:23:44.502Z</time></trkpt><trkpt lat="44.7258267" lon="9.8447383"><ele>728.0</ele><time>2026-04-06T12:23:45.503Z</time></trkpt><trkpt lat="44.7258233" lon="9.8449967"><ele>727.0</ele><time>2026-04-06T12:23:46.503Z</time></trkpt><trkpt lat="44.7258467" lon="9.845255"><ele>726.0</ele><time>2026-04-06T12:23:47.502Z</time></trkpt><trkpt lat="44.7259267" lon="9.845465"><ele>725.0</ele><time>2026-04-06T12:23:48.503Z</time></trkpt><trkpt lat="44.7260167" lon="9.84568"><ele>723.6666666666666</ele><time>2026-04-06T12:23:49.502Z</time></trkpt><trkpt lat="44.7261133" lon="9.8459017"><ele>722.3333333333334</ele><time>2026-04-06T12:23:50.503Z</time></trkpt><trkpt lat="44.726135" lon="9.846115"><ele>721.0</ele><time>2026-04-06T12:23:51.502Z</time></trkpt><trkpt lat="44.7261133" lon="9.84639"><ele>722.3333333333334</ele><time>2026-04-06T12:23:52.502Z</time></trkpt><trkpt lat="44.726055" lon="9.8466867"><ele>723.6666666666666</ele><time>2026-04-06T12:23:53.502Z</time></trkpt><trkpt lat="44.726" lon="9.8469583"><ele>725.0</ele><time>2026-04-06T12:23:54.502Z</time></trkpt><trkpt lat="44.7259467" lon="9.8471767"><ele>725.0</ele><time>2026-04-06T12:23:55.502Z</time></trkpt><trkpt lat="44.7258933" lon="9.847385"><ele>725.0</ele><time>2026-04-06T12:23:56.502Z</time></trkpt><trkpt lat="44.72584" lon="9.8476083"><ele>725.0</ele><time>2026-04-06T12:23:57.502Z</time></trkpt><trkpt lat="44.725795" lon="9.847815"><ele>726.25</ele><time>2026-04-06T12:23:58.503Z</time></trkpt><trkpt lat="44.72574" lon="9.84802"><ele>727.5</ele><time>2026-04-06T12:23:59.502Z</time></trkpt><trkpt lat="44.7256867" lon="9.8482183"><ele>728.75</ele><time>2026-04-06T12:24:00.502Z</time></trkpt><trkpt lat="44.7256417" lon="9.8484017"><ele>730.0</ele><time>2026-04-06T12:24:01.502Z</time></trkpt><trkpt lat="44.7256117" lon="9.8486017"><ele>731.0</ele><time>2026-04-06T12:24:02.503Z</time></trkpt><trkpt lat="44.7255883" lon="9.8488283"><ele>732.0</ele><time>2026-04-06T12:24:03.502Z</time></trkpt><trkpt lat="44.7255717" lon="9.8490583"><ele>733.0</ele><time>2026-04-06T12:24:04.503Z</time></trkpt><trkpt lat="44.725555" lon="9.8492967"><ele>734.6666666666667</ele><time>2026-04-06T12:24:05.502Z</time></trkpt><trkpt lat="44.7255367" lon="9.849545"><ele>736.3333333333334</ele><time>2026-04-06T12:24:06.502Z</time></trkpt><trkpt lat="44.72552" lon="9.8497767"><ele>738.0</ele><time>2026-04-06T12:24:07.501Z</time></trkpt><trkpt lat="44.7254983" lon="9.8500017"><ele>740.6666666666666</ele><time>2026-04-06T12:24:08.501Z</time></trkpt><trkpt lat="44.7254633" lon="9.8502267"><ele>743.3333333333333</ele><time>2026-04-06T12:24:09.501Z</time></trkpt><trkpt lat="44.7254083" lon="9.8504517"><ele>746.0</ele><time>2026-04-06T12:24:10.501Z</time></trkpt><trkpt lat="44.7253333" lon="9.8506717"><ele>746.0</ele><time>2026-04-06T12:24:11.502Z</time></trkpt><trkpt lat="44.7252383" lon="9.8508917"><ele>746.0</ele><time>2026-04-06T12:24:12.501Z</time></trkpt><trkpt lat="44.7251217" lon="9.8511233"><ele>746.0</ele><time>2026-04-06T12:24:13.502Z</time></trkpt><trkpt lat="44.725015" lon="9.8513317"><ele>746.0</ele><time>2026-04-06T12:24:14.501Z</time></trkpt><trkpt lat="44.7249183" lon="9.8515267"><ele>746.0</ele><time>2026-04-06T12:24:15.502Z</time></trkpt><trkpt lat="44.724825" lon="9.8517233"><ele>746.0</ele><time>2026-04-06T12:24:16.502Z</time></trkpt><trkpt lat="44.7247633" lon="9.85193"><ele>746.3333333333333</ele><time>2026-04-06T12:24:17.501Z</time></trkpt><trkpt lat="44.7247083" lon="9.8521433"><ele>746.6666666666666</ele><time>2026-04-06T12:24:18.501Z</time></trkpt><trkpt lat="44.7246533" lon="9.85234"><ele>747.0</ele><time>2026-04-06T12:24:19.502Z</time></trkpt><trkpt lat="44.7245767" lon="9.8525517"><ele>748.0</ele><time>2026-04-06T12:24:20.502Z</time></trkpt><trkpt lat="44.7245267" lon="9.85274"><ele>749.0</ele><time>2026-04-06T12:24:21.501Z</time></trkpt><trkpt lat="44.72447" lon="9.8529317"><ele>750.0</ele><time>2026-04-06T12:24:22.502Z</time></trkpt><trkpt lat="44.7244017" lon="9.85314"><ele>746.0</ele><time>2026-04-06T12:24:23.501Z</time></trkpt><trkpt lat="44.7243333" lon="9.8533567"><ele>742.0</ele><time>2026-04-06T12:24:24.501Z</time></trkpt><trkpt lat="44.7242617" lon="9.8535717"><ele>738.0</ele><time>2026-04-06T12:24:25.502Z</time></trkpt><trkpt lat="44.7241883" lon="9.853785"><ele>738.0</ele><time>2026-04-06T12:24:26.501Z</time></trkpt><trkpt lat="44.724115" lon="9.854"><ele>738.0</ele><time>2026-04-06T12:24:27.502Z</time></trkpt><trkpt lat="44.7240467" lon="9.8542"><ele>738.0</ele><time>2026-04-06T12:24:28.502Z</time></trkpt><trkpt lat="44.723975" lon="9.854415"><ele>736.3333333333334</ele><time>2026-04-06T12:24:29.501Z</time></trkpt><trkpt lat="44.7238967" lon="9.8546083"><ele>734.6666666666667</ele><time>2026-04-06T12:24:30.501Z</time></trkpt><trkpt lat="44.7237933" lon="9.8547833"><ele>733.0</ele><time>2026-04-06T12:24:31.502Z</time></trkpt><trkpt lat="44.7236883" lon="9.8549567"><ele>731.3333333333334</ele><time>2026-04-06T12:24:32.502Z</time></trkpt><trkpt lat="44.7235933" lon="9.8551433"><ele>729.6666666666666</ele><time>2026-04-06T12:24:33.501Z</time></trkpt><trkpt lat="44.723495" lon="9.8553333"><ele>728.0</ele><time>2026-04-06T12:24:34.502Z</time></trkpt><trkpt lat="44.7233933" lon="9.8555267"><ele>727.0</ele><time>2026-04-06T12:24:35.501Z</time></trkpt><trkpt lat="44.7233" lon="9.8557233"><ele>726.0</ele><time>2026-04-06T12:24:36.501Z</time></trkpt><trkpt lat="44.7232017" lon="9.855935"><ele>725.0</ele><time>2026-04-06T12:24:37.501Z</time></trkpt><trkpt lat="44.7230917" lon="9.8561333"><ele>722.6666666666666</ele><time>2026-04-06T12:24:38.502Z</time></trkpt><trkpt lat="44.7229933" lon="9.8563267"><ele>720.3333333333334</ele><time>2026-04-06T12:24:39.501Z</time></trkpt><trkpt lat="44.7229033" lon="9.8565167"><ele>718.0</ele><time>2026-04-06T12:24:40.501Z</time></trkpt><trkpt lat="44.7228033" lon="9.85671"><ele>716.0</ele><time>2026-04-06T12:24:41.502Z</time></trkpt><trkpt lat="44.7227133" lon="9.856925"><ele>714.0</ele><time>2026-04-06T12:24:42.502Z</time></trkpt><trkpt lat="44.7226333" lon="9.857145"><ele>712.0</ele><time>2026-04-06T12:24:43.501Z</time></trkpt><trkpt lat="44.722565" lon="9.8573633"><ele>712.0</ele><time>2026-04-06T12:24:44.501Z</time></trkpt><trkpt lat="44.722495" lon="9.8576033"><ele>712.0</ele><time>2026-04-06T12:24:45.501Z</time></trkpt><trkpt lat="44.7224517" lon="9.8578317"><ele>712.0</ele><time>2026-04-06T12:24:46.502Z</time></trkpt><trkpt lat="44.7224217" lon="9.8580867"><ele>711.6666666666667</ele><time>2026-04-06T12:24:47.502Z</time></trkpt><trkpt lat="44.7224133" lon="9.85834"><ele>711.3333333333334</ele><time>2026-04-06T12:24:48.502Z</time></trkpt><trkpt lat="44.722405" lon="9.85858"><ele>711.0</ele><time>2026-04-06T12:24:49.502Z</time></trkpt><trkpt lat="44.7223667" lon="9.8588217"><ele>709.6666666666666</ele><time>2026-04-06T12:24:50.502Z</time></trkpt><trkpt lat="44.7222983" lon="9.859055"><ele>708.3333333333333</ele><time>2026-04-06T12:24:51.501Z</time></trkpt><trkpt lat="44.7222083" lon="9.85927"><ele>707.0</ele><time>2026-04-06T12:24:52.502Z</time></trkpt><trkpt lat="44.722135" lon="9.8594767"><ele>706.5</ele><time>2026-04-06T12:24:53.501Z</time></trkpt><trkpt lat="44.7220833" lon="9.85966"><ele>706.0</ele><time>2026-04-06T12:24:54.502Z</time></trkpt><trkpt lat="44.722015" lon="9.8598467"><ele>705.5</ele><time>2026-04-06T12:24:55.501Z</time></trkpt><trkpt lat="44.72192" lon="9.8600067"><ele>705.0</ele><time>2026-04-06T12:24:56.501Z</time></trkpt><trkpt lat="44.7217883" lon="9.86015"><ele>705.0</ele><time>2026-04-06T12:24:57.502Z</time></trkpt><trkpt lat="44.7216267" lon="9.8602533"><ele>705.0</ele><time>2026-04-06T12:24:58.501Z</time></trkpt><trkpt lat="44.721465" lon="9.860345"><ele>705.0</ele><time>2026-04-06T12:24:59.501Z</time></trkpt><trkpt lat="44.72133" lon="9.8604867"><ele>705.0</ele><time>2026-04-06T12:25:00.501Z</time></trkpt><trkpt lat="44.7211883" lon="9.8606633"><ele>705.0</ele><time>2026-04-06T12:25:01.501Z</time></trkpt><trkpt lat="44.7210617" lon="9.8608767"><ele>705.0</ele><time>2026-04-06T12:25:02.501Z</time></trkpt><trkpt lat="44.7209383" lon="9.86109"><ele>702.3333333333334</ele><time>2026-04-06T12:25:03.501Z</time></trkpt><trkpt lat="44.72083" lon="9.86128"><ele>699.6666666666667</ele><time>2026-04-06T12:25:04.502Z</time></trkpt><trkpt lat="44.7207217" lon="9.8614733"><ele>697.0</ele><time>2026-04-06T12:25:05.501Z</time></trkpt><trkpt lat="44.7206217" lon="9.8616467"><ele>695.0</ele><time>2026-04-06T12:25:06.501Z</time></trkpt><trkpt lat="44.7205167" lon="9.861815"><ele>693.0</ele><time>2026-04-06T12:25:07.501Z</time></trkpt><trkpt lat="44.7204133" lon="9.8619967"><ele>691.0</ele><time>2026-04-06T12:25:08.502Z</time></trkpt><trkpt lat="44.7203267" lon="9.862195"><ele>691.3333333333334</ele><time>2026-04-06T12:25:09.501Z</time></trkpt><trkpt lat="44.7202283" lon="9.8623533"><ele>691.6666666666666</ele><time>2026-04-06T12:25:10.501Z</time></trkpt><trkpt lat="44.72013" lon="9.86252"><ele>692.0</ele><time>2026-04-06T12:25:11.502Z</time></trkpt><trkpt lat="44.72003" lon="9.8626783"><ele>692.0</ele><time>2026-04-06T12:25:12.501Z</time></trkpt><trkpt lat="44.7199333" lon="9.862845"><ele>692.0</ele><time>2026-04-06T12:25:13.502Z</time></trkpt><trkpt lat="44.7198517" lon="9.8630067"><ele>692.0</ele><time>2026-04-06T12:25:14.502Z</time></trkpt><trkpt lat="44.7197867" lon="9.8631667"><ele>692.0</ele><time>2026-04-06T12:25:15.501Z</time></trkpt><trkpt lat="44.719735" lon="9.8633417"><ele>692.75</ele><time>2026-04-06T12:25:16.501Z</time></trkpt><trkpt lat="44.7196917" lon="9.8635183"><ele>693.5</ele><time>2026-04-06T12:25:17.501Z</time></trkpt><trkpt lat="44.7196617" lon="9.8636983"><ele>694.25</ele><time>2026-04-06T12:25:18.502Z</time></trkpt><trkpt lat="44.7196217" lon="9.8639033"><ele>695.0</ele><time>2026-04-06T12:25:19.502Z</time></trkpt><trkpt lat="44.7195833" lon="9.86412"><ele>694.5</ele><time>2026-04-06T12:25:20.501Z</time></trkpt><trkpt lat="44.7195467" lon="9.8643333"><ele>694.0</ele><time>2026-04-06T12:25:21.501Z</time></trkpt><trkpt lat="44.7195117" lon="9.8645317"><ele>693.5</ele><time>2026-04-06T12:25:22.501Z</time></trkpt><trkpt lat="44.7194733" lon="9.864725"><ele>693.0</ele><time>2026-04-06T12:25:23.501Z</time></trkpt><trkpt lat="44.7194317" lon="9.864915"><ele>689.0</ele><time>2026-04-06T12:25:24.502Z</time></trkpt><trkpt lat="44.7193917" lon="9.8651083"><ele>685.0</ele><time>2026-04-06T12:25:25.502Z</time></trkpt><trkpt lat="44.719365" lon="9.8653133"><ele>681.0</ele><time>2026-04-06T12:25:26.502Z</time></trkpt><trkpt lat="44.7193417" lon="9.8654917"><ele>677.0</ele><time>2026-04-06T12:25:27.501Z</time></trkpt><trkpt lat="44.719345" lon="9.8656767"><ele>676.0</ele><time>2026-04-06T12:25:28.501Z</time></trkpt><trkpt lat="44.7193833" lon="9.865865"><ele>675.0</ele><time>2026-04-06T12:25:29.501Z</time></trkpt><trkpt lat="44.7194433" lon="9.8661033"><ele>674.0</ele><time>2026-04-06T12:25:30.501Z</time></trkpt><trkpt lat="44.7195183" lon="9.86631"><ele>678.5</ele><time>2026-04-06T12:25:31.502Z</time></trkpt><trkpt lat="44.7195933" lon="9.8665033"><ele>683.0</ele><time>2026-04-06T12:25:32.501Z</time></trkpt><trkpt lat="44.7196483" lon="9.8666883"><ele>687.5</ele><time>2026-04-06T12:25:33.501Z</time></trkpt><trkpt lat="44.7196833" lon="9.8668767"><ele>692.0</ele><time>2026-04-06T12:25:34.502Z</time></trkpt><trkpt lat="44.71972" lon="9.8671033"><ele>692.0</ele><time>2026-04-06T12:25:35.501Z</time></trkpt><trkpt lat="44.719765" lon="9.8673233"><ele>692.0</ele><time>2026-04-06T12:25:36.501Z</time></trkpt><trkpt lat="44.7198033" lon="9.8675417"><ele>692.0</ele><time>2026-04-06T12:25:37.502Z</time></trkpt><trkpt lat="44.719825" lon="9.8677733"><ele>689.0</ele><time>2026-04-06T12:25:38.501Z</time></trkpt><trkpt lat="44.7198583" lon="9.8679983"><ele>686.0</ele><time>2026-04-06T12:25:39.502Z</time></trkpt><trkpt lat="44.719895" lon="9.8682283"><ele>683.0</ele><time>2026-04-06T12:25:40.501Z</time></trkpt><trkpt lat="44.7199667" lon="9.86845"><ele>680.0</ele><time>2026-04-06T12:25:41.501Z</time></trkpt><trkpt lat="44.7200383" lon="9.8686467"><ele>677.0</ele><time>2026-04-06T12:25:42.501Z</time></trkpt><trkpt lat="44.7201067" lon="9.8688483"><ele>674.0</ele><time>2026-04-06T12:25:43.502Z</time></trkpt><trkpt lat="44.72016" lon="9.8690867"><ele>676.5</ele><time>2026-04-06T12:25:44.502Z</time></trkpt><trkpt lat="44.720215" lon="9.8692767"><ele>679.0</ele><time>2026-04-06T12:25:45.501Z</time></trkpt><trkpt lat="44.7202633" lon="9.869465"><ele>681.5</ele><time>2026-04-06T12:25:46.502Z</time></trkpt><trkpt lat="44.72034" lon="9.86963"><ele>684.0</ele><time>2026-04-06T12:25:47.502Z</time></trkpt><trkpt lat="44.72043" lon="9.86978"><ele>684.0</ele><time>2026-04-06T12:25:48.501Z</time></trkpt><trkpt lat="44.7205133" lon="9.869925"><ele>684.0</ele><time>2026-04-06T12:25:49.501Z</time></trkpt><trkpt lat="44.720575" lon="9.8700817"><ele>684.0</ele><time>2026-04-06T12:25:50.501Z</time></trkpt><trkpt lat="44.7205983" lon="9.870275"><ele>684.0</ele><time>2026-04-06T12:25:51.501Z</time></trkpt><trkpt lat="44.720585" lon="9.87049"><ele>681.0</ele><time>2026-04-06T12:25:52.501Z</time></trkpt><trkpt lat="44.7205517" lon="9.8707017"><ele>678.0</ele><time>2026-04-06T12:25:53.502Z</time></trkpt><trkpt lat="44.720515" lon="9.8709083"><ele>675.0</ele><time>2026-04-06T12:25:54.501Z</time></trkpt><trkpt lat="44.720495" lon="9.871115"><ele>673.75</ele><time>2026-04-06T12:25:55.501Z</time></trkpt><trkpt lat="44.7204967" lon="9.8713367"><ele>672.5</ele><time>2026-04-06T12:25:56.502Z</time></trkpt><trkpt lat="44.7205133" lon="9.8715467"><ele>671.25</ele><time>2026-04-06T12:25:57.502Z</time></trkpt><trkpt lat="44.7205417" lon="9.8717383"><ele>670.0</ele><time>2026-04-06T12:25:58.501Z</time></trkpt><trkpt lat="44.720585" lon="9.871915"><ele>668.5</ele><time>2026-04-06T12:25:59.501Z</time></trkpt><trkpt lat="44.720645" lon="9.872085"><ele>667.0</ele><time>2026-04-06T12:26:00.502Z</time></trkpt><trkpt lat="44.7207133" lon="9.8722583"><ele>665.5</ele><time>2026-04-06T12:26:01.501Z</time></trkpt><trkpt lat="44.7207767" lon="9.8724383"><ele>664.0</ele><time>2026-04-06T12:26:02.501Z</time></trkpt><trkpt lat="44.7208183" lon="9.8726283"><ele>663.5</ele><time>2026-04-06T12:26:03.501Z</time></trkpt><trkpt lat="44.720835" lon="9.8728267"><ele>663.0</ele><time>2026-04-06T12:26:04.502Z</time></trkpt><trkpt lat="44.7208367" lon="9.8730167"><ele>662.5</ele><time>2026-04-06T12:26:05.501Z</time></trkpt><trkpt lat="44.7208267" lon="9.87323"><ele>662.0</ele><time>2026-04-06T12:26:06.502Z</time></trkpt><trkpt lat="44.7208117" lon="9.873425"><ele>661.6666666666666</ele><time>2026-04-06T12:26:07.501Z</time></trkpt><trkpt lat="44.7207933" lon="9.8736233"><ele>661.3333333333334</ele><time>2026-04-06T12:26:08.501Z</time></trkpt><trkpt lat="44.7207683" lon="9.873855"><ele>661.0</ele><time>2026-04-06T12:26:09.501Z</time></trkpt><trkpt lat="44.720715" lon="9.8740533"><ele>661.0</ele><time>2026-04-06T12:26:10.502Z</time></trkpt><trkpt lat="44.7206217" lon="9.8742317"><ele>661.0</ele><time>2026-04-06T12:26:11.502Z</time></trkpt><trkpt lat="44.7205033" lon="9.8743867"><ele>661.0</ele><time>2026-04-06T12:26:12.502Z</time></trkpt><trkpt lat="44.7203717" lon="9.8745067"><ele>661.25</ele><time>2026-04-06T12:26:13.502Z</time></trkpt><trkpt lat="44.7202367" lon="9.8746083"><ele>661.5</ele><time>2026-04-06T12:26:14.502Z</time></trkpt><trkpt lat="44.7201" lon="9.8746933"><ele>661.75</ele><time>2026-04-06T12:26:15.502Z</time></trkpt><trkpt lat="44.72001" lon="9.8748383"><ele>662.0</ele><time>2026-04-06T12:26:16.501Z</time></trkpt><trkpt lat="44.7199517" lon="9.8750267"><ele>663.0</ele><time>2026-04-06T12:26:17.501Z</time></trkpt><trkpt lat="44.719925" lon="9.8752533"><ele>664.0</ele><time>2026-04-06T12:26:18.502Z</time></trkpt><trkpt lat="44.7198883" lon="9.8754767"><ele>665.0</ele><time>2026-04-06T12:26:19.501Z</time></trkpt><trkpt lat="44.7198367" lon="9.8756917"><ele>665.0</ele><time>2026-04-06T12:26:20.502Z</time></trkpt><trkpt lat="44.7197483" lon="9.87589"><ele>665.0</ele><time>2026-04-06T12:26:21.501Z</time></trkpt><trkpt lat="44.7196417" lon="9.8760683"><ele>665.0</ele><time>2026-04-06T12:26:22.502Z</time></trkpt><trkpt lat="44.7195217" lon="9.876235"><ele>665.0</ele><time>2026-04-06T12:26:23.502Z</time></trkpt><trkpt lat="44.7194" lon="9.8763683"><ele>665.0</ele><time>2026-04-06T12:26:24.501Z</time></trkpt><trkpt lat="44.7192867" lon="9.8765017"><ele>665.0</ele><time>2026-04-06T12:26:25.501Z</time></trkpt><trkpt lat="44.719195" lon="9.8766567"><ele>665.0</ele><time>2026-04-06T12:26:26.501Z</time></trkpt><trkpt lat="44.7191267" lon="9.8768383"><ele>665.0</ele><time>2026-04-06T12:26:27.502Z</time></trkpt><trkpt lat="44.71906" lon="9.877025"><ele>665.0</ele><time>2026-04-06T12:26:28.501Z</time></trkpt><trkpt lat="44.71901" lon="9.87725"><ele>665.0</ele><time>2026-04-06T12:26:29.501Z</time></trkpt><trkpt lat="44.718965" lon="9.87748"><ele>665.6666666666666</ele><time>2026-04-06T12:26:30.502Z</time></trkpt><trkpt lat="44.71892" lon="9.877725"><ele>666.3333333333334</ele><time>2026-04-06T12:26:31.501Z</time></trkpt><trkpt lat="44.7188833" lon="9.8779467"><ele>667.0</ele><time>2026-04-06T12:26:32.501Z</time></trkpt><trkpt lat="44.7188483" lon="9.878135"><ele>667.0</ele><time>2026-04-06T12:26:33.501Z</time></trkpt><trkpt lat="44.718815" lon="9.878345"><ele>667.0</ele><time>2026-04-06T12:26:34.502Z</time></trkpt><trkpt lat="44.71882" lon="9.8785467"><ele>667.0</ele><time>2026-04-06T12:26:35.501Z</time></trkpt><trkpt lat="44.7188733" lon="9.8787167"><ele>667.0</ele><time>2026-04-06T12:26:36.502Z</time></trkpt><trkpt lat="44.7189833" lon="9.8788833"><ele>667.0</ele><time>2026-04-06T12:26:37.501Z</time></trkpt><trkpt lat="44.7191267" lon="9.87907"><ele>667.0</ele><time>2026-04-06T12:26:38.501Z</time></trkpt><trkpt lat="44.7192417" lon="9.8792333"><ele>667.0</ele><time>2026-04-06T12:26:39.502Z</time></trkpt><trkpt lat="44.719315" lon="9.8794183"><ele>667.3333333333334</ele><time>2026-04-06T12:26:40.501Z</time></trkpt><trkpt lat="44.719295" lon="9.8796317"><ele>667.6666666666666</ele><time>2026-04-06T12:26:41.502Z</time></trkpt><trkpt lat="44.719265" lon="9.8798583"><ele>668.0</ele><time>2026-04-06T12:26:42.501Z</time></trkpt><trkpt lat="44.7192133" lon="9.88011"><ele>668.6666666666666</ele><time>2026-04-06T12:26:43.501Z</time></trkpt><trkpt lat="44.719185" lon="9.8803533"><ele>669.3333333333334</ele><time>2026-04-06T12:26:44.501Z</time></trkpt><trkpt lat="44.7191517" lon="9.880585"><ele>670.0</ele><time>2026-04-06T12:26:45.501Z</time></trkpt><trkpt lat="44.7191" lon="9.8807983"><ele>670.0</ele><time>2026-04-06T12:26:46.502Z</time></trkpt><trkpt lat="44.7190267" lon="9.88099"><ele>670.0</ele><time>2026-04-06T12:26:47.502Z</time></trkpt><trkpt lat="44.71896" lon="9.8811667"><ele>670.0</ele><time>2026-04-06T12:26:48.502Z</time></trkpt><trkpt lat="44.7188817" lon="9.8813483"><ele>670.0</ele><time>2026-04-06T12:26:49.501Z</time></trkpt><trkpt lat="44.7187917" lon="9.8815117"><ele>670.0</ele><time>2026-04-06T12:26:50.501Z</time></trkpt><trkpt lat="44.7186883" lon="9.8816767"><ele>670.0</ele><time>2026-04-06T12:26:51.501Z</time></trkpt><trkpt lat="44.7185733" lon="9.8818017"><ele>670.0</ele><time>2026-04-06T12:26:52.501Z</time></trkpt><trkpt lat="44.7184633" lon="9.8819167"><ele>670.0</ele><time>2026-04-06T12:26:53.502Z</time></trkpt><trkpt lat="44.7183833" lon="9.8820667"><ele>673.3333333333334</ele><time>2026-04-06T12:26:54.501Z</time></trkpt><trkpt lat="44.7183267" lon="9.88225"><ele>676.6666666666666</ele><time>2026-04-06T12:26:55.501Z</time></trkpt><trkpt lat="44.7182667" lon="9.8824533"><ele>680.0</ele><time>2026-04-06T12:26:56.501Z</time></trkpt><trkpt lat="44.7182" lon="9.8826517"><ele>680.0</ele><time>2026-04-06T12:26:57.501Z</time></trkpt><trkpt lat="44.7181383" lon="9.8828483"><ele>680.0</ele><time>2026-04-06T12:26:58.502Z</time></trkpt><trkpt lat="44.7180783" lon="9.8830617"><ele>680.0</ele><time>2026-04-06T12:26:59.5Z</time></trkpt><trkpt lat="44.7180233" lon="9.8832717"><ele>678.0</ele><time>2026-04-06T12:27:00.502Z</time></trkpt><trkpt lat="44.7179633" lon="9.8834617"><ele>676.0</ele><time>2026-04-06T12:27:01.502Z</time></trkpt><trkpt lat="44.7179117" lon="9.88366"><ele>674.0</ele><time>2026-04-06T12:27:02.502Z</time></trkpt><trkpt lat="44.71786" lon="9.88384"><ele>672.0</ele><time>2026-04-06T12:27:03.501Z</time></trkpt><trkpt lat="44.71783" lon="9.8840583"><ele>672.0</ele><time>2026-04-06T12:27:04.501Z</time></trkpt><trkpt lat="44.7178267" lon="9.8843033"><ele>672.0</ele><time>2026-04-06T12:27:05.501Z</time></trkpt><trkpt lat="44.7178317" lon="9.88454"><ele>672.0</ele><time>2026-04-06T12:27:06.502Z</time></trkpt><trkpt lat="44.7178483" lon="9.8847767"><ele>672.0</ele><time>2026-04-06T12:27:07.501Z</time></trkpt><trkpt lat="44.7178667" lon="9.8849933"><ele>672.0</ele><time>2026-04-06T12:27:08.502Z</time></trkpt><trkpt lat="44.7178933" lon="9.8851833"><ele>672.0</ele><time>2026-04-06T12:27:09.501Z</time></trkpt><trkpt lat="44.7179083" lon="9.8853867"><ele>672.0</ele><time>2026-04-06T12:27:10.501Z</time></trkpt><trkpt lat="44.717895" lon="9.8855983"><ele>670.0</ele><time>2026-04-06T12:27:11.501Z</time></trkpt><trkpt lat="44.7178517" lon="9.88581"><ele>668.0</ele><time>2026-04-06T12:27:12.501Z</time></trkpt><trkpt lat="44.717805" lon="9.886015"><ele>666.0</ele><time>2026-04-06T12:27:13.502Z</time></trkpt><trkpt lat="44.71778" lon="9.886235"><ele>665.75</ele><time>2026-04-06T12:27:14.502Z</time></trkpt><trkpt lat="44.7177867" lon="9.88645"><ele>665.5</ele><time>2026-04-06T12:27:15.502Z</time></trkpt><trkpt lat="44.7177967" lon="9.886655"><ele>665.25</ele><time>2026-04-06T12:27:16.501Z</time></trkpt><trkpt lat="44.7178233" lon="9.8868417"><ele>665.0</ele><time>2026-04-06T12:27:17.501Z</time></trkpt><trkpt lat="44.7178383" lon="9.8870217"><ele>667.4</ele><time>2026-04-06T12:27:18.501Z</time></trkpt><trkpt lat="44.71784" lon="9.88718"><ele>669.8</ele><time>2026-04-06T12:27:19.502Z</time></trkpt><trkpt lat="44.7178517" lon="9.8873317"><ele>672.2</ele><time>2026-04-06T12:27:20.501Z</time></trkpt><trkpt lat="44.7178617" lon="9.8874767"><ele>674.6</ele><time>2026-04-06T12:27:21.501Z</time></trkpt><trkpt lat="44.717875" lon="9.8875883"><ele>677.0</ele><time>2026-04-06T12:27:22.501Z</time></trkpt><trkpt lat="44.7179033" lon="9.887685"><ele>680.4000000000001</ele><time>2026-04-06T12:27:23.501Z</time></trkpt><trkpt lat="44.71798" lon="9.8877833"><ele>683.8000000000001</ele><time>2026-04-06T12:27:25.502Z</time></trkpt><trkpt lat="44.718095" lon="9.8878233"><ele>687.2</ele><time>2026-04-06T12:27:27.501Z</time></trkpt><trkpt lat="44.7181833" lon="9.887835"><ele>690.6</ele><time>2026-04-06T12:27:28.501Z</time></trkpt><trkpt lat="44.718305" lon="9.8878267"><ele>694.0</ele><time>2026-04-06T12:27:29.502Z</time></trkpt><trkpt lat="44.7184567" lon="9.8878267"><ele>692.25</ele><time>2026-04-06T12:27:30.501Z</time></trkpt><trkpt lat="44.7186033" lon="9.8878283"><ele>690.5</ele><time>2026-04-06T12:27:31.501Z</time></trkpt><trkpt lat="44.718745" lon="9.8878267"><ele>688.75</ele><time>2026-04-06T12:27:32.502Z</time></trkpt><trkpt lat="44.7188983" lon="9.8878367"><ele>687.0</ele><time>2026-04-06T12:27:33.501Z</time></trkpt><trkpt lat="44.71906" lon="9.88785"><ele>687.0</ele><time>2026-04-06T12:27:34.501Z</time></trkpt><trkpt lat="44.7192233" lon="9.887865"><ele>687.0</ele><time>2026-04-06T12:27:35.501Z</time></trkpt><trkpt lat="44.71938" lon="9.887905"><ele>687.0</ele><time>2026-04-06T12:27:36.501Z</time></trkpt><trkpt lat="44.7195367" lon="9.8879733"><ele>684.3333333333334</ele><time>2026-04-06T12:27:37.501Z</time></trkpt><trkpt lat="44.7196983" lon="9.8880283"><ele>681.6666666666667</ele><time>2026-04-06T12:27:38.501Z</time></trkpt><trkpt lat="44.7198567" lon="9.8880983"><ele>679.0</ele><time>2026-04-06T12:27:39.502Z</time></trkpt><trkpt lat="44.72" lon="9.8881567"><ele>679.0</ele><time>2026-04-06T12:27:40.501Z</time></trkpt><trkpt lat="44.7201533" lon="9.8882233"><ele>679.0</ele><time>2026-04-06T12:27:41.502Z</time></trkpt><trkpt lat="44.7203117" lon="9.8883067"><ele>679.0</ele><time>2026-04-06T12:27:42.502Z</time></trkpt><trkpt lat="44.7204667" lon="9.8883883"><ele>679.3333333333334</ele><time>2026-04-06T12:27:43.501Z</time></trkpt><trkpt lat="44.7206267" lon="9.888455"><ele>679.6666666666666</ele><time>2026-04-06T12:27:44.501Z</time></trkpt><trkpt lat="44.72079" lon="9.8885133"><ele>680.0</ele><time>2026-04-06T12:27:45.501Z</time></trkpt><trkpt lat="44.7209417" lon="9.8885717"><ele>674.5</ele><time>2026-04-06T12:27:46.502Z</time></trkpt><trkpt lat="44.721085" lon="9.888615"><ele>669.0</ele><time>2026-04-06T12:27:47.502Z</time></trkpt><trkpt lat="44.72121" lon="9.8886717"><ele>663.5</ele><time>2026-04-06T12:27:48.502Z</time></trkpt><trkpt lat="44.7213117" lon="9.88878"><ele>658.0</ele><time>2026-04-06T12:27:49.501Z</time></trkpt><trkpt lat="44.7214067" lon="9.8889067"><ele>658.0</ele><time>2026-04-06T12:27:50.502Z</time></trkpt><trkpt lat="44.7214833" lon="9.8890883"><ele>658.0</ele><time>2026-04-06T12:27:51.501Z</time></trkpt><trkpt lat="44.7215383" lon="9.8892883"><ele>658.0</ele><time>2026-04-06T12:27:52.501Z</time></trkpt><trkpt lat="44.7215817" lon="9.8894833"><ele>658.0</ele><time>2026-04-06T12:27:53.502Z</time></trkpt><trkpt lat="44.7215967" lon="9.8896683"><ele>659.2</ele><time>2026-04-06T12:27:54.501Z</time></trkpt><trkpt lat="44.721595" lon="9.8898417"><ele>660.4</ele><time>2026-04-06T12:27:55.502Z</time></trkpt><trkpt lat="44.7215783" lon="9.8899933"><ele>661.6</ele><time>2026-04-06T12:27:56.501Z</time></trkpt><trkpt lat="44.7215733" lon="9.890115"><ele>662.8000000000001</ele><time>2026-04-06T12:27:57.501Z</time></trkpt><trkpt lat="44.7215567" lon="9.890235"><ele>664.0</ele><time>2026-04-06T12:27:58.502Z</time></trkpt><trkpt lat="44.7215417" lon="9.8903467"><ele>667.8333333333334</ele><time>2026-04-06T12:27:59.501Z</time></trkpt><trkpt lat="44.72153" lon="9.8904483"><ele>671.6666666666667</ele><time>2026-04-06T12:28:00.502Z</time></trkpt><trkpt lat="44.7215233" lon="9.8905483"><ele>675.5</ele><time>2026-04-06T12:28:01.502Z</time></trkpt><trkpt lat="44.7215167" lon="9.890645"><ele>679.3333333333334</ele><time>2026-04-06T12:28:02.502Z</time></trkpt><trkpt lat="44.7216383" lon="9.8905933"><ele>683.1666666666666</ele><time>2026-04-06T12:28:03.502Z</time></trkpt><trkpt lat="44.721705" lon="9.89061"><ele>687.0</ele><time>2026-04-06T12:28:04.502Z</time></trkpt><trkpt lat="44.7217933" lon="9.8906067"><ele>691.3333333333334</ele><time>2026-04-06T12:28:05.502Z</time></trkpt><trkpt lat="44.7219483" lon="9.8905517"><ele>695.6666666666667</ele><time>2026-04-06T12:28:06.501Z</time></trkpt><trkpt lat="44.72215" lon="9.890465"><ele>700.0</ele><time>2026-04-06T12:28:07.502Z</time></trkpt><trkpt lat="44.7224567" lon="9.8902217"><ele>687.0</ele><time>2026-04-06T12:28:08.501Z</time></trkpt><trkpt lat="44.7226783" lon="9.8900783"><ele>674.0</ele><time>2026-04-06T12:28:09.501Z</time></trkpt><trkpt lat="44.7229167" lon="9.8898283"><ele>674.0</ele><time>2026-04-06T12:28:10.502Z</time></trkpt><trkpt lat="44.7231083" lon="9.8895633"><ele>674.0</ele><time>2026-04-06T12:28:11.502Z</time></trkpt><trkpt lat="44.723295" lon="9.8894"><ele>674.0</ele><time>2026-04-06T12:28:12.501Z</time></trkpt><trkpt lat="44.7234317" lon="9.8892617"><ele>674.0</ele><time>2026-04-06T12:28:13.502Z</time></trkpt><trkpt lat="44.723555" lon="9.8891767"><ele>674.0</ele><time>2026-04-06T12:28:14.501Z</time></trkpt><trkpt lat="44.7236733" lon="9.8891033"><ele>674.0</ele><time>2026-04-06T12:28:15.501Z</time></trkpt><trkpt lat="44.7237933" lon="9.8891183"><ele>660.3333333333333</ele><time>2026-04-06T12:28:16.502Z</time></trkpt><trkpt lat="44.72394" lon="9.88918"><ele>646.6666666666666</ele><time>2026-04-06T12:28:17.502Z</time></trkpt><trkpt lat="44.7240983" lon="9.8892133"><ele>633.0</ele><time>2026-04-06T12:28:18.501Z</time></trkpt><trkpt lat="44.7242517" lon="9.8892383"><ele>633.0</ele><time>2026-04-06T12:28:19.502Z</time></trkpt><trkpt lat="44.7244033" lon="9.889255"><ele>633.0</ele><time>2026-04-06T12:28:20.502Z</time></trkpt><trkpt lat="44.72455" lon="9.889285"><ele>633.0</ele><time>2026-04-06T12:28:21.502Z</time></trkpt><trkpt lat="44.724685" lon="9.8893317"><ele>633.0</ele><time>2026-04-06T12:28:22.502Z</time></trkpt><trkpt lat="44.7248167" lon="9.8894167"><ele>633.0</ele><time>2026-04-06T12:28:23.501Z</time></trkpt><trkpt lat="44.7249317" lon="9.88953"><ele>633.0</ele><time>2026-04-06T12:28:24.501Z</time></trkpt><trkpt lat="44.72503" lon="9.8896667"><ele>633.0</ele><time>2026-04-06T12:28:25.501Z</time></trkpt><trkpt lat="44.7250917" lon="9.8899633"><ele>634.6666666666666</ele><time>2026-04-06T12:28:26.502Z</time></trkpt><trkpt lat="44.7251233" lon="9.8902017"><ele>636.3333333333333</ele><time>2026-04-06T12:28:27.502Z</time></trkpt><trkpt lat="44.72514" lon="9.8904417"><ele>638.0</ele><time>2026-04-06T12:28:28.501Z</time></trkpt><trkpt lat="44.72512" lon="9.8906983"><ele>638.0</ele><time>2026-04-06T12:28:29.501Z</time></trkpt><trkpt lat="44.7250983" lon="9.8909117"><ele>638.0</ele><time>2026-04-06T12:28:30.502Z</time></trkpt><trkpt lat="44.725075" lon="9.8910833"><ele>638.0</ele><time>2026-04-06T12:28:31.501Z</time></trkpt><trkpt lat="44.72507" lon="9.8912483"><ele>638.0</ele><time>2026-04-06T12:28:32.501Z</time></trkpt><trkpt lat="44.7251067" lon="9.8914017"><ele>638.0</ele><time>2026-04-06T12:28:33.502Z</time></trkpt><trkpt lat="44.7251783" lon="9.891535"><ele>638.0</ele><time>2026-04-06T12:28:34.501Z</time></trkpt><trkpt lat="44.725255" lon="9.8916483"><ele>638.0</ele><time>2026-04-06T12:28:35.501Z</time></trkpt><trkpt lat="44.7253417" lon="9.891745"><ele>638.0</ele><time>2026-04-06T12:28:36.502Z</time></trkpt><trkpt lat="44.7254417" lon="9.8918283"><ele>643.25</ele><time>2026-04-06T12:28:37.502Z</time></trkpt><trkpt lat="44.72556" lon="9.891885"><ele>648.5</ele><time>2026-04-06T12:28:38.501Z</time></trkpt><trkpt lat="44.7257" lon="9.891905"><ele>653.75</ele><time>2026-04-06T12:28:39.501Z</time></trkpt><trkpt lat="44.725865" lon="9.89189"><ele>659.0</ele><time>2026-04-06T12:28:40.502Z</time></trkpt><trkpt lat="44.7260467" lon="9.8918283"><ele>650.3333333333333</ele><time>2026-04-06T12:28:41.501Z</time></trkpt><trkpt lat="44.7262433" lon="9.8917333"><ele>641.6666666666666</ele><time>2026-04-06T12:28:42.501Z</time></trkpt><trkpt lat="44.7264117" lon="9.891665"><ele>633.0</ele><time>2026-04-06T12:28:43.501Z</time></trkpt><trkpt lat="44.7266267" lon="9.8914133"><ele>633.0</ele><time>2026-04-06T12:28:44.501Z</time></trkpt><trkpt lat="44.7268133" lon="9.8912567"><ele>633.0</ele><time>2026-04-06T12:28:45.501Z</time></trkpt><trkpt lat="44.7269567" lon="9.8911333"><ele>633.0</ele><time>2026-04-06T12:28:46.501Z</time></trkpt><trkpt lat="44.727105" lon="9.89108"><ele>631.0</ele><time>2026-04-06T12:28:47.501Z</time></trkpt><trkpt lat="44.727255" lon="9.891055"><ele>629.0</ele><time>2026-04-06T12:28:48.502Z</time></trkpt><trkpt lat="44.7273983" lon="9.8910717"><ele>627.0</ele><time>2026-04-06T12:28:49.502Z</time></trkpt><trkpt lat="44.72753" lon="9.8910817"><ele>625.0</ele><time>2026-04-06T12:28:50.502Z</time></trkpt><trkpt lat="44.727655" lon="9.8910917"><ele>621.8</ele><time>2026-04-06T12:28:51.501Z</time></trkpt><trkpt lat="44.7277633" lon="9.8911083"><ele>618.6</ele><time>2026-04-06T12:28:52.502Z</time></trkpt><trkpt lat="44.7278633" lon="9.8911333"><ele>615.4</ele><time>2026-04-06T12:28:53.502Z</time></trkpt><trkpt lat="44.7279517" lon="9.891155"><ele>612.2</ele><time>2026-04-06T12:28:54.501Z</time></trkpt><trkpt lat="44.7280283" lon="9.8911883"><ele>609.0</ele><time>2026-04-06T12:28:55.502Z</time></trkpt><trkpt lat="44.728105" lon="9.8912283"><ele>609.0</ele><time>2026-04-06T12:28:56.502Z</time></trkpt><trkpt lat="44.728185" lon="9.8912933"><ele>609.0</ele><time>2026-04-06T12:28:57.501Z</time></trkpt><trkpt lat="44.728255" lon="9.891365"><ele>609.0</ele><time>2026-04-06T12:28:58.501Z</time></trkpt><trkpt lat="44.7283233" lon="9.891455"><ele>609.0</ele><time>2026-04-06T12:28:59.501Z</time></trkpt><trkpt lat="44.7283733" lon="9.891585"><ele>609.0</ele><time>2026-04-06T12:29:00.501Z</time></trkpt><trkpt lat="44.7284067" lon="9.8917367"><ele>611.0</ele><time>2026-04-06T12:29:01.502Z</time></trkpt><trkpt lat="44.72843" lon="9.891915"><ele>613.0</ele><time>2026-04-06T12:29:02.502Z</time></trkpt><trkpt lat="44.728445" lon="9.8920967"><ele>615.0</ele><time>2026-04-06T12:29:03.502Z</time></trkpt><trkpt lat="44.7284567" lon="9.8922633"><ele>617.0</ele><time>2026-04-06T12:29:04.501Z</time></trkpt><trkpt lat="44.7284767" lon="9.892435"><ele>621.5</ele><time>2026-04-06T12:29:05.501Z</time></trkpt><trkpt lat="44.728495" lon="9.8926"><ele>626.0</ele><time>2026-04-06T12:29:06.501Z</time></trkpt><trkpt lat="44.7285317" lon="9.8927617"><ele>630.5</ele><time>2026-04-06T12:29:07.502Z</time></trkpt><trkpt lat="44.7285817" lon="9.8929017"><ele>635.0</ele><time>2026-04-06T12:29:08.502Z</time></trkpt><trkpt lat="44.7286267" lon="9.8930333"><ele>622.6666666666666</ele><time>2026-04-06T12:29:09.502Z</time></trkpt><trkpt lat="44.72871" lon="9.8931433"><ele>610.3333333333334</ele><time>2026-04-06T12:29:10.502Z</time></trkpt><trkpt lat="44.728785" lon="9.8932767"><ele>598.0</ele><time>2026-04-06T12:29:11.501Z</time></trkpt><trkpt lat="44.72899" lon="9.89338"><ele>598.0</ele><time>2026-04-06T12:29:12.501Z</time></trkpt><trkpt lat="44.7290683" lon="9.8935167"><ele>598.0</ele><time>2026-04-06T12:29:13.501Z</time></trkpt><trkpt lat="44.7291617" lon="9.8936283"><ele>598.0</ele><time>2026-04-06T12:29:14.501Z</time></trkpt><trkpt lat="44.7293317" lon="9.893695"><ele>598.0</ele><time>2026-04-06T12:29:15.501Z</time></trkpt><trkpt lat="44.7294583" lon="9.8937767"><ele>598.0</ele><time>2026-04-06T12:29:16.501Z</time></trkpt><trkpt lat="44.7295917" lon="9.8938467"><ele>598.0</ele><time>2026-04-06T12:29:17.501Z</time></trkpt><trkpt lat="44.7297933" lon="9.89381"><ele>598.0</ele><time>2026-04-06T12:29:18.501Z</time></trkpt><trkpt lat="44.729925" lon="9.8938383"><ele>598.0</ele><time>2026-04-06T12:29:19.501Z</time></trkpt><trkpt lat="44.7300383" lon="9.893895"><ele>598.0</ele><time>2026-04-06T12:29:20.5Z</time></trkpt><trkpt lat="44.7301383" lon="9.893995"><ele>598.0</ele><time>2026-04-06T12:29:21.5Z</time></trkpt><trkpt lat="44.730225" lon="9.8941267"><ele>598.0</ele><time>2026-04-06T12:29:22.501Z</time></trkpt><trkpt lat="44.730305" lon="9.8942517"><ele>596.0</ele><time>2026-04-06T12:29:23.5Z</time></trkpt><trkpt lat="44.7304083" lon="9.8943867"><ele>594.0</ele><time>2026-04-06T12:29:24.5Z</time></trkpt><trkpt lat="44.7305267" lon="9.8945183"><ele>592.0</ele><time>2026-04-06T12:29:25.501Z</time></trkpt><trkpt lat="44.73066" lon="9.8946333"><ele>590.0</ele><time>2026-04-06T12:29:26.501Z</time></trkpt><trkpt lat="44.730795" lon="9.8947267"><ele>590.0</ele><time>2026-04-06T12:29:27.5Z</time></trkpt><trkpt lat="44.7308817" lon="9.8948367"><ele>590.0</ele><time>2026-04-06T12:29:28.5Z</time></trkpt><trkpt lat="44.73097" lon="9.8949417"><ele>590.0</ele><time>2026-04-06T12:29:29.5Z</time></trkpt><trkpt lat="44.7310367" lon="9.8950717"><ele>590.0</ele><time>2026-04-06T12:29:30.5Z</time></trkpt><trkpt lat="44.7310817" lon="9.8952183"><ele>585.75</ele><time>2026-04-06T12:29:31.501Z</time></trkpt><trkpt lat="44.7310867" lon="9.8954017"><ele>581.5</ele><time>2026-04-06T12:29:32.5Z</time></trkpt><trkpt lat="44.7311133" lon="9.8955933"><ele>577.25</ele><time>2026-04-06T12:29:33.5Z</time></trkpt><trkpt lat="44.7311417" lon="9.8957867"><ele>573.0</ele><time>2026-04-06T12:29:34.501Z</time></trkpt><trkpt lat="44.731185" lon="9.8959983"><ele>573.0</ele><time>2026-04-06T12:29:35.5Z</time></trkpt><trkpt lat="44.731215" lon="9.8962067"><ele>573.0</ele><time>2026-04-06T12:29:36.5Z</time></trkpt><trkpt lat="44.7312567" lon="9.8963783"><ele>573.0</ele><time>2026-04-06T12:29:37.5Z</time></trkpt><trkpt lat="44.7312567" lon="9.8965233"><ele>573.0</ele><time>2026-04-06T12:29:38.501Z</time></trkpt><trkpt lat="44.731265" lon="9.896625"><ele>573.0</ele><time>2026-04-06T12:29:39.501Z</time></trkpt><trkpt lat="44.7312283" lon="9.896715"><ele>573.0</ele><time>2026-04-06T12:29:40.5Z</time></trkpt><trkpt lat="44.7312317" lon="9.8968167"><ele>573.0</ele><time>2026-04-06T12:29:43.501Z</time></trkpt><trkpt lat="44.7313733" lon="9.8966217"><ele>573.0</ele><time>2026-04-06T12:29:49.5Z</time></trkpt><trkpt lat="44.7314333" lon="9.8965283"><ele>573.0</ele><time>2026-04-06T12:29:50.5Z</time></trkpt><trkpt lat="44.73158" lon="9.89641"><ele>573.0</ele><time>2026-04-06T12:29:51.501Z</time></trkpt><trkpt lat="44.7317367" lon="9.8963267"><ele>573.0</ele><time>2026-04-06T12:29:52.5Z</time></trkpt><trkpt lat="44.7318533" lon="9.8962633"><ele>573.0</ele><time>2026-04-06T12:29:53.5Z</time></trkpt><trkpt lat="44.7319583" lon="9.896225"><ele>573.0</ele><time>2026-04-06T12:29:54.5Z</time></trkpt><trkpt lat="44.7320567" lon="9.8962333"><ele>571.5</ele><time>2026-04-06T12:29:55.501Z</time></trkpt><trkpt lat="44.7321533" lon="9.896275"><ele>570.0</ele><time>2026-04-06T12:29:56.5Z</time></trkpt><trkpt lat="44.7322617" lon="9.8963467"><ele>568.5</ele><time>2026-04-06T12:29:57.5Z</time></trkpt><trkpt lat="44.7323583" lon="9.8964483"><ele>567.0</ele><time>2026-04-06T12:29:58.5Z</time></trkpt><trkpt lat="44.7324533" lon="9.89655"><ele>567.0</ele><time>2026-04-06T12:29:59.5Z</time></trkpt><trkpt lat="44.732565" lon="9.8966433"><ele>567.0</ele><time>2026-04-06T12:30:00.5Z</time></trkpt><trkpt lat="44.73268" lon="9.8967"><ele>567.0</ele><time>2026-04-06T12:30:01.501Z</time></trkpt><trkpt lat="44.732795" lon="9.8967383"><ele>567.0</ele><time>2026-04-06T12:30:02.5Z</time></trkpt><trkpt lat="44.7329167" lon="9.896755"><ele>565.8000000000001</ele><time>2026-04-06T12:30:03.501Z</time></trkpt><trkpt lat="44.7330367" lon="9.8967517"><ele>564.6</ele><time>2026-04-06T12:30:04.501Z</time></trkpt><trkpt lat="44.7331417" lon="9.89673"><ele>563.4000000000001</ele><time>2026-04-06T12:30:05.501Z</time></trkpt><trkpt lat="44.7332133" lon="9.8966967"><ele>562.2</ele><time>2026-04-06T12:30:06.5Z</time></trkpt><trkpt lat="44.73328" lon="9.8966567"><ele>561.0</ele><time>2026-04-06T12:30:07.501Z</time></trkpt><trkpt lat="44.7333867" lon="9.8965667"><ele>561.0</ele><time>2026-04-06T12:30:09.5Z</time></trkpt><trkpt lat="44.73347" lon="9.8964217"><ele>561.0</ele><time>2026-04-06T12:30:11.5Z</time></trkpt><trkpt lat="44.73351" lon="9.8963283"><ele>561.0</ele><time>2026-04-06T12:30:12.501Z</time></trkpt><trkpt lat="44.7335333" lon="9.896205"><ele>561.0</ele><time>2026-04-06T12:30:13.501Z</time></trkpt><trkpt lat="44.7335317" lon="9.8960883"><ele>561.0</ele><time>2026-04-06T12:30:14.501Z</time></trkpt><trkpt lat="44.7335117" lon="9.89596"><ele>560.0</ele><time>2026-04-06T12:30:15.5Z</time></trkpt><trkpt lat="44.7334667" lon="9.8958267"><ele>559.0</ele><time>2026-04-06T12:30:16.5Z</time></trkpt><trkpt lat="44.7334183" lon="9.895705"><ele>558.0</ele><time>2026-04-06T12:30:17.5Z</time></trkpt><trkpt lat="44.733365" lon="9.8955783"><ele>557.0</ele><time>2026-04-06T12:30:18.5Z</time></trkpt><trkpt lat="44.7333083" lon="9.895445"><ele>556.0</ele><time>2026-04-06T12:30:19.501Z</time></trkpt><trkpt lat="44.7332433" lon="9.8953317"><ele>556.0</ele><time>2026-04-06T12:30:20.501Z</time></trkpt><trkpt lat="44.7331833" lon="9.8952067"><ele>556.0</ele><time>2026-04-06T12:30:21.501Z</time></trkpt><trkpt lat="44.7331183" lon="9.8950783"><ele>556.0</ele><time>2026-04-06T12:30:22.501Z</time></trkpt><trkpt lat="44.7330583" lon="9.8949467"><ele>556.0</ele><time>2026-04-06T12:30:23.501Z</time></trkpt><trkpt lat="44.733005" lon="9.89481"><ele>556.0</ele><time>2026-04-06T12:30:24.5Z</time></trkpt><trkpt lat="44.7329667" lon="9.8946633"><ele>553.5</ele><time>2026-04-06T12:30:25.501Z</time></trkpt><trkpt lat="44.73292" lon="9.89453"><ele>551.0</ele><time>2026-04-06T12:30:26.5Z</time></trkpt><trkpt lat="44.732865" lon="9.8943867"><ele>548.5</ele><time>2026-04-06T12:30:27.5Z</time></trkpt><trkpt lat="44.7328033" lon="9.8942517"><ele>546.0</ele><time>2026-04-06T12:30:28.501Z</time></trkpt><trkpt lat="44.7327317" lon="9.8941"><ele>545.25</ele><time>2026-04-06T12:30:29.5Z</time></trkpt><trkpt lat="44.7326617" lon="9.8939367"><ele>544.5</ele><time>2026-04-06T12:30:30.501Z</time></trkpt><trkpt lat="44.732595" lon="9.8938033"><ele>543.75</ele><time>2026-04-06T12:30:31.5Z</time></trkpt><trkpt lat="44.7325283" lon="9.893675"><ele>543.0</ele><time>2026-04-06T12:30:32.501Z</time></trkpt><trkpt lat="44.7324533" lon="9.8935417"><ele>541.0</ele><time>2026-04-06T12:30:33.501Z</time></trkpt><trkpt lat="44.732395" lon="9.893415"><ele>539.0</ele><time>2026-04-06T12:30:34.5Z</time></trkpt><trkpt lat="44.7323383" lon="9.8932783"><ele>537.0</ele><time>2026-04-06T12:30:35.501Z</time></trkpt><trkpt lat="44.732275" lon="9.89314"><ele>535.0</ele><time>2026-04-06T12:30:36.5Z</time></trkpt><trkpt lat="44.7322217" lon="9.893"><ele>533.0</ele><time>2026-04-06T12:30:37.501Z</time></trkpt><trkpt lat="44.7321717" lon="9.892835"><ele>533.0</ele><time>2026-04-06T12:30:38.5Z</time></trkpt><trkpt lat="44.7321233" lon="9.892675"><ele>533.0</ele><time>2026-04-06T12:30:39.5Z</time></trkpt><trkpt lat="44.7320883" lon="9.8925267"><ele>533.0</ele><time>2026-04-06T12:30:40.501Z</time></trkpt><trkpt lat="44.7320483" lon="9.8923667"><ele>533.0</ele><time>2026-04-06T12:30:41.501Z</time></trkpt><trkpt lat="44.7320167" lon="9.8922183"><ele>531.4</ele><time>2026-04-06T12:30:42.501Z</time></trkpt><trkpt lat="44.731985" lon="9.8920567"><ele>529.8</ele><time>2026-04-06T12:30:43.5Z</time></trkpt><trkpt lat="44.7319467" lon="9.8919017"><ele>528.2</ele><time>2026-04-06T12:30:44.501Z</time></trkpt><trkpt lat="44.7319267" lon="9.891755"><ele>526.6</ele><time>2026-04-06T12:30:45.5Z</time></trkpt><trkpt lat="44.7319167" lon="9.8916083"><ele>525.0</ele><time>2026-04-06T12:30:46.5Z</time></trkpt><trkpt lat="44.7319133" lon="9.8914667"><ele>524.75</ele><time>2026-04-06T12:30:47.501Z</time></trkpt><trkpt lat="44.7319083" lon="9.8913217"><ele>524.5</ele><time>2026-04-06T12:30:48.501Z</time></trkpt><trkpt lat="44.7319083" lon="9.89117"><ele>524.25</ele><time>2026-04-06T12:30:49.501Z</time></trkpt><trkpt lat="44.7318817" lon="9.89102"><ele>524.0</ele><time>2026-04-06T12:30:50.5Z</time></trkpt><trkpt lat="44.73183" lon="9.890835"><ele>524.0</ele><time>2026-04-06T12:30:51.501Z</time></trkpt><trkpt lat="44.7317667" lon="9.890655"><ele>524.0</ele><time>2026-04-06T12:30:52.501Z</time></trkpt><trkpt lat="44.7317117" lon="9.8904917"><ele>524.0</ele><time>2026-04-06T12:30:53.5Z</time></trkpt><trkpt lat="44.73165" lon="9.890335"><ele>524.0</ele><time>2026-04-06T12:30:54.5Z</time></trkpt><trkpt lat="44.7316067" lon="9.89019"><ele>522.4</ele><time>2026-04-06T12:30:55.5Z</time></trkpt><trkpt lat="44.7315583" lon="9.890055"><ele>520.8</ele><time>2026-04-06T12:30:56.5Z</time></trkpt><trkpt lat="44.7315033" lon="9.88994"><ele>519.2</ele><time>2026-04-06T12:30:57.501Z</time></trkpt><trkpt lat="44.7314383" lon="9.8898117"><ele>517.6</ele><time>2026-04-06T12:30:58.5Z</time></trkpt><trkpt lat="44.731375" lon="9.889705"><ele>516.0</ele><time>2026-04-06T12:30:59.501Z</time></trkpt><trkpt lat="44.731325" lon="9.88958"><ele>516.0</ele><time>2026-04-06T12:31:00.5Z</time></trkpt><trkpt lat="44.7312817" lon="9.8894583"><ele>516.0</ele><time>2026-04-06T12:31:01.5Z</time></trkpt><trkpt lat="44.7312367" lon="9.8893333"><ele>516.0</ele><time>2026-04-06T12:31:02.501Z</time></trkpt><trkpt lat="44.7311967" lon="9.889205"><ele>516.0</ele><time>2026-04-06T12:31:03.5Z</time></trkpt><trkpt lat="44.7311533" lon="9.88905"><ele>516.0</ele><time>2026-04-06T12:31:04.5Z</time></trkpt><trkpt lat="44.731105" lon="9.8889"><ele>516.6</ele><time>2026-04-06T12:31:05.501Z</time></trkpt><trkpt lat="44.7310567" lon="9.8887467"><ele>517.2</ele><time>2026-04-06T12:31:06.5Z</time></trkpt><trkpt lat="44.73102" lon="9.888625"><ele>517.8</ele><time>2026-04-06T12:31:07.5Z</time></trkpt><trkpt lat="44.7309983" lon="9.8884917"><ele>518.4</ele><time>2026-04-06T12:31:08.5Z</time></trkpt><trkpt lat="44.7309783" lon="9.8883667"><ele>519.0</ele><time>2026-04-06T12:31:09.5Z</time></trkpt><trkpt lat="44.7309567" lon="9.8882317"><ele>517.8333333333334</ele><time>2026-04-06T12:31:10.5Z</time></trkpt><trkpt lat="44.7309517" lon="9.8881133"><ele>516.6666666666666</ele><time>2026-04-06T12:31:11.501Z</time></trkpt><trkpt lat="44.73095" lon="9.8879933"><ele>515.5</ele><time>2026-04-06T12:31:12.501Z</time></trkpt><trkpt lat="44.7309583" lon="9.8878983"><ele>514.3333333333333</ele><time>2026-04-06T12:31:13.5Z</time></trkpt><trkpt lat="44.73099" lon="9.8877617"><ele>513.1666666666666</ele><time>2026-04-06T12:31:15.501Z</time></trkpt><trkpt lat="44.7310517" lon="9.88768"><ele>512.0</ele><time>2026-04-06T12:31:17.5Z</time></trkpt><trkpt lat="44.7311083" lon="9.8876017"><ele>509.99999999999994</ele><time>2026-04-06T12:31:19.5Z</time></trkpt><trkpt lat="44.7311667" lon="9.887515"><ele>508.0</ele><time>2026-04-06T12:31:21.501Z</time></trkpt><trkpt lat="44.7311867" lon="9.8874033"><ele>506.0</ele><time>2026-04-06T12:31:23.5Z</time></trkpt><trkpt lat="44.7312" lon="9.887305"><ele>504.0</ele><time>2026-04-06T12:31:25.5Z</time></trkpt><trkpt lat="44.731225" lon="9.8872133"><ele>501.99999999999994</ele><time>2026-04-06T12:31:27.5Z</time></trkpt><trkpt lat="44.7312717" lon="9.8871067"><ele>500.0</ele><time>2026-04-06T12:31:30.5Z</time></trkpt><trkpt lat="44.7313317" lon="9.8870417"><ele>500.0</ele><time>2026-04-06T12:31:32.5Z</time></trkpt><trkpt lat="44.7313883" lon="9.88699"><ele>500.0</ele><time>2026-04-06T12:31:34.5Z</time></trkpt></trkseg><trkseg><trkpt lat="44.731405" lon="9.886895"><ele>500.0</ele><time>2026-04-06T13:20:59.509Z</time></trkpt><trkpt lat="44.7314733" lon="9.88695"><ele>500.0</ele><time>2026-04-06T13:21:12.51Z</time></trkpt><trkpt lat="44.73142" lon="9.887025"><ele>500.0</ele><time>2026-04-06T13:21:16.51Z</time></trkpt><trkpt lat="44.7313367" lon="9.8870917"><ele>500.0</ele><time>2026-04-06T13:21:18.51Z</time></trkpt><trkpt lat="44.7312383" lon="9.8871633"><ele>500.0</ele><time>2026-04-06T13:21:20.509Z</time></trkpt><trkpt lat="44.731125" lon="9.8872483"><ele>500.99999999999994</ele><time>2026-04-06T13:21:22.509Z</time></trkpt><trkpt lat="44.7310417" lon="9.8873033"><ele>502.0</ele><time>2026-04-06T13:21:24.509Z</time></trkpt><trkpt lat="44.7310217" lon="9.8874183"><ele>503.0</ele><time>2026-04-06T13:21:26.509Z</time></trkpt><trkpt lat="44.7310333" lon="9.88755"><ele>504.0</ele><time>2026-04-06T13:21:28.509Z</time></trkpt><trkpt lat="44.7310217" lon="9.887655"><ele>504.99999999999994</ele><time>2026-04-06T13:21:30.509Z</time></trkpt><trkpt lat="44.73098" lon="9.887735"><ele>506.0</ele><time>2026-04-06T13:21:32.51Z</time></trkpt><trkpt lat="44.7309217" lon="9.88777"><ele>506.0</ele><time>2026-04-06T13:21:35.509Z</time></trkpt><trkpt lat="44.7308267" lon="9.88763"><ele>506.0</ele><time>2026-04-06T13:21:40.509Z</time></trkpt><trkpt lat="44.730755" lon="9.8875367"><ele>506.0</ele><time>2026-04-06T13:21:42.509Z</time></trkpt><trkpt lat="44.7306733" lon="9.8874317"><ele>506.0</ele><time>2026-04-06T13:21:44.509Z</time></trkpt><trkpt lat="44.7307533" lon="9.887485"><ele>506.0</ele><time>2026-04-06T13:21:57.509Z</time></trkpt><trkpt lat="44.7308467" lon="9.887585"><ele>507.20000000000005</ele><time>2026-04-06T13:21:59.509Z</time></trkpt><trkpt lat="44.730915" lon="9.88771"><ele>508.40000000000003</ele><time>2026-04-06T13:22:01.51Z</time></trkpt><trkpt lat="44.73095" lon="9.8878433"><ele>509.6</ele><time>2026-04-06T13:22:03.51Z</time></trkpt><trkpt lat="44.7309333" lon="9.8880317"><ele>510.8</ele><time>2026-04-06T13:22:05.509Z</time></trkpt><trkpt lat="44.73093" lon="9.88814"><ele>512.0</ele><time>2026-04-06T13:22:06.509Z</time></trkpt><trkpt lat="44.7309333" lon="9.8882667"><ele>512.0</ele><time>2026-04-06T13:22:07.509Z</time></trkpt><trkpt lat="44.7309417" lon="9.8884017"><ele>512.0</ele><time>2026-04-06T13:22:08.509Z</time></trkpt><trkpt lat="44.730955" lon="9.88853"><ele>512.0</ele><time>2026-04-06T13:22:09.51Z</time></trkpt><trkpt lat="44.73098" lon="9.888665"><ele>512.0</ele><time>2026-04-06T13:22:10.51Z</time></trkpt><trkpt lat="44.7310117" lon="9.8888033"><ele>512.0</ele><time>2026-04-06T13:22:11.509Z</time></trkpt><trkpt lat="44.7310417" lon="9.8889317"><ele>512.8000000000001</ele><time>2026-04-06T13:22:12.51Z</time></trkpt><trkpt lat="44.73108" lon="9.88906"><ele>513.6</ele><time>2026-04-06T13:22:13.509Z</time></trkpt><trkpt lat="44.7311233" lon="9.8891817"><ele>514.4000000000001</ele><time>2026-04-06T13:22:14.51Z</time></trkpt><trkpt lat="44.7311817" lon="9.889295"><ele>515.2</ele><time>2026-04-06T13:22:15.51Z</time></trkpt><trkpt lat="44.7312617" lon="9.8894017"><ele>516.0</ele><time>2026-04-06T13:22:16.51Z</time></trkpt><trkpt lat="44.7313067" lon="9.8895267"><ele>516.0</ele><time>2026-04-06T13:22:17.509Z</time></trkpt><trkpt lat="44.7313567" lon="9.8896517"><ele>516.0</ele><time>2026-04-06T13:22:18.509Z</time></trkpt><trkpt lat="44.7314117" lon="9.88977"><ele>516.0</ele><time>2026-04-06T13:22:19.51Z</time></trkpt><trkpt lat="44.7314767" lon="9.8898733"><ele>516.0</ele><time>2026-04-06T13:22:20.51Z</time></trkpt><trkpt lat="44.7315367" lon="9.8899717"><ele>516.0</ele><time>2026-04-06T13:22:21.509Z</time></trkpt><trkpt lat="44.73159" lon="9.8900767"><ele>517.3333333333334</ele><time>2026-04-06T13:22:22.51Z</time></trkpt><trkpt lat="44.7316383" lon="9.890185"><ele>518.6666666666666</ele><time>2026-04-06T13:22:23.509Z</time></trkpt><trkpt lat="44.731675" lon="9.8903033"><ele>520.0</ele><time>2026-04-06T13:22:24.509Z</time></trkpt><trkpt lat="44.7317167" lon="9.8904183"><ele>521.3333333333333</ele><time>2026-04-06T13:22:25.51Z</time></trkpt><trkpt lat="44.73175" lon="9.890525"><ele>522.6666666666666</ele><time>2026-04-06T13:22:26.509Z</time></trkpt><trkpt lat="44.7317817" lon="9.89063"><ele>524.0</ele><time>2026-04-06T13:22:27.509Z</time></trkpt><trkpt lat="44.7318017" lon="9.8907433"><ele>524.0</ele><time>2026-04-06T13:22:28.509Z</time></trkpt><trkpt lat="44.731835" lon="9.8908433"><ele>524.0</ele><time>2026-04-06T13:22:29.51Z</time></trkpt><trkpt lat="44.73186" lon="9.8909433"><ele>524.0</ele><time>2026-04-06T13:22:30.509Z</time></trkpt><trkpt lat="44.7318983" lon="9.8910567"><ele>524.0</ele><time>2026-04-06T13:22:31.51Z</time></trkpt><trkpt lat="44.7319333" lon="9.89118"><ele>524.0</ele><time>2026-04-06T13:22:32.51Z</time></trkpt><trkpt lat="44.731955" lon="9.89131"><ele>524.0</ele><time>2026-04-06T13:22:33.509Z</time></trkpt><trkpt lat="44.7319633" lon="9.8914433"><ele>524.2</ele><time>2026-04-06T13:22:34.509Z</time></trkpt><trkpt lat="44.7319683" lon="9.8915967"><ele>524.4</ele><time>2026-04-06T13:22:35.509Z</time></trkpt><trkpt lat="44.7319567" lon="9.89176"><ele>524.6</ele><time>2026-04-06T13:22:36.509Z</time></trkpt><trkpt lat="44.7319633" lon="9.89191"><ele>524.8</ele><time>2026-04-06T13:22:37.509Z</time></trkpt><trkpt lat="44.73198" lon="9.8920533"><ele>525.0</ele><time>2026-04-06T13:22:38.509Z</time></trkpt><trkpt lat="44.7320067" lon="9.8922083"><ele>525.0</ele><time>2026-04-06T13:22:39.509Z</time></trkpt><trkpt lat="44.7320617" lon="9.8923617"><ele>525.0</ele><time>2026-04-06T13:22:40.509Z</time></trkpt><trkpt lat="44.7321183" lon="9.8925233"><ele>525.0</ele><time>2026-04-06T13:22:41.51Z</time></trkpt><trkpt lat="44.7321767" lon="9.8926883"><ele>525.0</ele><time>2026-04-06T13:22:42.51Z</time></trkpt><trkpt lat="44.7322317" lon="9.8928633"><ele>527.0</ele><time>2026-04-06T13:22:43.509Z</time></trkpt><trkpt lat="44.7322933" lon="9.8930433"><ele>529.0</ele><time>2026-04-06T13:22:44.509Z</time></trkpt><trkpt lat="44.732365" lon="9.8932167"><ele>531.0</ele><time>2026-04-06T13:22:45.51Z</time></trkpt><trkpt lat="44.7324483" lon="9.893395"><ele>533.0</ele><time>2026-04-06T13:22:46.51Z</time></trkpt><trkpt lat="44.7325217" lon="9.8935717"><ele>535.5</ele><time>2026-04-06T13:22:47.51Z</time></trkpt><trkpt lat="44.7325967" lon="9.8937483"><ele>538.0</ele><time>2026-04-06T13:22:48.51Z</time></trkpt><trkpt lat="44.7326517" lon="9.8939217"><ele>540.5</ele><time>2026-04-06T13:22:49.51Z</time></trkpt><trkpt lat="44.73272" lon="9.8940883"><ele>543.0</ele><time>2026-04-06T13:22:50.51Z</time></trkpt><trkpt lat="44.732785" lon="9.8942567"><ele>544.0</ele><time>2026-04-06T13:22:51.51Z</time></trkpt><trkpt lat="44.7328617" lon="9.8944317"><ele>545.0</ele><time>2026-04-06T13:22:52.509Z</time></trkpt><trkpt lat="44.7329467" lon="9.8946383"><ele>546.0</ele><time>2026-04-06T13:22:53.509Z</time></trkpt><trkpt lat="44.7330217" lon="9.8948517"><ele>546.0</ele><time>2026-04-06T13:22:54.509Z</time></trkpt><trkpt lat="44.7331" lon="9.8950683"><ele>546.0</ele><time>2026-04-06T13:22:55.51Z</time></trkpt><trkpt lat="44.7331783" lon="9.8952633"><ele>546.0</ele><time>2026-04-06T13:22:56.51Z</time></trkpt><trkpt lat="44.7332517" lon="9.895435"><ele>548.5</ele><time>2026-04-06T13:22:57.509Z</time></trkpt><trkpt lat="44.7333283" lon="9.8955967"><ele>551.0</ele><time>2026-04-06T13:22:58.509Z</time></trkpt><trkpt lat="44.733375" lon="9.8957417"><ele>553.5</ele><time>2026-04-06T13:22:59.509Z</time></trkpt><trkpt lat="44.7334233" lon="9.8958633"><ele>556.0</ele><time>2026-04-06T13:23:00.51Z</time></trkpt><trkpt lat="44.7335167" lon="9.89596"><ele>556.8333333333334</ele><time>2026-04-06T13:23:01.51Z</time></trkpt><trkpt lat="44.73356" lon="9.8960717"><ele>557.6666666666667</ele><time>2026-04-06T13:23:02.509Z</time></trkpt><trkpt lat="44.733555" lon="9.8961883"><ele>558.5</ele><time>2026-04-06T13:23:03.509Z</time></trkpt><trkpt lat="44.73354" lon="9.8963117"><ele>559.3333333333334</ele><time>2026-04-06T13:23:04.509Z</time></trkpt><trkpt lat="44.73352" lon="9.8964217"><ele>560.1666666666666</ele><time>2026-04-06T13:23:05.509Z</time></trkpt><trkpt lat="44.7335" lon="9.896515"><ele>561.0</ele><time>2026-04-06T13:23:06.509Z</time></trkpt><trkpt lat="44.7334767" lon="9.8965983"><ele>561.0</ele><time>2026-04-06T13:23:07.51Z</time></trkpt><trkpt lat="44.733445" lon="9.896715"><ele>561.0</ele><time>2026-04-06T13:23:09.509Z</time></trkpt><trkpt lat="44.7333567" lon="9.896735"><ele>561.0</ele><time>2026-04-06T13:23:15.51Z</time></trkpt><trkpt lat="44.7332817" lon="9.8967367"><ele>561.0</ele><time>2026-04-06T13:23:16.509Z</time></trkpt><trkpt lat="44.7331917" lon="9.89674"><ele>561.0</ele><time>2026-04-06T13:23:17.509Z</time></trkpt><trkpt lat="44.7331167" lon="9.8967417"><ele>561.0</ele><time>2026-04-06T13:23:18.509Z</time></trkpt><trkpt lat="44.7329967" lon="9.8967267"><ele>561.0</ele><time>2026-04-06T13:23:19.509Z</time></trkpt><trkpt lat="44.7328833" lon="9.8967283"><ele>561.0</ele><time>2026-04-06T13:23:20.51Z</time></trkpt><trkpt lat="44.7327817" lon="9.8967217"><ele>561.0</ele><time>2026-04-06T13:23:21.509Z</time></trkpt><trkpt lat="44.7326533" lon="9.8967"><ele>561.0</ele><time>2026-04-06T13:23:22.509Z</time></trkpt><trkpt lat="44.7325283" lon="9.8966633"><ele>562.2</ele><time>2026-04-06T13:23:23.51Z</time></trkpt><trkpt lat="44.7324233" lon="9.8965883"><ele>563.4000000000001</ele><time>2026-04-06T13:23:24.51Z</time></trkpt><trkpt lat="44.732335" lon="9.89649"><ele>564.6</ele><time>2026-04-06T13:23:25.509Z</time></trkpt><trkpt lat="44.73224" lon="9.8963883"><ele>565.8000000000001</ele><time>2026-04-06T13:23:26.509Z</time></trkpt><trkpt lat="44.7321967" lon="9.8962883"><ele>567.0</ele><time>2026-04-06T13:23:27.509Z</time></trkpt><trkpt lat="44.73211" lon="9.8962183"><ele>567.0</ele><time>2026-04-06T13:23:28.509Z</time></trkpt><trkpt lat="44.7320167" lon="9.8961717"><ele>567.0</ele><time>2026-04-06T13:23:29.509Z</time></trkpt><trkpt lat="44.7319" lon="9.8961583"><ele>567.0</ele><time>2026-04-06T13:23:30.509Z</time></trkpt><trkpt lat="44.7317833" lon="9.8962183"><ele>567.0</ele><time>2026-04-06T13:23:31.509Z</time></trkpt><trkpt lat="44.7316817" lon="9.8962767"><ele>568.2</ele><time>2026-04-06T13:23:32.509Z</time></trkpt><trkpt lat="44.7315833" lon="9.89635"><ele>569.4000000000001</ele><time>2026-04-06T13:23:33.509Z</time></trkpt><trkpt lat="44.731495" lon="9.8964483"><ele>570.5999999999999</ele><time>2026-04-06T13:23:34.509Z</time></trkpt><trkpt lat="44.7314117" lon="9.8965433"><ele>571.8</ele><time>2026-04-06T13:23:35.509Z</time></trkpt><trkpt lat="44.7313317" lon="9.8966333"><ele>573.0</ele><time>2026-04-06T13:23:36.51Z</time></trkpt><trkpt lat="44.7312617" lon="9.8967217"><ele>572.0</ele><time>2026-04-06T13:23:37.509Z</time></trkpt><trkpt lat="44.7312067" lon="9.8967917"><ele>571.0</ele><time>2026-04-06T13:23:38.509Z</time></trkpt><trkpt lat="44.7311667" lon="9.8968617"><ele>570.0</ele><time>2026-04-06T13:23:39.509Z</time></trkpt><trkpt lat="44.7311283" lon="9.8969467"><ele>569.0</ele><time>2026-04-06T13:23:40.51Z</time></trkpt><trkpt lat="44.7310933" lon="9.897045"><ele>568.0</ele><time>2026-04-06T13:23:41.509Z</time></trkpt><trkpt lat="44.731065" lon="9.89717"><ele>567.0</ele><time>2026-04-06T13:23:42.509Z</time></trkpt><trkpt lat="44.7310467" lon="9.8972883"><ele>566.1666666666666</ele><time>2026-04-06T13:23:43.51Z</time></trkpt><trkpt lat="44.7310367" lon="9.8974167"><ele>565.3333333333334</ele><time>2026-04-06T13:23:44.51Z</time></trkpt><trkpt lat="44.7310483" lon="9.89753"><ele>564.5</ele><time>2026-04-06T13:23:45.509Z</time></trkpt><trkpt lat="44.7310633" lon="9.8976333"><ele>563.6666666666667</ele><time>2026-04-06T13:23:46.51Z</time></trkpt><trkpt lat="44.7310917" lon="9.8977583"><ele>562.8333333333334</ele><time>2026-04-06T13:23:47.509Z</time></trkpt><trkpt lat="44.731125" lon="9.8979017"><ele>562.0</ele><time>2026-04-06T13:23:48.51Z</time></trkpt><trkpt lat="44.7311483" lon="9.8980483"><ele>562.0</ele><time>2026-04-06T13:23:49.51Z</time></trkpt><trkpt lat="44.7312067" lon="9.898215"><ele>562.0</ele><time>2026-04-06T13:23:50.509Z</time></trkpt><trkpt lat="44.731205" lon="9.8983633"><ele>562.0</ele><time>2026-04-06T13:23:51.51Z</time></trkpt><trkpt lat="44.7311383" lon="9.898505"><ele>562.0</ele><time>2026-04-06T13:23:52.51Z</time></trkpt><trkpt lat="44.7310933" lon="9.8986317"><ele>561.6</ele><time>2026-04-06T13:23:53.51Z</time></trkpt><trkpt lat="44.73106" lon="9.8987517"><ele>561.2</ele><time>2026-04-06T13:23:54.51Z</time></trkpt><trkpt lat="44.7310617" lon="9.89889"><ele>560.8</ele><time>2026-04-06T13:23:55.51Z</time></trkpt><trkpt lat="44.7310767" lon="9.8990167"><ele>560.4</ele><time>2026-04-06T13:23:56.509Z</time></trkpt><trkpt lat="44.7311267" lon="9.8991333"><ele>560.0</ele><time>2026-04-06T13:23:57.509Z</time></trkpt><trkpt lat="44.731145" lon="9.89924"><ele>560.3333333333333</ele><time>2026-04-06T13:23:58.509Z</time></trkpt><trkpt lat="44.73114" lon="9.8993617"><ele>560.6666666666666</ele><time>2026-04-06T13:23:59.509Z</time></trkpt><trkpt lat="44.73112" lon="9.8994783"><ele>561.0</ele><time>2026-04-06T13:24:00.51Z</time></trkpt><trkpt lat="44.7311" lon="9.8995833"><ele>561.3333333333334</ele><time>2026-04-06T13:24:01.51Z</time></trkpt><trkpt lat="44.7310383" lon="9.8996933"><ele>561.6666666666667</ele><time>2026-04-06T13:24:02.51Z</time></trkpt><trkpt lat="44.7309967" lon="9.8998133"><ele>562.0</ele><time>2026-04-06T13:24:03.509Z</time></trkpt><trkpt lat="44.7309717" lon="9.8999283"><ele>562.6</ele><time>2026-04-06T13:24:04.509Z</time></trkpt><trkpt lat="44.7309683" lon="9.9000317"><ele>563.2</ele><time>2026-04-06T13:24:05.51Z</time></trkpt><trkpt lat="44.7309683" lon="9.9001233"><ele>563.8</ele><time>2026-04-06T13:24:06.509Z</time></trkpt><trkpt lat="44.7310133" lon="9.900215"><ele>564.4</ele><time>2026-04-06T13:24:07.509Z</time></trkpt><trkpt lat="44.7310733" lon="9.9002983"><ele>565.0</ele><time>2026-04-06T13:24:08.509Z</time></trkpt><trkpt lat="44.7312367" lon="9.9003667"><ele>565.0</ele><time>2026-04-06T13:24:09.509Z</time></trkpt><trkpt lat="44.73133" lon="9.90042"><ele>565.0</ele><time>2026-04-06T13:24:10.509Z</time></trkpt><trkpt lat="44.73143" lon="9.9004967"><ele>565.0</ele><time>2026-04-06T13:24:11.509Z</time></trkpt><trkpt lat="44.73151" lon="9.9005867"><ele>565.0</ele><time>2026-04-06T13:24:12.509Z</time></trkpt><trkpt lat="44.7315933" lon="9.9006733"><ele>565.0</ele><time>2026-04-06T13:24:13.509Z</time></trkpt><trkpt lat="44.7317383" lon="9.9007583"><ele>565.0</ele><time>2026-04-06T13:24:14.509Z</time></trkpt><trkpt lat="44.731815" lon="9.900875"><ele>565.0</ele><time>2026-04-06T13:24:15.51Z</time></trkpt><trkpt lat="44.7318267" lon="9.901"><ele>565.0</ele><time>2026-04-06T13:24:16.509Z</time></trkpt><trkpt lat="44.7317933" lon="9.9011483"><ele>565.0</ele><time>2026-04-06T13:24:17.509Z</time></trkpt><trkpt lat="44.7317833" lon="9.9012767"><ele>565.0</ele><time>2026-04-06T13:24:18.51Z</time></trkpt><trkpt lat="44.73163" lon="9.9014483"><ele>563.0</ele><time>2026-04-06T13:24:19.509Z</time></trkpt><trkpt lat="44.7315833" lon="9.90159"><ele>561.0</ele><time>2026-04-06T13:24:20.509Z</time></trkpt><trkpt lat="44.7315" lon="9.901755"><ele>559.0</ele><time>2026-04-06T13:24:21.51Z</time></trkpt><trkpt lat="44.73141" lon="9.9019533"><ele>557.0</ele><time>2026-04-06T13:24:22.509Z</time></trkpt><trkpt lat="44.731335" lon="9.90217"><ele>554.0</ele><time>2026-04-06T13:24:23.51Z</time></trkpt><trkpt lat="44.7312717" lon="9.902385"><ele>551.0</ele><time>2026-04-06T13:24:24.51Z</time></trkpt><trkpt lat="44.7312117" lon="9.9025933"><ele>548.0</ele><time>2026-04-06T13:24:25.509Z</time></trkpt><trkpt lat="44.731165" lon="9.9027933"><ele>545.75</ele><time>2026-04-06T13:24:26.51Z</time></trkpt><trkpt lat="44.7311117" lon="9.9029833"><ele>543.5</ele><time>2026-04-06T13:24:27.51Z</time></trkpt><trkpt lat="44.7310667" lon="9.9031683"><ele>541.25</ele><time>2026-04-06T13:24:28.509Z</time></trkpt><trkpt lat="44.7310167" lon="9.9033533"><ele>539.0</ele><time>2026-04-06T13:24:29.509Z</time></trkpt><trkpt lat="44.7309767" lon="9.9035317"><ele>546.75</ele><time>2026-04-06T13:24:30.51Z</time></trkpt><trkpt lat="44.7309467" lon="9.9037133"><ele>554.5</ele><time>2026-04-06T13:24:31.509Z</time></trkpt><trkpt lat="44.73094" lon="9.903895"><ele>562.25</ele><time>2026-04-06T13:24:32.509Z</time></trkpt><trkpt lat="44.7309317" lon="9.90408"><ele>570.0</ele><time>2026-04-06T13:24:33.51Z</time></trkpt><trkpt lat="44.730955" lon="9.904265"><ele>572.3333333333334</ele><time>2026-04-06T13:24:34.51Z</time></trkpt><trkpt lat="44.7310033" lon="9.90446"><ele>574.6666666666667</ele><time>2026-04-06T13:24:35.509Z</time></trkpt><trkpt lat="44.731045" lon="9.904675"><ele>577.0</ele><time>2026-04-06T13:24:36.509Z</time></trkpt><trkpt lat="44.7310983" lon="9.9049033"><ele>564.3333333333334</ele><time>2026-04-06T13:24:37.509Z</time></trkpt><trkpt lat="44.7311417" lon="9.9051383"><ele>551.6666666666666</ele><time>2026-04-06T13:24:38.51Z</time></trkpt><trkpt lat="44.7312133" lon="9.905365"><ele>539.0</ele><time>2026-04-06T13:24:39.509Z</time></trkpt><trkpt lat="44.731255" lon="9.9055617"><ele>539.0</ele><time>2026-04-06T13:24:40.509Z</time></trkpt><trkpt lat="44.7313033" lon="9.9057583"><ele>539.0</ele><time>2026-04-06T13:24:41.51Z</time></trkpt><trkpt lat="44.7313783" lon="9.90594"><ele>539.0</ele><time>2026-04-06T13:24:42.509Z</time></trkpt><trkpt lat="44.7314667" lon="9.90611"><ele>539.0</ele><time>2026-04-06T13:24:43.51Z</time></trkpt><trkpt lat="44.7315933" lon="9.9062617"><ele>542.6666666666666</ele><time>2026-04-06T13:24:44.509Z</time></trkpt><trkpt lat="44.7317283" lon="9.9064033"><ele>546.3333333333334</ele><time>2026-04-06T13:24:45.509Z</time></trkpt><trkpt lat="44.73187" lon="9.90653"><ele>550.0</ele><time>2026-04-06T13:24:46.509Z</time></trkpt><trkpt lat="44.732005" lon="9.906635"><ele>545.5</ele><time>2026-04-06T13:24:47.509Z</time></trkpt><trkpt lat="44.7321233" lon="9.906755"><ele>541.0</ele><time>2026-04-06T13:24:48.51Z</time></trkpt><trkpt lat="44.732235" lon="9.9068667"><ele>536.5</ele><time>2026-04-06T13:24:49.509Z</time></trkpt><trkpt lat="44.7323467" lon="9.9069683"><ele>532.0</ele><time>2026-04-06T13:24:50.509Z</time></trkpt><trkpt lat="44.7324533" lon="9.9070833"><ele>532.0</ele><time>2026-04-06T13:24:51.51Z</time></trkpt><trkpt lat="44.7325383" lon="9.9072017"><ele>532.0</ele><time>2026-04-06T13:24:52.509Z</time></trkpt><trkpt lat="44.7326033" lon="9.90732"><ele>532.0</ele><time>2026-04-06T13:24:53.51Z</time></trkpt><trkpt lat="44.7326433" lon="9.9074817"><ele>532.0</ele><time>2026-04-06T13:24:54.509Z</time></trkpt><trkpt lat="44.7326517" lon="9.9076267"><ele>530.4</ele><time>2026-04-06T13:24:55.51Z</time></trkpt><trkpt lat="44.7326333" lon="9.907775"><ele>528.8000000000001</ele><time>2026-04-06T13:24:56.51Z</time></trkpt><trkpt lat="44.732555" lon="9.9079233"><ele>527.2</ele><time>2026-04-06T13:24:57.51Z</time></trkpt><trkpt lat="44.7324967" lon="9.90804"><ele>525.6</ele><time>2026-04-06T13:24:58.509Z</time></trkpt><trkpt lat="44.732465" lon="9.9081467"><ele>524.0</ele><time>2026-04-06T13:24:59.51Z</time></trkpt><trkpt lat="44.7324033" lon="9.90826"><ele>524.0</ele><time>2026-04-06T13:25:00.51Z</time></trkpt><trkpt lat="44.7322583" lon="9.9083417"><ele>524.0</ele><time>2026-04-06T13:25:01.509Z</time></trkpt><trkpt lat="44.7320867" lon="9.9083717"><ele>524.0</ele><time>2026-04-06T13:25:02.509Z</time></trkpt><trkpt lat="44.731925" lon="9.9083833"><ele>527.5</ele><time>2026-04-06T13:25:03.51Z</time></trkpt><trkpt lat="44.7317383" lon="9.9083833"><ele>531.0</ele><time>2026-04-06T13:25:04.509Z</time></trkpt><trkpt lat="44.7314583" lon="9.908395"><ele>531.0</ele><time>2026-04-06T13:25:05.509Z</time></trkpt><trkpt lat="44.7313" lon="9.9083933"><ele>531.0</ele><time>2026-04-06T13:25:06.509Z</time></trkpt><trkpt lat="44.7311767" lon="9.9084183"><ele>531.0</ele><time>2026-04-06T13:25:07.509Z</time></trkpt><trkpt lat="44.7310333" lon="9.9085167"><ele>531.0</ele><time>2026-04-06T13:25:08.51Z</time></trkpt><trkpt lat="44.730935" lon="9.908615"><ele>531.75</ele><time>2026-04-06T13:25:09.509Z</time></trkpt><trkpt lat="44.7308533" lon="9.9087217"><ele>532.5</ele><time>2026-04-06T13:25:10.509Z</time></trkpt><trkpt lat="44.7308067" lon="9.9089067"><ele>533.25</ele><time>2026-04-06T13:25:11.51Z</time></trkpt><trkpt lat="44.7307383" lon="9.9091117"><ele>534.0</ele><time>2026-04-06T13:25:12.509Z</time></trkpt><trkpt lat="44.7306683" lon="9.9092717"><ele>529.4</ele><time>2026-04-06T13:25:13.509Z</time></trkpt><trkpt lat="44.7305867" lon="9.90938"><ele>524.8</ele><time>2026-04-06T13:25:14.51Z</time></trkpt><trkpt lat="44.7305067" lon="9.9094733"><ele>520.2</ele><time>2026-04-06T13:25:15.509Z</time></trkpt><trkpt lat="44.730435" lon="9.9095283"><ele>515.6</ele><time>2026-04-06T13:25:16.51Z</time></trkpt><trkpt lat="44.73036" lon="9.9095383"><ele>511.0</ele><time>2026-04-06T13:25:17.51Z</time></trkpt><trkpt lat="44.7302567" lon="9.9095417"><ele>515.2</ele><time>2026-04-06T13:25:18.509Z</time></trkpt><trkpt lat="44.7301433" lon="9.90953"><ele>519.4000000000001</ele><time>2026-04-06T13:25:19.51Z</time></trkpt><trkpt lat="44.73002" lon="9.9095183"><ele>523.6</ele><time>2026-04-06T13:25:20.51Z</time></trkpt><trkpt lat="44.7299217" lon="9.9095367"><ele>527.8000000000001</ele><time>2026-04-06T13:25:21.509Z</time></trkpt><trkpt lat="44.729825" lon="9.909565"><ele>532.0</ele><time>2026-04-06T13:25:22.509Z</time></trkpt><trkpt lat="44.7297317" lon="9.90963"><ele>532.0</ele><time>2026-04-06T13:25:23.51Z</time></trkpt><trkpt lat="44.7296367" lon="9.9097"><ele>532.0</ele><time>2026-04-06T13:25:24.51Z</time></trkpt><trkpt lat="44.7295583" lon="9.90979"><ele>532.0</ele><time>2026-04-06T13:25:25.509Z</time></trkpt><trkpt lat="44.72958" lon="9.9100517"><ele>532.0</ele><time>2026-04-06T13:25:26.509Z</time></trkpt><trkpt lat="44.7295517" lon="9.9102467"><ele>532.0</ele><time>2026-04-06T13:25:27.509Z</time></trkpt><trkpt lat="44.7295617" lon="9.91047"><ele>532.0</ele><time>2026-04-06T13:25:28.51Z</time></trkpt><trkpt lat="44.7296617" lon="9.9106533"><ele>532.0</ele><time>2026-04-06T13:25:29.51Z</time></trkpt><trkpt lat="44.7297067" lon="9.910835"><ele>536.0</ele><time>2026-04-06T13:25:30.509Z</time></trkpt><trkpt lat="44.7298233" lon="9.9110217"><ele>540.0</ele><time>2026-04-06T13:25:31.509Z</time></trkpt><trkpt lat="44.72988" lon="9.911225"><ele>544.0</ele><time>2026-04-06T13:25:32.509Z</time></trkpt><trkpt lat="44.729935" lon="9.91143"><ele>544.0</ele><time>2026-04-06T13:25:33.51Z</time></trkpt><trkpt lat="44.7299883" lon="9.9116267"><ele>544.0</ele><time>2026-04-06T13:25:34.509Z</time></trkpt><trkpt lat="44.73005" lon="9.9118033"><ele>544.0</ele><time>2026-04-06T13:25:35.509Z</time></trkpt><trkpt lat="44.7301267" lon="9.9119633"><ele>544.0</ele><time>2026-04-06T13:25:36.509Z</time></trkpt><trkpt lat="44.7301933" lon="9.9121067"><ele>539.4</ele><time>2026-04-06T13:25:37.509Z</time></trkpt><trkpt lat="44.7302517" lon="9.9121767"><ele>534.8</ele><time>2026-04-06T13:25:38.509Z</time></trkpt><trkpt lat="44.7303217" lon="9.91227"><ele>530.2</ele><time>2026-04-06T13:25:39.509Z</time></trkpt><trkpt lat="44.7303967" lon="9.912365"><ele>525.6</ele><time>2026-04-06T13:25:40.509Z</time></trkpt><trkpt lat="44.7304483" lon="9.9124717"><ele>521.0</ele><time>2026-04-06T13:25:41.509Z</time></trkpt><trkpt lat="44.7304917" lon="9.91258"><ele>520.2</ele><time>2026-04-06T13:25:42.509Z</time></trkpt><trkpt lat="44.73053" lon="9.9126867"><ele>519.4000000000001</ele><time>2026-04-06T13:25:43.51Z</time></trkpt><trkpt lat="44.730555" lon="9.9127983"><ele>518.6</ele><time>2026-04-06T13:25:44.509Z</time></trkpt><trkpt lat="44.7305817" lon="9.9129117"><ele>517.8000000000001</ele><time>2026-04-06T13:25:45.51Z</time></trkpt><trkpt lat="44.7305783" lon="9.9130567"><ele>517.0</ele><time>2026-04-06T13:25:46.51Z</time></trkpt><trkpt lat="44.73057" lon="9.913225"><ele>516.5</ele><time>2026-04-06T13:25:47.509Z</time></trkpt><trkpt lat="44.73057" lon="9.9134233"><ele>516.0</ele><time>2026-04-06T13:25:48.51Z</time></trkpt><trkpt lat="44.7305817" lon="9.9136117"><ele>515.5</ele><time>2026-04-06T13:25:49.509Z</time></trkpt><trkpt lat="44.7305883" lon="9.9137733"><ele>515.0</ele><time>2026-04-06T13:25:50.51Z</time></trkpt><trkpt lat="44.7305867" lon="9.9139317"><ele>515.0</ele><time>2026-04-06T13:25:51.509Z</time></trkpt><trkpt lat="44.73053" lon="9.914095"><ele>515.0</ele><time>2026-04-06T13:25:52.509Z</time></trkpt><trkpt lat="44.730445" lon="9.9142633"><ele>515.0</ele><time>2026-04-06T13:25:53.51Z</time></trkpt><trkpt lat="44.73036" lon="9.91444"><ele>515.0</ele><time>2026-04-06T13:25:54.509Z</time></trkpt><trkpt lat="44.7302933" lon="9.91461"><ele>513.25</ele><time>2026-04-06T13:25:55.509Z</time></trkpt><trkpt lat="44.7302083" lon="9.91476"><ele>511.5</ele><time>2026-04-06T13:25:56.51Z</time></trkpt><trkpt lat="44.7301067" lon="9.9148933"><ele>509.75</ele><time>2026-04-06T13:25:57.509Z</time></trkpt><trkpt lat="44.7300083" lon="9.915035"><ele>508.0</ele><time>2026-04-06T13:25:58.509Z</time></trkpt><trkpt lat="44.7299167" lon="9.9151833"><ele>508.0</ele><time>2026-04-06T13:25:59.51Z</time></trkpt><trkpt lat="44.729865" lon="9.9153333"><ele>508.0</ele><time>2026-04-06T13:26:00.509Z</time></trkpt><trkpt lat="44.7297917" lon="9.915455"><ele>508.0</ele><time>2026-04-06T13:26:01.509Z</time></trkpt><trkpt lat="44.7297333" lon="9.9155883"><ele>508.0</ele><time>2026-04-06T13:26:02.51Z</time></trkpt><trkpt lat="44.729655" lon="9.9156967"><ele>508.0</ele><time>2026-04-06T13:26:03.509Z</time></trkpt><trkpt lat="44.7295633" lon="9.9157817"><ele>507.99999999999994</ele><time>2026-04-06T13:26:04.509Z</time></trkpt><trkpt lat="44.7294667" lon="9.9157667"><ele>507.99999999999994</ele><time>2026-04-06T13:26:05.51Z</time></trkpt><trkpt lat="44.7293417" lon="9.9157517"><ele>508.0</ele><time>2026-04-06T13:26:07.509Z</time></trkpt><trkpt lat="44.7293933" lon="9.915835"><ele>508.0</ele><time>2026-04-06T13:26:13.509Z</time></trkpt><trkpt lat="44.7294683" lon="9.9158417"><ele>508.0</ele><time>2026-04-06T13:26:14.509Z</time></trkpt><trkpt lat="44.7295633" lon="9.9158683"><ele>507.99999999999994</ele><time>2026-04-06T13:26:15.51Z</time></trkpt><trkpt lat="44.7296783" lon="9.9158783"><ele>507.99999999999994</ele><time>2026-04-06T13:26:16.509Z</time></trkpt><trkpt lat="44.7297867" lon="9.91589"><ele>508.0</ele><time>2026-04-06T13:26:17.509Z</time></trkpt><trkpt lat="44.72987" lon="9.915855"><ele>508.0</ele><time>2026-04-06T13:26:18.51Z</time></trkpt><trkpt lat="44.729965" lon="9.91579"><ele>508.0</ele><time>2026-04-06T13:26:19.51Z</time></trkpt><trkpt lat="44.7301217" lon="9.9157"><ele>508.0</ele><time>2026-04-06T13:26:20.51Z</time></trkpt><trkpt lat="44.7302817" lon="9.9156"><ele>508.0</ele><time>2026-04-06T13:26:21.51Z</time></trkpt><trkpt lat="44.7304267" lon="9.9155333"><ele>502.6666666666667</ele><time>2026-04-06T13:26:22.51Z</time></trkpt><trkpt lat="44.7305817" lon="9.9154383"><ele>497.33333333333337</ele><time>2026-04-06T13:26:23.51Z</time></trkpt><trkpt lat="44.7307317" lon="9.9153433"><ele>492.0</ele><time>2026-04-06T13:26:24.509Z</time></trkpt><trkpt lat="44.730845" lon="9.9152317"><ele>492.0</ele><time>2026-04-06T13:26:25.51Z</time></trkpt><trkpt lat="44.7309383" lon="9.9151117"><ele>492.00000000000006</ele><time>2026-04-06T13:26:26.509Z</time></trkpt><trkpt lat="44.7309967" lon="9.9150133"><ele>492.00000000000006</ele><time>2026-04-06T13:26:27.509Z</time></trkpt><trkpt lat="44.7310717" lon="9.91493"><ele>492.0</ele><time>2026-04-06T13:26:28.51Z</time></trkpt><trkpt lat="44.7311433" lon="9.9148767"><ele>492.0</ele><time>2026-04-06T13:26:29.509Z</time></trkpt><trkpt lat="44.73122" lon="9.914865"><ele>492.0</ele><time>2026-04-06T13:26:31.509Z</time></trkpt><trkpt lat="44.731285" lon="9.9149067"><ele>492.0</ele><time>2026-04-06T13:26:33.509Z</time></trkpt><trkpt lat="44.7312417" lon="9.915065"><ele>492.0</ele><time>2026-04-06T13:26:36.51Z</time></trkpt><trkpt lat="44.73116" lon="9.9151733"><ele>492.0</ele><time>2026-04-06T13:26:37.51Z</time></trkpt><trkpt lat="44.73103" lon="9.9153267"><ele>492.0</ele><time>2026-04-06T13:26:38.51Z</time></trkpt><trkpt lat="44.730845" lon="9.915645"><ele>492.0</ele><time>2026-04-06T13:26:39.509Z</time></trkpt><trkpt lat="44.7307667" lon="9.9158167"><ele>492.0</ele><time>2026-04-06T13:26:40.51Z</time></trkpt><trkpt lat="44.7306583" lon="9.9160133"><ele>488.66666666666663</ele><time>2026-04-06T13:26:41.509Z</time></trkpt><trkpt lat="44.7305467" lon="9.9161817"><ele>485.3333333333333</ele><time>2026-04-06T13:26:42.509Z</time></trkpt><trkpt lat="44.730445" lon="9.916335"><ele>482.0</ele><time>2026-04-06T13:26:43.509Z</time></trkpt><trkpt lat="44.730335" lon="9.9164917"><ele>482.0</ele><time>2026-04-06T13:26:44.509Z</time></trkpt><trkpt lat="44.7302367" lon="9.9166417"><ele>482.0</ele><time>2026-04-06T13:26:45.509Z</time></trkpt><trkpt lat="44.73015" lon="9.916765"><ele>482.0</ele><time>2026-04-06T13:26:46.51Z</time></trkpt><trkpt lat="44.73006" lon="9.9168933"><ele>482.0</ele><time>2026-04-06T13:26:47.51Z</time></trkpt><trkpt lat="44.7299783" lon="9.91701"><ele>482.40000000000003</ele><time>2026-04-06T13:26:48.509Z</time></trkpt><trkpt lat="44.7298967" lon="9.9171167"><ele>482.80000000000007</ele><time>2026-04-06T13:26:49.509Z</time></trkpt><trkpt lat="44.7298133" lon="9.9172267"><ele>483.2</ele><time>2026-04-06T13:26:50.509Z</time></trkpt><trkpt lat="44.7297333" lon="9.91734"><ele>483.6</ele><time>2026-04-06T13:26:51.51Z</time></trkpt><trkpt lat="44.72966" lon="9.9174533"><ele>484.0</ele><time>2026-04-06T13:26:52.509Z</time></trkpt><trkpt lat="44.7296" lon="9.9175633"><ele>482.4</ele><time>2026-04-06T13:26:53.51Z</time></trkpt><trkpt lat="44.7295533" lon="9.9176617"><ele>480.79999999999995</ele><time>2026-04-06T13:26:54.508Z</time></trkpt><trkpt lat="44.7295133" lon="9.917755"><ele>479.20000000000005</ele><time>2026-04-06T13:26:55.508Z</time></trkpt><trkpt lat="44.7294967" lon="9.9178533"><ele>477.6</ele><time>2026-04-06T13:26:56.508Z</time></trkpt><trkpt lat="44.72953" lon="9.918"><ele>476.0</ele><time>2026-04-06T13:26:58.508Z</time></trkpt><trkpt lat="44.7296283" lon="9.91808"><ele>476.0</ele><time>2026-04-06T13:27:00.508Z</time></trkpt><trkpt lat="44.729695" lon="9.9180733"><ele>476.0</ele><time>2026-04-06T13:27:01.509Z</time></trkpt><trkpt lat="44.7298067" lon="9.91803"><ele>476.0</ele><time>2026-04-06T13:27:02.508Z</time></trkpt><trkpt lat="44.729925" lon="9.9179883"><ele>476.0</ele><time>2026-04-06T13:27:03.509Z</time></trkpt><trkpt lat="44.730035" lon="9.9179517"><ele>476.0</ele><time>2026-04-06T13:27:04.509Z</time></trkpt><trkpt lat="44.730185" lon="9.9178867"><ele>472.66666666666663</ele><time>2026-04-06T13:27:05.509Z</time></trkpt><trkpt lat="44.730345" lon="9.9178067"><ele>469.33333333333337</ele><time>2026-04-06T13:27:06.508Z</time></trkpt><trkpt lat="44.7305" lon="9.91777"><ele>466.0</ele><time>2026-04-06T13:27:07.508Z</time></trkpt><trkpt lat="44.7306383" lon="9.9176983"><ele>468.25</ele><time>2026-04-06T13:27:08.509Z</time></trkpt><trkpt lat="44.730815" lon="9.9175567"><ele>470.5</ele><time>2026-04-06T13:27:09.508Z</time></trkpt><trkpt lat="44.7309133" lon="9.9174817"><ele>472.75</ele><time>2026-04-06T13:27:10.508Z</time></trkpt><trkpt lat="44.73099" lon="9.9174167"><ele>475.0</ele><time>2026-04-06T13:27:11.509Z</time></trkpt><trkpt lat="44.7310517" lon="9.9173717"><ele>473.6666666666667</ele><time>2026-04-06T13:27:12.508Z</time></trkpt><trkpt lat="44.731125" lon="9.9173183"><ele>472.33333333333337</ele><time>2026-04-06T13:27:13.509Z</time></trkpt><trkpt lat="44.73114" lon="9.9174083"><ele>471.0</ele><time>2026-04-06T13:27:15.508Z</time></trkpt><trkpt lat="44.7311017" lon="9.9174867"><ele>469.66666666666663</ele><time>2026-04-06T13:27:16.509Z</time></trkpt><trkpt lat="44.731045" lon="9.9175833"><ele>468.3333333333333</ele><time>2026-04-06T13:27:17.508Z</time></trkpt><trkpt lat="44.7309867" lon="9.91769"><ele>467.0</ele><time>2026-04-06T13:27:18.508Z</time></trkpt><trkpt lat="44.7309233" lon="9.917805"><ele>466.8</ele><time>2026-04-06T13:27:19.509Z</time></trkpt><trkpt lat="44.730885" lon="9.9179117"><ele>466.6</ele><time>2026-04-06T13:27:20.508Z</time></trkpt><trkpt lat="44.7308517" lon="9.91803"><ele>466.40000000000003</ele><time>2026-04-06T13:27:21.509Z</time></trkpt><trkpt lat="44.7308533" lon="9.9181583"><ele>466.20000000000005</ele><time>2026-04-06T13:27:22.508Z</time></trkpt><trkpt lat="44.7308633" lon="9.918305"><ele>466.0</ele><time>2026-04-06T13:27:23.509Z</time></trkpt><trkpt lat="44.730915" lon="9.9184933"><ele>465.25</ele><time>2026-04-06T13:27:24.508Z</time></trkpt><trkpt lat="44.73094" lon="9.9186783"><ele>464.5</ele><time>2026-04-06T13:27:25.509Z</time></trkpt><trkpt lat="44.7309567" lon="9.9188883"><ele>463.75</ele><time>2026-04-06T13:27:26.508Z</time></trkpt><trkpt lat="44.730965" lon="9.9191"><ele>463.0</ele><time>2026-04-06T13:27:27.509Z</time></trkpt><trkpt lat="44.73098" lon="9.9192817"><ele>463.0</ele><time>2026-04-06T13:27:28.508Z</time></trkpt><trkpt lat="44.7310067" lon="9.91944"><ele>463.0</ele><time>2026-04-06T13:27:29.508Z</time></trkpt><trkpt lat="44.7310467" lon="9.9195967"><ele>463.0</ele><time>2026-04-06T13:27:30.508Z</time></trkpt><trkpt lat="44.7311183" lon="9.9197517"><ele>463.0</ele><time>2026-04-06T13:27:31.508Z</time></trkpt><trkpt lat="44.7311917" lon="9.9198917"><ele>461.0</ele><time>2026-04-06T13:27:32.509Z</time></trkpt><trkpt lat="44.731255" lon="9.9200317"><ele>458.99999999999994</ele><time>2026-04-06T13:27:33.509Z</time></trkpt><trkpt lat="44.7313217" lon="9.920155"><ele>456.99999999999994</ele><time>2026-04-06T13:27:34.509Z</time></trkpt><trkpt lat="44.7313767" lon="9.920285"><ele>455.0</ele><time>2026-04-06T13:27:35.509Z</time></trkpt><trkpt lat="44.731415" lon="9.92042"><ele>453.0</ele><time>2026-04-06T13:27:36.508Z</time></trkpt><trkpt lat="44.7314433" lon="9.92056"><ele>451.59999999999997</ele><time>2026-04-06T13:27:37.509Z</time></trkpt><trkpt lat="44.7314533" lon="9.9206983"><ele>450.19999999999993</ele><time>2026-04-06T13:27:38.508Z</time></trkpt><trkpt lat="44.7314183" lon="9.92084"><ele>448.8</ele><time>2026-04-06T13:27:39.509Z</time></trkpt><trkpt lat="44.73136" lon="9.9209617"><ele>447.4</ele><time>2026-04-06T13:27:40.509Z</time></trkpt><trkpt lat="44.7312717" lon="9.9210617"><ele>446.0</ele><time>2026-04-06T13:27:41.508Z</time></trkpt><trkpt lat="44.7311483" lon="9.921135"><ele>446.6</ele><time>2026-04-06T13:27:42.509Z</time></trkpt><trkpt lat="44.731035" lon="9.9212067"><ele>447.20000000000005</ele><time>2026-04-06T13:27:43.508Z</time></trkpt><trkpt lat="44.7309433" lon="9.92127"><ele>447.79999999999995</ele><time>2026-04-06T13:27:44.509Z</time></trkpt><trkpt lat="44.7308567" lon="9.92136"><ele>448.4</ele><time>2026-04-06T13:27:45.509Z</time></trkpt><trkpt lat="44.73078" lon="9.9214517"><ele>449.0</ele><time>2026-04-06T13:27:46.508Z</time></trkpt><trkpt lat="44.7307367" lon="9.9215417"><ele>449.0</ele><time>2026-04-06T13:27:47.509Z</time></trkpt><trkpt lat="44.7306983" lon="9.9216383"><ele>449.0</ele><time>2026-04-06T13:27:48.509Z</time></trkpt><trkpt lat="44.7307433" lon="9.9217983"><ele>449.0</ele><time>2026-04-06T13:27:50.509Z</time></trkpt><trkpt lat="44.7308333" lon="9.9218417"><ele>449.0</ele><time>2026-04-06T13:27:51.509Z</time></trkpt><trkpt lat="44.7309067" lon="9.921875"><ele>449.0</ele><time>2026-04-06T13:27:52.509Z</time></trkpt><trkpt lat="44.73099" lon="9.9218967"><ele>443.3333333333333</ele><time>2026-04-06T13:27:53.508Z</time></trkpt><trkpt lat="44.7311033" lon="9.9219017"><ele>437.66666666666663</ele><time>2026-04-06T13:27:54.508Z</time></trkpt><trkpt lat="44.7313283" lon="9.921855"><ele>432.0</ele><time>2026-04-06T13:27:55.508Z</time></trkpt><trkpt lat="44.73144" lon="9.9218083"><ele>432.0</ele><time>2026-04-06T13:27:56.508Z</time></trkpt><trkpt lat="44.7315917" lon="9.9217783"><ele>432.00000000000006</ele><time>2026-04-06T13:27:57.508Z</time></trkpt><trkpt lat="44.731695" lon="9.9217817"><ele>432.00000000000006</ele><time>2026-04-06T13:27:58.508Z</time></trkpt><trkpt lat="44.73179" lon="9.921795"><ele>432.0</ele><time>2026-04-06T13:27:59.509Z</time></trkpt><trkpt lat="44.73185" lon="9.9218383"><ele>432.0</ele><time>2026-04-06T13:28:00.509Z</time></trkpt><trkpt lat="44.731835" lon="9.9220217"><ele>432.0</ele><time>2026-04-06T13:28:02.509Z</time></trkpt><trkpt lat="44.73176" lon="9.922155"><ele>432.0</ele><time>2026-04-06T13:28:03.508Z</time></trkpt><trkpt lat="44.731635" lon="9.922295"><ele>432.0</ele><time>2026-04-06T13:28:04.508Z</time></trkpt><trkpt lat="44.7314833" lon="9.9224"><ele>432.0</ele><time>2026-04-06T13:28:05.508Z</time></trkpt><trkpt lat="44.73135" lon="9.9225117"><ele>432.0</ele><time>2026-04-06T13:28:06.509Z</time></trkpt><trkpt lat="44.7312617" lon="9.9226117"><ele>432.0</ele><time>2026-04-06T13:28:07.508Z</time></trkpt><trkpt lat="44.7311917" lon="9.9227183"><ele>432.0</ele><time>2026-04-06T13:28:08.509Z</time></trkpt><trkpt lat="44.7311583" lon="9.9228367"><ele>431.20000000000005</ele><time>2026-04-06T13:28:09.508Z</time></trkpt><trkpt lat="44.731165" lon="9.9229567"><ele>430.40000000000003</ele><time>2026-04-06T13:28:10.509Z</time></trkpt><trkpt lat="44.7311833" lon="9.9230967"><ele>429.59999999999997</ele><time>2026-04-06T13:28:11.509Z</time></trkpt><trkpt lat="44.731255" lon="9.923225"><ele>428.79999999999995</ele><time>2026-04-06T13:28:12.508Z</time></trkpt><trkpt lat="44.731325" lon="9.9233717"><ele>428.0</ele><time>2026-04-06T13:28:13.508Z</time></trkpt><trkpt lat="44.7313967" lon="9.9235133"><ele>428.0</ele><time>2026-04-06T13:28:14.508Z</time></trkpt><trkpt lat="44.7314767" lon="9.9236567"><ele>428.0</ele><time>2026-04-06T13:28:15.508Z</time></trkpt><trkpt lat="44.73155" lon="9.9238"><ele>428.0</ele><time>2026-04-06T13:28:16.508Z</time></trkpt><trkpt lat="44.7316217" lon="9.9239367"><ele>428.0</ele><time>2026-04-06T13:28:17.508Z</time></trkpt><trkpt lat="44.7316917" lon="9.9240667"><ele>428.0</ele><time>2026-04-06T13:28:18.508Z</time></trkpt><trkpt lat="44.7317567" lon="9.9241917"><ele>427.99999999999994</ele><time>2026-04-06T13:28:19.508Z</time></trkpt><trkpt lat="44.7318167" lon="9.9243033"><ele>427.99999999999994</ele><time>2026-04-06T13:28:20.508Z</time></trkpt><trkpt lat="44.7318783" lon="9.9244067"><ele>428.0</ele><time>2026-04-06T13:28:21.509Z</time></trkpt><trkpt lat="44.731945" lon="9.9244917"><ele>428.0</ele><time>2026-04-06T13:28:22.508Z</time></trkpt><trkpt lat="44.73204" lon="9.924555"><ele>425.0</ele><time>2026-04-06T13:28:23.508Z</time></trkpt><trkpt lat="44.73213" lon="9.9245883"><ele>421.99999999999994</ele><time>2026-04-06T13:28:24.509Z</time></trkpt><trkpt lat="44.7322133" lon="9.92461"><ele>419.0</ele><time>2026-04-06T13:28:25.509Z</time></trkpt><trkpt lat="44.7322983" lon="9.924615"><ele>416.0</ele><time>2026-04-06T13:28:26.509Z</time></trkpt><trkpt lat="44.7324133" lon="9.9245667"><ele>413.0</ele><time>2026-04-06T13:28:27.509Z</time></trkpt><trkpt lat="44.732545" lon="9.9244633"><ele>413.0</ele><time>2026-04-06T13:28:28.509Z</time></trkpt><trkpt lat="44.7326683" lon="9.9243533"><ele>413.0</ele><time>2026-04-06T13:28:29.509Z</time></trkpt><trkpt lat="44.7327867" lon="9.9242433"><ele>413.0</ele><time>2026-04-06T13:28:30.508Z</time></trkpt><trkpt lat="44.7329017" lon="9.92413"><ele>413.0</ele><time>2026-04-06T13:28:31.508Z</time></trkpt><trkpt lat="44.733015" lon="9.9240183"><ele>412.0</ele><time>2026-04-06T13:28:32.509Z</time></trkpt><trkpt lat="44.733125" lon="9.9239117"><ele>411.0</ele><time>2026-04-06T13:28:33.508Z</time></trkpt><trkpt lat="44.7332283" lon="9.9238217"><ele>410.0</ele><time>2026-04-06T13:28:34.509Z</time></trkpt><trkpt lat="44.73334" lon="9.9237567"><ele>409.0</ele><time>2026-04-06T13:28:35.508Z</time></trkpt><trkpt lat="44.7334517" lon="9.923715"><ele>408.4</ele><time>2026-04-06T13:28:36.509Z</time></trkpt><trkpt lat="44.7335567" lon="9.923705"><ele>407.79999999999995</ele><time>2026-04-06T13:28:37.509Z</time></trkpt><trkpt lat="44.7336633" lon="9.9237283"><ele>407.20000000000005</ele><time>2026-04-06T13:28:38.509Z</time></trkpt><trkpt lat="44.7337667" lon="9.9237717"><ele>406.6</ele><time>2026-04-06T13:28:39.509Z</time></trkpt><trkpt lat="44.733865" lon="9.92384"><ele>406.0</ele><time>2026-04-06T13:28:40.508Z</time></trkpt><trkpt lat="44.7339517" lon="9.9239367"><ele>406.0</ele><time>2026-04-06T13:28:41.508Z</time></trkpt><trkpt lat="44.7340167" lon="9.924065"><ele>406.0</ele><time>2026-04-06T13:28:42.509Z</time></trkpt><trkpt lat="44.7340733" lon="9.9242267"><ele>406.0</ele><time>2026-04-06T13:28:43.509Z</time></trkpt><trkpt lat="44.7341217" lon="9.9244033"><ele>406.0</ele><time>2026-04-06T13:28:44.509Z</time></trkpt><trkpt lat="44.73417" lon="9.9245867"><ele>405.75</ele><time>2026-04-06T13:28:45.508Z</time></trkpt><trkpt lat="44.734225" lon="9.9247633"><ele>405.5</ele><time>2026-04-06T13:28:46.509Z</time></trkpt><trkpt lat="44.7342783" lon="9.9249417"><ele>405.25</ele><time>2026-04-06T13:28:47.508Z</time></trkpt><trkpt lat="44.7343233" lon="9.925115"><ele>405.0</ele><time>2026-04-06T13:28:48.508Z</time></trkpt><trkpt lat="44.7343683" lon="9.9252467"><ele>405.6</ele><time>2026-04-06T13:28:49.509Z</time></trkpt><trkpt lat="44.7344067" lon="9.92535"><ele>406.2</ele><time>2026-04-06T13:28:50.509Z</time></trkpt><trkpt lat="44.7344333" lon="9.9254583"><ele>406.79999999999995</ele><time>2026-04-06T13:28:51.508Z</time></trkpt><trkpt lat="44.7344517" lon="9.9255767"><ele>407.4</ele><time>2026-04-06T13:28:52.509Z</time></trkpt><trkpt lat="44.7344233" lon="9.925735"><ele>408.0</ele><time>2026-04-06T13:28:54.508Z</time></trkpt><trkpt lat="44.734355" lon="9.9258767"><ele>408.6666666666667</ele><time>2026-04-06T13:28:56.509Z</time></trkpt><trkpt lat="44.7342883" lon="9.9259467"><ele>409.33333333333337</ele><time>2026-04-06T13:28:57.508Z</time></trkpt><trkpt lat="44.7342167" lon="9.9260317"><ele>410.0</ele><time>2026-04-06T13:28:58.508Z</time></trkpt><trkpt lat="44.7341467" lon="9.9261183"><ele>410.6666666666667</ele><time>2026-04-06T13:28:59.508Z</time></trkpt><trkpt lat="44.7340817" lon="9.9262117"><ele>411.33333333333337</ele><time>2026-04-06T13:29:00.509Z</time></trkpt><trkpt lat="44.7340267" lon="9.9263033"><ele>412.0</ele><time>2026-04-06T13:29:01.509Z</time></trkpt><trkpt lat="44.7339833" lon="9.9263933"><ele>412.00000000000006</ele><time>2026-04-06T13:29:02.508Z</time></trkpt><trkpt lat="44.7339317" lon="9.9264667"><ele>412.0</ele><time>2026-04-06T13:29:03.508Z</time></trkpt><trkpt lat="44.7338717" lon="9.92653"><ele>412.0</ele><time>2026-04-06T13:29:04.508Z</time></trkpt><trkpt lat="44.7338233" lon="9.9265917"><ele>412.0</ele><time>2026-04-06T13:29:05.509Z</time></trkpt><trkpt lat="44.73374" lon="9.92664"><ele>412.00000000000006</ele><time>2026-04-06T13:29:06.508Z</time></trkpt><trkpt lat="44.7336583" lon="9.926695"><ele>412.0</ele><time>2026-04-06T13:29:07.508Z</time></trkpt><trkpt lat="44.7336" lon="9.9267433"><ele>413.0</ele><time>2026-04-06T13:29:08.508Z</time></trkpt><trkpt lat="44.7335417" lon="9.9268117"><ele>414.0</ele><time>2026-04-06T13:29:09.508Z</time></trkpt><trkpt lat="44.73344" lon="9.9269283"><ele>415.0</ele><time>2026-04-06T13:29:11.509Z</time></trkpt><trkpt lat="44.733385" lon="9.926985"><ele>416.0</ele><time>2026-04-06T13:29:12.509Z</time></trkpt><trkpt lat="44.73329" lon="9.9270383"><ele>417.0</ele><time>2026-04-06T13:29:14.508Z</time></trkpt><trkpt lat="44.733205" lon="9.9270667"><ele>417.0</ele><time>2026-04-06T13:29:16.508Z</time></trkpt><trkpt lat="44.7330883" lon="9.9271183"><ele>417.0</ele><time>2026-04-06T13:29:18.509Z</time></trkpt><trkpt lat="44.7330183" lon="9.9271483"><ele>417.0</ele><time>2026-04-06T13:29:20.509Z</time></trkpt><trkpt lat="44.7329367" lon="9.9272117"><ele>417.0</ele><time>2026-04-06T13:29:22.508Z</time></trkpt><trkpt lat="44.7328583" lon="9.9272683"><ele>417.0</ele><time>2026-04-06T13:29:24.508Z</time></trkpt><trkpt lat="44.7327483" lon="9.9273767"><ele>417.42857142857144</ele><time>2026-04-06T13:29:26.509Z</time></trkpt><trkpt lat="44.7326983" lon="9.9274317"><ele>417.85714285714283</ele><time>2026-04-06T13:29:27.509Z</time></trkpt><trkpt lat="44.7326417" lon="9.9274967"><ele>418.2857142857143</ele><time>2026-04-06T13:29:28.508Z</time></trkpt><trkpt lat="44.7325767" lon="9.9275767"><ele>418.7142857142857</ele><time>2026-04-06T13:29:29.508Z</time></trkpt><trkpt lat="44.7325167" lon="9.92762"><ele>419.1428571428571</ele><time>2026-04-06T13:29:30.509Z</time></trkpt><trkpt lat="44.73245" lon="9.9276683"><ele>419.57142857142856</ele><time>2026-04-06T13:29:31.508Z</time></trkpt><trkpt lat="44.7323933" lon="9.92771"><ele>420.0</ele><time>2026-04-06T13:29:32.508Z</time></trkpt><trkpt lat="44.7323133" lon="9.9277767"><ele>420.0</ele><time>2026-04-06T13:29:33.508Z</time></trkpt><trkpt lat="44.73223" lon="9.927845"><ele>420.0</ele><time>2026-04-06T13:29:34.508Z</time></trkpt><trkpt lat="44.732105" lon="9.9279483"><ele>420.0</ele><time>2026-04-06T13:29:35.508Z</time></trkpt><trkpt lat="44.732035" lon="9.9280033"><ele>420.0</ele><time>2026-04-06T13:29:36.508Z</time></trkpt><trkpt lat="44.7319733" lon="9.9280517"><ele>420.0</ele><time>2026-04-06T13:29:37.508Z</time></trkpt><trkpt lat="44.731855" lon="9.92811"><ele>420.4</ele><time>2026-04-06T13:29:39.508Z</time></trkpt><trkpt lat="44.73177" lon="9.9281733"><ele>420.8</ele><time>2026-04-06T13:29:41.508Z</time></trkpt><trkpt lat="44.7316867" lon="9.9282633"><ele>421.20000000000005</ele><time>2026-04-06T13:29:43.508Z</time></trkpt><trkpt lat="44.731605" lon="9.9283917"><ele>421.6</ele><time>2026-04-06T13:29:44.508Z</time></trkpt><trkpt lat="44.7315433" lon="9.9284983"><ele>422.0</ele><time>2026-04-06T13:29:45.508Z</time></trkpt><trkpt lat="44.7314683" lon="9.9285983"><ele>422.0</ele><time>2026-04-06T13:29:46.508Z</time></trkpt><trkpt lat="44.7313883" lon="9.928735"><ele>422.0</ele><time>2026-04-06T13:29:47.508Z</time></trkpt><trkpt lat="44.7313183" lon="9.9288817"><ele>422.0</ele><time>2026-04-06T13:29:48.509Z</time></trkpt><trkpt lat="44.7312417" lon="9.9290367"><ele>422.0</ele><time>2026-04-06T13:29:49.508Z</time></trkpt><trkpt lat="44.7311667" lon="9.9292067"><ele>423.0</ele><time>2026-04-06T13:29:50.508Z</time></trkpt><trkpt lat="44.73108" lon="9.929385"><ele>424.0</ele><time>2026-04-06T13:29:51.508Z</time></trkpt><trkpt lat="44.731" lon="9.9295633"><ele>425.0</ele><time>2026-04-06T13:29:52.508Z</time></trkpt><trkpt lat="44.7309117" lon="9.9297683"><ele>425.0</ele><time>2026-04-06T13:29:53.509Z</time></trkpt><trkpt lat="44.73082" lon="9.9299633"><ele>425.0</ele><time>2026-04-06T13:29:54.509Z</time></trkpt><trkpt lat="44.7307317" lon="9.930155"><ele>425.0</ele><time>2026-04-06T13:29:55.508Z</time></trkpt><trkpt lat="44.7306433" lon="9.9303517"><ele>426.0</ele><time>2026-04-06T13:29:56.508Z</time></trkpt><trkpt lat="44.730555" lon="9.9305483"><ele>427.0</ele><time>2026-04-06T13:29:57.508Z</time></trkpt><trkpt lat="44.730475" lon="9.93074"><ele>428.0</ele><time>2026-04-06T13:29:58.508Z</time></trkpt><trkpt lat="44.7304033" lon="9.9309517"><ele>428.25</ele><time>2026-04-06T13:29:59.508Z</time></trkpt><trkpt lat="44.7303467" lon="9.9311383"><ele>428.5</ele><time>2026-04-06T13:30:00.508Z</time></trkpt><trkpt lat="44.73029" lon="9.9312967"><ele>428.75</ele><time>2026-04-06T13:30:01.509Z</time></trkpt><trkpt lat="44.7302367" lon="9.931435"><ele>429.0</ele><time>2026-04-06T13:30:02.508Z</time></trkpt><trkpt lat="44.73018" lon="9.9315667"><ele>429.0</ele><time>2026-04-06T13:30:03.509Z</time></trkpt><trkpt lat="44.7301017" lon="9.9316967"><ele>429.0</ele><time>2026-04-06T13:30:04.509Z</time></trkpt><trkpt lat="44.7300083" lon="9.9318483"><ele>429.0</ele><time>2026-04-06T13:30:05.508Z</time></trkpt><trkpt lat="44.72991" lon="9.9320317"><ele>429.0</ele><time>2026-04-06T13:30:06.508Z</time></trkpt><trkpt lat="44.729815" lon="9.9322233"><ele>430.33333333333337</ele><time>2026-04-06T13:30:07.508Z</time></trkpt><trkpt lat="44.7297167" lon="9.932415"><ele>431.6666666666667</ele><time>2026-04-06T13:30:08.508Z</time></trkpt><trkpt lat="44.7296033" lon="9.93262"><ele>433.0</ele><time>2026-04-06T13:30:09.508Z</time></trkpt><trkpt lat="44.7294867" lon="9.932815"><ele>433.0</ele><time>2026-04-06T13:30:10.508Z</time></trkpt><trkpt lat="44.729375" lon="9.9330317"><ele>433.0</ele><time>2026-04-06T13:30:11.509Z</time></trkpt><trkpt lat="44.7292583" lon="9.9332417"><ele>433.0</ele><time>2026-04-06T13:30:12.508Z</time></trkpt><trkpt lat="44.7291483" lon="9.9334417"><ele>433.0</ele><time>2026-04-06T13:30:13.508Z</time></trkpt><trkpt lat="44.7290417" lon="9.9336317"><ele>433.0</ele><time>2026-04-06T13:30:14.508Z</time></trkpt><trkpt lat="44.7289417" lon="9.9338283"><ele>433.0</ele><time>2026-04-06T13:30:15.508Z</time></trkpt><trkpt lat="44.7288367" lon="9.934025"><ele>432.6666666666667</ele><time>2026-04-06T13:30:16.508Z</time></trkpt><trkpt lat="44.7287267" lon="9.9342233"><ele>432.33333333333337</ele><time>2026-04-06T13:30:17.509Z</time></trkpt><trkpt lat="44.7286217" lon="9.9344267"><ele>432.0</ele><time>2026-04-06T13:30:18.508Z</time></trkpt><trkpt lat="44.728515" lon="9.9346333"><ele>432.0</ele><time>2026-04-06T13:30:19.509Z</time></trkpt><trkpt lat="44.7284217" lon="9.9348183"><ele>432.0</ele><time>2026-04-06T13:30:20.508Z</time></trkpt><trkpt lat="44.7283233" lon="9.935"><ele>432.0</ele><time>2026-04-06T13:30:21.508Z</time></trkpt><trkpt lat="44.7282133" lon="9.9351383"><ele>436.33333333333337</ele><time>2026-04-06T13:30:22.509Z</time></trkpt><trkpt lat="44.728095" lon="9.9352367"><ele>440.6666666666667</ele><time>2026-04-06T13:30:23.508Z</time></trkpt><trkpt lat="44.72793" lon="9.9353383"><ele>445.0</ele><time>2026-04-06T13:30:24.508Z</time></trkpt><trkpt lat="44.7277833" lon="9.9353917"><ele>441.5</ele><time>2026-04-06T13:30:25.508Z</time></trkpt><trkpt lat="44.7276517" lon="9.9354333"><ele>438.0</ele><time>2026-04-06T13:30:26.508Z</time></trkpt><trkpt lat="44.727515" lon="9.93548"><ele>434.5</ele><time>2026-04-06T13:30:27.509Z</time></trkpt><trkpt lat="44.7273883" lon="9.93549"><ele>431.0</ele><time>2026-04-06T13:30:28.508Z</time></trkpt><trkpt lat="44.7272517" lon="9.93549"><ele>431.0</ele><time>2026-04-06T13:30:29.509Z</time></trkpt><trkpt lat="44.7271217" lon="9.93552"><ele>431.0</ele><time>2026-04-06T13:30:30.508Z</time></trkpt><trkpt lat="44.7269767" lon="9.935565"><ele>431.0</ele><time>2026-04-06T13:30:31.508Z</time></trkpt><trkpt lat="44.7268317" lon="9.9356083"><ele>431.0</ele><time>2026-04-06T13:30:32.508Z</time></trkpt><trkpt lat="44.7266867" lon="9.9356467"><ele>431.25</ele><time>2026-04-06T13:30:33.509Z</time></trkpt><trkpt lat="44.7265467" lon="9.9356883"><ele>431.5</ele><time>2026-04-06T13:30:34.508Z</time></trkpt><trkpt lat="44.7264083" lon="9.9357383"><ele>431.75</ele><time>2026-04-06T13:30:35.508Z</time></trkpt><trkpt lat="44.7262667" lon="9.9357867"><ele>432.0</ele><time>2026-04-06T13:30:36.509Z</time></trkpt><trkpt lat="44.7261367" lon="9.9358367"><ele>432.0</ele><time>2026-04-06T13:30:37.509Z</time></trkpt><trkpt lat="44.7259917" lon="9.935885"><ele>432.0</ele><time>2026-04-06T13:30:38.509Z</time></trkpt><trkpt lat="44.72584" lon="9.9359367"><ele>432.0</ele><time>2026-04-06T13:30:39.508Z</time></trkpt><trkpt lat="44.7256833" lon="9.935995"><ele>432.0</ele><time>2026-04-06T13:30:40.508Z</time></trkpt><trkpt lat="44.725505" lon="9.9360667"><ele>432.0</ele><time>2026-04-06T13:30:41.509Z</time></trkpt><trkpt lat="44.7253283" lon="9.9361617"><ele>432.0</ele><time>2026-04-06T13:30:42.508Z</time></trkpt><trkpt lat="44.7251483" lon="9.9362667"><ele>433.33333333333337</ele><time>2026-04-06T13:30:43.508Z</time></trkpt><trkpt lat="44.7249633" lon="9.9364067"><ele>434.6666666666667</ele><time>2026-04-06T13:30:44.509Z</time></trkpt><trkpt lat="44.72477" lon="9.9365683"><ele>436.0</ele><time>2026-04-06T13:30:45.508Z</time></trkpt><trkpt lat="44.7246133" lon="9.9366667"><ele>436.33333333333337</ele><time>2026-04-06T13:30:46.509Z</time></trkpt><trkpt lat="44.7244567" lon="9.9367583"><ele>436.66666666666663</ele><time>2026-04-06T13:30:47.509Z</time></trkpt><trkpt lat="44.7243117" lon="9.9368367"><ele>437.0</ele><time>2026-04-06T13:30:48.508Z</time></trkpt><trkpt lat="44.724155" lon="9.9369217"><ele>438.66666666666663</ele><time>2026-04-06T13:30:49.508Z</time></trkpt><trkpt lat="44.7239883" lon="9.9369833"><ele>440.33333333333337</ele><time>2026-04-06T13:30:50.508Z</time></trkpt><trkpt lat="44.7238133" lon="9.9370067"><ele>442.0</ele><time>2026-04-06T13:30:51.508Z</time></trkpt><trkpt lat="44.7236367" lon="9.9370433"><ele>444.33333333333337</ele><time>2026-04-06T13:30:52.509Z</time></trkpt><trkpt lat="44.7234533" lon="9.93708"><ele>446.66666666666663</ele><time>2026-04-06T13:30:53.509Z</time></trkpt><trkpt lat="44.7232633" lon="9.9371083"><ele>449.0</ele><time>2026-04-06T13:30:54.508Z</time></trkpt><trkpt lat="44.723075" lon="9.9371383"><ele>449.0</ele><time>2026-04-06T13:30:55.508Z</time></trkpt><trkpt lat="44.7228733" lon="9.9371733"><ele>449.0</ele><time>2026-04-06T13:30:56.509Z</time></trkpt><trkpt lat="44.7227017" lon="9.937195"><ele>449.0</ele><time>2026-04-06T13:30:57.509Z</time></trkpt><trkpt lat="44.722535" lon="9.9372233"><ele>449.0</ele><time>2026-04-06T13:30:58.508Z</time></trkpt><trkpt lat="44.7223967" lon="9.93724"><ele>449.0</ele><time>2026-04-06T13:30:59.509Z</time></trkpt><trkpt lat="44.7222733" lon="9.93725"><ele>449.0</ele><time>2026-04-06T13:31:00.508Z</time></trkpt><trkpt lat="44.722165" lon="9.9372683"><ele>449.0</ele><time>2026-04-06T13:31:01.509Z</time></trkpt><trkpt lat="44.7220733" lon="9.937315"><ele>449.0</ele><time>2026-04-06T13:31:02.509Z</time></trkpt><trkpt lat="44.7219967" lon="9.937395"><ele>449.0</ele><time>2026-04-06T13:31:03.509Z</time></trkpt><trkpt lat="44.7219383" lon="9.9374833"><ele>449.0</ele><time>2026-04-06T13:31:04.508Z</time></trkpt><trkpt lat="44.7219617" lon="9.9376017"><ele>449.0</ele><time>2026-04-06T13:31:05.509Z</time></trkpt><trkpt lat="44.72204" lon="9.9377383"><ele>449.0</ele><time>2026-04-06T13:31:06.508Z</time></trkpt><trkpt lat="44.7220933" lon="9.9378567"><ele>452.0</ele><time>2026-04-06T13:31:07.508Z</time></trkpt><trkpt lat="44.72215" lon="9.9379617"><ele>455.0</ele><time>2026-04-06T13:31:08.508Z</time></trkpt><trkpt lat="44.7223083" lon="9.938145"><ele>458.0</ele><time>2026-04-06T13:31:09.508Z</time></trkpt><trkpt lat="44.7224633" lon="9.93837"><ele>458.0</ele><time>2026-04-06T13:31:10.509Z</time></trkpt><trkpt lat="44.7226017" lon="9.938585"><ele>458.0</ele><time>2026-04-06T13:31:11.508Z</time></trkpt><trkpt lat="44.72274" lon="9.9387917"><ele>458.0</ele><time>2026-04-06T13:31:12.508Z</time></trkpt><trkpt lat="44.7228583" lon="9.9389733"><ele>458.0</ele><time>2026-04-06T13:31:13.508Z</time></trkpt><trkpt lat="44.7229833" lon="9.93914"><ele>458.0</ele><time>2026-04-06T13:31:14.508Z</time></trkpt><trkpt lat="44.72311" lon="9.939285"><ele>458.0</ele><time>2026-04-06T13:31:15.509Z</time></trkpt><trkpt lat="44.7232217" lon="9.939435"><ele>457.0</ele><time>2026-04-06T13:31:16.508Z</time></trkpt><trkpt lat="44.72332" lon="9.9395683"><ele>456.0</ele><time>2026-04-06T13:31:17.509Z</time></trkpt><trkpt lat="44.7234133" lon="9.9397083"><ele>455.0</ele><time>2026-04-06T13:31:18.508Z</time></trkpt><trkpt lat="44.723495" lon="9.9398417"><ele>454.0</ele><time>2026-04-06T13:31:19.509Z</time></trkpt><trkpt lat="44.7235717" lon="9.9399783"><ele>453.75</ele><time>2026-04-06T13:31:20.509Z</time></trkpt><trkpt lat="44.7236133" lon="9.94012"><ele>453.5</ele><time>2026-04-06T13:31:21.508Z</time></trkpt><trkpt lat="44.7235617" lon="9.94029"><ele>453.25</ele><time>2026-04-06T13:31:22.508Z</time></trkpt><trkpt lat="44.72349" lon="9.940455"><ele>453.0</ele><time>2026-04-06T13:31:23.509Z</time></trkpt><trkpt lat="44.7233583" lon="9.9406017"><ele>457.66666666666663</ele><time>2026-04-06T13:31:24.509Z</time></trkpt><trkpt lat="44.7232033" lon="9.9407633"><ele>462.3333333333333</ele><time>2026-04-06T13:31:25.508Z</time></trkpt><trkpt lat="44.723085" lon="9.9409233"><ele>467.0</ele><time>2026-04-06T13:31:26.509Z</time></trkpt><trkpt lat="44.722965" lon="9.9411033"><ele>467.0</ele><time>2026-04-06T13:31:27.509Z</time></trkpt><trkpt lat="44.7228433" lon="9.9413017"><ele>467.0</ele><time>2026-04-06T13:31:28.509Z</time></trkpt><trkpt lat="44.72275" lon="9.94152"><ele>467.0</ele><time>2026-04-06T13:31:29.508Z</time></trkpt><trkpt lat="44.7226733" lon="9.9417867"><ele>476.0</ele><time>2026-04-06T13:31:30.509Z</time></trkpt><trkpt lat="44.722595" lon="9.9420317"><ele>485.0</ele><time>2026-04-06T13:31:31.509Z</time></trkpt><trkpt lat="44.7225117" lon="9.9422833"><ele>494.0</ele><time>2026-04-06T13:31:32.509Z</time></trkpt><trkpt lat="44.7224217" lon="9.94254"><ele>493.0</ele><time>2026-04-06T13:31:33.508Z</time></trkpt><trkpt lat="44.7223817" lon="9.9428167"><ele>492.0</ele><time>2026-04-06T13:31:34.508Z</time></trkpt><trkpt lat="44.7223633" lon="9.943095"><ele>491.0</ele><time>2026-04-06T13:31:35.508Z</time></trkpt><trkpt lat="44.72233" lon="9.9433633"><ele>490.66666666666663</ele><time>2026-04-06T13:31:36.509Z</time></trkpt><trkpt lat="44.72235" lon="9.9436267"><ele>490.33333333333337</ele><time>2026-04-06T13:31:37.508Z</time></trkpt><trkpt lat="44.722335" lon="9.9438883"><ele>490.0</ele><time>2026-04-06T13:31:38.508Z</time></trkpt><trkpt lat="44.7223067" lon="9.944145"><ele>491.33333333333337</ele><time>2026-04-06T13:31:39.508Z</time></trkpt><trkpt lat="44.7222917" lon="9.9443917"><ele>492.66666666666663</ele><time>2026-04-06T13:31:40.509Z</time></trkpt><trkpt lat="44.7222533" lon="9.9445983"><ele>494.0</ele><time>2026-04-06T13:31:41.508Z</time></trkpt><trkpt lat="44.7221817" lon="9.9447983"><ele>494.0</ele><time>2026-04-06T13:31:42.509Z</time></trkpt><trkpt lat="44.7220967" lon="9.9449567"><ele>494.0</ele><time>2026-04-06T13:31:43.508Z</time></trkpt><trkpt lat="44.721965" lon="9.9450883"><ele>494.0</ele><time>2026-04-06T13:31:44.509Z</time></trkpt><trkpt lat="44.7218117" lon="9.9451833"><ele>494.0</ele><time>2026-04-06T13:31:45.508Z</time></trkpt><trkpt lat="44.7216483" lon="9.945295"><ele>494.0</ele><time>2026-04-06T13:31:46.508Z</time></trkpt><trkpt lat="44.72153" lon="9.9454083"><ele>494.0</ele><time>2026-04-06T13:31:47.507Z</time></trkpt><trkpt lat="44.7214333" lon="9.945535"><ele>494.0</ele><time>2026-04-06T13:31:48.507Z</time></trkpt><trkpt lat="44.72136" lon="9.9456783"><ele>494.0</ele><time>2026-04-06T13:31:49.507Z</time></trkpt><trkpt lat="44.7213183" lon="9.945865"><ele>494.0</ele><time>2026-04-06T13:31:50.507Z</time></trkpt><trkpt lat="44.7213433" lon="9.94605"><ele>494.0</ele><time>2026-04-06T13:31:51.508Z</time></trkpt><trkpt lat="44.7213767" lon="9.9462517"><ele>494.0</ele><time>2026-04-06T13:31:52.508Z</time></trkpt><trkpt lat="44.7214167" lon="9.9464367"><ele>494.0</ele><time>2026-04-06T13:31:53.507Z</time></trkpt><trkpt lat="44.7214867" lon="9.9466217"><ele>494.0</ele><time>2026-04-06T13:31:54.507Z</time></trkpt><trkpt lat="44.72156" lon="9.9467833"><ele>494.0</ele><time>2026-04-06T13:31:55.508Z</time></trkpt><trkpt lat="44.7216217" lon="9.9469367"><ele>492.0</ele><time>2026-04-06T13:31:56.507Z</time></trkpt><trkpt lat="44.7216667" lon="9.94712"><ele>490.0</ele><time>2026-04-06T13:31:57.507Z</time></trkpt><trkpt lat="44.721695" lon="9.947335"><ele>488.0</ele><time>2026-04-06T13:31:58.507Z</time></trkpt><trkpt lat="44.7217033" lon="9.9475667"><ele>487.66666666666663</ele><time>2026-04-06T13:31:59.508Z</time></trkpt><trkpt lat="44.72171" lon="9.94781"><ele>487.33333333333337</ele><time>2026-04-06T13:32:00.507Z</time></trkpt><trkpt lat="44.7217167" lon="9.9480467"><ele>487.0</ele><time>2026-04-06T13:32:01.507Z</time></trkpt><trkpt lat="44.721745" lon="9.9482383"><ele>485.75</ele><time>2026-04-06T13:32:02.507Z</time></trkpt><trkpt lat="44.7217933" lon="9.9484267"><ele>484.5</ele><time>2026-04-06T13:32:03.507Z</time></trkpt><trkpt lat="44.7218583" lon="9.9485933"><ele>483.25</ele><time>2026-04-06T13:32:04.507Z</time></trkpt><trkpt lat="44.721955" lon="9.94876"><ele>482.0</ele><time>2026-04-06T13:32:05.507Z</time></trkpt><trkpt lat="44.72204" lon="9.94892"><ele>487.5</ele><time>2026-04-06T13:32:06.507Z</time></trkpt><trkpt lat="44.7221033" lon="9.9490767"><ele>493.0</ele><time>2026-04-06T13:32:07.508Z</time></trkpt><trkpt lat="44.7221533" lon="9.9492383"><ele>498.5</ele><time>2026-04-06T13:32:08.507Z</time></trkpt><trkpt lat="44.7221667" lon="9.949405"><ele>504.0</ele><time>2026-04-06T13:32:09.507Z</time></trkpt><trkpt lat="44.7221283" lon="9.94959"><ele>504.0</ele><time>2026-04-06T13:32:10.507Z</time></trkpt><trkpt lat="44.722075" lon="9.9497933"><ele>504.0</ele><time>2026-04-06T13:32:11.508Z</time></trkpt><trkpt lat="44.7220017" lon="9.9500167"><ele>504.0</ele><time>2026-04-06T13:32:12.507Z</time></trkpt><trkpt lat="44.721905" lon="9.9502433"><ele>500.33333333333337</ele><time>2026-04-06T13:32:13.507Z</time></trkpt><trkpt lat="44.7218" lon="9.9504583"><ele>496.6666666666667</ele><time>2026-04-06T13:32:14.507Z</time></trkpt><trkpt lat="44.7217067" lon="9.9506517"><ele>493.0</ele><time>2026-04-06T13:32:15.507Z</time></trkpt><trkpt lat="44.7216283" lon="9.9508383"><ele>493.33333333333337</ele><time>2026-04-06T13:32:16.507Z</time></trkpt><trkpt lat="44.7215617" lon="9.9510233"><ele>493.66666666666663</ele><time>2026-04-06T13:32:17.507Z</time></trkpt><trkpt lat="44.721525" lon="9.951225"><ele>494.0</ele><time>2026-04-06T13:32:18.508Z</time></trkpt><trkpt lat="44.7215483" lon="9.95146"><ele>494.0</ele><time>2026-04-06T13:32:19.508Z</time></trkpt><trkpt lat="44.721575" lon="9.9517033"><ele>494.0</ele><time>2026-04-06T13:32:20.507Z</time></trkpt><trkpt lat="44.7216283" lon="9.951935"><ele>494.0</ele><time>2026-04-06T13:32:21.507Z</time></trkpt><trkpt lat="44.721705" lon="9.9521533"><ele>491.0</ele><time>2026-04-06T13:32:22.508Z</time></trkpt><trkpt lat="44.7217933" lon="9.9523483"><ele>488.0</ele><time>2026-04-06T13:32:23.508Z</time></trkpt><trkpt lat="44.7218983" lon="9.9525017"><ele>485.0</ele><time>2026-04-06T13:32:24.508Z</time></trkpt><trkpt lat="44.7220133" lon="9.9526267"><ele>483.5</ele><time>2026-04-06T13:32:25.507Z</time></trkpt><trkpt lat="44.722125" lon="9.952725"><ele>482.0</ele><time>2026-04-06T13:32:26.507Z</time></trkpt><trkpt lat="44.7222417" lon="9.9527533"><ele>480.5</ele><time>2026-04-06T13:32:27.508Z</time></trkpt><trkpt lat="44.7223733" lon="9.9527633"><ele>479.0</ele><time>2026-04-06T13:32:28.507Z</time></trkpt><trkpt lat="44.7225167" lon="9.9527683"><ele>479.0</ele><time>2026-04-06T13:32:29.507Z</time></trkpt><trkpt lat="44.722655" lon="9.9528083"><ele>479.0</ele><time>2026-04-06T13:32:30.507Z</time></trkpt><trkpt lat="44.7228167" lon="9.952885"><ele>479.0</ele><time>2026-04-06T13:32:31.508Z</time></trkpt><trkpt lat="44.7229583" lon="9.952995"><ele>479.66666666666663</ele><time>2026-04-06T13:32:32.508Z</time></trkpt><trkpt lat="44.7230717" lon="9.953165"><ele>480.33333333333337</ele><time>2026-04-06T13:32:33.508Z</time></trkpt><trkpt lat="44.7231767" lon="9.953335"><ele>481.0</ele><time>2026-04-06T13:32:34.508Z</time></trkpt><trkpt lat="44.7232767" lon="9.9535167"><ele>481.0</ele><time>2026-04-06T13:32:35.507Z</time></trkpt><trkpt lat="44.7233717" lon="9.9536833"><ele>481.0</ele><time>2026-04-06T13:32:36.508Z</time></trkpt><trkpt lat="44.7235033" lon="9.9537817"><ele>481.0</ele><time>2026-04-06T13:32:37.507Z</time></trkpt><trkpt lat="44.723655" lon="9.95385"><ele>486.33333333333337</ele><time>2026-04-06T13:32:38.508Z</time></trkpt><trkpt lat="44.723815" lon="9.9539033"><ele>491.66666666666663</ele><time>2026-04-06T13:32:39.508Z</time></trkpt><trkpt lat="44.7240067" lon="9.95397"><ele>497.0</ele><time>2026-04-06T13:32:40.508Z</time></trkpt><trkpt lat="44.7241633" lon="9.95405"><ele>497.0</ele><time>2026-04-06T13:32:41.508Z</time></trkpt><trkpt lat="44.7243183" lon="9.95412"><ele>497.0</ele><time>2026-04-06T13:32:42.507Z</time></trkpt><trkpt lat="44.7244767" lon="9.954155"><ele>497.0</ele><time>2026-04-06T13:32:43.507Z</time></trkpt><trkpt lat="44.7246417" lon="9.9541583"><ele>495.66666666666663</ele><time>2026-04-06T13:32:44.508Z</time></trkpt><trkpt lat="44.72483" lon="9.9541117"><ele>494.33333333333337</ele><time>2026-04-06T13:32:45.507Z</time></trkpt><trkpt lat="44.72501" lon="9.9540483"><ele>493.0</ele><time>2026-04-06T13:32:46.507Z</time></trkpt><trkpt lat="44.7251833" lon="9.9539667"><ele>493.0</ele><time>2026-04-06T13:32:47.507Z</time></trkpt><trkpt lat="44.7253567" lon="9.9538733"><ele>493.0</ele><time>2026-04-06T13:32:48.507Z</time></trkpt><trkpt lat="44.72553" lon="9.9537783"><ele>493.0</ele><time>2026-04-06T13:32:49.507Z</time></trkpt><trkpt lat="44.7256917" lon="9.9536733"><ele>493.0</ele><time>2026-04-06T13:32:50.508Z</time></trkpt><trkpt lat="44.72583" lon="9.9535533"><ele>493.0</ele><time>2026-04-06T13:32:51.508Z</time></trkpt><trkpt lat="44.725955" lon="9.9534767"><ele>493.0</ele><time>2026-04-06T13:32:52.507Z</time></trkpt><trkpt lat="44.72609" lon="9.953415"><ele>493.0</ele><time>2026-04-06T13:32:53.507Z</time></trkpt><trkpt lat="44.7262533" lon="9.9533683"><ele>495.75</ele><time>2026-04-06T13:32:54.507Z</time></trkpt><trkpt lat="44.726385" lon="9.953385"><ele>498.5</ele><time>2026-04-06T13:32:55.507Z</time></trkpt><trkpt lat="44.726535" lon="9.9534183"><ele>501.25</ele><time>2026-04-06T13:32:56.508Z</time></trkpt><trkpt lat="44.7266833" lon="9.9534867"><ele>504.0</ele><time>2026-04-06T13:32:57.508Z</time></trkpt><trkpt lat="44.72681" lon="9.9536083"><ele>508.0</ele><time>2026-04-06T13:32:58.507Z</time></trkpt><trkpt lat="44.7269133" lon="9.95376"><ele>512.0</ele><time>2026-04-06T13:32:59.508Z</time></trkpt><trkpt lat="44.72699" lon="9.9539433"><ele>516.0</ele><time>2026-04-06T13:33:00.508Z</time></trkpt><trkpt lat="44.727025" lon="9.9542217"><ele>516.0</ele><time>2026-04-06T13:33:01.507Z</time></trkpt><trkpt lat="44.727055" lon="9.9544817"><ele>516.0</ele><time>2026-04-06T13:33:02.507Z</time></trkpt><trkpt lat="44.7270517" lon="9.9547317"><ele>516.0</ele><time>2026-04-06T13:33:03.507Z</time></trkpt><trkpt lat="44.7270033" lon="9.954935"><ele>514.0</ele><time>2026-04-06T13:33:04.507Z</time></trkpt><trkpt lat="44.7269317" lon="9.9551017"><ele>512.0</ele><time>2026-04-06T13:33:05.507Z</time></trkpt><trkpt lat="44.726805" lon="9.9552183"><ele>510.0</ele><time>2026-04-06T13:33:06.507Z</time></trkpt><trkpt lat="44.7266567" lon="9.9553133"><ele>510.0</ele><time>2026-04-06T13:33:07.507Z</time></trkpt><trkpt lat="44.7265433" lon="9.9554517"><ele>510.0</ele><time>2026-04-06T13:33:08.507Z</time></trkpt><trkpt lat="44.7264383" lon="9.9556117"><ele>510.0</ele><time>2026-04-06T13:33:09.507Z</time></trkpt><trkpt lat="44.7263533" lon="9.95577"><ele>510.0</ele><time>2026-04-06T13:33:10.508Z</time></trkpt><trkpt lat="44.72631" lon="9.9559383"><ele>510.25</ele><time>2026-04-06T13:33:11.508Z</time></trkpt><trkpt lat="44.72631" lon="9.95613"><ele>510.5</ele><time>2026-04-06T13:33:12.507Z</time></trkpt><trkpt lat="44.7263233" lon="9.956315"><ele>510.75</ele><time>2026-04-06T13:33:13.507Z</time></trkpt><trkpt lat="44.7263633" lon="9.9564783"><ele>511.0</ele><time>2026-04-06T13:33:14.507Z</time></trkpt><trkpt lat="44.7263917" lon="9.9566483"><ele>512.2</ele><time>2026-04-06T13:33:15.507Z</time></trkpt><trkpt lat="44.7263933" lon="9.9568"><ele>513.4000000000001</ele><time>2026-04-06T13:33:16.507Z</time></trkpt><trkpt lat="44.7263717" lon="9.95693"><ele>514.6</ele><time>2026-04-06T13:33:17.508Z</time></trkpt><trkpt lat="44.72635" lon="9.957055"><ele>515.8000000000001</ele><time>2026-04-06T13:33:18.507Z</time></trkpt><trkpt lat="44.726325" lon="9.957175"><ele>517.0</ele><time>2026-04-06T13:33:19.507Z</time></trkpt><trkpt lat="44.7262717" lon="9.9572833"><ele>517.0</ele><time>2026-04-06T13:33:20.508Z</time></trkpt><trkpt lat="44.726215" lon="9.9573867"><ele>517.0</ele><time>2026-04-06T13:33:21.507Z</time></trkpt><trkpt lat="44.7260667" lon="9.9574933"><ele>517.0</ele><time>2026-04-06T13:33:22.508Z</time></trkpt><trkpt lat="44.72585" lon="9.9575683"><ele>514.25</ele><time>2026-04-06T13:33:23.508Z</time></trkpt><trkpt lat="44.7257" lon="9.9576183"><ele>511.5</ele><time>2026-04-06T13:33:24.508Z</time></trkpt><trkpt lat="44.72558" lon="9.9577083"><ele>508.75</ele><time>2026-04-06T13:33:25.507Z</time></trkpt><trkpt lat="44.72551" lon="9.9578233"><ele>506.0</ele><time>2026-04-06T13:33:26.507Z</time></trkpt><trkpt lat="44.72548" lon="9.957965"><ele>506.0</ele><time>2026-04-06T13:33:27.507Z</time></trkpt><trkpt lat="44.725505" lon="9.95814"><ele>506.0</ele><time>2026-04-06T13:33:28.507Z</time></trkpt><trkpt lat="44.7255617" lon="9.9583067"><ele>506.0</ele><time>2026-04-06T13:33:29.507Z</time></trkpt><trkpt lat="44.7256783" lon="9.9585117"><ele>506.0</ele><time>2026-04-06T13:33:30.507Z</time></trkpt><trkpt lat="44.725835" lon="9.9587567"><ele>502.5</ele><time>2026-04-06T13:33:31.507Z</time></trkpt><trkpt lat="44.7259967" lon="9.959005"><ele>499.0</ele><time>2026-04-06T13:33:32.507Z</time></trkpt><trkpt lat="44.72615" lon="9.95925"><ele>504.6666666666667</ele><time>2026-04-06T13:33:33.507Z</time></trkpt><trkpt lat="44.7262667" lon="9.95949"><ele>510.33333333333337</ele><time>2026-04-06T13:33:34.507Z</time></trkpt><trkpt lat="44.72637" lon="9.959745"><ele>516.0</ele><time>2026-04-06T13:33:35.507Z</time></trkpt><trkpt lat="44.7264383" lon="9.95999"><ele>516.3333333333334</ele><time>2026-04-06T13:33:36.508Z</time></trkpt><trkpt lat="44.72648" lon="9.9602467"><ele>516.6666666666667</ele><time>2026-04-06T13:33:37.507Z</time></trkpt><trkpt lat="44.7264833" lon="9.9605117"><ele>517.0</ele><time>2026-04-06T13:33:38.507Z</time></trkpt><trkpt lat="44.7264683" lon="9.9607867"><ele>515.6666666666667</ele><time>2026-04-06T13:33:39.507Z</time></trkpt><trkpt lat="44.726465" lon="9.9610283"><ele>514.3333333333334</ele><time>2026-04-06T13:33:40.508Z</time></trkpt><trkpt lat="44.7264683" lon="9.9612567"><ele>513.0</ele><time>2026-04-06T13:33:41.508Z</time></trkpt><trkpt lat="44.726505" lon="9.9614733"><ele>513.0</ele><time>2026-04-06T13:33:42.507Z</time></trkpt><trkpt lat="44.7265817" lon="9.9616783"><ele>513.0</ele><time>2026-04-06T13:33:43.508Z</time></trkpt><trkpt lat="44.726685" lon="9.9618517"><ele>513.0</ele><time>2026-04-06T13:33:44.507Z</time></trkpt><trkpt lat="44.72678" lon="9.9620317"><ele>512.5</ele><time>2026-04-06T13:33:45.508Z</time></trkpt><trkpt lat="44.7268683" lon="9.9621733"><ele>512.0</ele><time>2026-04-06T13:33:46.508Z</time></trkpt><trkpt lat="44.7269433" lon="9.9623383"><ele>511.5</ele><time>2026-04-06T13:33:47.508Z</time></trkpt><trkpt lat="44.7269733" lon="9.9625067"><ele>511.0</ele><time>2026-04-06T13:33:48.507Z</time></trkpt><trkpt lat="44.726945" lon="9.9626867"><ele>511.6666666666667</ele><time>2026-04-06T13:33:49.508Z</time></trkpt><trkpt lat="44.7268767" lon="9.96289"><ele>512.3333333333334</ele><time>2026-04-06T13:33:50.507Z</time></trkpt><trkpt lat="44.7268117" lon="9.9631167"><ele>513.0</ele><time>2026-04-06T13:33:51.507Z</time></trkpt><trkpt lat="44.7267733" lon="9.9633583"><ele>513.0</ele><time>2026-04-06T13:33:52.508Z</time></trkpt><trkpt lat="44.7267733" lon="9.9636033"><ele>513.0</ele><time>2026-04-06T13:33:53.508Z</time></trkpt><trkpt lat="44.7268117" lon="9.9638617"><ele>513.0</ele><time>2026-04-06T13:33:54.508Z</time></trkpt><trkpt lat="44.7268467" lon="9.9641183"><ele>513.6666666666666</ele><time>2026-04-06T13:33:55.507Z</time></trkpt><trkpt lat="44.726875" lon="9.9643667"><ele>514.3333333333333</ele><time>2026-04-06T13:33:56.508Z</time></trkpt><trkpt lat="44.7269017" lon="9.9645917"><ele>515.0</ele><time>2026-04-06T13:33:57.507Z</time></trkpt><trkpt lat="44.7269267" lon="9.964795"><ele>517.5</ele><time>2026-04-06T13:33:58.508Z</time></trkpt><trkpt lat="44.72695" lon="9.9649783"><ele>520.0</ele><time>2026-04-06T13:33:59.508Z</time></trkpt><trkpt lat="44.726995" lon="9.9651533"><ele>522.5</ele><time>2026-04-06T13:34:00.507Z</time></trkpt><trkpt lat="44.7270533" lon="9.9653133"><ele>525.0</ele><time>2026-04-06T13:34:01.507Z</time></trkpt><trkpt lat="44.7271467" lon="9.96545"><ele>525.0</ele><time>2026-04-06T13:34:02.508Z</time></trkpt><trkpt lat="44.7272617" lon="9.9655733"><ele>525.0</ele><time>2026-04-06T13:34:03.507Z</time></trkpt><trkpt lat="44.72739" lon="9.965685"><ele>525.0</ele><time>2026-04-06T13:34:04.507Z</time></trkpt><trkpt lat="44.727535" lon="9.9657333"><ele>525.0</ele><time>2026-04-06T13:34:05.507Z</time></trkpt><trkpt lat="44.7276683" lon="9.9658117"><ele>528.3333333333334</ele><time>2026-04-06T13:34:06.508Z</time></trkpt><trkpt lat="44.7277867" lon="9.9659283"><ele>531.6666666666667</ele><time>2026-04-06T13:34:07.507Z</time></trkpt><trkpt lat="44.727895" lon="9.9660817"><ele>535.0</ele><time>2026-04-06T13:34:08.508Z</time></trkpt><trkpt lat="44.72801" lon="9.96626"><ele>535.0</ele><time>2026-04-06T13:34:09.507Z</time></trkpt><trkpt lat="44.7281067" lon="9.9664517"><ele>535.0</ele><time>2026-04-06T13:34:10.508Z</time></trkpt><trkpt lat="44.7282133" lon="9.9666783"><ele>535.0</ele><time>2026-04-06T13:34:11.508Z</time></trkpt><trkpt lat="44.7283267" lon="9.9669417"><ele>533.3333333333334</ele><time>2026-04-06T13:34:12.507Z</time></trkpt><trkpt lat="44.728435" lon="9.96717"><ele>531.6666666666666</ele><time>2026-04-06T13:34:13.507Z</time></trkpt><trkpt lat="44.728525" lon="9.9673817"><ele>530.0</ele><time>2026-04-06T13:34:14.508Z</time></trkpt><trkpt lat="44.728585" lon="9.967605"><ele>535.0</ele><time>2026-04-06T13:34:15.508Z</time></trkpt><trkpt lat="44.728625" lon="9.9678217"><ele>540.0</ele><time>2026-04-06T13:34:16.508Z</time></trkpt><trkpt lat="44.7286483" lon="9.9680233"><ele>545.0</ele><time>2026-04-06T13:34:17.508Z</time></trkpt><trkpt lat="44.7286583" lon="9.968215"><ele>550.0</ele><time>2026-04-06T13:34:18.508Z</time></trkpt><trkpt lat="44.7286517" lon="9.9684067"><ele>551.0</ele><time>2026-04-06T13:34:19.508Z</time></trkpt><trkpt lat="44.72862" lon="9.9686"><ele>552.0</ele><time>2026-04-06T13:34:20.507Z</time></trkpt><trkpt lat="44.7285683" lon="9.96879"><ele>553.0</ele><time>2026-04-06T13:34:21.507Z</time></trkpt><trkpt lat="44.7285017" lon="9.9689783"><ele>554.0</ele><time>2026-04-06T13:34:22.508Z</time></trkpt><trkpt lat="44.7284317" lon="9.96915"><ele>549.5</ele><time>2026-04-06T13:34:23.507Z</time></trkpt><trkpt lat="44.728385" lon="9.9693167"><ele>545.0</ele><time>2026-04-06T13:34:24.508Z</time></trkpt><trkpt lat="44.72836" lon="9.96949"><ele>540.5</ele><time>2026-04-06T13:34:25.507Z</time></trkpt><trkpt lat="44.7283883" lon="9.96967"><ele>536.0</ele><time>2026-04-06T13:34:26.507Z</time></trkpt><trkpt lat="44.7284683" lon="9.9698217"><ele>539.0</ele><time>2026-04-06T13:34:27.508Z</time></trkpt><trkpt lat="44.728605" lon="9.96996"><ele>542.0</ele><time>2026-04-06T13:34:28.508Z</time></trkpt><trkpt lat="44.72874" lon="9.9700967"><ele>545.0</ele><time>2026-04-06T13:34:29.507Z</time></trkpt><trkpt lat="44.7288417" lon="9.970255"><ele>545.0</ele><time>2026-04-06T13:34:30.508Z</time></trkpt><trkpt lat="44.7289233" lon="9.9704167"><ele>545.0</ele><time>2026-04-06T13:34:31.508Z</time></trkpt><trkpt lat="44.7289633" lon="9.9705933"><ele>545.0</ele><time>2026-04-06T13:34:32.507Z</time></trkpt><trkpt lat="44.72901" lon="9.97074"><ele>545.0</ele><time>2026-04-06T13:34:33.507Z</time></trkpt><trkpt lat="44.7290967" lon="9.9708817"><ele>544.5</ele><time>2026-04-06T13:34:34.507Z</time></trkpt><trkpt lat="44.72921" lon="9.9709867"><ele>544.0</ele><time>2026-04-06T13:34:35.508Z</time></trkpt><trkpt lat="44.729335" lon="9.9710683"><ele>543.5</ele><time>2026-04-06T13:34:36.508Z</time></trkpt><trkpt lat="44.72946" lon="9.971145"><ele>543.0</ele><time>2026-04-06T13:34:37.508Z</time></trkpt><trkpt lat="44.7295633" lon="9.97124"><ele>543.0</ele><time>2026-04-06T13:34:38.508Z</time></trkpt><trkpt lat="44.72965" lon="9.97136"><ele>543.0</ele><time>2026-04-06T13:34:39.508Z</time></trkpt><trkpt lat="44.7297133" lon="9.9715283"><ele>543.0</ele><time>2026-04-06T13:34:40.508Z</time></trkpt><trkpt lat="44.7297483" lon="9.97169"><ele>543.0</ele><time>2026-04-06T13:34:41.507Z</time></trkpt><trkpt lat="44.72974" lon="9.9718517"><ele>540.0</ele><time>2026-04-06T13:34:42.508Z</time></trkpt><trkpt lat="44.72972" lon="9.97203"><ele>537.0</ele><time>2026-04-06T13:34:43.507Z</time></trkpt><trkpt lat="44.7296867" lon="9.9722117"><ele>534.0</ele><time>2026-04-06T13:34:44.508Z</time></trkpt><trkpt lat="44.7296367" lon="9.97238"><ele>531.0</ele><time>2026-04-06T13:34:45.507Z</time></trkpt><trkpt lat="44.7295633" lon="9.9725667"><ele>531.0</ele><time>2026-04-06T13:34:46.508Z</time></trkpt><trkpt lat="44.729505" lon="9.9727717"><ele>531.0</ele><time>2026-04-06T13:34:47.508Z</time></trkpt><trkpt lat="44.7294483" lon="9.9729567"><ele>531.0</ele><time>2026-04-06T13:34:48.507Z</time></trkpt><trkpt lat="44.7293533" lon="9.9731517"><ele>531.0</ele><time>2026-04-06T13:34:49.507Z</time></trkpt><trkpt lat="44.729255" lon="9.9733267"><ele>531.0</ele><time>2026-04-06T13:34:50.508Z</time></trkpt><trkpt lat="44.7291517" lon="9.9734533"><ele>531.0</ele><time>2026-04-06T13:34:51.508Z</time></trkpt><trkpt lat="44.72905" lon="9.9735633"><ele>531.0</ele><time>2026-04-06T13:34:52.507Z</time></trkpt><trkpt lat="44.7289817" lon="9.9737"><ele>530.5</ele><time>2026-04-06T13:34:53.507Z</time></trkpt><trkpt lat="44.728935" lon="9.9738717"><ele>530.0</ele><time>2026-04-06T13:34:54.507Z</time></trkpt><trkpt lat="44.7289117" lon="9.9740867"><ele>529.5</ele><time>2026-04-06T13:34:55.508Z</time></trkpt><trkpt lat="44.728875" lon="9.9742733"><ele>529.0</ele><time>2026-04-06T13:34:56.507Z</time></trkpt><trkpt lat="44.7288167" lon="9.9744383"><ele>528.5</ele><time>2026-04-06T13:34:57.508Z</time></trkpt><trkpt lat="44.7287383" lon="9.9746"><ele>528.0</ele><time>2026-04-06T13:34:58.508Z</time></trkpt><trkpt lat="44.7286467" lon="9.9747417"><ele>527.5</ele><time>2026-04-06T13:34:59.508Z</time></trkpt><trkpt lat="44.7285433" lon="9.974915"><ele>527.0</ele><time>2026-04-06T13:35:00.507Z</time></trkpt><trkpt lat="44.7284433" lon="9.9751067"><ele>527.0</ele><time>2026-04-06T13:35:01.508Z</time></trkpt><trkpt lat="44.7283583" lon="9.975315"><ele>527.0</ele><time>2026-04-06T13:35:02.507Z</time></trkpt><trkpt lat="44.7282883" lon="9.9755333"><ele>527.0</ele><time>2026-04-06T13:35:03.507Z</time></trkpt><trkpt lat="44.7282267" lon="9.9757417"><ele>525.3333333333333</ele><time>2026-04-06T13:35:04.507Z</time></trkpt><trkpt lat="44.7281783" lon="9.975965"><ele>523.6666666666666</ele><time>2026-04-06T13:35:05.508Z</time></trkpt><trkpt lat="44.7281533" lon="9.9761867"><ele>522.0</ele><time>2026-04-06T13:35:06.508Z</time></trkpt><trkpt lat="44.7281633" lon="9.9764267"><ele>522.0</ele><time>2026-04-06T13:35:07.507Z</time></trkpt><trkpt lat="44.7281967" lon="9.9766767"><ele>522.0</ele><time>2026-04-06T13:35:08.507Z</time></trkpt><trkpt lat="44.7282717" lon="9.9768867"><ele>522.0</ele><time>2026-04-06T13:35:09.508Z</time></trkpt><trkpt lat="44.7283483" lon="9.9770533"><ele>520.25</ele><time>2026-04-06T13:35:10.508Z</time></trkpt><trkpt lat="44.7283983" lon="9.97719"><ele>518.5</ele><time>2026-04-06T13:35:11.507Z</time></trkpt><trkpt lat="44.7283883" lon="9.97734"><ele>516.75</ele><time>2026-04-06T13:35:12.507Z</time></trkpt><trkpt lat="44.7283267" lon="9.9774833"><ele>515.0</ele><time>2026-04-06T13:35:13.508Z</time></trkpt><trkpt lat="44.7282417" lon="9.9776133"><ele>511.5</ele><time>2026-04-06T13:35:14.507Z</time></trkpt><trkpt lat="44.7281117" lon="9.9777183"><ele>508.0</ele><time>2026-04-06T13:35:15.507Z</time></trkpt><trkpt lat="44.7280433" lon="9.9778417"><ele>504.5</ele><time>2026-04-06T13:35:16.508Z</time></trkpt><trkpt lat="44.72794" lon="9.97793"><ele>501.0</ele><time>2026-04-06T13:35:17.508Z</time></trkpt><trkpt lat="44.727805" lon="9.9779567"><ele>500.0</ele><time>2026-04-06T13:35:18.507Z</time></trkpt><trkpt lat="44.7276583" lon="9.977895"><ele>499.0</ele><time>2026-04-06T13:35:19.507Z</time></trkpt><trkpt lat="44.7274783" lon="9.977735"><ele>498.0</ele><time>2026-04-06T13:35:20.507Z</time></trkpt><trkpt lat="44.72724" lon="9.977445"><ele>499.33333333333337</ele><time>2026-04-06T13:35:21.507Z</time></trkpt><trkpt lat="44.727075" lon="9.9773533"><ele>500.6666666666667</ele><time>2026-04-06T13:35:22.507Z</time></trkpt><trkpt lat="44.7268967" lon="9.9772717"><ele>502.0</ele><time>2026-04-06T13:35:23.507Z</time></trkpt><trkpt lat="44.7267083" lon="9.9771783"><ele>502.0</ele><time>2026-04-06T13:35:24.507Z</time></trkpt><trkpt lat="44.7265367" lon="9.9771367"><ele>502.0</ele><time>2026-04-06T13:35:25.508Z</time></trkpt><trkpt lat="44.7263767" lon="9.97713"><ele>502.0</ele><time>2026-04-06T13:35:26.507Z</time></trkpt><trkpt lat="44.7262017" lon="9.9771233"><ele>502.0</ele><time>2026-04-06T13:35:27.508Z</time></trkpt><trkpt lat="44.7260633" lon="9.9771217"><ele>502.0</ele><time>2026-04-06T13:35:28.508Z</time></trkpt><trkpt lat="44.7259317" lon="9.9771033"><ele>502.0</ele><time>2026-04-06T13:35:29.507Z</time></trkpt><trkpt lat="44.7258033" lon="9.9770517"><ele>502.0</ele><time>2026-04-06T13:35:30.508Z</time></trkpt><trkpt lat="44.72568" lon="9.9769717"><ele>501.75</ele><time>2026-04-06T13:35:31.507Z</time></trkpt><trkpt lat="44.725595" lon="9.97685"><ele>501.5</ele><time>2026-04-06T13:35:32.508Z</time></trkpt><trkpt lat="44.7255" lon="9.9767533"><ele>501.25</ele><time>2026-04-06T13:35:33.507Z</time></trkpt><trkpt lat="44.7254" lon="9.9766783"><ele>501.0</ele><time>2026-04-06T13:35:34.508Z</time></trkpt><trkpt lat="44.725295" lon="9.9766483"><ele>498.0</ele><time>2026-04-06T13:35:35.507Z</time></trkpt><trkpt lat="44.7252017" lon="9.9766767"><ele>495.0</ele><time>2026-04-06T13:35:36.508Z</time></trkpt><trkpt lat="44.7251133" lon="9.9767633"><ele>492.0</ele><time>2026-04-06T13:35:37.507Z</time></trkpt><trkpt lat="44.7250733" lon="9.9769033"><ele>489.0</ele><time>2026-04-06T13:35:38.507Z</time></trkpt><trkpt lat="44.72503" lon="9.9771133"><ele>488.75</ele><time>2026-04-06T13:35:39.507Z</time></trkpt><trkpt lat="44.725" lon="9.9773383"><ele>488.5</ele><time>2026-04-06T13:35:40.507Z</time></trkpt><trkpt lat="44.7249833" lon="9.97753"><ele>488.25</ele><time>2026-04-06T13:35:41.507Z</time></trkpt><trkpt lat="44.7249567" lon="9.9777133"><ele>488.0</ele><time>2026-04-06T13:35:42.508Z</time></trkpt><trkpt lat="44.7249167" lon="9.97788"><ele>487.5</ele><time>2026-04-06T13:35:43.507Z</time></trkpt><trkpt lat="44.7248533" lon="9.9780333"><ele>487.0</ele><time>2026-04-06T13:35:44.507Z</time></trkpt><trkpt lat="44.72478" lon="9.97818"><ele>486.5</ele><time>2026-04-06T13:35:45.507Z</time></trkpt><trkpt lat="44.72468" lon="9.9783167"><ele>486.0</ele><time>2026-04-06T13:35:46.508Z</time></trkpt><trkpt lat="44.7245767" lon="9.97845"><ele>485.0</ele><time>2026-04-06T13:35:47.507Z</time></trkpt><trkpt lat="44.72447" lon="9.978575"><ele>484.0</ele><time>2026-04-06T13:35:48.508Z</time></trkpt><trkpt lat="44.7243583" lon="9.9786983"><ele>483.0</ele><time>2026-04-06T13:35:49.507Z</time></trkpt><trkpt lat="44.724255" lon="9.9788167"><ele>482.0</ele><time>2026-04-06T13:35:50.507Z</time></trkpt><trkpt lat="44.7241117" lon="9.9789183"><ele>480.75</ele><time>2026-04-06T13:35:51.507Z</time></trkpt><trkpt lat="44.7240033" lon="9.9790383"><ele>479.5</ele><time>2026-04-06T13:35:52.507Z</time></trkpt><trkpt lat="44.723935" lon="9.9791917"><ele>478.25</ele><time>2026-04-06T13:35:53.507Z</time></trkpt><trkpt lat="44.7238667" lon="9.9793367"><ele>477.0</ele><time>2026-04-06T13:35:54.507Z</time></trkpt><trkpt lat="44.7237933" lon="9.9794667"><ele>477.25</ele><time>2026-04-06T13:35:55.508Z</time></trkpt><trkpt lat="44.7237317" lon="9.9796117"><ele>477.5</ele><time>2026-04-06T13:35:56.507Z</time></trkpt><trkpt lat="44.7236433" lon="9.9797467"><ele>477.75</ele><time>2026-04-06T13:35:57.507Z</time></trkpt><trkpt lat="44.7235617" lon="9.9798817"><ele>478.0</ele><time>2026-04-06T13:35:58.508Z</time></trkpt><trkpt lat="44.7234717" lon="9.9800033"><ele>474.5</ele><time>2026-04-06T13:35:59.507Z</time></trkpt><trkpt lat="44.723375" lon="9.980105"><ele>471.0</ele><time>2026-04-06T13:36:00.507Z</time></trkpt><trkpt lat="44.7232833" lon="9.9801933"><ele>467.5</ele><time>2026-04-06T13:36:01.507Z</time></trkpt><trkpt lat="44.7231767" lon="9.9802433"><ele>464.0</ele><time>2026-04-06T13:36:02.508Z</time></trkpt><trkpt lat="44.723045" lon="9.98024"><ele>464.0</ele><time>2026-04-06T13:36:03.508Z</time></trkpt><trkpt lat="44.7229183" lon="9.9802133"><ele>464.0</ele><time>2026-04-06T13:36:04.508Z</time></trkpt><trkpt lat="44.7227917" lon="9.980185"><ele>464.0</ele><time>2026-04-06T13:36:05.507Z</time></trkpt><trkpt lat="44.7226567" lon="9.980165"><ele>464.0</ele><time>2026-04-06T13:36:06.507Z</time></trkpt><trkpt lat="44.7225133" lon="9.980175"><ele>464.5</ele><time>2026-04-06T13:36:07.507Z</time></trkpt><trkpt lat="44.7223917" lon="9.980225"><ele>465.0</ele><time>2026-04-06T13:36:08.508Z</time></trkpt><trkpt lat="44.7222833" lon="9.9802933"><ele>465.5</ele><time>2026-04-06T13:36:09.508Z</time></trkpt><trkpt lat="44.7221833" lon="9.9803967"><ele>466.0</ele><time>2026-04-06T13:36:10.508Z</time></trkpt><trkpt lat="44.7221033" lon="9.9805283"><ele>466.0</ele><time>2026-04-06T13:36:11.508Z</time></trkpt><trkpt lat="44.72201" lon="9.9806417"><ele>466.0</ele><time>2026-04-06T13:36:12.508Z</time></trkpt><trkpt lat="44.7218967" lon="9.980715"><ele>466.0</ele><time>2026-04-06T13:36:13.508Z</time></trkpt><trkpt lat="44.7217733" lon="9.98076"><ele>466.0</ele><time>2026-04-06T13:36:14.508Z</time></trkpt><trkpt lat="44.7216467" lon="9.98077"><ele>467.5</ele><time>2026-04-06T13:36:15.507Z</time></trkpt><trkpt lat="44.7215217" lon="9.9807817"><ele>469.0</ele><time>2026-04-06T13:36:16.508Z</time></trkpt><trkpt lat="44.7213817" lon="9.9807967"><ele>470.5</ele><time>2026-04-06T13:36:17.507Z</time></trkpt><trkpt lat="44.7212433" lon="9.9808083"><ele>472.0</ele><time>2026-04-06T13:36:18.507Z</time></trkpt><trkpt lat="44.7211017" lon="9.9808267"><ele>472.5</ele><time>2026-04-06T13:36:19.507Z</time></trkpt><trkpt lat="44.72096" lon="9.9808417"><ele>473.0</ele><time>2026-04-06T13:36:20.508Z</time></trkpt><trkpt lat="44.7208317" lon="9.9808517"><ele>473.5</ele><time>2026-04-06T13:36:21.508Z</time></trkpt><trkpt lat="44.7207033" lon="9.9808667"><ele>474.0</ele><time>2026-04-06T13:36:22.507Z</time></trkpt><trkpt lat="44.7205783" lon="9.9808933"><ele>472.25</ele><time>2026-04-06T13:36:23.507Z</time></trkpt><trkpt lat="44.7204667" lon="9.98095"><ele>470.5</ele><time>2026-04-06T13:36:24.507Z</time></trkpt><trkpt lat="44.72035" lon="9.9810383"><ele>468.75</ele><time>2026-04-06T13:36:25.507Z</time></trkpt><trkpt lat="44.72027" lon="9.98116"><ele>467.0</ele><time>2026-04-06T13:36:26.507Z</time></trkpt><trkpt lat="44.720185" lon="9.9813283"><ele>467.0</ele><time>2026-04-06T13:36:27.506Z</time></trkpt><trkpt lat="44.7200983" lon="9.981485"><ele>467.0</ele><time>2026-04-06T13:36:28.506Z</time></trkpt><trkpt lat="44.72" lon="9.9816283"><ele>467.0</ele><time>2026-04-06T13:36:29.507Z</time></trkpt><trkpt lat="44.7198967" lon="9.9817533"><ele>467.0</ele><time>2026-04-06T13:36:30.507Z</time></trkpt><trkpt lat="44.7197783" lon="9.9818517"><ele>461.75</ele><time>2026-04-06T13:36:31.507Z</time></trkpt><trkpt lat="44.7196767" lon="9.9819517"><ele>456.5</ele><time>2026-04-06T13:36:32.507Z</time></trkpt><trkpt lat="44.7195533" lon="9.9820417"><ele>451.25</ele><time>2026-04-06T13:36:33.507Z</time></trkpt><trkpt lat="44.71946" lon="9.9820983"><ele>446.0</ele><time>2026-04-06T13:36:34.507Z</time></trkpt><trkpt lat="44.7193567" lon="9.98211"><ele>445.75</ele><time>2026-04-06T13:36:35.506Z</time></trkpt><trkpt lat="44.71924" lon="9.9820483"><ele>445.5</ele><time>2026-04-06T13:36:36.507Z</time></trkpt><trkpt lat="44.71912" lon="9.981975"><ele>445.25</ele><time>2026-04-06T13:36:37.507Z</time></trkpt><trkpt lat="44.7190117" lon="9.981895"><ele>445.0</ele><time>2026-04-06T13:36:38.506Z</time></trkpt><trkpt lat="44.7188983" lon="9.981815"><ele>445.0</ele><time>2026-04-06T13:36:39.507Z</time></trkpt><trkpt lat="44.71877" lon="9.9817567"><ele>445.0</ele><time>2026-04-06T13:36:40.506Z</time></trkpt><trkpt lat="44.7186317" lon="9.98172"><ele>445.0</ele><time>2026-04-06T13:36:41.506Z</time></trkpt><trkpt lat="44.7184917" lon="9.9817017"><ele>445.0</ele><time>2026-04-06T13:36:42.506Z</time></trkpt><trkpt lat="44.7183417" lon="9.9816983"><ele>440.6666666666667</ele><time>2026-04-06T13:36:43.507Z</time></trkpt><trkpt lat="44.7181883" lon="9.9817267"><ele>436.33333333333337</ele><time>2026-04-06T13:36:44.506Z</time></trkpt><trkpt lat="44.7180333" lon="9.981775"><ele>432.0</ele><time>2026-04-06T13:36:45.506Z</time></trkpt><trkpt lat="44.7178883" lon="9.9818383"><ele>432.0</ele><time>2026-04-06T13:36:46.507Z</time></trkpt><trkpt lat="44.7177617" lon="9.9819133"><ele>432.0</ele><time>2026-04-06T13:36:47.507Z</time></trkpt><trkpt lat="44.717625" lon="9.9819483"><ele>432.0</ele><time>2026-04-06T13:36:48.506Z</time></trkpt><trkpt lat="44.717495" lon="9.98199"><ele>432.0</ele><time>2026-04-06T13:36:49.506Z</time></trkpt><trkpt lat="44.7173667" lon="9.9820033"><ele>432.75</ele><time>2026-04-06T13:36:50.506Z</time></trkpt><trkpt lat="44.717225" lon="9.9820217"><ele>433.5</ele><time>2026-04-06T13:36:51.506Z</time></trkpt><trkpt lat="44.7170867" lon="9.982025"><ele>434.25</ele><time>2026-04-06T13:36:52.507Z</time></trkpt><trkpt lat="44.71694" lon="9.9820667"><ele>435.0</ele><time>2026-04-06T13:36:53.507Z</time></trkpt><trkpt lat="44.7167917" lon="9.9821017"><ele>436.5</ele><time>2026-04-06T13:36:54.507Z</time></trkpt><trkpt lat="44.7166467" lon="9.98217"><ele>438.0</ele><time>2026-04-06T13:36:55.507Z</time></trkpt><trkpt lat="44.7165333" lon="9.9822983"><ele>439.5</ele><time>2026-04-06T13:36:56.506Z</time></trkpt><trkpt lat="44.7164417" lon="9.9824267"><ele>441.0</ele><time>2026-04-06T13:36:57.506Z</time></trkpt><trkpt lat="44.71634" lon="9.9825317"><ele>434.75</ele><time>2026-04-06T13:36:58.507Z</time></trkpt><trkpt lat="44.71622" lon="9.9825717"><ele>428.5</ele><time>2026-04-06T13:36:59.507Z</time></trkpt><trkpt lat="44.71611" lon="9.982605"><ele>422.25</ele><time>2026-04-06T13:37:00.507Z</time></trkpt><trkpt lat="44.7159967" lon="9.982615"><ele>416.0</ele><time>2026-04-06T13:37:01.507Z</time></trkpt><trkpt lat="44.7158833" lon="9.982555"><ele>421.25</ele><time>2026-04-06T13:37:02.506Z</time></trkpt><trkpt lat="44.7157817" lon="9.9825117"><ele>426.5</ele><time>2026-04-06T13:37:03.506Z</time></trkpt><trkpt lat="44.715715" lon="9.98238"><ele>431.75</ele><time>2026-04-06T13:37:04.506Z</time></trkpt><trkpt lat="44.7157367" lon="9.9821383"><ele>437.0</ele><time>2026-04-06T13:37:05.507Z</time></trkpt><trkpt lat="44.7157183" lon="9.9819383"><ele>437.0</ele><time>2026-04-06T13:37:06.506Z</time></trkpt><trkpt lat="44.7156867" lon="9.9817533"><ele>437.0</ele><time>2026-04-06T13:37:07.506Z</time></trkpt><trkpt lat="44.7156483" lon="9.9815933"><ele>437.0</ele><time>2026-04-06T13:37:08.506Z</time></trkpt><trkpt lat="44.7155833" lon="9.9814533"><ele>437.0</ele><time>2026-04-06T13:37:09.506Z</time></trkpt><trkpt lat="44.71551" lon="9.9813583"><ele>434.5</ele><time>2026-04-06T13:37:10.506Z</time></trkpt><trkpt lat="44.7154083" lon="9.98123"><ele>432.0</ele><time>2026-04-06T13:37:11.507Z</time></trkpt><trkpt lat="44.71529" lon="9.9811133"><ele>429.5</ele><time>2026-04-06T13:37:12.506Z</time></trkpt><trkpt lat="44.7151783" lon="9.9810367"><ele>427.0</ele><time>2026-04-06T13:37:13.506Z</time></trkpt><trkpt lat="44.7150583" lon="9.98097"><ele>427.0</ele><time>2026-04-06T13:37:14.507Z</time></trkpt><trkpt lat="44.71495" lon="9.9808917"><ele>427.0</ele><time>2026-04-06T13:37:15.507Z</time></trkpt><trkpt lat="44.7148433" lon="9.9807933"><ele>427.0</ele><time>2026-04-06T13:37:16.506Z</time></trkpt><trkpt lat="44.7147517" lon="9.980675"><ele>427.0</ele><time>2026-04-06T13:37:17.506Z</time></trkpt><trkpt lat="44.71466" lon="9.980535"><ele>426.0</ele><time>2026-04-06T13:37:18.507Z</time></trkpt><trkpt lat="44.7145567" lon="9.9803767"><ele>425.0</ele><time>2026-04-06T13:37:19.506Z</time></trkpt><trkpt lat="44.71444" lon="9.98024"><ele>424.0</ele><time>2026-04-06T13:37:20.506Z</time></trkpt><trkpt lat="44.71432" lon="9.980085"><ele>431.0</ele><time>2026-04-06T13:37:21.507Z</time></trkpt><trkpt lat="44.714215" lon="9.979935"><ele>438.0</ele><time>2026-04-06T13:37:22.506Z</time></trkpt><trkpt lat="44.71411" lon="9.9797867"><ele>445.0</ele><time>2026-04-06T13:37:23.506Z</time></trkpt><trkpt lat="44.7139983" lon="9.9796317"><ele>445.0</ele><time>2026-04-06T13:37:24.507Z</time></trkpt><trkpt lat="44.7139067" lon="9.9794483"><ele>445.0</ele><time>2026-04-06T13:37:25.506Z</time></trkpt><trkpt lat="44.7138033" lon="9.9792433"><ele>445.0</ele><time>2026-04-06T13:37:26.507Z</time></trkpt><trkpt lat="44.7136917" lon="9.9790383"><ele>438.0</ele><time>2026-04-06T13:37:27.507Z</time></trkpt><trkpt lat="44.71357" lon="9.9788583"><ele>431.0</ele><time>2026-04-06T13:37:28.506Z</time></trkpt><trkpt lat="44.7134667" lon="9.9787133"><ele>424.0</ele><time>2026-04-06T13:37:29.506Z</time></trkpt><trkpt lat="44.7133617" lon="9.9785917"><ele>424.0</ele><time>2026-04-06T13:37:30.506Z</time></trkpt><trkpt lat="44.7132383" lon="9.9784817"><ele>424.0</ele><time>2026-04-06T13:37:31.507Z</time></trkpt><trkpt lat="44.7131067" lon="9.9784067"><ele>424.0</ele><time>2026-04-06T13:37:32.506Z</time></trkpt><trkpt lat="44.7129517" lon="9.97838"><ele>424.0</ele><time>2026-04-06T13:37:33.507Z</time></trkpt><trkpt lat="44.7128083" lon="9.9783417"><ele>423.0</ele><time>2026-04-06T13:37:34.507Z</time></trkpt><trkpt lat="44.7126667" lon="9.9782767"><ele>422.0</ele><time>2026-04-06T13:37:35.506Z</time></trkpt><trkpt lat="44.7125433" lon="9.978165"><ele>421.0</ele><time>2026-04-06T13:37:36.506Z</time></trkpt><trkpt lat="44.7124483" lon="9.9780383"><ele>420.0</ele><time>2026-04-06T13:37:37.507Z</time></trkpt><trkpt lat="44.7123667" lon="9.97789"><ele>420.0</ele><time>2026-04-06T13:37:38.506Z</time></trkpt><trkpt lat="44.7122967" lon="9.9777633"><ele>420.0</ele><time>2026-04-06T13:37:39.507Z</time></trkpt><trkpt lat="44.7122233" lon="9.9776617"><ele>420.0</ele><time>2026-04-06T13:37:40.506Z</time></trkpt><trkpt lat="44.7121333" lon="9.9776083"><ele>420.0</ele><time>2026-04-06T13:37:41.507Z</time></trkpt><trkpt lat="44.712035" lon="9.9775883"><ele>420.0</ele><time>2026-04-06T13:37:42.507Z</time></trkpt><trkpt lat="44.71194" lon="9.9776283"><ele>419.75</ele><time>2026-04-06T13:37:43.506Z</time></trkpt><trkpt lat="44.7118233" lon="9.977715"><ele>419.5</ele><time>2026-04-06T13:37:44.506Z</time></trkpt><trkpt lat="44.7117067" lon="9.977785"><ele>419.25</ele><time>2026-04-06T13:37:45.506Z</time></trkpt><trkpt lat="44.7116267" lon="9.9779417"><ele>419.0</ele><time>2026-04-06T13:37:46.507Z</time></trkpt><trkpt lat="44.7115117" lon="9.9781117"><ele>419.0</ele><time>2026-04-06T13:37:47.507Z</time></trkpt><trkpt lat="44.7113783" lon="9.9782067"><ele>419.0</ele><time>2026-04-06T13:37:48.507Z</time></trkpt><trkpt lat="44.7112133" lon="9.9782"><ele>419.0</ele><time>2026-04-06T13:37:49.506Z</time></trkpt><trkpt lat="44.711075" lon="9.9781317"><ele>418.75</ele><time>2026-04-06T13:37:50.507Z</time></trkpt><trkpt lat="44.7109717" lon="9.977995"><ele>418.5</ele><time>2026-04-06T13:37:51.507Z</time></trkpt><trkpt lat="44.7109133" lon="9.9778067"><ele>418.25</ele><time>2026-04-06T13:37:52.506Z</time></trkpt><trkpt lat="44.7108917" lon="9.977595"><ele>418.0</ele><time>2026-04-06T13:37:53.507Z</time></trkpt><trkpt lat="44.71088" lon="9.977385"><ele>417.25</ele><time>2026-04-06T13:37:54.506Z</time></trkpt><trkpt lat="44.710865" lon="9.9772067"><ele>416.5</ele><time>2026-04-06T13:37:55.506Z</time></trkpt><trkpt lat="44.7108367" lon="9.977035"><ele>415.75</ele><time>2026-04-06T13:37:56.506Z</time></trkpt><trkpt lat="44.7107667" lon="9.9768833"><ele>415.0</ele><time>2026-04-06T13:37:57.507Z</time></trkpt><trkpt lat="44.7106867" lon="9.9767383"><ele>412.0</ele><time>2026-04-06T13:37:58.506Z</time></trkpt><trkpt lat="44.7106033" lon="9.9766067"><ele>409.0</ele><time>2026-04-06T13:37:59.507Z</time></trkpt><trkpt lat="44.7105067" lon="9.9764783"><ele>406.0</ele><time>2026-04-06T13:38:00.507Z</time></trkpt><trkpt lat="44.71039" lon="9.976385"><ele>403.0</ele><time>2026-04-06T13:38:01.507Z</time></trkpt><trkpt lat="44.7102667" lon="9.9763317"><ele>405.0</ele><time>2026-04-06T13:38:02.507Z</time></trkpt><trkpt lat="44.710145" lon="9.9763017"><ele>407.0</ele><time>2026-04-06T13:38:03.506Z</time></trkpt><trkpt lat="44.71003" lon="9.9762917"><ele>409.0</ele><time>2026-04-06T13:38:04.507Z</time></trkpt><trkpt lat="44.7099083" lon="9.9763667"><ele>411.0</ele><time>2026-04-06T13:38:05.507Z</time></trkpt><trkpt lat="44.7097883" lon="9.9764783"><ele>411.0</ele><time>2026-04-06T13:38:06.507Z</time></trkpt><trkpt lat="44.7096883" lon="9.9765867"><ele>411.0</ele><time>2026-04-06T13:38:07.506Z</time></trkpt><trkpt lat="44.70962" lon="9.97673"><ele>411.0</ele><time>2026-04-06T13:38:08.507Z</time></trkpt><trkpt lat="44.709595" lon="9.9769217"><ele>411.0</ele><time>2026-04-06T13:38:09.507Z</time></trkpt><trkpt lat="44.709705" lon="9.977225"><ele>411.33333333333337</ele><time>2026-04-06T13:38:10.507Z</time></trkpt><trkpt lat="44.7097983" lon="9.9774883"><ele>411.6666666666667</ele><time>2026-04-06T13:38:11.506Z</time></trkpt><trkpt lat="44.7098217" lon="9.97769"><ele>412.0</ele><time>2026-04-06T13:38:12.506Z</time></trkpt><trkpt lat="44.7098517" lon="9.9779017"><ele>409.33333333333337</ele><time>2026-04-06T13:38:13.506Z</time></trkpt><trkpt lat="44.7098767" lon="9.9781133"><ele>406.66666666666663</ele><time>2026-04-06T13:38:14.506Z</time></trkpt><trkpt lat="44.7099033" lon="9.97833"><ele>404.0</ele><time>2026-04-06T13:38:15.506Z</time></trkpt><trkpt lat="44.70998" lon="9.978585"><ele>401.66666666666663</ele><time>2026-04-06T13:38:16.507Z</time></trkpt><trkpt lat="44.7100467" lon="9.9788267"><ele>399.33333333333337</ele><time>2026-04-06T13:38:17.506Z</time></trkpt><trkpt lat="44.7101033" lon="9.97905"><ele>397.0</ele><time>2026-04-06T13:38:18.507Z</time></trkpt><trkpt lat="44.7101417" lon="9.97926"><ele>396.20000000000005</ele><time>2026-04-06T13:38:19.506Z</time></trkpt><trkpt lat="44.71016" lon="9.97944"><ele>395.4</ele><time>2026-04-06T13:38:20.507Z</time></trkpt><trkpt lat="44.710195" lon="9.97955"><ele>394.6</ele><time>2026-04-06T13:38:21.506Z</time></trkpt><trkpt lat="44.71025" lon="9.97968"><ele>393.79999999999995</ele><time>2026-04-06T13:38:22.507Z</time></trkpt><trkpt lat="44.7103417" lon="9.9797667"><ele>393.0</ele><time>2026-04-06T13:38:23.506Z</time></trkpt><trkpt lat="44.7104483" lon="9.97983"><ele>393.0</ele><time>2026-04-06T13:38:24.506Z</time></trkpt><trkpt lat="44.7105883" lon="9.979875"><ele>393.0</ele><time>2026-04-06T13:38:25.506Z</time></trkpt><trkpt lat="44.7107217" lon="9.9799383"><ele>393.0</ele><time>2026-04-06T13:38:26.506Z</time></trkpt><trkpt lat="44.7108617" lon="9.9800167"><ele>393.0</ele><time>2026-04-06T13:38:27.507Z</time></trkpt><trkpt lat="44.7109667" lon="9.980175"><ele>390.5</ele><time>2026-04-06T13:38:28.507Z</time></trkpt><trkpt lat="44.71108" lon="9.98033"><ele>388.0</ele><time>2026-04-06T13:38:29.507Z</time></trkpt><trkpt lat="44.7111767" lon="9.9804917"><ele>385.5</ele><time>2026-04-06T13:38:30.507Z</time></trkpt><trkpt lat="44.7112617" lon="9.9806333"><ele>383.0</ele><time>2026-04-06T13:38:31.507Z</time></trkpt><trkpt lat="44.7113" lon="9.9807883"><ele>380.25</ele><time>2026-04-06T13:38:32.506Z</time></trkpt><trkpt lat="44.7113317" lon="9.9809317"><ele>377.5</ele><time>2026-04-06T13:38:33.506Z</time></trkpt><trkpt lat="44.7113117" lon="9.981085"><ele>374.75</ele><time>2026-04-06T13:38:34.506Z</time></trkpt><trkpt lat="44.7112533" lon="9.9812267"><ele>372.0</ele><time>2026-04-06T13:38:35.506Z</time></trkpt><trkpt lat="44.7111483" lon="9.98134"><ele>374.5</ele><time>2026-04-06T13:38:36.507Z</time></trkpt><trkpt lat="44.7110383" lon="9.9814417"><ele>377.0</ele><time>2026-04-06T13:38:37.506Z</time></trkpt><trkpt lat="44.71093" lon="9.981525"><ele>379.5</ele><time>2026-04-06T13:38:38.507Z</time></trkpt><trkpt lat="44.7108283" lon="9.9816"><ele>382.0</ele><time>2026-04-06T13:38:39.507Z</time></trkpt><trkpt lat="44.7107133" lon="9.9816433"><ele>382.0</ele><time>2026-04-06T13:38:40.506Z</time></trkpt><trkpt lat="44.710595" lon="9.9816617"><ele>382.0</ele><time>2026-04-06T13:38:41.507Z</time></trkpt><trkpt lat="44.7104683" lon="9.981645"><ele>382.0</ele><time>2026-04-06T13:38:42.506Z</time></trkpt><trkpt lat="44.7103517" lon="9.98158"><ele>382.0</ele><time>2026-04-06T13:38:43.506Z</time></trkpt><trkpt lat="44.710245" lon="9.9814183"><ele>378.66666666666663</ele><time>2026-04-06T13:38:44.506Z</time></trkpt><trkpt lat="44.7101383" lon="9.981255"><ele>375.3333333333333</ele><time>2026-04-06T13:38:45.506Z</time></trkpt><trkpt lat="44.7100333" lon="9.98108"><ele>372.0</ele><time>2026-04-06T13:38:46.506Z</time></trkpt><trkpt lat="44.70994" lon="9.98092"><ele>373.0</ele><time>2026-04-06T13:38:47.507Z</time></trkpt><trkpt lat="44.7098417" lon="9.9807267"><ele>374.0</ele><time>2026-04-06T13:38:48.507Z</time></trkpt><trkpt lat="44.709765" lon="9.9806217"><ele>375.0</ele><time>2026-04-06T13:38:49.506Z</time></trkpt><trkpt lat="44.709685" lon="9.980565"><ele>376.0</ele><time>2026-04-06T13:38:50.507Z</time></trkpt><trkpt lat="44.7095917" lon="9.9805383"><ele>376.0</ele><time>2026-04-06T13:38:51.506Z</time></trkpt><trkpt lat="44.7095" lon="9.9805683"><ele>376.0</ele><time>2026-04-06T13:38:52.506Z</time></trkpt><trkpt lat="44.709405" lon="9.9805983"><ele>376.0</ele><time>2026-04-06T13:38:53.506Z</time></trkpt><trkpt lat="44.7092833" lon="9.9807517"><ele>376.0</ele><time>2026-04-06T13:38:54.506Z</time></trkpt><trkpt lat="44.7091433" lon="9.98108"><ele>369.5</ele><time>2026-04-06T13:38:55.507Z</time></trkpt><trkpt lat="44.7089817" lon="9.9813667"><ele>363.0</ele><time>2026-04-06T13:38:56.506Z</time></trkpt><trkpt lat="44.7088117" lon="9.9816417"><ele>364.0</ele><time>2026-04-06T13:38:57.507Z</time></trkpt><trkpt lat="44.70864" lon="9.9818783"><ele>365.0</ele><time>2026-04-06T13:38:58.507Z</time></trkpt><trkpt lat="44.7084733" lon="9.9820783"><ele>365.0</ele><time>2026-04-06T13:38:59.506Z</time></trkpt><trkpt lat="44.7083017" lon="9.9822383"><ele>365.0</ele><time>2026-04-06T13:39:00.506Z</time></trkpt><trkpt lat="44.70812" lon="9.9823517"><ele>365.0</ele><time>2026-04-06T13:39:01.507Z</time></trkpt><trkpt lat="44.707855" lon="9.9822667"><ele>364.5</ele><time>2026-04-06T13:39:02.506Z</time></trkpt><trkpt lat="44.70762" lon="9.9822883"><ele>364.0</ele><time>2026-04-06T13:39:03.507Z</time></trkpt><trkpt lat="44.7073683" lon="9.9823033"><ele>364.0</ele><time>2026-04-06T13:39:04.507Z</time></trkpt><trkpt lat="44.7071567" lon="9.9823467"><ele>364.0</ele><time>2026-04-06T13:39:05.507Z</time></trkpt><trkpt lat="44.70696" lon="9.9823817"><ele>364.0</ele><time>2026-04-06T13:39:06.507Z</time></trkpt><trkpt lat="44.7067383" lon="9.9824033"><ele>363.0</ele><time>2026-04-06T13:39:07.506Z</time></trkpt><trkpt lat="44.7065417" lon="9.9824333"><ele>362.0</ele><time>2026-04-06T13:39:08.507Z</time></trkpt><trkpt lat="44.7063567" lon="9.9824667"><ele>361.0</ele><time>2026-04-06T13:39:09.506Z</time></trkpt><trkpt lat="44.7061633" lon="9.98246"><ele>363.0</ele><time>2026-04-06T13:39:10.506Z</time></trkpt><trkpt lat="44.7059933" lon="9.9824417"><ele>365.0</ele><time>2026-04-06T13:39:11.506Z</time></trkpt><trkpt lat="44.7058317" lon="9.982365"><ele>367.0</ele><time>2026-04-06T13:39:12.506Z</time></trkpt><trkpt lat="44.705685" lon="9.9822733"><ele>367.0</ele><time>2026-04-06T13:39:13.506Z</time></trkpt><trkpt lat="44.7055467" lon="9.98216"><ele>367.0</ele><time>2026-04-06T13:39:14.506Z</time></trkpt><trkpt lat="44.7054233" lon="9.9820633"><ele>367.0</ele><time>2026-04-06T13:39:15.506Z</time></trkpt><trkpt lat="44.7053267" lon="9.9819917"><ele>367.0</ele><time>2026-04-06T13:39:16.507Z</time></trkpt><trkpt lat="44.7052333" lon="9.9819683"><ele>367.75</ele><time>2026-04-06T13:39:17.506Z</time></trkpt><trkpt lat="44.7051267" lon="9.982025"><ele>368.5</ele><time>2026-04-06T13:39:18.507Z</time></trkpt><trkpt lat="44.7050283" lon="9.98213"><ele>369.25</ele><time>2026-04-06T13:39:19.506Z</time></trkpt><trkpt lat="44.70492" lon="9.9823133"><ele>370.0</ele><time>2026-04-06T13:39:20.506Z</time></trkpt><trkpt lat="44.7048167" lon="9.9825017"><ele>370.66666666666663</ele><time>2026-04-06T13:39:21.507Z</time></trkpt><trkpt lat="44.7047183" lon="9.982685"><ele>371.3333333333333</ele><time>2026-04-06T13:39:22.506Z</time></trkpt><trkpt lat="44.7046117" lon="9.9828533"><ele>372.0</ele><time>2026-04-06T13:39:23.506Z</time></trkpt><trkpt lat="44.7045033" lon="9.98299"><ele>371.0</ele><time>2026-04-06T13:39:24.506Z</time></trkpt><trkpt lat="44.7043833" lon="9.98307"><ele>370.0</ele><time>2026-04-06T13:39:25.506Z</time></trkpt><trkpt lat="44.7042267" lon="9.9830517"><ele>369.0</ele><time>2026-04-06T13:39:26.506Z</time></trkpt><trkpt lat="44.7040483" lon="9.9830033"><ele>369.0</ele><time>2026-04-06T13:39:27.506Z</time></trkpt><trkpt lat="44.7038633" lon="9.9829333"><ele>369.0</ele><time>2026-04-06T13:39:28.507Z</time></trkpt><trkpt lat="44.7037" lon="9.9828817"><ele>369.0</ele><time>2026-04-06T13:39:29.507Z</time></trkpt><trkpt lat="44.70355" lon="9.9828583"><ele>369.3333333333333</ele><time>2026-04-06T13:39:30.506Z</time></trkpt><trkpt lat="44.7033967" lon="9.9828783"><ele>369.66666666666663</ele><time>2026-04-06T13:39:31.506Z</time></trkpt><trkpt lat="44.7032583" lon="9.982895"><ele>370.0</ele><time>2026-04-06T13:39:32.506Z</time></trkpt><trkpt lat="44.7030967" lon="9.98287"><ele>370.0</ele><time>2026-04-06T13:39:33.507Z</time></trkpt><trkpt lat="44.7029433" lon="9.98276"><ele>370.0</ele><time>2026-04-06T13:39:34.506Z</time></trkpt><trkpt lat="44.7028267" lon="9.98262"><ele>370.0</ele><time>2026-04-06T13:39:35.507Z</time></trkpt><trkpt lat="44.702715" lon="9.9824883"><ele>366.5</ele><time>2026-04-06T13:39:36.507Z</time></trkpt><trkpt lat="44.7026017" lon="9.9823683"><ele>363.0</ele><time>2026-04-06T13:39:37.506Z</time></trkpt><trkpt lat="44.70249" lon="9.982275"><ele>359.5</ele><time>2026-04-06T13:39:38.507Z</time></trkpt><trkpt lat="44.7023733" lon="9.9822083"><ele>356.0</ele><time>2026-04-06T13:39:39.507Z</time></trkpt><trkpt lat="44.7022267" lon="9.9821933"><ele>356.0</ele><time>2026-04-06T13:39:40.506Z</time></trkpt><trkpt lat="44.7020933" lon="9.982175"><ele>356.0</ele><time>2026-04-06T13:39:41.507Z</time></trkpt><trkpt lat="44.7019533" lon="9.9821517"><ele>356.0</ele><time>2026-04-06T13:39:42.506Z</time></trkpt><trkpt lat="44.7018133" lon="9.9821433"><ele>356.0</ele><time>2026-04-06T13:39:43.507Z</time></trkpt><trkpt lat="44.70167" lon="9.98223"><ele>357.0</ele><time>2026-04-06T13:39:44.507Z</time></trkpt><trkpt lat="44.7015133" lon="9.982325"><ele>358.0</ele><time>2026-04-06T13:39:45.506Z</time></trkpt><trkpt lat="44.7013633" lon="9.98244"><ele>359.0</ele><time>2026-04-06T13:39:46.507Z</time></trkpt><trkpt lat="44.7012167" lon="9.9825567"><ele>358.0</ele><time>2026-04-06T13:39:47.507Z</time></trkpt><trkpt lat="44.7010767" lon="9.9826517"><ele>357.0</ele><time>2026-04-06T13:39:48.506Z</time></trkpt><trkpt lat="44.7009417" lon="9.9826867"><ele>356.0</ele><time>2026-04-06T13:39:49.506Z</time></trkpt><trkpt lat="44.7008117" lon="9.9826733"><ele>355.0</ele><time>2026-04-06T13:39:50.507Z</time></trkpt><trkpt lat="44.7007067" lon="9.9825"><ele>355.0</ele><time>2026-04-06T13:39:51.507Z</time></trkpt><trkpt lat="44.700625" lon="9.9823483"><ele>355.0</ele><time>2026-04-06T13:39:52.506Z</time></trkpt><trkpt lat="44.700535" lon="9.982225"><ele>355.0</ele><time>2026-04-06T13:39:53.506Z</time></trkpt><trkpt lat="44.700415" lon="9.982115"><ele>355.0</ele><time>2026-04-06T13:39:54.507Z</time></trkpt><trkpt lat="44.7002967" lon="9.9820183"><ele>356.5</ele><time>2026-04-06T13:39:55.506Z</time></trkpt><trkpt lat="44.7001683" lon="9.9819517"><ele>358.0</ele><time>2026-04-06T13:39:56.507Z</time></trkpt><trkpt lat="44.7000317" lon="9.9818933"><ele>359.5</ele><time>2026-04-06T13:39:57.507Z</time></trkpt><trkpt lat="44.6998967" lon="9.9818183"><ele>361.0</ele><time>2026-04-06T13:39:58.506Z</time></trkpt><trkpt lat="44.6997783" lon="9.9817333"><ele>355.75</ele><time>2026-04-06T13:39:59.507Z</time></trkpt><trkpt lat="44.69967" lon="9.98167"><ele>350.5</ele><time>2026-04-06T13:40:00.507Z</time></trkpt><trkpt lat="44.699565" lon="9.9816267"><ele>345.25</ele><time>2026-04-06T13:40:01.507Z</time></trkpt><trkpt lat="44.6994583" lon="9.9816033"><ele>340.0</ele><time>2026-04-06T13:40:02.507Z</time></trkpt><trkpt lat="44.6992967" lon="9.9816817"><ele>340.0</ele><time>2026-04-06T13:40:03.506Z</time></trkpt><trkpt lat="44.699145" lon="9.9817233"><ele>340.0</ele><time>2026-04-06T13:40:04.506Z</time></trkpt><trkpt lat="44.6989917" lon="9.9817117"><ele>340.0</ele><time>2026-04-06T13:40:05.507Z</time></trkpt><trkpt lat="44.698825" lon="9.9816467"><ele>340.0</ele><time>2026-04-06T13:40:06.506Z</time></trkpt><trkpt lat="44.6986767" lon="9.981545"><ele>340.0</ele><time>2026-04-06T13:40:07.506Z</time></trkpt><trkpt lat="44.69854" lon="9.98142"><ele>340.0</ele><time>2026-04-06T13:40:08.507Z</time></trkpt><trkpt lat="44.69843" lon="9.9812567"><ele>340.0</ele><time>2026-04-06T13:40:09.507Z</time></trkpt><trkpt lat="44.6983417" lon="9.9810717"><ele>340.0</ele><time>2026-04-06T13:40:10.506Z</time></trkpt><trkpt lat="44.6982517" lon="9.9809083"><ele>340.0</ele><time>2026-04-06T13:40:11.506Z</time></trkpt><trkpt lat="44.69817" lon="9.9807517"><ele>340.0</ele><time>2026-04-06T13:40:12.506Z</time></trkpt><trkpt lat="44.69807" lon="9.9806317"><ele>338.25</ele><time>2026-04-06T13:40:13.507Z</time></trkpt><trkpt lat="44.6979617" lon="9.9805417"><ele>336.5</ele><time>2026-04-06T13:40:14.507Z</time></trkpt><trkpt lat="44.6978317" lon="9.9805217"><ele>334.75</ele><time>2026-04-06T13:40:15.506Z</time></trkpt><trkpt lat="44.6977017" lon="9.9805233"><ele>333.0</ele><time>2026-04-06T13:40:16.506Z</time></trkpt><trkpt lat="44.6975617" lon="9.98059"><ele>333.0</ele><time>2026-04-06T13:40:17.506Z</time></trkpt><trkpt lat="44.697425" lon="9.9807233"><ele>333.0</ele><time>2026-04-06T13:40:18.506Z</time></trkpt><trkpt lat="44.6973383" lon="9.98089"><ele>333.0</ele><time>2026-04-06T13:40:19.506Z</time></trkpt><trkpt lat="44.6973133" lon="9.9810467"><ele>333.0</ele><time>2026-04-06T13:40:20.506Z</time></trkpt><trkpt lat="44.6973567" lon="9.9812833"><ele>333.0</ele><time>2026-04-06T13:40:21.506Z</time></trkpt><trkpt lat="44.6974367" lon="9.9815233"><ele>333.0</ele><time>2026-04-06T13:40:22.507Z</time></trkpt><trkpt lat="44.6974967" lon="9.9817433"><ele>333.0</ele><time>2026-04-06T13:40:23.506Z</time></trkpt><trkpt lat="44.6975817" lon="9.982"><ele>330.3333333333333</ele><time>2026-04-06T13:40:24.507Z</time></trkpt><trkpt lat="44.6976417" lon="9.98226"><ele>327.66666666666663</ele><time>2026-04-06T13:40:25.506Z</time></trkpt><trkpt lat="44.6977017" lon="9.98253"><ele>325.0</ele><time>2026-04-06T13:40:26.507Z</time></trkpt><trkpt lat="44.6977567" lon="9.9827883"><ele>333.3333333333333</ele><time>2026-04-06T13:40:27.506Z</time></trkpt><trkpt lat="44.6978167" lon="9.9830333"><ele>341.6666666666667</ele><time>2026-04-06T13:40:28.506Z</time></trkpt><trkpt lat="44.6978683" lon="9.983275"><ele>350.0</ele><time>2026-04-06T13:40:29.506Z</time></trkpt><trkpt lat="44.69792" lon="9.98349"><ele>349.25</ele><time>2026-04-06T13:40:30.506Z</time></trkpt><trkpt lat="44.6979533" lon="9.9836883"><ele>348.5</ele><time>2026-04-06T13:40:31.507Z</time></trkpt><trkpt lat="44.6979417" lon="9.983865"><ele>347.75</ele><time>2026-04-06T13:40:32.506Z</time></trkpt><trkpt lat="44.697885" lon="9.9840417"><ele>347.0</ele><time>2026-04-06T13:40:33.507Z</time></trkpt><trkpt lat="44.697705" lon="9.984185"><ele>347.0</ele><time>2026-04-06T13:40:34.507Z</time></trkpt><trkpt lat="44.6975417" lon="9.98435"><ele>347.0</ele><time>2026-04-06T13:40:35.506Z</time></trkpt><trkpt lat="44.6973917" lon="9.984515"><ele>347.0</ele><time>2026-04-06T13:40:36.506Z</time></trkpt><trkpt lat="44.6972467" lon="9.9846633"><ele>347.0</ele><time>2026-04-06T13:40:37.506Z</time></trkpt><trkpt lat="44.6971033" lon="9.9847983"><ele>347.0</ele><time>2026-04-06T13:40:38.506Z</time></trkpt><trkpt lat="44.6969733" lon="9.9849217"><ele>347.0</ele><time>2026-04-06T13:40:39.507Z</time></trkpt><trkpt lat="44.6968233" lon="9.985035"><ele>345.33333333333337</ele><time>2026-04-06T13:40:40.506Z</time></trkpt><trkpt lat="44.6966733" lon="9.9851167"><ele>343.6666666666667</ele><time>2026-04-06T13:40:41.506Z</time></trkpt><trkpt lat="44.6965217" lon="9.985175"><ele>342.0</ele><time>2026-04-06T13:40:42.506Z</time></trkpt><trkpt lat="44.6963683" lon="9.9852417"><ele>342.0</ele><time>2026-04-06T13:40:43.507Z</time></trkpt><trkpt lat="44.696225" lon="9.9853183"><ele>342.0</ele><time>2026-04-06T13:40:44.507Z</time></trkpt><trkpt lat="44.6960967" lon="9.9854017"><ele>342.0</ele><time>2026-04-06T13:40:45.507Z</time></trkpt><trkpt lat="44.6959683" lon="9.9855183"><ele>342.0</ele><time>2026-04-06T13:40:46.507Z</time></trkpt><trkpt lat="44.69587" lon="9.985675"><ele>337.3333333333333</ele><time>2026-04-06T13:40:47.506Z</time></trkpt><trkpt lat="44.6957717" lon="9.9858483"><ele>332.66666666666663</ele><time>2026-04-06T13:40:48.506Z</time></trkpt><trkpt lat="44.6956733" lon="9.98604"><ele>328.0</ele><time>2026-04-06T13:40:49.507Z</time></trkpt><trkpt lat="44.6955617" lon="9.986235"><ele>328.0</ele><time>2026-04-06T13:40:50.506Z</time></trkpt><trkpt lat="44.6954333" lon="9.9864183"><ele>328.0</ele><time>2026-04-06T13:40:51.506Z</time></trkpt><trkpt lat="44.6953033" lon="9.9865983"><ele>328.0</ele><time>2026-04-06T13:40:52.506Z</time></trkpt><trkpt lat="44.6951683" lon="9.9867733"><ele>322.66666666666663</ele><time>2026-04-06T13:40:53.506Z</time></trkpt><trkpt lat="44.6950483" lon="9.9869167"><ele>317.3333333333333</ele><time>2026-04-06T13:40:54.506Z</time></trkpt><trkpt lat="44.6949133" lon="9.9870567"><ele>312.0</ele><time>2026-04-06T13:40:55.506Z</time></trkpt><trkpt lat="44.6947817" lon="9.98721"><ele>312.0</ele><time>2026-04-06T13:40:56.507Z</time></trkpt><trkpt lat="44.694635" lon="9.987365"><ele>312.0</ele><time>2026-04-06T13:40:57.506Z</time></trkpt><trkpt lat="44.6945367" lon="9.9875367"><ele>312.0</ele><time>2026-04-06T13:40:58.506Z</time></trkpt><trkpt lat="44.6944883" lon="9.9877"><ele>313.0</ele><time>2026-04-06T13:40:59.506Z</time></trkpt><trkpt lat="44.6944817" lon="9.9878617"><ele>314.0</ele><time>2026-04-06T13:41:00.507Z</time></trkpt><trkpt lat="44.6944933" lon="9.98802"><ele>315.0</ele><time>2026-04-06T13:41:01.507Z</time></trkpt><trkpt lat="44.6945" lon="9.9881683"><ele>316.0</ele><time>2026-04-06T13:41:02.506Z</time></trkpt><trkpt lat="44.694485" lon="9.988305"><ele>317.0</ele><time>2026-04-06T13:41:03.506Z</time></trkpt><trkpt lat="44.6944383" lon="9.98843"><ele>315.0</ele><time>2026-04-06T13:41:04.506Z</time></trkpt><trkpt lat="44.6943533" lon="9.9885217"><ele>313.0</ele><time>2026-04-06T13:41:05.506Z</time></trkpt><trkpt lat="44.69422" lon="9.9885633"><ele>311.0</ele><time>2026-04-06T13:41:06.507Z</time></trkpt><trkpt lat="44.69406" lon="9.9885933"><ele>309.0</ele><time>2026-04-06T13:41:07.506Z</time></trkpt><trkpt lat="44.69392" lon="9.9886217"><ele>309.0</ele><time>2026-04-06T13:41:08.507Z</time></trkpt><trkpt lat="44.693785" lon="9.9886567"><ele>309.0</ele><time>2026-04-06T13:41:09.506Z</time></trkpt><trkpt lat="44.693655" lon="9.988705"><ele>309.0</ele><time>2026-04-06T13:41:10.507Z</time></trkpt><trkpt lat="44.6935283" lon="9.9887683"><ele>309.0</ele><time>2026-04-06T13:41:11.506Z</time></trkpt><trkpt lat="44.693415" lon="9.98884"><ele>304.25</ele><time>2026-04-06T13:41:12.507Z</time></trkpt><trkpt lat="44.6933183" lon="9.9889433"><ele>299.5</ele><time>2026-04-06T13:41:13.507Z</time></trkpt><trkpt lat="44.6932583" lon="9.9890717"><ele>294.75</ele><time>2026-04-06T13:41:14.506Z</time></trkpt><trkpt lat="44.6932167" lon="9.9892183"><ele>290.0</ele><time>2026-04-06T13:41:15.506Z</time></trkpt><trkpt lat="44.6931967" lon="9.98939"><ele>290.0</ele><time>2026-04-06T13:41:16.506Z</time></trkpt><trkpt lat="44.6931983" lon="9.989585"><ele>290.0</ele><time>2026-04-06T13:41:17.505Z</time></trkpt><trkpt lat="44.69321" lon="9.98978"><ele>290.0</ele><time>2026-04-06T13:41:18.505Z</time></trkpt><trkpt lat="44.693215" lon="9.9899917"><ele>290.0</ele><time>2026-04-06T13:41:19.505Z</time></trkpt><trkpt lat="44.6932283" lon="9.990175"><ele>288.8</ele><time>2026-04-06T13:41:20.506Z</time></trkpt><trkpt lat="44.6932583" lon="9.990315"><ele>287.6</ele><time>2026-04-06T13:41:21.505Z</time></trkpt><trkpt lat="44.69331" lon="9.990445"><ele>286.4</ele><time>2026-04-06T13:41:22.506Z</time></trkpt><trkpt lat="44.6933783" lon="9.9905667"><ele>285.2</ele><time>2026-04-06T13:41:23.505Z</time></trkpt><trkpt lat="44.6934483" lon="9.99069"><ele>284.0</ele><time>2026-04-06T13:41:24.506Z</time></trkpt><trkpt lat="44.6935017" lon="9.9908367"><ele>284.5</ele><time>2026-04-06T13:41:25.505Z</time></trkpt><trkpt lat="44.6935367" lon="9.9909883"><ele>285.0</ele><time>2026-04-06T13:41:26.505Z</time></trkpt><trkpt lat="44.6935683" lon="9.991145"><ele>285.5</ele><time>2026-04-06T13:41:27.505Z</time></trkpt><trkpt lat="44.693565" lon="9.9913133"><ele>286.0</ele><time>2026-04-06T13:41:28.506Z</time></trkpt><trkpt lat="44.69354" lon="9.9914867"><ele>286.0</ele><time>2026-04-06T13:41:29.506Z</time></trkpt><trkpt lat="44.693495" lon="9.9916633"><ele>286.0</ele><time>2026-04-06T13:41:30.506Z</time></trkpt><trkpt lat="44.6934283" lon="9.991815"><ele>286.0</ele><time>2026-04-06T13:41:31.506Z</time></trkpt><trkpt lat="44.6933583" lon="9.99196"><ele>286.0</ele><time>2026-04-06T13:41:32.505Z</time></trkpt><trkpt lat="44.6932617" lon="9.9920817"><ele>286.8</ele><time>2026-04-06T13:41:33.505Z</time></trkpt><trkpt lat="44.693215" lon="9.9922117"><ele>287.6</ele><time>2026-04-06T13:41:34.506Z</time></trkpt><trkpt lat="44.6932367" lon="9.992365"><ele>288.4</ele><time>2026-04-06T13:41:35.505Z</time></trkpt><trkpt lat="44.6932733" lon="9.9925283"><ele>289.2</ele><time>2026-04-06T13:41:36.505Z</time></trkpt><trkpt lat="44.6932967" lon="9.9926667"><ele>290.0</ele><time>2026-04-06T13:41:37.506Z</time></trkpt><trkpt lat="44.693305" lon="9.9928217"><ele>290.0</ele><time>2026-04-06T13:41:38.506Z</time></trkpt><trkpt lat="44.693295" lon="9.9930017"><ele>290.0</ele><time>2026-04-06T13:41:39.506Z</time></trkpt><trkpt lat="44.693245" lon="9.9931533"><ele>290.0</ele><time>2026-04-06T13:41:40.506Z</time></trkpt><trkpt lat="44.6931767" lon="9.9932933"><ele>290.0</ele><time>2026-04-06T13:41:41.505Z</time></trkpt><trkpt lat="44.69306" lon="9.9934367"><ele>285.33333333333337</ele><time>2026-04-06T13:41:42.506Z</time></trkpt><trkpt lat="44.6929383" lon="9.9935717"><ele>280.6666666666667</ele><time>2026-04-06T13:41:43.505Z</time></trkpt><trkpt lat="44.69283" lon="9.9937183"><ele>276.0</ele><time>2026-04-06T13:41:44.506Z</time></trkpt><trkpt lat="44.6927383" lon="9.9938983"><ele>276.0</ele><time>2026-04-06T13:41:45.505Z</time></trkpt><trkpt lat="44.6926633" lon="9.994105"><ele>276.0</ele><time>2026-04-06T13:41:46.505Z</time></trkpt><trkpt lat="44.692595" lon="9.994325"><ele>276.0</ele><time>2026-04-06T13:41:47.506Z</time></trkpt><trkpt lat="44.6925383" lon="9.9945367"><ele>275.25</ele><time>2026-04-06T13:41:48.506Z</time></trkpt><trkpt lat="44.6924633" lon="9.9947267"><ele>274.5</ele><time>2026-04-06T13:41:49.506Z</time></trkpt><trkpt lat="44.69241" lon="9.9949183"><ele>273.75</ele><time>2026-04-06T13:41:50.506Z</time></trkpt><trkpt lat="44.692385" lon="9.9951017"><ele>273.0</ele><time>2026-04-06T13:41:51.505Z</time></trkpt><trkpt lat="44.6923633" lon="9.99526"><ele>271.5</ele><time>2026-04-06T13:41:52.505Z</time></trkpt><trkpt lat="44.6923733" lon="9.995415"><ele>270.0</ele><time>2026-04-06T13:41:53.506Z</time></trkpt><trkpt lat="44.6923933" lon="9.995585"><ele>268.5</ele><time>2026-04-06T13:41:54.505Z</time></trkpt><trkpt lat="44.6924517" lon="9.9957567"><ele>267.0</ele><time>2026-04-06T13:41:55.506Z</time></trkpt><trkpt lat="44.6924983" lon="9.9959133"><ele>267.0</ele><time>2026-04-06T13:41:56.505Z</time></trkpt><trkpt lat="44.6925383" lon="9.9960833"><ele>267.0</ele><time>2026-04-06T13:41:57.505Z</time></trkpt><trkpt lat="44.6925267" lon="9.9962667"><ele>267.0</ele><time>2026-04-06T13:41:58.506Z</time></trkpt><trkpt lat="44.6924867" lon="9.9964583"><ele>267.0</ele><time>2026-04-06T13:41:59.505Z</time></trkpt><trkpt lat="44.69243" lon="9.99665"><ele>268.6666666666667</ele><time>2026-04-06T13:42:00.506Z</time></trkpt><trkpt lat="44.6923633" lon="9.9968467"><ele>270.33333333333337</ele><time>2026-04-06T13:42:01.505Z</time></trkpt><trkpt lat="44.6922933" lon="9.9970433"><ele>272.0</ele><time>2026-04-06T13:42:02.505Z</time></trkpt><trkpt lat="44.6922267" lon="9.997225"><ele>272.0</ele><time>2026-04-06T13:42:03.505Z</time></trkpt><trkpt lat="44.6921317" lon="9.9973883"><ele>272.0</ele><time>2026-04-06T13:42:04.505Z</time></trkpt><trkpt lat="44.6920333" lon="9.9975133"><ele>272.0</ele><time>2026-04-06T13:42:05.506Z</time></trkpt><trkpt lat="44.6919167" lon="9.9976083"><ele>272.0</ele><time>2026-04-06T13:42:06.506Z</time></trkpt><trkpt lat="44.6917767" lon="9.99769"><ele>268.75</ele><time>2026-04-06T13:42:07.505Z</time></trkpt><trkpt lat="44.6916517" lon="9.997795"><ele>265.5</ele><time>2026-04-06T13:42:08.505Z</time></trkpt><trkpt lat="44.6915467" lon="9.9979267"><ele>262.25</ele><time>2026-04-06T13:42:09.505Z</time></trkpt><trkpt lat="44.69146" lon="9.9980733"><ele>259.0</ele><time>2026-04-06T13:42:10.506Z</time></trkpt><trkpt lat="44.6913967" lon="9.9982317"><ele>258.0</ele><time>2026-04-06T13:42:11.505Z</time></trkpt><trkpt lat="44.6913183" lon="9.9983733"><ele>257.0</ele><time>2026-04-06T13:42:12.505Z</time></trkpt><trkpt lat="44.69132" lon="9.9985433"><ele>256.0</ele><time>2026-04-06T13:42:13.506Z</time></trkpt><trkpt lat="44.6913583" lon="9.9987167"><ele>255.0</ele><time>2026-04-06T13:42:14.505Z</time></trkpt><trkpt lat="44.6914233" lon="9.99886"><ele>255.0</ele><time>2026-04-06T13:42:15.505Z</time></trkpt><trkpt lat="44.691475" lon="9.9989933"><ele>255.0</ele><time>2026-04-06T13:42:16.505Z</time></trkpt><trkpt lat="44.69147" lon="9.9991317"><ele>255.0</ele><time>2026-04-06T13:42:17.505Z</time></trkpt><trkpt lat="44.691445" lon="9.9992717"><ele>255.0</ele><time>2026-04-06T13:42:18.506Z</time></trkpt><trkpt lat="44.6913783" lon="9.9994017"><ele>255.0</ele><time>2026-04-06T13:42:19.506Z</time></trkpt><trkpt lat="44.6912883" lon="9.9994767"><ele>255.4</ele><time>2026-04-06T13:42:20.506Z</time></trkpt><trkpt lat="44.6911933" lon="9.9995383"><ele>255.8</ele><time>2026-04-06T13:42:21.505Z</time></trkpt><trkpt lat="44.6911033" lon="9.9996133"><ele>256.2</ele><time>2026-04-06T13:42:22.505Z</time></trkpt><trkpt lat="44.6910167" lon="9.999705"><ele>256.6</ele><time>2026-04-06T13:42:23.506Z</time></trkpt><trkpt lat="44.6909667" lon="9.9998167"><ele>257.0</ele><time>2026-04-06T13:42:24.506Z</time></trkpt><trkpt lat="44.690965" lon="9.9999733"><ele>257.0</ele><time>2026-04-06T13:42:25.505Z</time></trkpt><trkpt lat="44.6910167" lon="10.0001767"><ele>257.0</ele><time>2026-04-06T13:42:26.505Z</time></trkpt><trkpt lat="44.691085" lon="10.0004083"><ele>257.0</ele><time>2026-04-06T13:42:27.506Z</time></trkpt><trkpt lat="44.6911367" lon="10.0006417"><ele>256.75</ele><time>2026-04-06T13:42:28.506Z</time></trkpt><trkpt lat="44.6911683" lon="10.0008367"><ele>256.5</ele><time>2026-04-06T13:42:29.505Z</time></trkpt><trkpt lat="44.6911883" lon="10.0010233"><ele>256.25</ele><time>2026-04-06T13:42:30.506Z</time></trkpt><trkpt lat="44.6911833" lon="10.00119"><ele>256.0</ele><time>2026-04-06T13:42:31.506Z</time></trkpt><trkpt lat="44.6911633" lon="10.0013033"><ele>256.0</ele><time>2026-04-06T13:42:32.506Z</time></trkpt><trkpt lat="44.69111" lon="10.0014"><ele>256.0</ele><time>2026-04-06T13:42:33.506Z</time></trkpt><trkpt lat="44.6909933" lon="10.0014733"><ele>256.0</ele><time>2026-04-06T13:42:35.505Z</time></trkpt><trkpt lat="44.69092" lon="10.00144"><ele>256.0</ele><time>2026-04-06T13:42:36.506Z</time></trkpt><trkpt lat="44.690855" lon="10.0014"><ele>256.0</ele><time>2026-04-06T13:42:37.505Z</time></trkpt><trkpt lat="44.6908267" lon="10.00125"><ele>250.25</ele><time>2026-04-06T13:42:38.506Z</time></trkpt><trkpt lat="44.690825" lon="10.0010467"><ele>244.5</ele><time>2026-04-06T13:42:39.505Z</time></trkpt><trkpt lat="44.6908467" lon="10.0008267"><ele>238.75</ele><time>2026-04-06T13:42:40.506Z</time></trkpt><trkpt lat="44.6908333" lon="10.0006767"><ele>233.0</ele><time>2026-04-06T13:42:41.506Z</time></trkpt><trkpt lat="44.69085" lon="10.00052"><ele>233.0</ele><time>2026-04-06T13:42:42.505Z</time></trkpt><trkpt lat="44.6908283" lon="10.0004017"><ele>233.0</ele><time>2026-04-06T13:42:43.505Z</time></trkpt><trkpt lat="44.6907133" lon="10.0003267"><ele>233.0</ele><time>2026-04-06T13:42:45.506Z</time></trkpt><trkpt lat="44.690625" lon="10.0003183"><ele>233.0</ele><time>2026-04-06T13:42:47.506Z</time></trkpt><trkpt lat="44.6905683" lon="10.0005033"><ele>233.0</ele><time>2026-04-06T13:42:49.505Z</time></trkpt><trkpt lat="44.6905467" lon="10.0006733"><ele>232.5</ele><time>2026-04-06T13:42:50.505Z</time></trkpt><trkpt lat="44.6905367" lon="10.0009033"><ele>232.0</ele><time>2026-04-06T13:42:51.506Z</time></trkpt><trkpt lat="44.6905267" lon="10.0014483"><ele>233.5</ele><time>2026-04-06T13:42:52.506Z</time></trkpt><trkpt lat="44.6905367" lon="10.0017633"><ele>235.0</ele><time>2026-04-06T13:42:53.505Z</time></trkpt><trkpt lat="44.69052" lon="10.0022717"><ele>237.5</ele><time>2026-04-06T13:42:54.506Z</time></trkpt><trkpt lat="44.69046" lon="10.0026283"><ele>240.0</ele><time>2026-04-06T13:42:55.505Z</time></trkpt><trkpt lat="44.6903983" lon="10.0029133"><ele>240.0</ele><time>2026-04-06T13:42:56.506Z</time></trkpt><trkpt lat="44.6903567" lon="10.003165"><ele>240.0</ele><time>2026-04-06T13:42:57.506Z</time></trkpt><trkpt lat="44.6903167" lon="10.0033917"><ele>240.0</ele><time>2026-04-06T13:42:58.505Z</time></trkpt><trkpt lat="44.6902633" lon="10.0036183"><ele>230.66666666666669</ele><time>2026-04-06T13:42:59.506Z</time></trkpt><trkpt lat="44.6902217" lon="10.0038483"><ele>221.33333333333334</ele><time>2026-04-06T13:43:00.505Z</time></trkpt><trkpt lat="44.69018" lon="10.0040417"><ele>212.0</ele><time>2026-04-06T13:43:01.505Z</time></trkpt><trkpt lat="44.69013" lon="10.0042233"><ele>211.75</ele><time>2026-04-06T13:43:02.505Z</time></trkpt><trkpt lat="44.6900817" lon="10.0044117"><ele>211.5</ele><time>2026-04-06T13:43:03.505Z</time></trkpt><trkpt lat="44.6900233" lon="10.004595"><ele>211.25</ele><time>2026-04-06T13:43:04.505Z</time></trkpt><trkpt lat="44.689965" lon="10.0047783"><ele>211.0</ele><time>2026-04-06T13:43:05.506Z</time></trkpt><trkpt lat="44.68988" lon="10.004965"><ele>210.0</ele><time>2026-04-06T13:43:06.505Z</time></trkpt><trkpt lat="44.6897967" lon="10.0051433"><ele>209.0</ele><time>2026-04-06T13:43:07.506Z</time></trkpt><trkpt lat="44.6897133" lon="10.005305"><ele>208.0</ele><time>2026-04-06T13:43:08.505Z</time></trkpt><trkpt lat="44.6896283" lon="10.005465"><ele>207.0</ele><time>2026-04-06T13:43:09.505Z</time></trkpt><trkpt lat="44.6895367" lon="10.0056317"><ele>207.0</ele><time>2026-04-06T13:43:10.505Z</time></trkpt><trkpt lat="44.6894533" lon="10.0057883"><ele>207.0</ele><time>2026-04-06T13:43:11.506Z</time></trkpt><trkpt lat="44.6893817" lon="10.0059317"><ele>207.0</ele><time>2026-04-06T13:43:12.506Z</time></trkpt><trkpt lat="44.6893117" lon="10.0060683"><ele>207.0</ele><time>2026-04-06T13:43:13.505Z</time></trkpt><trkpt lat="44.6892367" lon="10.0062133"><ele>206.8</ele><time>2026-04-06T13:43:14.505Z</time></trkpt><trkpt lat="44.68918" lon="10.0063483"><ele>206.6</ele><time>2026-04-06T13:43:15.505Z</time></trkpt><trkpt lat="44.6891283" lon="10.0064817"><ele>206.4</ele><time>2026-04-06T13:43:16.505Z</time></trkpt><trkpt lat="44.6890717" lon="10.0066167"><ele>206.20000000000002</ele><time>2026-04-06T13:43:17.505Z</time></trkpt><trkpt lat="44.689015" lon="10.0067533"><ele>206.0</ele><time>2026-04-06T13:43:18.505Z</time></trkpt><trkpt lat="44.688965" lon="10.0069"><ele>205.20000000000002</ele><time>2026-04-06T13:43:19.505Z</time></trkpt><trkpt lat="44.68891" lon="10.007045"><ele>204.4</ele><time>2026-04-06T13:43:20.506Z</time></trkpt><trkpt lat="44.68886" lon="10.007185"><ele>203.6</ele><time>2026-04-06T13:43:21.505Z</time></trkpt><trkpt lat="44.68881" lon="10.0073133"><ele>202.8</ele><time>2026-04-06T13:43:22.505Z</time></trkpt><trkpt lat="44.6887183" lon="10.007415"><ele>202.0</ele><time>2026-04-06T13:43:23.505Z</time></trkpt><trkpt lat="44.68867" lon="10.007525"><ele>201.39999999999998</ele><time>2026-04-06T13:43:24.505Z</time></trkpt><trkpt lat="44.6886317" lon="10.007615"><ele>200.79999999999998</ele><time>2026-04-06T13:43:25.505Z</time></trkpt><trkpt lat="44.688575" lon="10.0076783"><ele>200.2</ele><time>2026-04-06T13:43:26.505Z</time></trkpt><trkpt lat="44.6884983" lon="10.0077783"><ele>199.6</ele><time>2026-04-06T13:43:28.505Z</time></trkpt><trkpt lat="44.68834" lon="10.007705"><ele>199.0</ele><time>2026-04-06T13:43:30.506Z</time></trkpt><trkpt lat="44.6882783" lon="10.0076583"><ele>199.0</ele><time>2026-04-06T13:43:31.505Z</time></trkpt><trkpt lat="44.6881733" lon="10.0076833"><ele>199.0</ele><time>2026-04-06T13:43:33.506Z</time></trkpt><trkpt lat="44.6881" lon="10.0078333"><ele>199.0</ele><time>2026-04-06T13:43:35.506Z</time></trkpt><trkpt lat="44.68806" lon="10.0079583"><ele>199.0</ele><time>2026-04-06T13:43:36.506Z</time></trkpt><trkpt lat="44.6880217" lon="10.0081283"><ele>198.0</ele><time>2026-04-06T13:43:37.505Z</time></trkpt><trkpt lat="44.6879917" lon="10.008335"><ele>197.0</ele><time>2026-04-06T13:43:38.506Z</time></trkpt><trkpt lat="44.6879733" lon="10.008545"><ele>196.0</ele><time>2026-04-06T13:43:39.505Z</time></trkpt><trkpt lat="44.688" lon="10.008735"><ele>195.0</ele><time>2026-04-06T13:43:40.505Z</time></trkpt><trkpt lat="44.6880067" lon="10.00893"><ele>195.0</ele><time>2026-04-06T13:43:41.505Z</time></trkpt><trkpt lat="44.6879983" lon="10.0091267"><ele>195.0</ele><time>2026-04-06T13:43:42.505Z</time></trkpt><trkpt lat="44.6879933" lon="10.00932"><ele>195.0</ele><time>2026-04-06T13:43:43.505Z</time></trkpt><trkpt lat="44.687995" lon="10.0095167"><ele>195.0</ele><time>2026-04-06T13:43:44.506Z</time></trkpt><trkpt lat="44.6879933" lon="10.0096933"><ele>195.5</ele><time>2026-04-06T13:43:45.505Z</time></trkpt><trkpt lat="44.688025" lon="10.0098517"><ele>196.0</ele><time>2026-04-06T13:43:46.505Z</time></trkpt><trkpt lat="44.68802" lon="10.0100067"><ele>196.5</ele><time>2026-04-06T13:43:47.505Z</time></trkpt><trkpt lat="44.688015" lon="10.0101633"><ele>197.0</ele><time>2026-04-06T13:43:48.505Z</time></trkpt><trkpt lat="44.6880217" lon="10.01033"><ele>197.6</ele><time>2026-04-06T13:43:49.505Z</time></trkpt><trkpt lat="44.6880217" lon="10.0105"><ele>198.2</ele><time>2026-04-06T13:43:50.506Z</time></trkpt><trkpt lat="44.6880017" lon="10.0106483"><ele>198.8</ele><time>2026-04-06T13:43:51.506Z</time></trkpt><trkpt lat="44.687975" lon="10.0107967"><ele>199.4</ele><time>2026-04-06T13:43:52.506Z</time></trkpt><trkpt lat="44.6879583" lon="10.0109517"><ele>200.0</ele><time>2026-04-06T13:43:53.505Z</time></trkpt><trkpt lat="44.6879133" lon="10.01109"><ele>200.8</ele><time>2026-04-06T13:43:54.505Z</time></trkpt><trkpt lat="44.6878667" lon="10.0112167"><ele>201.6</ele><time>2026-04-06T13:43:55.506Z</time></trkpt><trkpt lat="44.6878033" lon="10.0113483"><ele>202.39999999999998</ele><time>2026-04-06T13:43:56.506Z</time></trkpt><trkpt lat="44.6877467" lon="10.0114767"><ele>203.2</ele><time>2026-04-06T13:43:57.505Z</time></trkpt><trkpt lat="44.6876983" lon="10.011615"><ele>204.0</ele><time>2026-04-06T13:43:58.506Z</time></trkpt><trkpt lat="44.6876567" lon="10.01174"><ele>202.2</ele><time>2026-04-06T13:43:59.505Z</time></trkpt><trkpt lat="44.6876" lon="10.0118717"><ele>200.39999999999998</ele><time>2026-04-06T13:44:00.505Z</time></trkpt><trkpt lat="44.68755" lon="10.0120117"><ele>198.6</ele><time>2026-04-06T13:44:01.505Z</time></trkpt><trkpt lat="44.687505" lon="10.0121467"><ele>196.8</ele><time>2026-04-06T13:44:02.506Z</time></trkpt><trkpt lat="44.687455" lon="10.0122667"><ele>195.0</ele><time>2026-04-06T13:44:03.505Z</time></trkpt><trkpt lat="44.6874017" lon="10.0123967"><ele>195.2</ele><time>2026-04-06T13:44:04.505Z</time></trkpt><trkpt lat="44.6873667" lon="10.01252"><ele>195.4</ele><time>2026-04-06T13:44:05.506Z</time></trkpt><trkpt lat="44.6873333" lon="10.0126483"><ele>195.60000000000002</ele><time>2026-04-06T13:44:06.506Z</time></trkpt><trkpt lat="44.6872967" lon="10.01281"><ele>195.8</ele><time>2026-04-06T13:44:07.505Z</time></trkpt><trkpt lat="44.687255" lon="10.0129583"><ele>196.0</ele><time>2026-04-06T13:44:08.506Z</time></trkpt><trkpt lat="44.687225" lon="10.01307"><ele>196.0</ele><time>2026-04-06T13:44:09.505Z</time></trkpt><trkpt lat="44.6871917" lon="10.0131867"><ele>196.0</ele><time>2026-04-06T13:44:10.506Z</time></trkpt><trkpt lat="44.68716" lon="10.013335"><ele>196.0</ele><time>2026-04-06T13:44:11.505Z</time></trkpt><trkpt lat="44.6871183" lon="10.0134817"><ele>196.0</ele><time>2026-04-06T13:44:12.505Z</time></trkpt><trkpt lat="44.6870783" lon="10.0136367"><ele>196.0</ele><time>2026-04-06T13:44:13.506Z</time></trkpt><trkpt lat="44.687045" lon="10.01379"><ele>195.60000000000002</ele><time>2026-04-06T13:44:14.506Z</time></trkpt><trkpt lat="44.687005" lon="10.0139417"><ele>195.2</ele><time>2026-04-06T13:44:15.505Z</time></trkpt><trkpt lat="44.6869783" lon="10.0140683"><ele>194.8</ele><time>2026-04-06T13:44:16.506Z</time></trkpt><trkpt lat="44.6869567" lon="10.0142"><ele>194.39999999999998</ele><time>2026-04-06T13:44:17.505Z</time></trkpt><trkpt lat="44.6869383" lon="10.0143367"><ele>194.0</ele><time>2026-04-06T13:44:18.506Z</time></trkpt><trkpt lat="44.6869167" lon="10.014475"><ele>193.2</ele><time>2026-04-06T13:44:19.505Z</time></trkpt><trkpt lat="44.6868817" lon="10.01461"><ele>192.39999999999998</ele><time>2026-04-06T13:44:20.506Z</time></trkpt><trkpt lat="44.6868517" lon="10.0147617"><ele>191.6</ele><time>2026-04-06T13:44:21.506Z</time></trkpt><trkpt lat="44.68682" lon="10.0149117"><ele>190.8</ele><time>2026-04-06T13:44:22.506Z</time></trkpt><trkpt lat="44.68678" lon="10.0150667"><ele>190.0</ele><time>2026-04-06T13:44:23.505Z</time></trkpt><trkpt lat="44.68669" lon="10.01521"><ele>190.0</ele><time>2026-04-06T13:44:24.506Z</time></trkpt><trkpt lat="44.6866217" lon="10.0153483"><ele>190.0</ele><time>2026-04-06T13:44:25.505Z</time></trkpt><trkpt lat="44.6865517" lon="10.0154733"><ele>190.0</ele><time>2026-04-06T13:44:26.506Z</time></trkpt><trkpt lat="44.686485" lon="10.0156"><ele>190.0</ele><time>2026-04-06T13:44:27.505Z</time></trkpt><trkpt lat="44.6864317" lon="10.0157283"><ele>190.6</ele><time>2026-04-06T13:44:28.505Z</time></trkpt><trkpt lat="44.686375" lon="10.0158467"><ele>191.2</ele><time>2026-04-06T13:44:29.505Z</time></trkpt><trkpt lat="44.6863167" lon="10.0159583"><ele>191.8</ele><time>2026-04-06T13:44:30.505Z</time></trkpt><trkpt lat="44.686255" lon="10.0160483"><ele>192.4</ele><time>2026-04-06T13:44:31.506Z</time></trkpt><trkpt lat="44.6861833" lon="10.0161317"><ele>193.0</ele><time>2026-04-06T13:44:32.506Z</time></trkpt><trkpt lat="44.6861017" lon="10.0162"><ele>190.75</ele><time>2026-04-06T13:44:33.506Z</time></trkpt><trkpt lat="44.6860067" lon="10.0162533"><ele>188.5</ele><time>2026-04-06T13:44:34.506Z</time></trkpt><trkpt lat="44.6859" lon="10.01629"><ele>186.25</ele><time>2026-04-06T13:44:35.506Z</time></trkpt><trkpt lat="44.6857867" lon="10.0163133"><ele>184.0</ele><time>2026-04-06T13:44:36.506Z</time></trkpt><trkpt lat="44.6856533" lon="10.0163217"><ele>184.0</ele><time>2026-04-06T13:44:37.505Z</time></trkpt><trkpt lat="44.685545" lon="10.016325"><ele>184.0</ele><time>2026-04-06T13:44:38.506Z</time></trkpt><trkpt lat="44.685435" lon="10.01633"><ele>184.0</ele><time>2026-04-06T13:44:39.506Z</time></trkpt><trkpt lat="44.6853217" lon="10.0163367"><ele>184.0</ele><time>2026-04-06T13:44:40.505Z</time></trkpt><trkpt lat="44.68521" lon="10.0163467"><ele>184.0</ele><time>2026-04-06T13:44:41.506Z</time></trkpt><trkpt lat="44.6850917" lon="10.0163517"><ele>183.25</ele><time>2026-04-06T13:44:42.506Z</time></trkpt><trkpt lat="44.6849767" lon="10.01636"><ele>182.5</ele><time>2026-04-06T13:44:43.506Z</time></trkpt><trkpt lat="44.68486" lon="10.0163667"><ele>181.75</ele><time>2026-04-06T13:44:44.505Z</time></trkpt><trkpt lat="44.6847383" lon="10.0163733"><ele>181.0</ele><time>2026-04-06T13:44:45.505Z</time></trkpt><trkpt lat="44.68462" lon="10.0163767"><ele>181.0</ele><time>2026-04-06T13:44:46.506Z</time></trkpt><trkpt lat="44.6845" lon="10.016385"><ele>181.0</ele><time>2026-04-06T13:44:47.506Z</time></trkpt><trkpt lat="44.6843833" lon="10.0163883"><ele>181.0</ele><time>2026-04-06T13:44:48.505Z</time></trkpt><trkpt lat="44.68425" lon="10.0164"><ele>181.0</ele><time>2026-04-06T13:44:49.506Z</time></trkpt><trkpt lat="44.6840983" lon="10.01641"><ele>182.0</ele><time>2026-04-06T13:44:50.505Z</time></trkpt><trkpt lat="44.68396" lon="10.0164117"><ele>183.0</ele><time>2026-04-06T13:44:51.506Z</time></trkpt><trkpt lat="44.6838183" lon="10.0164033"><ele>184.0</ele><time>2026-04-06T13:44:52.506Z</time></trkpt><trkpt lat="44.6837167" lon="10.0164"><ele>185.0</ele><time>2026-04-06T13:44:53.506Z</time></trkpt><trkpt lat="44.6835967" lon="10.0164"><ele>183.0</ele><time>2026-04-06T13:44:54.506Z</time></trkpt><trkpt lat="44.6834817" lon="10.01641"><ele>181.0</ele><time>2026-04-06T13:44:55.505Z</time></trkpt><trkpt lat="44.683365" lon="10.01641"><ele>179.0</ele><time>2026-04-06T13:44:56.505Z</time></trkpt><trkpt lat="44.68324" lon="10.0164167"><ele>177.0</ele><time>2026-04-06T13:44:57.505Z</time></trkpt><trkpt lat="44.6831183" lon="10.0164167"><ele>177.0</ele><time>2026-04-06T13:44:58.505Z</time></trkpt><trkpt lat="44.6830017" lon="10.0164117"><ele>177.0</ele><time>2026-04-06T13:44:59.506Z</time></trkpt><trkpt lat="44.682885" lon="10.0164117"><ele>177.0</ele><time>2026-04-06T13:45:00.505Z</time></trkpt><trkpt lat="44.6827517" lon="10.016405"><ele>177.0</ele><time>2026-04-06T13:45:01.505Z</time></trkpt><trkpt lat="44.6826217" lon="10.016405"><ele>176.75</ele><time>2026-04-06T13:45:02.506Z</time></trkpt><trkpt lat="44.6824967" lon="10.0164167"><ele>176.5</ele><time>2026-04-06T13:45:03.506Z</time></trkpt><trkpt lat="44.6823717" lon="10.016445"><ele>176.25</ele><time>2026-04-06T13:45:04.505Z</time></trkpt><trkpt lat="44.6822367" lon="10.0164683"><ele>176.0</ele><time>2026-04-06T13:45:05.505Z</time></trkpt><trkpt lat="44.682115" lon="10.01649"><ele>176.0</ele><time>2026-04-06T13:45:06.505Z</time></trkpt><trkpt lat="44.6820017" lon="10.0165067"><ele>176.0</ele><time>2026-04-06T13:45:07.505Z</time></trkpt><trkpt lat="44.6818733" lon="10.016505"><ele>176.0</ele><time>2026-04-06T13:45:08.506Z</time></trkpt><trkpt lat="44.6817533" lon="10.016485"><ele>176.0</ele><time>2026-04-06T13:45:09.505Z</time></trkpt><trkpt lat="44.68163" lon="10.0164633"><ele>176.75</ele><time>2026-04-06T13:45:10.505Z</time></trkpt><trkpt lat="44.6815033" lon="10.0164483"><ele>177.5</ele><time>2026-04-06T13:45:11.506Z</time></trkpt><trkpt lat="44.68137" lon="10.0164267"><ele>178.25</ele><time>2026-04-06T13:45:12.505Z</time></trkpt><trkpt lat="44.681245" lon="10.0164033"><ele>179.0</ele><time>2026-04-06T13:45:13.505Z</time></trkpt><trkpt lat="44.6811283" lon="10.0163883"><ele>179.25</ele><time>2026-04-06T13:45:14.505Z</time></trkpt><trkpt lat="44.6810083" lon="10.016375"><ele>179.5</ele><time>2026-04-06T13:45:15.505Z</time></trkpt><trkpt lat="44.6808817" lon="10.016375"><ele>179.75</ele><time>2026-04-06T13:45:16.505Z</time></trkpt><trkpt lat="44.6807633" lon="10.0163633"><ele>180.0</ele><time>2026-04-06T13:45:17.505Z</time></trkpt><trkpt lat="44.6806517" lon="10.016365"><ele>180.0</ele><time>2026-04-06T13:45:18.506Z</time></trkpt><trkpt lat="44.6805433" lon="10.0163567"><ele>180.0</ele><time>2026-04-06T13:45:19.505Z</time></trkpt><trkpt lat="44.6804417" lon="10.0163567"><ele>180.0</ele><time>2026-04-06T13:45:20.505Z</time></trkpt><trkpt lat="44.680335" lon="10.016355"><ele>180.0</ele><time>2026-04-06T13:45:21.505Z</time></trkpt><trkpt lat="44.680225" lon="10.0163583"><ele>180.0</ele><time>2026-04-06T13:45:22.506Z</time></trkpt><trkpt lat="44.6801267" lon="10.0163567"><ele>180.33333333333334</ele><time>2026-04-06T13:45:23.505Z</time></trkpt><trkpt lat="44.680035" lon="10.0163667"><ele>180.66666666666666</ele><time>2026-04-06T13:45:24.506Z</time></trkpt><trkpt lat="44.67997" lon="10.01639"><ele>181.0</ele><time>2026-04-06T13:45:25.505Z</time></trkpt><trkpt lat="44.67989" lon="10.0164383"><ele>181.33333333333331</ele><time>2026-04-06T13:45:27.505Z</time></trkpt><trkpt lat="44.679845" lon="10.016575"><ele>181.66666666666666</ele><time>2026-04-06T13:45:29.506Z</time></trkpt><trkpt lat="44.6798383" lon="10.0166733"><ele>182.0</ele><time>2026-04-06T13:45:30.505Z</time></trkpt><trkpt lat="44.679845" lon="10.0167783"><ele>182.0</ele><time>2026-04-06T13:45:31.505Z</time></trkpt><trkpt lat="44.6798433" lon="10.0168683"><ele>182.0</ele><time>2026-04-06T13:45:32.505Z</time></trkpt><trkpt lat="44.67984" lon="10.0169617"><ele>182.0</ele><time>2026-04-06T13:45:33.505Z</time></trkpt><trkpt lat="44.6798433" lon="10.0171317"><ele>182.0</ele><time>2026-04-06T13:45:35.505Z</time></trkpt><trkpt lat="44.67985" lon="10.01722"><ele>182.0</ele><time>2026-04-06T13:45:36.506Z</time></trkpt><trkpt lat="44.679855" lon="10.0173083"><ele>182.0</ele><time>2026-04-06T13:45:37.506Z</time></trkpt><trkpt lat="44.6798667" lon="10.0174683"><ele>181.39999999999998</ele><time>2026-04-06T13:45:39.506Z</time></trkpt><trkpt lat="44.6798733" lon="10.0176067"><ele>180.79999999999998</ele><time>2026-04-06T13:45:41.505Z</time></trkpt><trkpt lat="44.67986" lon="10.0177617"><ele>180.2</ele><time>2026-04-06T13:45:43.505Z</time></trkpt><trkpt lat="44.6798517" lon="10.01785"><ele>179.6</ele><time>2026-04-06T13:45:44.506Z</time></trkpt><trkpt lat="44.6798533" lon="10.0180083"><ele>179.0</ele><time>2026-04-06T13:45:46.505Z</time></trkpt><trkpt lat="44.6798617" lon="10.01817"><ele>179.0</ele><time>2026-04-06T13:45:48.506Z</time></trkpt><trkpt lat="44.6798683" lon="10.0183167"><ele>179.0</ele><time>2026-04-06T13:45:50.505Z</time></trkpt><trkpt lat="44.679885" lon="10.01842"><ele>179.0</ele><time>2026-04-06T13:45:52.505Z</time></trkpt><trkpt lat="44.679955" lon="10.0184383"><ele>179.0</ele><time>2026-04-06T13:45:56.505Z</time></trkpt><trkpt lat="44.6800067" lon="10.0183683"><ele>179.0</ele><time>2026-04-06T13:45:58.504Z</time></trkpt><trkpt lat="44.6800617" lon="10.0182783"><ele>179.0</ele><time>2026-04-06T13:46:00.505Z</time></trkpt><trkpt lat="44.6800783" lon="10.0181733"><ele>179.0</ele><time>2026-04-06T13:46:03.505Z</time></trkpt></trkseg></trk></gpx>